<?xml version="1.0" encoding="UTF-8" standalone="no" ?>
<gpx xmlns="http://www.topografix.com/GPX/1/1" xmlns:xsi="http://www.w3.org/2001/XMLSchema-instance" xsi:schemaLocation="http://www.topografix.com/GPX/1/1 http://www.topografix.com/GPX/1/1/gpx.xsd" version="1.1" creator="VisuGPX - https://www.visugpx.com">
  <metadata>
    <name>Nord Toulousain avec Boucle Saint-Jean</name>
  </metadata>
  <trk>
    <name><![CDATA[Nord Toulousain avec Boucle Saint-Jean]]></name>
    <extensions>
      <line xmlns="http://www.topografix.com/GPX/gpx_style/0/2">
        <color>0000FF</color>
        <width>4</width>
      </line>
    </extensions>
    <trkseg>
      <trkpt lat="43.67614" lon="1.45317">
        <ele>188.174289</ele>
        <time>2022-08-08T06:42:57.800Z</time>
      </trkpt>
      <trkpt lat="43.67625" lon="1.45315">
        <ele>188.164425</ele>
        <time>2022-08-08T06:42:59.799Z</time>
      </trkpt>
      <trkpt lat="43.67636" lon="1.45315">
        <ele>188.154333</ele>
        <time>2022-08-08T06:43:01.794Z</time>
      </trkpt>
      <trkpt lat="43.67645" lon="1.4531">
        <ele>188.145864</ele>
        <time>2022-08-08T06:43:03.797Z</time>
      </trkpt>
      <trkpt lat="43.67657" lon="1.45313">
        <ele>188.134852</ele>
        <time>2022-08-08T06:43:06.783Z</time>
      </trkpt>
      <trkpt lat="43.67667" lon="1.45318">
        <ele>188.126256</ele>
        <time>2022-08-08T06:43:08.773Z</time>
      </trkpt>
      <trkpt lat="43.67677" lon="1.4532">
        <ele>188.116838</ele>
        <time>2022-08-08T06:43:10.793Z</time>
      </trkpt>
      <trkpt lat="43.67688" lon="1.45322">
        <ele>188.107352</ele>
        <time>2022-08-08T06:43:12.779Z</time>
      </trkpt>
      <trkpt lat="43.67698" lon="1.45326">
        <ele>188.097696</ele>
        <time>2022-08-08T06:43:14.803Z</time>
      </trkpt>
      <trkpt lat="43.67708" lon="1.45326">
        <ele>188.089023</ele>
        <time>2022-08-08T06:43:16.793Z</time>
      </trkpt>
      <trkpt lat="43.67717" lon="1.45323">
        <ele>188.08044</ele>
        <time>2022-08-08T06:43:18.804Z</time>
      </trkpt>
      <trkpt lat="43.67726" lon="1.45329">
        <ele>188.073812</ele>
        <time>2022-08-08T06:43:20.811Z</time>
      </trkpt>
      <trkpt lat="43.67734" lon="1.45337">
        <ele>188.151362</ele>
        <time>2022-08-08T06:43:22.795Z</time>
      </trkpt>
      <trkpt lat="43.67743" lon="1.45344">
        <ele>188.229692</ele>
        <time>2022-08-08T06:43:24.797Z</time>
      </trkpt>
      <trkpt lat="43.67751" lon="1.45351">
        <ele>188.300007</ele>
        <time>2022-08-08T06:43:26.775Z</time>
      </trkpt>
      <trkpt lat="43.67756" lon="1.45361">
        <ele>188.370067</ele>
        <time>2022-08-08T06:43:28.794Z</time>
      </trkpt>
      <trkpt lat="43.67764" lon="1.4537">
        <ele>188.447382</ele>
        <time>2022-08-08T06:43:30.797Z</time>
      </trkpt>
      <trkpt lat="43.67774" lon="1.45377">
        <ele>188.53094</ele>
        <time>2022-08-08T06:43:32.793Z</time>
      </trkpt>
      <trkpt lat="43.67783" lon="1.45385">
        <ele>188.612226</ele>
        <time>2022-08-08T06:43:34.789Z</time>
      </trkpt>
      <trkpt lat="43.67793" lon="1.45392">
        <ele>188.695117</ele>
        <time>2022-08-08T06:43:36.797Z</time>
      </trkpt>
      <trkpt lat="43.67802" lon="1.45398">
        <ele>188.776098</ele>
        <time>2022-08-08T06:43:38.795Z</time>
      </trkpt>
      <trkpt lat="43.67812" lon="1.45405">
        <ele>188.857989</ele>
        <time>2022-08-08T06:43:40.795Z</time>
      </trkpt>
      <trkpt lat="43.6782" lon="1.45413">
        <ele>188.936588</ele>
        <time>2022-08-08T06:43:42.785Z</time>
      </trkpt>
      <trkpt lat="43.67828" lon="1.45421">
        <ele>189.01382</ele>
        <time>2022-08-08T06:43:44.793Z</time>
      </trkpt>
      <trkpt lat="43.67837" lon="1.45428">
        <ele>189.091345</ele>
        <time>2022-08-08T06:43:46.799Z</time>
      </trkpt>
      <trkpt lat="43.67846" lon="1.45434">
        <ele>189.167125</ele>
        <time>2022-08-08T06:43:48.788Z</time>
      </trkpt>
      <trkpt lat="43.67855" lon="1.45437">
        <ele>189.241337</ele>
        <time>2022-08-08T06:43:50.776Z</time>
      </trkpt>
      <trkpt lat="43.67864" lon="1.45433">
        <ele>189.312883</ele>
        <time>2022-08-08T06:43:52.784Z</time>
      </trkpt>
      <trkpt lat="43.67873" lon="1.45426">
        <ele>189.39215</ele>
        <time>2022-08-08T06:43:54.807Z</time>
      </trkpt>
      <trkpt lat="43.67882" lon="1.45419">
        <ele>189.459637</ele>
        <time>2022-08-08T06:43:56.786Z</time>
      </trkpt>
      <trkpt lat="43.67891" lon="1.45413">
        <ele>189.487932</ele>
        <time>2022-08-08T06:43:58.795Z</time>
      </trkpt>
      <trkpt lat="43.67901" lon="1.45408">
        <ele>189.520311</ele>
        <time>2022-08-08T06:44:00.784Z</time>
      </trkpt>
      <trkpt lat="43.6791" lon="1.45402">
        <ele>189.552158</ele>
        <time>2022-08-08T06:44:02.791Z</time>
      </trkpt>
      <trkpt lat="43.67919" lon="1.45396">
        <ele>189.584478</ele>
        <time>2022-08-08T06:44:04.786Z</time>
      </trkpt>
      <trkpt lat="43.6793" lon="1.45392">
        <ele>189.617361</ele>
        <time>2022-08-08T06:44:06.795Z</time>
      </trkpt>
      <trkpt lat="43.67939" lon="1.45386">
        <ele>189.65014</ele>
        <time>2022-08-08T06:44:08.791Z</time>
      </trkpt>
      <trkpt lat="43.67949" lon="1.45379">
        <ele>189.682918</ele>
        <time>2022-08-08T06:44:10.798Z</time>
      </trkpt>
      <trkpt lat="43.67959" lon="1.45374">
        <ele>189.715506</ele>
        <time>2022-08-08T06:44:12.795Z</time>
      </trkpt>
      <trkpt lat="43.67968" lon="1.45369">
        <ele>189.746367</ele>
        <time>2022-08-08T06:44:14.802Z</time>
      </trkpt>
      <trkpt lat="43.67978" lon="1.45363">
        <ele>189.778864</ele>
        <time>2022-08-08T06:44:16.794Z</time>
      </trkpt>
      <trkpt lat="43.67986" lon="1.45354">
        <ele>189.811019</ele>
        <time>2022-08-08T06:44:18.793Z</time>
      </trkpt>
      <trkpt lat="43.67995" lon="1.45348">
        <ele>189.843814</ele>
        <time>2022-08-08T06:44:20.803Z</time>
      </trkpt>
      <trkpt lat="43.68004" lon="1.45341">
        <ele>189.875288</ele>
        <time>2022-08-08T06:44:22.832Z</time>
      </trkpt>
      <trkpt lat="43.68014" lon="1.45335">
        <ele>189.906949</ele>
        <time>2022-08-08T06:44:24.818Z</time>
      </trkpt>
      <trkpt lat="43.68022" lon="1.45328">
        <ele>189.938756</ele>
        <time>2022-08-08T06:44:26.790Z</time>
      </trkpt>
      <trkpt lat="43.68032" lon="1.45321">
        <ele>189.970899</ele>
        <time>2022-08-08T06:44:28.803Z</time>
      </trkpt>
      <trkpt lat="43.68041" lon="1.45313">
        <ele>190.003889</ele>
        <time>2022-08-08T06:44:30.791Z</time>
      </trkpt>
      <trkpt lat="43.6805" lon="1.45305">
        <ele>189.989877</ele>
        <time>2022-08-08T06:44:32.804Z</time>
      </trkpt>
      <trkpt lat="43.68059" lon="1.45298">
        <ele>189.974635</ele>
        <time>2022-08-08T06:44:34.782Z</time>
      </trkpt>
      <trkpt lat="43.68068" lon="1.4529">
        <ele>189.959044</ele>
        <time>2022-08-08T06:44:36.817Z</time>
      </trkpt>
      <trkpt lat="43.68076" lon="1.45282">
        <ele>189.94364</ele>
        <time>2022-08-08T06:44:38.807Z</time>
      </trkpt>
      <trkpt lat="43.68085" lon="1.45274">
        <ele>189.928408</ele>
        <time>2022-08-08T06:44:40.795Z</time>
      </trkpt>
      <trkpt lat="43.68094" lon="1.45266">
        <ele>189.913062</ele>
        <time>2022-08-08T06:44:42.797Z</time>
      </trkpt>
      <trkpt lat="43.68103" lon="1.45258">
        <ele>189.897999</ele>
        <time>2022-08-08T06:44:44.793Z</time>
      </trkpt>
      <trkpt lat="43.68111" lon="1.4525">
        <ele>189.883376</ele>
        <time>2022-08-08T06:44:46.798Z</time>
      </trkpt>
      <trkpt lat="43.6812" lon="1.45243">
        <ele>189.868748</ele>
        <time>2022-08-08T06:44:48.779Z</time>
      </trkpt>
      <trkpt lat="43.68128" lon="1.45235">
        <ele>189.853883</ele>
        <time>2022-08-08T06:44:50.786Z</time>
      </trkpt>
      <trkpt lat="43.68137" lon="1.45227">
        <ele>189.838716</ele>
        <time>2022-08-08T06:44:52.791Z</time>
      </trkpt>
      <trkpt lat="43.68145" lon="1.45219">
        <ele>189.823674</ele>
        <time>2022-08-08T06:44:54.798Z</time>
      </trkpt>
      <trkpt lat="43.68154" lon="1.4521">
        <ele>189.808497</ele>
        <time>2022-08-08T06:44:56.789Z</time>
      </trkpt>
      <trkpt lat="43.68163" lon="1.45205">
        <ele>189.794073</ele>
        <time>2022-08-08T06:44:58.782Z</time>
      </trkpt>
      <trkpt lat="43.68169" lon="1.45214">
        <ele>189.780314</ele>
        <time>2022-08-08T06:45:00.797Z</time>
      </trkpt>
      <trkpt lat="43.68172" lon="1.45229">
        <ele>189.764076</ele>
        <time>2022-08-08T06:45:02.813Z</time>
      </trkpt>
      <trkpt lat="43.68176" lon="1.45243">
        <ele>189.748113</ele>
        <time>2022-08-08T06:45:04.813Z</time>
      </trkpt>
      <trkpt lat="43.68179" lon="1.45257">
        <ele>189.816373</ele>
        <time>2022-08-08T06:45:06.824Z</time>
      </trkpt>
      <trkpt lat="43.68183" lon="1.45271">
        <ele>189.927137</ele>
        <time>2022-08-08T06:45:08.802Z</time>
      </trkpt>
      <trkpt lat="43.68187" lon="1.45286">
        <ele>190.039618</ele>
        <time>2022-08-08T06:45:10.801Z</time>
      </trkpt>
      <trkpt lat="43.6819" lon="1.453">
        <ele>190.152579</ele>
        <time>2022-08-08T06:45:12.809Z</time>
      </trkpt>
      <trkpt lat="43.68194" lon="1.45315">
        <ele>190.265087</ele>
        <time>2022-08-08T06:45:14.801Z</time>
      </trkpt>
      <trkpt lat="43.68198" lon="1.45329">
        <ele>190.375481</ele>
        <time>2022-08-08T06:45:16.807Z</time>
      </trkpt>
      <trkpt lat="43.68201" lon="1.45343">
        <ele>190.484531</ele>
        <time>2022-08-08T06:45:18.823Z</time>
      </trkpt>
      <trkpt lat="43.68204" lon="1.45357">
        <ele>190.592881</ele>
        <time>2022-08-08T06:45:20.801Z</time>
      </trkpt>
      <trkpt lat="43.68208" lon="1.45371">
        <ele>190.701869</ele>
        <time>2022-08-08T06:45:22.802Z</time>
      </trkpt>
      <trkpt lat="43.68212" lon="1.45384">
        <ele>190.804987</ele>
        <time>2022-08-08T06:45:24.831Z</time>
      </trkpt>
      <trkpt lat="43.68216" lon="1.45397">
        <ele>190.91205</ele>
        <time>2022-08-08T06:45:26.789Z</time>
      </trkpt>
      <trkpt lat="43.68219" lon="1.45411">
        <ele>191.019657</ele>
        <time>2022-08-08T06:45:28.802Z</time>
      </trkpt>
      <trkpt lat="43.68222" lon="1.45425">
        <ele>191.129506</ele>
        <time>2022-08-08T06:45:30.788Z</time>
      </trkpt>
      <trkpt lat="43.68226" lon="1.4544">
        <ele>191.242325</ele>
        <time>2022-08-08T06:45:32.795Z</time>
      </trkpt>
      <trkpt lat="43.68232" lon="1.45454">
        <ele>191.359445</ele>
        <time>2022-08-08T06:45:34.790Z</time>
      </trkpt>
      <trkpt lat="43.68236" lon="1.45469">
        <ele>191.47749</ele>
        <time>2022-08-08T06:45:36.793Z</time>
      </trkpt>
      <trkpt lat="43.6824" lon="1.45483">
        <ele>191.593837</ele>
        <time>2022-08-08T06:45:38.799Z</time>
      </trkpt>
      <trkpt lat="43.68245" lon="1.45498">
        <ele>191.705744</ele>
        <time>2022-08-08T06:45:40.790Z</time>
      </trkpt>
      <trkpt lat="43.68249" lon="1.45512">
        <ele>191.813869</ele>
        <time>2022-08-08T06:45:42.792Z</time>
      </trkpt>
      <trkpt lat="43.68253" lon="1.45527">
        <ele>191.922717</ele>
        <time>2022-08-08T06:45:44.797Z</time>
      </trkpt>
      <trkpt lat="43.68257" lon="1.45542">
        <ele>192.034465</ele>
        <time>2022-08-08T06:45:46.785Z</time>
      </trkpt>
      <trkpt lat="43.68261" lon="1.45557">
        <ele>192.146877</ele>
        <time>2022-08-08T06:45:48.801Z</time>
      </trkpt>
      <trkpt lat="43.68264" lon="1.45573">
        <ele>192.258994</ele>
        <time>2022-08-08T06:45:50.790Z</time>
      </trkpt>
      <trkpt lat="43.68267" lon="1.45587">
        <ele>192.36291</ele>
        <time>2022-08-08T06:45:52.811Z</time>
      </trkpt>
      <trkpt lat="43.68271" lon="1.45602">
        <ele>192.476651</ele>
        <time>2022-08-08T06:45:54.777Z</time>
      </trkpt>
      <trkpt lat="43.68274" lon="1.45618">
        <ele>192.589271</ele>
        <time>2022-08-08T06:45:56.776Z</time>
      </trkpt>
      <trkpt lat="43.68277" lon="1.45634">
        <ele>192.70202</ele>
        <time>2022-08-08T06:45:58.782Z</time>
      </trkpt>
      <trkpt lat="43.68279" lon="1.45649">
        <ele>192.811169</ele>
        <time>2022-08-08T06:46:00.790Z</time>
      </trkpt>
      <trkpt lat="43.6828" lon="1.45665">
        <ele>192.921813</ele>
        <time>2022-08-08T06:46:02.803Z</time>
      </trkpt>
      <trkpt lat="43.68281" lon="1.4568">
        <ele>193.032712</ele>
        <time>2022-08-08T06:46:04.799Z</time>
      </trkpt>
      <trkpt lat="43.68281" lon="1.45696">
        <ele>193.142471</ele>
        <time>2022-08-08T06:46:06.803Z</time>
      </trkpt>
      <trkpt lat="43.68281" lon="1.45711">
        <ele>193.249406</ele>
        <time>2022-08-08T06:46:08.776Z</time>
      </trkpt>
      <trkpt lat="43.6828" lon="1.45726">
        <ele>193.461688</ele>
        <time>2022-08-08T06:46:10.803Z</time>
      </trkpt>
      <trkpt lat="43.68279" lon="1.45742">
        <ele>193.836349</ele>
        <time>2022-08-08T06:46:12.805Z</time>
      </trkpt>
      <trkpt lat="43.68278" lon="1.45758">
        <ele>194.216792</ele>
        <time>2022-08-08T06:46:14.803Z</time>
      </trkpt>
      <trkpt lat="43.68277" lon="1.45772">
        <ele>194.577015</ele>
        <time>2022-08-08T06:46:16.810Z</time>
      </trkpt>
      <trkpt lat="43.68276" lon="1.45788">
        <ele>194.949962</ele>
        <time>2022-08-08T06:46:18.800Z</time>
      </trkpt>
      <trkpt lat="43.68275" lon="1.45803">
        <ele>195.320248</ele>
        <time>2022-08-08T06:46:20.817Z</time>
      </trkpt>
      <trkpt lat="43.68275" lon="1.45818">
        <ele>195.687899</ele>
        <time>2022-08-08T06:46:22.806Z</time>
      </trkpt>
      <trkpt lat="43.68274" lon="1.45833">
        <ele>196.046147</ele>
        <time>2022-08-08T06:46:24.801Z</time>
      </trkpt>
      <trkpt lat="43.68273" lon="1.45849">
        <ele>196.421783</ele>
        <time>2022-08-08T06:46:26.829Z</time>
      </trkpt>
      <trkpt lat="43.68272" lon="1.45864">
        <ele>196.79807</ele>
        <time>2022-08-08T06:46:28.819Z</time>
      </trkpt>
      <trkpt lat="43.6827" lon="1.45878">
        <ele>197.138786</ele>
        <time>2022-08-08T06:46:30.822Z</time>
      </trkpt>
      <trkpt lat="43.68271" lon="1.45891">
        <ele>197.460108</ele>
        <time>2022-08-08T06:46:33.807Z</time>
      </trkpt>
      <trkpt lat="43.68269" lon="1.45904">
        <ele>197.77073</ele>
        <time>2022-08-08T06:46:38.828Z</time>
      </trkpt>
      <trkpt lat="43.68268" lon="1.4592">
        <ele>198.153055</ele>
        <time>2022-08-08T06:46:41.803Z</time>
      </trkpt>
      <trkpt lat="43.68267" lon="1.45939">
        <ele>198.605606</ele>
        <time>2022-08-08T06:46:44.808Z</time>
      </trkpt>
      <trkpt lat="43.68265" lon="1.45953">
        <ele>198.949155</ele>
        <time>2022-08-08T06:46:46.804Z</time>
      </trkpt>
      <trkpt lat="43.68265" lon="1.45967">
        <ele>199.29537</ele>
        <time>2022-08-08T06:46:48.814Z</time>
      </trkpt>
      <trkpt lat="43.68264" lon="1.45982">
        <ele>199.788854</ele>
        <time>2022-08-08T06:46:50.810Z</time>
      </trkpt>
      <trkpt lat="43.68266" lon="1.45997">
        <ele>200.286353</ele>
        <time>2022-08-08T06:46:52.833Z</time>
      </trkpt>
      <trkpt lat="43.68269" lon="1.4601">
        <ele>200.754427</ele>
        <time>2022-08-08T06:46:54.819Z</time>
      </trkpt>
      <trkpt lat="43.68272" lon="1.46022">
        <ele>201.18335</ele>
        <time>2022-08-08T06:46:56.817Z</time>
      </trkpt>
      <trkpt lat="43.68277" lon="1.46038">
        <ele>201.749056</ele>
        <time>2022-08-08T06:46:59.844Z</time>
      </trkpt>
      <trkpt lat="43.6828" lon="1.46052">
        <ele>202.254523</ele>
        <time>2022-08-08T06:47:02.839Z</time>
      </trkpt>
      <trkpt lat="43.68281" lon="1.46067">
        <ele>202.744838</ele>
        <time>2022-08-08T06:47:05.814Z</time>
      </trkpt>
      <trkpt lat="43.68282" lon="1.46081">
        <ele>203.223432</ele>
        <time>2022-08-08T06:47:08.803Z</time>
      </trkpt>
      <trkpt lat="43.68282" lon="1.46096">
        <ele>203.714294</ele>
        <time>2022-08-08T06:47:11.822Z</time>
      </trkpt>
      <trkpt lat="43.68283" lon="1.46111">
        <ele>204.209524</ele>
        <time>2022-08-08T06:47:14.812Z</time>
      </trkpt>
      <trkpt lat="43.68285" lon="1.46125">
        <ele>204.700966</ele>
        <time>2022-08-08T06:47:17.797Z</time>
      </trkpt>
      <trkpt lat="43.68284" lon="1.46141">
        <ele>205.235578</ele>
        <time>2022-08-08T06:47:20.806Z</time>
      </trkpt>
      <trkpt lat="43.68283" lon="1.46159">
        <ele>205.837642</ele>
        <time>2022-08-08T06:47:23.822Z</time>
      </trkpt>
      <trkpt lat="43.68281" lon="1.46172">
        <ele>206.270165</ele>
        <time>2022-08-08T06:47:25.858Z</time>
      </trkpt>
      <trkpt lat="43.68278" lon="1.46184">
        <ele>206.701658</ele>
        <time>2022-08-08T06:47:27.814Z</time>
      </trkpt>
      <trkpt lat="43.68273" lon="1.46197">
        <ele>207.169584</ele>
        <time>2022-08-08T06:47:29.802Z</time>
      </trkpt>
      <trkpt lat="43.68269" lon="1.4621">
        <ele>207.654365</ele>
        <time>2022-08-08T06:47:31.815Z</time>
      </trkpt>
      <trkpt lat="43.68264" lon="1.46224">
        <ele>208.006959</ele>
        <time>2022-08-08T06:47:33.818Z</time>
      </trkpt>
      <trkpt lat="43.6826" lon="1.46237">
        <ele>208.356115</ele>
        <time>2022-08-08T06:47:35.809Z</time>
      </trkpt>
      <trkpt lat="43.68256" lon="1.46251">
        <ele>208.704292</ele>
        <time>2022-08-08T06:47:37.817Z</time>
      </trkpt>
      <trkpt lat="43.68252" lon="1.46264">
        <ele>209.039743</ele>
        <time>2022-08-08T06:47:39.819Z</time>
      </trkpt>
      <trkpt lat="43.68248" lon="1.46275">
        <ele>209.344479</ele>
        <time>2022-08-08T06:47:41.809Z</time>
      </trkpt>
      <trkpt lat="43.68243" lon="1.46287">
        <ele>209.674603</ele>
        <time>2022-08-08T06:47:43.815Z</time>
      </trkpt>
      <trkpt lat="43.68236" lon="1.46299">
        <ele>210.036266</ele>
        <time>2022-08-08T06:47:45.818Z</time>
      </trkpt>
      <trkpt lat="43.6823" lon="1.46311">
        <ele>210.395991</ele>
        <time>2022-08-08T06:47:47.828Z</time>
      </trkpt>
      <trkpt lat="43.68223" lon="1.46322">
        <ele>210.745313</ele>
        <time>2022-08-08T06:47:49.821Z</time>
      </trkpt>
      <trkpt lat="43.68216" lon="1.46332">
        <ele>211.081469</ele>
        <time>2022-08-08T06:47:51.824Z</time>
      </trkpt>
      <trkpt lat="43.68209" lon="1.46343">
        <ele>211.415289</ele>
        <time>2022-08-08T06:47:53.817Z</time>
      </trkpt>
      <trkpt lat="43.68202" lon="1.46353">
        <ele>211.751052</ele>
        <time>2022-08-08T06:47:55.824Z</time>
      </trkpt>
      <trkpt lat="43.68195" lon="1.46363">
        <ele>212.093631</ele>
        <time>2022-08-08T06:47:57.806Z</time>
      </trkpt>
      <trkpt lat="43.68187" lon="1.46373">
        <ele>212.437377</ele>
        <time>2022-08-08T06:47:59.822Z</time>
      </trkpt>
      <trkpt lat="43.68178" lon="1.46378">
        <ele>212.747006</ele>
        <time>2022-08-08T06:48:01.813Z</time>
      </trkpt>
      <trkpt lat="43.68167" lon="1.46375">
        <ele>213.136453</ele>
        <time>2022-08-08T06:48:04.845Z</time>
      </trkpt>
      <trkpt lat="43.68155" lon="1.46368">
        <ele>213.544306</ele>
        <time>2022-08-08T06:48:07.813Z</time>
      </trkpt>
      <trkpt lat="43.68145" lon="1.46363">
        <ele>214.14434</ele>
        <time>2022-08-08T06:48:10.825Z</time>
      </trkpt>
      <trkpt lat="43.68135" lon="1.4636">
        <ele>214.672704</ele>
        <time>2022-08-08T06:48:13.816Z</time>
      </trkpt>
      <trkpt lat="43.68127" lon="1.46354">
        <ele>215.229611</ele>
        <time>2022-08-08T06:48:16.819Z</time>
      </trkpt>
      <trkpt lat="43.68118" lon="1.46348">
        <ele>215.737719</ele>
        <time>2022-08-08T06:48:19.831Z</time>
      </trkpt>
      <trkpt lat="43.68108" lon="1.4634">
        <ele>216.371625</ele>
        <time>2022-08-08T06:48:23.812Z</time>
      </trkpt>
      <trkpt lat="43.68097" lon="1.46342">
        <ele>216.982855</ele>
        <time>2022-08-08T06:48:27.817Z</time>
      </trkpt>
      <trkpt lat="43.68091" lon="1.46352">
        <ele>217.516319</ele>
        <time>2022-08-08T06:48:30.821Z</time>
      </trkpt>
      <trkpt lat="43.68085" lon="1.46365">
        <ele>218.082869</ele>
        <time>2022-08-08T06:48:33.816Z</time>
      </trkpt>
      <trkpt lat="43.6808" lon="1.46378">
        <ele>218.698031</ele>
        <time>2022-08-08T06:48:36.814Z</time>
      </trkpt>
      <trkpt lat="43.68074" lon="1.46391">
        <ele>219.306979</ele>
        <time>2022-08-08T06:48:39.842Z</time>
      </trkpt>
      <trkpt lat="43.68069" lon="1.46405">
        <ele>219.926843</ele>
        <time>2022-08-08T06:48:42.841Z</time>
      </trkpt>
      <trkpt lat="43.68063" lon="1.46418">
        <ele>220.547733</ele>
        <time>2022-08-08T06:48:45.814Z</time>
      </trkpt>
      <trkpt lat="43.68056" lon="1.46431">
        <ele>221.167568</ele>
        <time>2022-08-08T06:48:48.810Z</time>
      </trkpt>
      <trkpt lat="43.6805" lon="1.46446">
        <ele>221.830301</ele>
        <time>2022-08-08T06:48:51.823Z</time>
      </trkpt>
      <trkpt lat="43.68043" lon="1.46461">
        <ele>222.548373</ele>
        <time>2022-08-08T06:48:54.818Z</time>
      </trkpt>
      <trkpt lat="43.68037" lon="1.46477">
        <ele>223.285646</ele>
        <time>2022-08-08T06:48:57.812Z</time>
      </trkpt>
      <trkpt lat="43.68033" lon="1.46494">
        <ele>223.678086</ele>
        <time>2022-08-08T06:49:00.796Z</time>
      </trkpt>
      <trkpt lat="43.68031" lon="1.46506">
        <ele>223.921229</ele>
        <time>2022-08-08T06:49:02.808Z</time>
      </trkpt>
      <trkpt lat="43.68032" lon="1.4652">
        <ele>224.187577</ele>
        <time>2022-08-08T06:49:04.844Z</time>
      </trkpt>
      <trkpt lat="43.6803" lon="1.46534">
        <ele>224.454545</ele>
        <time>2022-08-08T06:49:06.837Z</time>
      </trkpt>
      <trkpt lat="43.68028" lon="1.4655">
        <ele>224.768445</ele>
        <time>2022-08-08T06:49:08.820Z</time>
      </trkpt>
      <trkpt lat="43.68024" lon="1.46563">
        <ele>225.037875</ele>
        <time>2022-08-08T06:49:10.816Z</time>
      </trkpt>
      <trkpt lat="43.68019" lon="1.46575">
        <ele>225.295239</ele>
        <time>2022-08-08T06:49:12.810Z</time>
      </trkpt>
      <trkpt lat="43.68015" lon="1.46586">
        <ele>225.536463</ele>
        <time>2022-08-08T06:49:14.808Z</time>
      </trkpt>
      <trkpt lat="43.68008" lon="1.466">
        <ele>225.876859</ele>
        <time>2022-08-08T06:49:17.815Z</time>
      </trkpt>
      <trkpt lat="43.68" lon="1.46613">
        <ele>226.195622</ele>
        <time>2022-08-08T06:49:20.817Z</time>
      </trkpt>
      <trkpt lat="43.67992" lon="1.46625">
        <ele>226.510096</ele>
        <time>2022-08-08T06:49:23.814Z</time>
      </trkpt>
      <trkpt lat="43.67983" lon="1.46635">
        <ele>226.805308</ele>
        <time>2022-08-08T06:49:26.808Z</time>
      </trkpt>
      <trkpt lat="43.67974" lon="1.46642">
        <ele>227.079432</ele>
        <time>2022-08-08T06:49:29.813Z</time>
      </trkpt>
      <trkpt lat="43.67965" lon="1.46648">
        <ele>227.353977</ele>
        <time>2022-08-08T06:49:32.805Z</time>
      </trkpt>
      <trkpt lat="43.67957" lon="1.46654">
        <ele>227.603414</ele>
        <time>2022-08-08T06:49:35.799Z</time>
      </trkpt>
      <trkpt lat="43.67949" lon="1.46663">
        <ele>227.863983</ele>
        <time>2022-08-08T06:49:38.802Z</time>
      </trkpt>
      <trkpt lat="43.67941" lon="1.46671">
        <ele>228.12664</ele>
        <time>2022-08-08T06:49:41.803Z</time>
      </trkpt>
      <trkpt lat="43.67932" lon="1.46676">
        <ele>228.597712</ele>
        <time>2022-08-08T06:49:44.794Z</time>
      </trkpt>
      <trkpt lat="43.67924" lon="1.46681">
        <ele>229.103455</ele>
        <time>2022-08-08T06:49:47.798Z</time>
      </trkpt>
      <trkpt lat="43.67915" lon="1.46685">
        <ele>229.611299</ele>
        <time>2022-08-08T06:49:50.805Z</time>
      </trkpt>
      <trkpt lat="43.67907" lon="1.4669">
        <ele>230.112578</ele>
        <time>2022-08-08T06:49:53.785Z</time>
      </trkpt>
      <trkpt lat="43.67896" lon="1.46698">
        <ele>230.775015</ele>
        <time>2022-08-08T06:49:57.793Z</time>
      </trkpt>
      <trkpt lat="43.67887" lon="1.46705">
        <ele>231.349795</ele>
        <time>2022-08-08T06:50:00.776Z</time>
      </trkpt>
      <trkpt lat="43.67878" lon="1.46711">
        <ele>231.90024</ele>
        <time>2022-08-08T06:50:03.798Z</time>
      </trkpt>
      <trkpt lat="43.67869" lon="1.46717">
        <ele>232.445759</ele>
        <time>2022-08-08T06:50:06.798Z</time>
      </trkpt>
      <trkpt lat="43.67859" lon="1.46722">
        <ele>233.038762</ele>
        <time>2022-08-08T06:50:09.798Z</time>
      </trkpt>
      <trkpt lat="43.67847" lon="1.46726">
        <ele>233.683468</ele>
        <time>2022-08-08T06:50:12.792Z</time>
      </trkpt>
      <trkpt lat="43.67836" lon="1.46728">
        <ele>234.3091</ele>
        <time>2022-08-08T06:50:15.799Z</time>
      </trkpt>
      <trkpt lat="43.67824" lon="1.46729">
        <ele>234.974562</ele>
        <time>2022-08-08T06:50:18.788Z</time>
      </trkpt>
      <trkpt lat="43.67813" lon="1.46728">
        <ele>235.586007</ele>
        <time>2022-08-08T06:50:21.797Z</time>
      </trkpt>
      <trkpt lat="43.67802" lon="1.46724">
        <ele>236.204326</ele>
        <time>2022-08-08T06:50:24.791Z</time>
      </trkpt>
      <trkpt lat="43.67792" lon="1.46717">
        <ele>236.809642</ele>
        <time>2022-08-08T06:50:27.800Z</time>
      </trkpt>
      <trkpt lat="43.67783" lon="1.46709">
        <ele>237.388321</ele>
        <time>2022-08-08T06:50:30.798Z</time>
      </trkpt>
      <trkpt lat="43.67773" lon="1.46702">
        <ele>238.013085</ele>
        <time>2022-08-08T06:50:34.806Z</time>
      </trkpt>
      <trkpt lat="43.67762" lon="1.46709">
        <ele>238.588524</ele>
        <time>2022-08-08T06:50:38.804Z</time>
      </trkpt>
      <trkpt lat="43.67752" lon="1.46719">
        <ele>239.135039</ele>
        <time>2022-08-08T06:50:41.804Z</time>
      </trkpt>
      <trkpt lat="43.67741" lon="1.46725">
        <ele>239.651807</ele>
        <time>2022-08-08T06:50:44.809Z</time>
      </trkpt>
      <trkpt lat="43.67731" lon="1.46732">
        <ele>240.185624</ele>
        <time>2022-08-08T06:50:47.803Z</time>
      </trkpt>
      <trkpt lat="43.6772" lon="1.4674">
        <ele>240.732989</ele>
        <time>2022-08-08T06:50:50.814Z</time>
      </trkpt>
      <trkpt lat="43.6771" lon="1.46747">
        <ele>241.268314</ele>
        <time>2022-08-08T06:50:53.795Z</time>
      </trkpt>
      <trkpt lat="43.67699" lon="1.46755">
        <ele>241.781581</ele>
        <time>2022-08-08T06:50:56.813Z</time>
      </trkpt>
      <trkpt lat="43.67689" lon="1.46761">
        <ele>242.291637</ele>
        <time>2022-08-08T06:50:59.818Z</time>
      </trkpt>
      <trkpt lat="43.67679" lon="1.46768">
        <ele>242.785446</ele>
        <time>2022-08-08T06:51:02.804Z</time>
      </trkpt>
      <trkpt lat="43.6767" lon="1.46774">
        <ele>243.26971</ele>
        <time>2022-08-08T06:51:05.796Z</time>
      </trkpt>
      <trkpt lat="43.67661" lon="1.46782">
        <ele>243.738798</ele>
        <time>2022-08-08T06:51:08.797Z</time>
      </trkpt>
      <trkpt lat="43.67652" lon="1.46789">
        <ele>244.217916</ele>
        <time>2022-08-08T06:51:11.794Z</time>
      </trkpt>
      <trkpt lat="43.67642" lon="1.46797">
        <ele>244.71438</ele>
        <time>2022-08-08T06:51:14.804Z</time>
      </trkpt>
      <trkpt lat="43.67635" lon="1.46808">
        <ele>245.204496</ele>
        <time>2022-08-08T06:51:17.801Z</time>
      </trkpt>
      <trkpt lat="43.67629" lon="1.4682">
        <ele>245.68646</ele>
        <time>2022-08-08T06:51:20.810Z</time>
      </trkpt>
      <trkpt lat="43.67621" lon="1.46832">
        <ele>246.175005</ele>
        <time>2022-08-08T06:51:23.791Z</time>
      </trkpt>
      <trkpt lat="43.67613" lon="1.46845">
        <ele>246.275375</ele>
        <time>2022-08-08T06:51:26.810Z</time>
      </trkpt>
      <trkpt lat="43.67605" lon="1.46859">
        <ele>246.37569</ele>
        <time>2022-08-08T06:51:29.796Z</time>
      </trkpt>
      <trkpt lat="43.67597" lon="1.46872">
        <ele>246.476964</ele>
        <time>2022-08-08T06:51:32.803Z</time>
      </trkpt>
      <trkpt lat="43.67588" lon="1.46886">
        <ele>246.582953</ele>
        <time>2022-08-08T06:51:35.783Z</time>
      </trkpt>
      <trkpt lat="43.67579" lon="1.46899">
        <ele>246.689175</ele>
        <time>2022-08-08T06:51:38.799Z</time>
      </trkpt>
      <trkpt lat="43.67571" lon="1.46913">
        <ele>246.797348</ele>
        <time>2022-08-08T06:51:41.813Z</time>
      </trkpt>
      <trkpt lat="43.67561" lon="1.46925">
        <ele>246.902979</ele>
        <time>2022-08-08T06:51:44.804Z</time>
      </trkpt>
      <trkpt lat="43.67552" lon="1.46932">
        <ele>246.984267</ele>
        <time>2022-08-08T06:51:47.796Z</time>
      </trkpt>
      <trkpt lat="43.67545" lon="1.46945">
        <ele>247.079753</ele>
        <time>2022-08-08T06:51:50.797Z</time>
      </trkpt>
      <trkpt lat="43.67543" lon="1.4696">
        <ele>247.166327</ele>
        <time>2022-08-08T06:51:52.798Z</time>
      </trkpt>
      <trkpt lat="43.67539" lon="1.46973">
        <ele>247.249896</ele>
        <time>2022-08-08T06:51:54.794Z</time>
      </trkpt>
      <trkpt lat="43.67534" lon="1.46985">
        <ele>247.333615</ele>
        <time>2022-08-08T06:51:56.805Z</time>
      </trkpt>
      <trkpt lat="43.6753" lon="1.46999">
        <ele>247.417013</ele>
        <time>2022-08-08T06:51:58.798Z</time>
      </trkpt>
      <trkpt lat="43.67525" lon="1.47011">
        <ele>247.500831</ele>
        <time>2022-08-08T06:52:00.799Z</time>
      </trkpt>
      <trkpt lat="43.6752" lon="1.47025">
        <ele>247.589443</ele>
        <time>2022-08-08T06:52:02.795Z</time>
      </trkpt>
      <trkpt lat="43.67516" lon="1.47039">
        <ele>247.194866</ele>
        <time>2022-08-08T06:52:04.782Z</time>
      </trkpt>
      <trkpt lat="43.67511" lon="1.47052">
        <ele>246.60935</ele>
        <time>2022-08-08T06:52:06.790Z</time>
      </trkpt>
      <trkpt lat="43.67507" lon="1.47066">
        <ele>245.987078</ele>
        <time>2022-08-08T06:52:08.806Z</time>
      </trkpt>
      <trkpt lat="43.67503" lon="1.47079">
        <ele>245.416233</ele>
        <time>2022-08-08T06:52:10.794Z</time>
      </trkpt>
      <trkpt lat="43.67499" lon="1.47091">
        <ele>244.858008</ele>
        <time>2022-08-08T06:52:12.802Z</time>
      </trkpt>
      <trkpt lat="43.67495" lon="1.47103">
        <ele>244.325516</ele>
        <time>2022-08-08T06:52:14.799Z</time>
      </trkpt>
      <trkpt lat="43.6749" lon="1.47118">
        <ele>243.640846</ele>
        <time>2022-08-08T06:52:17.800Z</time>
      </trkpt>
      <trkpt lat="43.67478" lon="1.47119">
        <ele>242.967944</ele>
        <time>2022-08-08T06:52:21.795Z</time>
      </trkpt>
      <trkpt lat="43.67465" lon="1.47111">
        <ele>242.188779</ele>
        <time>2022-08-08T06:52:24.787Z</time>
      </trkpt>
      <trkpt lat="43.67455" lon="1.47106">
        <ele>241.565366</ele>
        <time>2022-08-08T06:52:26.790Z</time>
      </trkpt>
      <trkpt lat="43.67443" lon="1.47099">
        <ele>240.81968</ele>
        <time>2022-08-08T06:52:28.796Z</time>
      </trkpt>
      <trkpt lat="43.67429" lon="1.47092">
        <ele>239.99983</ele>
        <time>2022-08-08T06:52:30.798Z</time>
      </trkpt>
      <trkpt lat="43.67414" lon="1.47083">
        <ele>239.089658</ele>
        <time>2022-08-08T06:52:32.787Z</time>
      </trkpt>
      <trkpt lat="43.67398" lon="1.47072">
        <ele>238.068501</ele>
        <time>2022-08-08T06:52:34.797Z</time>
      </trkpt>
      <trkpt lat="43.67389" lon="1.47066">
        <ele>237.524287</ele>
        <time>2022-08-08T06:52:35.808Z</time>
      </trkpt>
      <trkpt lat="43.6738" lon="1.4706">
        <ele>237.397579</ele>
        <time>2022-08-08T06:52:36.788Z</time>
      </trkpt>
      <trkpt lat="43.6737" lon="1.47054">
        <ele>237.327909</ele>
        <time>2022-08-08T06:52:37.794Z</time>
      </trkpt>
      <trkpt lat="43.67361" lon="1.47048">
        <ele>237.257656</ele>
        <time>2022-08-08T06:52:38.794Z</time>
      </trkpt>
      <trkpt lat="43.67352" lon="1.47042">
        <ele>237.194458</ele>
        <time>2022-08-08T06:52:39.804Z</time>
      </trkpt>
      <trkpt lat="43.67344" lon="1.47036">
        <ele>237.135589</ele>
        <time>2022-08-08T06:52:40.794Z</time>
      </trkpt>
      <trkpt lat="43.67332" lon="1.47026">
        <ele>237.047528</ele>
        <time>2022-08-08T06:52:42.797Z</time>
      </trkpt>
      <trkpt lat="43.67323" lon="1.47022">
        <ele>236.986548</ele>
        <time>2022-08-08T06:52:46.793Z</time>
      </trkpt>
      <trkpt lat="43.67315" lon="1.47029">
        <ele>236.923834</ele>
        <time>2022-08-08T06:52:49.791Z</time>
      </trkpt>
      <trkpt lat="43.67307" lon="1.47043">
        <ele>236.843001</ele>
        <time>2022-08-08T06:52:52.793Z</time>
      </trkpt>
      <trkpt lat="43.673" lon="1.47057">
        <ele>236.759948</ele>
        <time>2022-08-08T06:52:55.824Z</time>
      </trkpt>
      <trkpt lat="43.67294" lon="1.47073">
        <ele>236.677223</ele>
        <time>2022-08-08T06:52:58.804Z</time>
      </trkpt>
      <trkpt lat="43.67292" lon="1.4709">
        <ele>236.593686</ele>
        <time>2022-08-08T06:53:01.799Z</time>
      </trkpt>
      <trkpt lat="43.67291" lon="1.47108">
        <ele>236.509835</ele>
        <time>2022-08-08T06:53:04.802Z</time>
      </trkpt>
      <trkpt lat="43.6729" lon="1.47126">
        <ele>236.42584</ele>
        <time>2022-08-08T06:53:07.805Z</time>
      </trkpt>
      <trkpt lat="43.67287" lon="1.47144">
        <ele>236.341049</ele>
        <time>2022-08-08T06:53:10.794Z</time>
      </trkpt>
      <trkpt lat="43.67284" lon="1.47161">
        <ele>236.488298</ele>
        <time>2022-08-08T06:53:13.795Z</time>
      </trkpt>
      <trkpt lat="43.67279" lon="1.47176">
        <ele>237.01978</ele>
        <time>2022-08-08T06:53:16.798Z</time>
      </trkpt>
      <trkpt lat="43.67273" lon="1.47192">
        <ele>237.570023</ele>
        <time>2022-08-08T06:53:19.793Z</time>
      </trkpt>
      <trkpt lat="43.67266" lon="1.47208">
        <ele>238.126984</ele>
        <time>2022-08-08T06:53:22.814Z</time>
      </trkpt>
      <trkpt lat="43.67262" lon="1.47219">
        <ele>238.521573</ele>
        <time>2022-08-08T06:53:24.802Z</time>
      </trkpt>
      <trkpt lat="43.67257" lon="1.4723">
        <ele>238.912611</ele>
        <time>2022-08-08T06:53:26.799Z</time>
      </trkpt>
      <trkpt lat="43.67253" lon="1.47241">
        <ele>239.300914</ele>
        <time>2022-08-08T06:53:28.821Z</time>
      </trkpt>
      <trkpt lat="43.67248" lon="1.47257">
        <ele>239.845649</ele>
        <time>2022-08-08T06:53:31.813Z</time>
      </trkpt>
      <trkpt lat="43.67243" lon="1.47274">
        <ele>240.407937</ele>
        <time>2022-08-08T06:53:34.795Z</time>
      </trkpt>
      <trkpt lat="43.67241" lon="1.47286">
        <ele>240.794582</ele>
        <time>2022-08-08T06:53:36.811Z</time>
      </trkpt>
      <trkpt lat="43.67239" lon="1.47298">
        <ele>241.183471</ele>
        <time>2022-08-08T06:53:38.803Z</time>
      </trkpt>
      <trkpt lat="43.67237" lon="1.47316">
        <ele>241.756512</ele>
        <time>2022-08-08T06:53:41.793Z</time>
      </trkpt>
      <trkpt lat="43.67236" lon="1.47329">
        <ele>242.149327</ele>
        <time>2022-08-08T06:53:43.789Z</time>
      </trkpt>
      <trkpt lat="43.67234" lon="1.47342">
        <ele>242.568759</ele>
        <time>2022-08-08T06:53:45.801Z</time>
      </trkpt>
      <trkpt lat="43.67232" lon="1.47356">
        <ele>242.992013</ele>
        <time>2022-08-08T06:53:47.803Z</time>
      </trkpt>
      <trkpt lat="43.67231" lon="1.47369">
        <ele>243.421114</ele>
        <time>2022-08-08T06:53:49.797Z</time>
      </trkpt>
      <trkpt lat="43.67229" lon="1.47383">
        <ele>243.850795</ele>
        <time>2022-08-08T06:53:51.801Z</time>
      </trkpt>
      <trkpt lat="43.67228" lon="1.47397">
        <ele>244.223191</ele>
        <time>2022-08-08T06:53:53.792Z</time>
      </trkpt>
      <trkpt lat="43.67228" lon="1.47411">
        <ele>244.563841</ele>
        <time>2022-08-08T06:53:55.811Z</time>
      </trkpt>
      <trkpt lat="43.6723" lon="1.47424">
        <ele>244.897795</ele>
        <time>2022-08-08T06:53:57.826Z</time>
      </trkpt>
      <trkpt lat="43.67234" lon="1.47436">
        <ele>245.224298</ele>
        <time>2022-08-08T06:53:59.817Z</time>
      </trkpt>
      <trkpt lat="43.6724" lon="1.47447">
        <ele>245.545841</ele>
        <time>2022-08-08T06:54:01.813Z</time>
      </trkpt>
      <trkpt lat="43.67248" lon="1.47455">
        <ele>245.868594</ele>
        <time>2022-08-08T06:54:03.825Z</time>
      </trkpt>
      <trkpt lat="43.67256" lon="1.47462">
        <ele>246.197682</ele>
        <time>2022-08-08T06:54:05.809Z</time>
      </trkpt>
      <trkpt lat="43.67265" lon="1.47467">
        <ele>246.530636</ele>
        <time>2022-08-08T06:54:07.825Z</time>
      </trkpt>
      <trkpt lat="43.67275" lon="1.47471">
        <ele>246.869302</ele>
        <time>2022-08-08T06:54:09.801Z</time>
      </trkpt>
      <trkpt lat="43.67284" lon="1.47475">
        <ele>247.199389</ele>
        <time>2022-08-08T06:54:11.790Z</time>
      </trkpt>
      <trkpt lat="43.67294" lon="1.47479">
        <ele>247.542384</ele>
        <time>2022-08-08T06:54:13.803Z</time>
      </trkpt>
      <trkpt lat="43.67304" lon="1.47483">
        <ele>247.887469</ele>
        <time>2022-08-08T06:54:15.803Z</time>
      </trkpt>
      <trkpt lat="43.67314" lon="1.47487">
        <ele>248.227921</ele>
        <time>2022-08-08T06:54:17.805Z</time>
      </trkpt>
      <trkpt lat="43.67323" lon="1.47491">
        <ele>248.567013</ele>
        <time>2022-08-08T06:54:19.822Z</time>
      </trkpt>
      <trkpt lat="43.67333" lon="1.47495">
        <ele>248.897067</ele>
        <time>2022-08-08T06:54:21.808Z</time>
      </trkpt>
      <trkpt lat="43.67342" lon="1.47499">
        <ele>249.230377</ele>
        <time>2022-08-08T06:54:23.809Z</time>
      </trkpt>
      <trkpt lat="43.67352" lon="1.47503">
        <ele>249.564388</ele>
        <time>2022-08-08T06:54:25.806Z</time>
      </trkpt>
      <trkpt lat="43.67361" lon="1.47507">
        <ele>249.89499</ele>
        <time>2022-08-08T06:54:27.812Z</time>
      </trkpt>
      <trkpt lat="43.67371" lon="1.47511">
        <ele>250.168804</ele>
        <time>2022-08-08T06:54:29.794Z</time>
      </trkpt>
      <trkpt lat="43.6738" lon="1.47516">
        <ele>250.380486</ele>
        <time>2022-08-08T06:54:31.813Z</time>
      </trkpt>
      <trkpt lat="43.67389" lon="1.4752">
        <ele>250.588632</ele>
        <time>2022-08-08T06:54:33.807Z</time>
      </trkpt>
      <trkpt lat="43.67398" lon="1.47524">
        <ele>250.790172</ele>
        <time>2022-08-08T06:54:35.804Z</time>
      </trkpt>
      <trkpt lat="43.6741" lon="1.4753">
        <ele>251.073456</ele>
        <time>2022-08-08T06:54:38.804Z</time>
      </trkpt>
      <trkpt lat="43.67423" lon="1.47537">
        <ele>251.351231</ele>
        <time>2022-08-08T06:54:41.825Z</time>
      </trkpt>
      <trkpt lat="43.67434" lon="1.47545">
        <ele>251.639707</ele>
        <time>2022-08-08T06:54:44.811Z</time>
      </trkpt>
      <trkpt lat="43.67442" lon="1.47552">
        <ele>251.833217</ele>
        <time>2022-08-08T06:54:46.822Z</time>
      </trkpt>
      <trkpt lat="43.67453" lon="1.47563">
        <ele>252.127468</ele>
        <time>2022-08-08T06:54:49.827Z</time>
      </trkpt>
      <trkpt lat="43.67461" lon="1.47571">
        <ele>252.331627</ele>
        <time>2022-08-08T06:54:51.808Z</time>
      </trkpt>
      <trkpt lat="43.67469" lon="1.47579">
        <ele>252.547643</ele>
        <time>2022-08-08T06:54:53.809Z</time>
      </trkpt>
      <trkpt lat="43.67477" lon="1.47588">
        <ele>252.774849</ele>
        <time>2022-08-08T06:54:55.807Z</time>
      </trkpt>
      <trkpt lat="43.67486" lon="1.47598">
        <ele>253.017171</ele>
        <time>2022-08-08T06:54:57.804Z</time>
      </trkpt>
      <trkpt lat="43.67495" lon="1.47607">
        <ele>253.266513</ele>
        <time>2022-08-08T06:54:59.809Z</time>
      </trkpt>
      <trkpt lat="43.67505" lon="1.47617">
        <ele>253.522792</ele>
        <time>2022-08-08T06:55:01.817Z</time>
      </trkpt>
      <trkpt lat="43.67515" lon="1.47626">
        <ele>253.781722</ele>
        <time>2022-08-08T06:55:03.798Z</time>
      </trkpt>
      <trkpt lat="43.67525" lon="1.47636">
        <ele>253.867004</ele>
        <time>2022-08-08T06:55:05.805Z</time>
      </trkpt>
      <trkpt lat="43.67535" lon="1.47646">
        <ele>253.74572</ele>
        <time>2022-08-08T06:55:07.834Z</time>
      </trkpt>
      <trkpt lat="43.67546" lon="1.47655">
        <ele>253.624789</ele>
        <time>2022-08-08T06:55:09.824Z</time>
      </trkpt>
      <trkpt lat="43.67556" lon="1.47664">
        <ele>253.505493</ele>
        <time>2022-08-08T06:55:11.825Z</time>
      </trkpt>
      <trkpt lat="43.67566" lon="1.47673">
        <ele>253.386809</ele>
        <time>2022-08-08T06:55:13.830Z</time>
      </trkpt>
      <trkpt lat="43.67577" lon="1.47682">
        <ele>253.26849</ele>
        <time>2022-08-08T06:55:15.804Z</time>
      </trkpt>
      <trkpt lat="43.67587" lon="1.4769">
        <ele>253.151731</ele>
        <time>2022-08-08T06:55:17.826Z</time>
      </trkpt>
      <trkpt lat="43.67597" lon="1.47698">
        <ele>253.035872</ele>
        <time>2022-08-08T06:55:19.829Z</time>
      </trkpt>
      <trkpt lat="43.67608" lon="1.47705">
        <ele>252.920294</ele>
        <time>2022-08-08T06:55:21.820Z</time>
      </trkpt>
      <trkpt lat="43.67619" lon="1.47711">
        <ele>252.804576</ele>
        <time>2022-08-08T06:55:23.823Z</time>
      </trkpt>
      <trkpt lat="43.6763" lon="1.47716">
        <ele>252.69037</ele>
        <time>2022-08-08T06:55:25.821Z</time>
      </trkpt>
      <trkpt lat="43.67641" lon="1.47719">
        <ele>252.579364</ele>
        <time>2022-08-08T06:55:27.805Z</time>
      </trkpt>
      <trkpt lat="43.67653" lon="1.47721">
        <ele>252.467484</ele>
        <time>2022-08-08T06:55:29.818Z</time>
      </trkpt>
      <trkpt lat="43.67664" lon="1.47721">
        <ele>252.357116</ele>
        <time>2022-08-08T06:55:31.807Z</time>
      </trkpt>
      <trkpt lat="43.67675" lon="1.47721">
        <ele>252.251665</ele>
        <time>2022-08-08T06:55:33.811Z</time>
      </trkpt>
      <trkpt lat="43.67675" lon="1.47737">
        <ele>252.111416</ele>
        <time>2022-08-08T06:55:36.830Z</time>
      </trkpt>
      <trkpt lat="43.67667" lon="1.47748">
        <ele>251.859479</ele>
        <time>2022-08-08T06:55:38.814Z</time>
      </trkpt>
      <trkpt lat="43.6766" lon="1.47761">
        <ele>251.587401</ele>
        <time>2022-08-08T06:55:40.814Z</time>
      </trkpt>
      <trkpt lat="43.67653" lon="1.47776">
        <ele>251.31075</ele>
        <time>2022-08-08T06:55:42.813Z</time>
      </trkpt>
      <trkpt lat="43.6765" lon="1.47793">
        <ele>251.030478</ele>
        <time>2022-08-08T06:55:44.816Z</time>
      </trkpt>
      <trkpt lat="43.67647" lon="1.47808">
        <ele>250.784028</ele>
        <time>2022-08-08T06:55:46.819Z</time>
      </trkpt>
      <trkpt lat="43.67655" lon="1.47816">
        <ele>250.566361</ele>
        <time>2022-08-08T06:55:49.804Z</time>
      </trkpt>
      <trkpt lat="43.67666" lon="1.47821">
        <ele>250.299326</ele>
        <time>2022-08-08T06:55:52.821Z</time>
      </trkpt>
      <trkpt lat="43.67675" lon="1.47827">
        <ele>250.096573</ele>
        <time>2022-08-08T06:55:54.798Z</time>
      </trkpt>
      <trkpt lat="43.67683" lon="1.47833">
        <ele>249.881992</ele>
        <time>2022-08-08T06:55:56.799Z</time>
      </trkpt>
      <trkpt lat="43.6769" lon="1.47842">
        <ele>249.669464</ele>
        <time>2022-08-08T06:55:58.807Z</time>
      </trkpt>
      <trkpt lat="43.6769" lon="1.47856">
        <ele>249.448799</ele>
        <time>2022-08-08T06:56:00.818Z</time>
      </trkpt>
      <trkpt lat="43.67684" lon="1.4787">
        <ele>249.176027</ele>
        <time>2022-08-08T06:56:02.821Z</time>
      </trkpt>
      <trkpt lat="43.67677" lon="1.47888">
        <ele>248.86352</ele>
        <time>2022-08-08T06:56:04.798Z</time>
      </trkpt>
      <trkpt lat="43.67672" lon="1.47908">
        <ele>248.517166</ele>
        <time>2022-08-08T06:56:06.817Z</time>
      </trkpt>
      <trkpt lat="43.67672" lon="1.4793">
        <ele>248.038652</ele>
        <time>2022-08-08T06:56:08.815Z</time>
      </trkpt>
      <trkpt lat="43.67676" lon="1.4795">
        <ele>245.83165</ele>
        <time>2022-08-08T06:56:10.803Z</time>
      </trkpt>
      <trkpt lat="43.67677" lon="1.47964">
        <ele>244.295027</ele>
        <time>2022-08-08T06:56:12.813Z</time>
      </trkpt>
      <trkpt lat="43.67667" lon="1.47968">
        <ele>242.786936</ele>
        <time>2022-08-08T06:56:16.801Z</time>
      </trkpt>
      <trkpt lat="43.67659" lon="1.47971">
        <ele>241.425467</ele>
        <time>2022-08-08T06:56:18.804Z</time>
      </trkpt>
      <trkpt lat="43.67647" lon="1.47982">
        <ele>239.384443</ele>
        <time>2022-08-08T06:56:21.802Z</time>
      </trkpt>
      <trkpt lat="43.6764" lon="1.48001">
        <ele>237.045407</ele>
        <time>2022-08-08T06:56:23.816Z</time>
      </trkpt>
      <trkpt lat="43.67636" lon="1.48012">
        <ele>235.695053</ele>
        <time>2022-08-08T06:56:24.794Z</time>
      </trkpt>
      <trkpt lat="43.6763" lon="1.4803">
        <ele>233.653659</ele>
        <time>2022-08-08T06:56:26.807Z</time>
      </trkpt>
      <trkpt lat="43.67622" lon="1.48014">
        <ele>231.571179</ele>
        <time>2022-08-08T06:56:33.808Z</time>
      </trkpt>
      <trkpt lat="43.67616" lon="1.48001">
        <ele>229.93686</ele>
        <time>2022-08-08T06:56:36.811Z</time>
      </trkpt>
      <trkpt lat="43.6761" lon="1.47991">
        <ele>228.523014</ele>
        <time>2022-08-08T06:56:39.808Z</time>
      </trkpt>
      <trkpt lat="43.676" lon="1.47986">
        <ele>226.972753</ele>
        <time>2022-08-08T06:56:42.809Z</time>
      </trkpt>
      <trkpt lat="43.67591" lon="1.47991">
        <ele>225.457717</ele>
        <time>2022-08-08T06:56:50.812Z</time>
      </trkpt>
      <trkpt lat="43.67581" lon="1.47997">
        <ele>223.830769</ele>
        <time>2022-08-08T06:56:53.797Z</time>
      </trkpt>
      <trkpt lat="43.6757" lon="1.48004">
        <ele>222.163301</ele>
        <time>2022-08-08T06:56:56.809Z</time>
      </trkpt>
      <trkpt lat="43.67567" lon="1.48016">
        <ele>221.076597</ele>
        <time>2022-08-08T06:57:00.807Z</time>
      </trkpt>
      <trkpt lat="43.67565" lon="1.48033">
        <ele>219.917521</ele>
        <time>2022-08-08T06:57:03.812Z</time>
      </trkpt>
      <trkpt lat="43.67556" lon="1.48046">
        <ele>218.769413</ele>
        <time>2022-08-08T06:57:06.806Z</time>
      </trkpt>
      <trkpt lat="43.67547" lon="1.48057">
        <ele>217.652947</ele>
        <time>2022-08-08T06:57:11.804Z</time>
      </trkpt>
      <trkpt lat="43.67533" lon="1.48057">
        <ele>216.391788</ele>
        <time>2022-08-08T06:57:14.822Z</time>
      </trkpt>
      <trkpt lat="43.67522" lon="1.48061">
        <ele>215.358175</ele>
        <time>2022-08-08T06:57:16.821Z</time>
      </trkpt>
      <trkpt lat="43.67513" lon="1.48057">
        <ele>214.539238</ele>
        <time>2022-08-08T06:57:18.812Z</time>
      </trkpt>
      <trkpt lat="43.67504" lon="1.48055">
        <ele>213.683226</ele>
        <time>2022-08-08T06:57:20.794Z</time>
      </trkpt>
      <trkpt lat="43.67493" lon="1.48051">
        <ele>212.69839</ele>
        <time>2022-08-08T06:57:22.818Z</time>
      </trkpt>
      <trkpt lat="43.67483" lon="1.48046">
        <ele>211.66819</ele>
        <time>2022-08-08T06:57:24.812Z</time>
      </trkpt>
      <trkpt lat="43.67472" lon="1.48042">
        <ele>210.659059</ele>
        <time>2022-08-08T06:57:26.814Z</time>
      </trkpt>
      <trkpt lat="43.67461" lon="1.4804">
        <ele>209.62549</ele>
        <time>2022-08-08T06:57:28.808Z</time>
      </trkpt>
      <trkpt lat="43.67449" lon="1.48036">
        <ele>208.546355</ele>
        <time>2022-08-08T06:57:30.809Z</time>
      </trkpt>
      <trkpt lat="43.67438" lon="1.48029">
        <ele>207.47451</ele>
        <time>2022-08-08T06:57:32.815Z</time>
      </trkpt>
      <trkpt lat="43.67427" lon="1.48022">
        <ele>206.369041</ele>
        <time>2022-08-08T06:57:34.817Z</time>
      </trkpt>
      <trkpt lat="43.67418" lon="1.48013">
        <ele>205.327942</ele>
        <time>2022-08-08T06:57:36.803Z</time>
      </trkpt>
      <trkpt lat="43.67409" lon="1.48002">
        <ele>205.108594</ele>
        <time>2022-08-08T06:57:38.793Z</time>
      </trkpt>
      <trkpt lat="43.67402" lon="1.47991">
        <ele>204.958589</ele>
        <time>2022-08-08T06:57:40.817Z</time>
      </trkpt>
      <trkpt lat="43.67394" lon="1.4798">
        <ele>204.81302</ele>
        <time>2022-08-08T06:57:42.831Z</time>
      </trkpt>
      <trkpt lat="43.67387" lon="1.47968">
        <ele>204.66765</ele>
        <time>2022-08-08T06:57:44.839Z</time>
      </trkpt>
      <trkpt lat="43.6738" lon="1.47957">
        <ele>204.516537</ele>
        <time>2022-08-08T06:57:46.831Z</time>
      </trkpt>
      <trkpt lat="43.67371" lon="1.47945">
        <ele>204.353603</ele>
        <time>2022-08-08T06:57:48.823Z</time>
      </trkpt>
      <trkpt lat="43.67362" lon="1.47934">
        <ele>204.193305</ele>
        <time>2022-08-08T06:57:50.816Z</time>
      </trkpt>
      <trkpt lat="43.67353" lon="1.47924">
        <ele>204.041438</ele>
        <time>2022-08-08T06:57:52.829Z</time>
      </trkpt>
      <trkpt lat="43.67345" lon="1.47914">
        <ele>203.893858</ele>
        <time>2022-08-08T06:57:54.806Z</time>
      </trkpt>
      <trkpt lat="43.67336" lon="1.47904">
        <ele>203.748762</ele>
        <time>2022-08-08T06:57:56.821Z</time>
      </trkpt>
      <trkpt lat="43.67328" lon="1.47895">
        <ele>203.60303</ele>
        <time>2022-08-08T06:57:58.806Z</time>
      </trkpt>
      <trkpt lat="43.67317" lon="1.47888">
        <ele>203.446216</ele>
        <time>2022-08-08T06:58:00.803Z</time>
      </trkpt>
      <trkpt lat="43.67303" lon="1.47889">
        <ele>203.265087</ele>
        <time>2022-08-08T06:58:02.799Z</time>
      </trkpt>
      <trkpt lat="43.67291" lon="1.47897">
        <ele>203.083063</ele>
        <time>2022-08-08T06:58:04.818Z</time>
      </trkpt>
      <trkpt lat="43.67282" lon="1.47894">
        <ele>202.953943</ele>
        <time>2022-08-08T06:58:07.799Z</time>
      </trkpt>
      <trkpt lat="43.67272" lon="1.47881">
        <ele>202.779909</ele>
        <time>2022-08-08T06:58:10.810Z</time>
      </trkpt>
      <trkpt lat="43.67263" lon="1.47872">
        <ele>202.65048</ele>
        <time>2022-08-08T06:58:12.804Z</time>
      </trkpt>
      <trkpt lat="43.67254" lon="1.47867">
        <ele>202.534886</ele>
        <time>2022-08-08T06:58:14.825Z</time>
      </trkpt>
      <trkpt lat="43.67246" lon="1.47865">
        <ele>202.426404</ele>
        <time>2022-08-08T06:58:16.830Z</time>
      </trkpt>
      <trkpt lat="43.67236" lon="1.47864">
        <ele>202.308956</ele>
        <time>2022-08-08T06:58:18.814Z</time>
      </trkpt>
      <trkpt lat="43.67225" lon="1.47863">
        <ele>202.185582</ele>
        <time>2022-08-08T06:58:20.805Z</time>
      </trkpt>
      <trkpt lat="43.67215" lon="1.47861">
        <ele>202.059293</ele>
        <time>2022-08-08T06:58:22.801Z</time>
      </trkpt>
      <trkpt lat="43.67204" lon="1.47858">
        <ele>201.929874</ele>
        <time>2022-08-08T06:58:24.814Z</time>
      </trkpt>
      <trkpt lat="43.67192" lon="1.47856">
        <ele>201.776748</ele>
        <time>2022-08-08T06:58:27.790Z</time>
      </trkpt>
      <trkpt lat="43.67183" lon="1.47851">
        <ele>201.664835</ele>
        <time>2022-08-08T06:58:30.812Z</time>
      </trkpt>
      <trkpt lat="43.67174" lon="1.4785">
        <ele>201.553006</ele>
        <time>2022-08-08T06:58:34.811Z</time>
      </trkpt>
      <trkpt lat="43.67162" lon="1.4785">
        <ele>201.405843</ele>
        <time>2022-08-08T06:58:37.816Z</time>
      </trkpt>
      <trkpt lat="43.67152" lon="1.4785">
        <ele>201.286204</ele>
        <time>2022-08-08T06:58:39.804Z</time>
      </trkpt>
      <trkpt lat="43.67142" lon="1.4785">
        <ele>201.174912</ele>
        <time>2022-08-08T06:58:41.817Z</time>
      </trkpt>
      <trkpt lat="43.67133" lon="1.47845">
        <ele>201.051655</ele>
        <time>2022-08-08T06:58:43.809Z</time>
      </trkpt>
      <trkpt lat="43.67122" lon="1.47842">
        <ele>200.918745</ele>
        <time>2022-08-08T06:58:45.815Z</time>
      </trkpt>
      <trkpt lat="43.67111" lon="1.47838">
        <ele>200.785611</ele>
        <time>2022-08-08T06:58:47.807Z</time>
      </trkpt>
      <trkpt lat="43.671" lon="1.47835">
        <ele>200.657501</ele>
        <time>2022-08-08T06:58:49.798Z</time>
      </trkpt>
      <trkpt lat="43.67091" lon="1.47829">
        <ele>200.529301</ele>
        <time>2022-08-08T06:58:51.816Z</time>
      </trkpt>
      <trkpt lat="43.67081" lon="1.47821">
        <ele>200.402196</ele>
        <time>2022-08-08T06:58:53.804Z</time>
      </trkpt>
      <trkpt lat="43.67072" lon="1.47813">
        <ele>200.273189</ele>
        <time>2022-08-08T06:58:55.812Z</time>
      </trkpt>
      <trkpt lat="43.67062" lon="1.47806">
        <ele>200.141128</ele>
        <time>2022-08-08T06:58:57.814Z</time>
      </trkpt>
      <trkpt lat="43.67054" lon="1.47796">
        <ele>200.010795</ele>
        <time>2022-08-08T06:58:59.802Z</time>
      </trkpt>
      <trkpt lat="43.67046" lon="1.47786">
        <ele>199.88432</ele>
        <time>2022-08-08T06:59:01.821Z</time>
      </trkpt>
      <trkpt lat="43.6704" lon="1.47774">
        <ele>199.756831</ele>
        <time>2022-08-08T06:59:03.802Z</time>
      </trkpt>
      <trkpt lat="43.67037" lon="1.4776">
        <ele>199.633216</ele>
        <time>2022-08-08T06:59:05.811Z</time>
      </trkpt>
      <trkpt lat="43.67032" lon="1.47748">
        <ele>199.512204</ele>
        <time>2022-08-08T06:59:07.824Z</time>
      </trkpt>
      <trkpt lat="43.67026" lon="1.47737">
        <ele>199.396061</ele>
        <time>2022-08-08T06:59:09.793Z</time>
      </trkpt>
      <trkpt lat="43.6702" lon="1.47725">
        <ele>199.272739</ele>
        <time>2022-08-08T06:59:11.796Z</time>
      </trkpt>
      <trkpt lat="43.67015" lon="1.47712">
        <ele>199.14502</ele>
        <time>2022-08-08T06:59:13.808Z</time>
      </trkpt>
      <trkpt lat="43.67009" lon="1.477">
        <ele>199.016802</ele>
        <time>2022-08-08T06:59:15.799Z</time>
      </trkpt>
      <trkpt lat="43.67005" lon="1.47686">
        <ele>198.886323</ele>
        <time>2022-08-08T06:59:17.801Z</time>
      </trkpt>
      <trkpt lat="43.67001" lon="1.47673">
        <ele>198.766907</ele>
        <time>2022-08-08T06:59:19.805Z</time>
      </trkpt>
      <trkpt lat="43.66998" lon="1.4766">
        <ele>198.650879</ele>
        <time>2022-08-08T06:59:21.805Z</time>
      </trkpt>
      <trkpt lat="43.66996" lon="1.47647">
        <ele>198.55798</ele>
        <time>2022-08-08T06:59:23.816Z</time>
      </trkpt>
      <trkpt lat="43.66993" lon="1.47635">
        <ele>198.521625</ele>
        <time>2022-08-08T06:59:25.807Z</time>
      </trkpt>
      <trkpt lat="43.66991" lon="1.47622">
        <ele>198.485817</ele>
        <time>2022-08-08T06:59:27.813Z</time>
      </trkpt>
      <trkpt lat="43.66992" lon="1.4761">
        <ele>198.451342</ele>
        <time>2022-08-08T06:59:29.821Z</time>
      </trkpt>
      <trkpt lat="43.66986" lon="1.47595">
        <ele>198.402663</ele>
        <time>2022-08-08T06:59:32.824Z</time>
      </trkpt>
      <trkpt lat="43.66979" lon="1.47586">
        <ele>198.365923</ele>
        <time>2022-08-08T06:59:34.830Z</time>
      </trkpt>
      <trkpt lat="43.66971" lon="1.47577">
        <ele>198.328782</ele>
        <time>2022-08-08T06:59:36.829Z</time>
      </trkpt>
      <trkpt lat="43.66962" lon="1.47569">
        <ele>198.289184</ele>
        <time>2022-08-08T06:59:38.820Z</time>
      </trkpt>
      <trkpt lat="43.66954" lon="1.47559">
        <ele>198.247374</ele>
        <time>2022-08-08T06:59:40.808Z</time>
      </trkpt>
      <trkpt lat="43.66942" lon="1.47554">
        <ele>198.20095</ele>
        <time>2022-08-08T06:59:42.800Z</time>
      </trkpt>
      <trkpt lat="43.66932" lon="1.47549">
        <ele>198.157537</ele>
        <time>2022-08-08T06:59:44.819Z</time>
      </trkpt>
      <trkpt lat="43.66924" lon="1.47539">
        <ele>198.116877</ele>
        <time>2022-08-08T06:59:46.795Z</time>
      </trkpt>
      <trkpt lat="43.66918" lon="1.47526">
        <ele>198.076296</ele>
        <time>2022-08-08T06:59:48.820Z</time>
      </trkpt>
      <trkpt lat="43.66912" lon="1.47515">
        <ele>198.038395</ele>
        <time>2022-08-08T06:59:50.799Z</time>
      </trkpt>
      <trkpt lat="43.66903" lon="1.47508">
        <ele>197.998246</ele>
        <time>2022-08-08T06:59:52.821Z</time>
      </trkpt>
      <trkpt lat="43.66893" lon="1.47503">
        <ele>197.95766</ele>
        <time>2022-08-08T06:59:54.821Z</time>
      </trkpt>
      <trkpt lat="43.66885" lon="1.47494">
        <ele>197.917446</ele>
        <time>2022-08-08T06:59:56.801Z</time>
      </trkpt>
      <trkpt lat="43.66876" lon="1.47485">
        <ele>197.903604</ele>
        <time>2022-08-08T06:59:59.823Z</time>
      </trkpt>
      <trkpt lat="43.66869" lon="1.47474">
        <ele>198.043067</ele>
        <time>2022-08-08T07:00:17.815Z</time>
      </trkpt>
      <trkpt lat="43.66859" lon="1.47465">
        <ele>198.198079</ele>
        <time>2022-08-08T07:00:20.808Z</time>
      </trkpt>
      <trkpt lat="43.66849" lon="1.47453">
        <ele>198.374787</ele>
        <time>2022-08-08T07:00:23.809Z</time>
      </trkpt>
      <trkpt lat="43.66841" lon="1.47444">
        <ele>198.507154</ele>
        <time>2022-08-08T07:00:25.820Z</time>
      </trkpt>
      <trkpt lat="43.66833" lon="1.47435">
        <ele>198.641625</ele>
        <time>2022-08-08T07:00:27.812Z</time>
      </trkpt>
      <trkpt lat="43.6683" lon="1.47423">
        <ele>198.763595</ele>
        <time>2022-08-08T07:00:29.811Z</time>
      </trkpt>
      <trkpt lat="43.66825" lon="1.47411">
        <ele>198.89384</ele>
        <time>2022-08-08T07:00:32.812Z</time>
      </trkpt>
      <trkpt lat="43.66815" lon="1.47405">
        <ele>199.040125</ele>
        <time>2022-08-08T07:00:35.839Z</time>
      </trkpt>
      <trkpt lat="43.66806" lon="1.47399">
        <ele>199.167828</ele>
        <time>2022-08-08T07:00:38.818Z</time>
      </trkpt>
      <trkpt lat="43.66797" lon="1.47391">
        <ele>199.302683</ele>
        <time>2022-08-08T07:00:41.861Z</time>
      </trkpt>
      <trkpt lat="43.66787" lon="1.47382">
        <ele>199.457745</ele>
        <time>2022-08-08T07:00:45.810Z</time>
      </trkpt>
      <trkpt lat="43.66777" lon="1.47377">
        <ele>199.608724</ele>
        <time>2022-08-08T07:00:48.812Z</time>
      </trkpt>
      <trkpt lat="43.66768" lon="1.47373">
        <ele>199.732351</ele>
        <time>2022-08-08T07:00:50.817Z</time>
      </trkpt>
      <trkpt lat="43.66758" lon="1.4737">
        <ele>199.857669</ele>
        <time>2022-08-08T07:00:52.818Z</time>
      </trkpt>
      <trkpt lat="43.66748" lon="1.47367">
        <ele>199.994407</ele>
        <time>2022-08-08T07:00:54.803Z</time>
      </trkpt>
      <trkpt lat="43.66739" lon="1.47364">
        <ele>200.12059</ele>
        <time>2022-08-08T07:00:56.833Z</time>
      </trkpt>
      <trkpt lat="43.66729" lon="1.47361">
        <ele>200.248946</ele>
        <time>2022-08-08T07:00:58.807Z</time>
      </trkpt>
      <trkpt lat="43.66721" lon="1.47357">
        <ele>200.195109</ele>
        <time>2022-08-08T07:01:00.822Z</time>
      </trkpt>
      <trkpt lat="43.66708" lon="1.47352">
        <ele>200.119232</ele>
        <time>2022-08-08T07:01:03.830Z</time>
      </trkpt>
      <trkpt lat="43.66698" lon="1.47349">
        <ele>200.05851</ele>
        <time>2022-08-08T07:01:07.815Z</time>
      </trkpt>
      <trkpt lat="43.66689" lon="1.47346">
        <ele>200.000066</ele>
        <time>2022-08-08T07:01:10.832Z</time>
      </trkpt>
      <trkpt lat="43.66677" lon="1.47341">
        <ele>199.927132</ele>
        <time>2022-08-08T07:01:13.820Z</time>
      </trkpt>
      <trkpt lat="43.66669" lon="1.47338">
        <ele>199.87351</ele>
        <time>2022-08-08T07:01:15.811Z</time>
      </trkpt>
      <trkpt lat="43.6666" lon="1.47334">
        <ele>199.817717</ele>
        <time>2022-08-08T07:01:17.851Z</time>
      </trkpt>
      <trkpt lat="43.66648" lon="1.47329">
        <ele>199.743048</ele>
        <time>2022-08-08T07:01:20.822Z</time>
      </trkpt>
      <trkpt lat="43.66639" lon="1.47332">
        <ele>199.687591</ele>
        <time>2022-08-08T07:01:24.812Z</time>
      </trkpt>
      <trkpt lat="43.66643" lon="1.47345">
        <ele>199.626669</ele>
        <time>2022-08-08T07:01:27.810Z</time>
      </trkpt>
      <trkpt lat="43.6665" lon="1.47361">
        <ele>199.5465</ele>
        <time>2022-08-08T07:01:30.817Z</time>
      </trkpt>
      <trkpt lat="43.66656" lon="1.47372">
        <ele>199.485965</ele>
        <time>2022-08-08T07:01:32.827Z</time>
      </trkpt>
      <trkpt lat="43.66662" lon="1.47385">
        <ele>199.42081</ele>
        <time>2022-08-08T07:01:34.819Z</time>
      </trkpt>
      <trkpt lat="43.66668" lon="1.47398">
        <ele>199.353641</ele>
        <time>2022-08-08T07:01:36.803Z</time>
      </trkpt>
      <trkpt lat="43.66675" lon="1.4741">
        <ele>199.287533</ele>
        <time>2022-08-08T07:01:38.822Z</time>
      </trkpt>
      <trkpt lat="43.66681" lon="1.47423">
        <ele>199.221035</ele>
        <time>2022-08-08T07:01:40.805Z</time>
      </trkpt>
      <trkpt lat="43.66689" lon="1.47434">
        <ele>199.162992</ele>
        <time>2022-08-08T07:01:42.815Z</time>
      </trkpt>
      <trkpt lat="43.66697" lon="1.47444">
        <ele>199.119755</ele>
        <time>2022-08-08T07:01:44.804Z</time>
      </trkpt>
      <trkpt lat="43.66704" lon="1.47453">
        <ele>199.078964</ele>
        <time>2022-08-08T07:01:46.817Z</time>
      </trkpt>
      <trkpt lat="43.66712" lon="1.47462">
        <ele>199.04026</ele>
        <time>2022-08-08T07:01:48.816Z</time>
      </trkpt>
      <trkpt lat="43.66719" lon="1.4747">
        <ele>199.00347</ele>
        <time>2022-08-08T07:01:50.814Z</time>
      </trkpt>
      <trkpt lat="43.6673" lon="1.47479">
        <ele>198.950839</ele>
        <time>2022-08-08T07:01:53.813Z</time>
      </trkpt>
      <trkpt lat="43.66742" lon="1.47488">
        <ele>198.898937</ele>
        <time>2022-08-08T07:01:56.830Z</time>
      </trkpt>
      <trkpt lat="43.66753" lon="1.47496">
        <ele>198.847298</ele>
        <time>2022-08-08T07:01:59.814Z</time>
      </trkpt>
      <trkpt lat="43.66762" lon="1.47505">
        <ele>198.801491</ele>
        <time>2022-08-08T07:02:02.810Z</time>
      </trkpt>
      <trkpt lat="43.66771" lon="1.47511">
        <ele>198.761984</ele>
        <time>2022-08-08T07:02:05.812Z</time>
      </trkpt>
      <trkpt lat="43.66782" lon="1.47512">
        <ele>198.718407</ele>
        <time>2022-08-08T07:02:08.803Z</time>
      </trkpt>
      <trkpt lat="43.66793" lon="1.47505">
        <ele>198.672345</ele>
        <time>2022-08-08T07:02:10.795Z</time>
      </trkpt>
      <trkpt lat="43.66807" lon="1.47493">
        <ele>198.605775</ele>
        <time>2022-08-08T07:02:12.802Z</time>
      </trkpt>
      <trkpt lat="43.66815" lon="1.47487">
        <ele>198.567987</ele>
        <time>2022-08-08T07:02:13.811Z</time>
      </trkpt>
      <trkpt lat="43.66829" lon="1.47479">
        <ele>198.510352</ele>
        <time>2022-08-08T07:02:15.810Z</time>
      </trkpt>
      <trkpt lat="43.66838" lon="1.4748">
        <ele>198.474341</ele>
        <time>2022-08-08T07:02:18.809Z</time>
      </trkpt>
      <trkpt lat="43.66848" lon="1.47486">
        <ele>198.459831</ele>
        <time>2022-08-08T07:02:22.816Z</time>
      </trkpt>
      <trkpt lat="43.66856" lon="1.47495">
        <ele>198.46106</ele>
        <time>2022-08-08T07:02:25.810Z</time>
      </trkpt>
      <trkpt lat="43.66862" lon="1.47507">
        <ele>198.462381</ele>
        <time>2022-08-08T07:02:29.794Z</time>
      </trkpt>
      <trkpt lat="43.6687" lon="1.47516">
        <ele>198.463584</ele>
        <time>2022-08-08T07:02:32.808Z</time>
      </trkpt>
      <trkpt lat="43.6688" lon="1.47524">
        <ele>198.465009</ele>
        <time>2022-08-08T07:02:35.820Z</time>
      </trkpt>
      <trkpt lat="43.66889" lon="1.47535">
        <ele>198.466454</ele>
        <time>2022-08-08T07:02:39.836Z</time>
      </trkpt>
      <trkpt lat="43.66895" lon="1.47545">
        <ele>198.467555</ele>
        <time>2022-08-08T07:02:42.821Z</time>
      </trkpt>
      <trkpt lat="43.66903" lon="1.47553">
        <ele>198.468782</ele>
        <time>2022-08-08T07:02:45.815Z</time>
      </trkpt>
      <trkpt lat="43.6691" lon="1.47566">
        <ele>198.470196</ele>
        <time>2022-08-08T07:02:49.809Z</time>
      </trkpt>
      <trkpt lat="43.66917" lon="1.47577">
        <ele>198.471514</ele>
        <time>2022-08-08T07:02:52.810Z</time>
      </trkpt>
      <trkpt lat="43.66924" lon="1.47588">
        <ele>198.472783</ele>
        <time>2022-08-08T07:02:56.806Z</time>
      </trkpt>
      <trkpt lat="43.66932" lon="1.47598">
        <ele>198.474035</ele>
        <time>2022-08-08T07:02:59.811Z</time>
      </trkpt>
      <trkpt lat="43.6694" lon="1.47605">
        <ele>198.475225</ele>
        <time>2022-08-08T07:03:02.817Z</time>
      </trkpt>
      <trkpt lat="43.66949" lon="1.4761">
        <ele>198.476431</ele>
        <time>2022-08-08T07:03:04.807Z</time>
      </trkpt>
      <trkpt lat="43.66959" lon="1.47621">
        <ele>198.477939</ele>
        <time>2022-08-08T07:03:07.794Z</time>
      </trkpt>
      <trkpt lat="43.66966" lon="1.47633">
        <ele>198.479246</ele>
        <time>2022-08-08T07:03:11.824Z</time>
      </trkpt>
      <trkpt lat="43.6697" lon="1.47644">
        <ele>198.480367</ele>
        <time>2022-08-08T07:03:14.821Z</time>
      </trkpt>
      <trkpt lat="43.66976" lon="1.47655">
        <ele>198.560335</ele>
        <time>2022-08-08T07:03:20.804Z</time>
      </trkpt>
      <trkpt lat="43.66982" lon="1.47686">
        <ele>198.843143</ele>
        <time>2022-08-08T07:03:41.806Z</time>
      </trkpt>
      <trkpt lat="43.66984" lon="1.47698">
        <ele>198.957028</ele>
        <time>2022-08-08T07:03:44.818Z</time>
      </trkpt>
      <trkpt lat="43.66989" lon="1.47711">
        <ele>199.081113</ele>
        <time>2022-08-08T07:03:47.807Z</time>
      </trkpt>
      <trkpt lat="43.66994" lon="1.47724">
        <ele>199.211333</ele>
        <time>2022-08-08T07:03:51.818Z</time>
      </trkpt>
      <trkpt lat="43.66998" lon="1.47736">
        <ele>199.325265</ele>
        <time>2022-08-08T07:03:54.796Z</time>
      </trkpt>
      <trkpt lat="43.67004" lon="1.47746">
        <ele>199.43594</ele>
        <time>2022-08-08T07:03:56.805Z</time>
      </trkpt>
      <trkpt lat="43.6701" lon="1.47756">
        <ele>199.552798</ele>
        <time>2022-08-08T07:03:58.808Z</time>
      </trkpt>
      <trkpt lat="43.67012" lon="1.47769">
        <ele>199.667257</ele>
        <time>2022-08-08T07:04:01.819Z</time>
      </trkpt>
      <trkpt lat="43.67016" lon="1.47783">
        <ele>199.797137</ele>
        <time>2022-08-08T07:04:05.819Z</time>
      </trkpt>
      <trkpt lat="43.67023" lon="1.47804">
        <ele>200.002126</ele>
        <time>2022-08-08T07:04:16.807Z</time>
      </trkpt>
      <trkpt lat="43.67036" lon="1.47837">
        <ele>200.330303</ele>
        <time>2022-08-08T07:04:42.825Z</time>
      </trkpt>
      <trkpt lat="43.67036" lon="1.4785">
        <ele>200.448299</ele>
        <time>2022-08-08T07:04:46.820Z</time>
      </trkpt>
      <trkpt lat="43.67055" lon="1.47867">
        <ele>200.666299</ele>
        <time>2022-08-08T07:05:21.825Z</time>
      </trkpt>
      <trkpt lat="43.67064" lon="1.47863">
        <ele>200.69158</ele>
        <time>2022-08-08T07:05:24.814Z</time>
      </trkpt>
      <trkpt lat="43.67077" lon="1.47867">
        <ele>200.727395</ele>
        <time>2022-08-08T07:05:27.816Z</time>
      </trkpt>
      <trkpt lat="43.67088" lon="1.47873">
        <ele>200.757558</ele>
        <time>2022-08-08T07:05:30.826Z</time>
      </trkpt>
      <trkpt lat="43.67097" lon="1.47881">
        <ele>200.784913</ele>
        <time>2022-08-08T07:05:34.809Z</time>
      </trkpt>
      <trkpt lat="43.67107" lon="1.47882">
        <ele>200.812161</ele>
        <time>2022-08-08T07:05:37.792Z</time>
      </trkpt>
      <trkpt lat="43.67117" lon="1.47884">
        <ele>200.839222</ele>
        <time>2022-08-08T07:05:40.811Z</time>
      </trkpt>
      <trkpt lat="43.67129" lon="1.47887">
        <ele>200.870897</ele>
        <time>2022-08-08T07:05:43.804Z</time>
      </trkpt>
      <trkpt lat="43.67139" lon="1.47888">
        <ele>200.89499</ele>
        <time>2022-08-08T07:05:45.802Z</time>
      </trkpt>
      <trkpt lat="43.6715" lon="1.47886">
        <ele>200.924801</ele>
        <time>2022-08-08T07:05:48.815Z</time>
      </trkpt>
      <trkpt lat="43.67162" lon="1.47885">
        <ele>200.955125</ele>
        <time>2022-08-08T07:05:51.796Z</time>
      </trkpt>
      <trkpt lat="43.67171" lon="1.47887">
        <ele>200.981262</ele>
        <time>2022-08-08T07:05:54.827Z</time>
      </trkpt>
      <trkpt lat="43.67181" lon="1.47888">
        <ele>201.006919</ele>
        <time>2022-08-08T07:05:56.812Z</time>
      </trkpt>
      <trkpt lat="43.6719" lon="1.4789">
        <ele>201.030908</ele>
        <time>2022-08-08T07:05:58.809Z</time>
      </trkpt>
      <trkpt lat="43.67203" lon="1.47894">
        <ele>201.064513</ele>
        <time>2022-08-08T07:06:01.808Z</time>
      </trkpt>
      <trkpt lat="43.67215" lon="1.47901">
        <ele>201.098464</ele>
        <time>2022-08-08T07:06:04.811Z</time>
      </trkpt>
      <trkpt lat="43.67224" lon="1.47903">
        <ele>201.123567</ele>
        <time>2022-08-08T07:06:06.816Z</time>
      </trkpt>
      <trkpt lat="43.67236" lon="1.47898">
        <ele>146.1</ele>
        <time>2022-08-08T07:06:09.812Z</time>
      </trkpt>
      <trkpt lat="43.67251" lon="1.47904">
        <ele>146.6</ele>
        <time>2022-08-08T07:06:14.800Z</time>
      </trkpt>
      <trkpt lat="43.67264" lon="1.47913">
        <ele>146.4</ele>
        <time>2022-08-08T07:06:17.798Z</time>
      </trkpt>
      <trkpt lat="43.67263" lon="1.47929">
        <ele>148.5</ele>
      </trkpt>
      <trkpt lat="43.67269" lon="1.47942">
        <ele>149.9</ele>
        <time>2022-08-08T07:06:20.825Z</time>
      </trkpt>
      <trkpt lat="43.67272" lon="1.47957">
        <ele>152.1</ele>
        <time>2022-08-08T07:33:39.835Z</time>
      </trkpt>
      <trkpt lat="43.67277" lon="1.47966">
        <ele>152.9</ele>
        <time>2022-08-08T07:33:44.827Z</time>
      </trkpt>
      <trkpt lat="43.67279" lon="1.47988">
        <ele>156.7</ele>
        <time>2022-08-08T07:33:49.793Z</time>
      </trkpt>
      <trkpt lat="43.67277" lon="1.47996">
        <ele>158.4</ele>
        <time>2022-08-08T07:33:54.823Z</time>
      </trkpt>
      <trkpt lat="43.67275" lon="1.48003">
        <ele>159.3</ele>
      </trkpt>
      <trkpt lat="43.67272" lon="1.48014">
        <ele>212.052604</ele>
        <time>2022-08-08T07:33:59.848Z</time>
      </trkpt>
      <trkpt lat="43.67261" lon="1.48021">
        <ele>212.997006</ele>
        <time>2022-08-08T07:34:04.831Z</time>
      </trkpt>
      <trkpt lat="43.67252" lon="1.48027">
        <ele>213.822732</ele>
        <time>2022-08-08T07:34:09.822Z</time>
      </trkpt>
      <trkpt lat="43.67245" lon="1.48036">
        <ele>214.631985</ele>
        <time>2022-08-08T07:34:13.824Z</time>
      </trkpt>
      <trkpt lat="43.67236" lon="1.4804">
        <ele>215.384243</ele>
        <time>2022-08-08T07:34:21.828Z</time>
      </trkpt>
      <trkpt lat="43.67232" lon="1.48053">
        <ele>216.24018</ele>
        <time>2022-08-08T07:34:29.816Z</time>
      </trkpt>
      <trkpt lat="43.67225" lon="1.48067">
        <ele>217.221247</ele>
        <time>2022-08-08T07:34:33.815Z</time>
      </trkpt>
      <trkpt lat="43.67217" lon="1.4808">
        <ele>217.350753</ele>
        <time>2022-08-08T07:34:38.817Z</time>
      </trkpt>
      <trkpt lat="43.67209" lon="1.48087">
        <ele>217.172109</ele>
        <time>2022-08-08T07:34:41.789Z</time>
      </trkpt>
      <trkpt lat="43.67199" lon="1.4809">
        <ele>216.994954</ele>
        <time>2022-08-08T07:34:44.821Z</time>
      </trkpt>
      <trkpt lat="43.6719" lon="1.48087">
        <ele>216.828092</ele>
        <time>2022-08-08T07:34:47.817Z</time>
      </trkpt>
      <trkpt lat="43.67182" lon="1.48081">
        <ele>216.660917</ele>
        <time>2022-08-08T07:34:50.804Z</time>
      </trkpt>
      <trkpt lat="43.67173" lon="1.48073">
        <ele>216.460919</ele>
        <time>2022-08-08T07:34:53.802Z</time>
      </trkpt>
      <trkpt lat="43.67164" lon="1.48064">
        <ele>216.257362</ele>
        <time>2022-08-08T07:34:55.801Z</time>
      </trkpt>
      <trkpt lat="43.67154" lon="1.48053">
        <ele>216.037311</ele>
        <time>2022-08-08T07:34:57.800Z</time>
      </trkpt>
      <trkpt lat="43.67145" lon="1.48043">
        <ele>215.823557</ele>
        <time>2022-08-08T07:34:59.812Z</time>
      </trkpt>
      <trkpt lat="43.67137" lon="1.48033">
        <ele>215.628818</ele>
        <time>2022-08-08T07:35:01.816Z</time>
      </trkpt>
      <trkpt lat="43.67129" lon="1.48024">
        <ele>215.44591</ele>
        <time>2022-08-08T07:35:03.808Z</time>
      </trkpt>
      <trkpt lat="43.67122" lon="1.48015">
        <ele>215.268795</ele>
        <time>2022-08-08T07:35:05.790Z</time>
      </trkpt>
      <trkpt lat="43.67115" lon="1.48005">
        <ele>215.087641</ele>
        <time>2022-08-08T07:35:07.793Z</time>
      </trkpt>
      <trkpt lat="43.67108" lon="1.47994">
        <ele>214.902362</ele>
        <time>2022-08-08T07:35:09.794Z</time>
      </trkpt>
      <trkpt lat="43.67101" lon="1.47983">
        <ele>214.71003</ele>
        <time>2022-08-08T07:35:11.807Z</time>
      </trkpt>
      <trkpt lat="43.67093" lon="1.47972">
        <ele>214.509776</ele>
        <time>2022-08-08T07:35:13.824Z</time>
      </trkpt>
      <trkpt lat="43.67085" lon="1.47961">
        <ele>214.302651</ele>
        <time>2022-08-08T07:35:15.818Z</time>
      </trkpt>
      <trkpt lat="43.67075" lon="1.47948">
        <ele>213.74922</ele>
        <time>2022-08-08T07:35:17.804Z</time>
      </trkpt>
      <trkpt lat="43.67063" lon="1.47933">
        <ele>213.026066</ele>
        <time>2022-08-08T07:35:19.825Z</time>
      </trkpt>
      <trkpt lat="43.67049" lon="1.4792">
        <ele>212.280833</ele>
        <time>2022-08-08T07:35:21.808Z</time>
      </trkpt>
      <trkpt lat="43.67036" lon="1.47906">
        <ele>211.55183</ele>
        <time>2022-08-08T07:35:23.809Z</time>
      </trkpt>
      <trkpt lat="43.6702" lon="1.47893">
        <ele>210.746401</ele>
        <time>2022-08-08T07:35:25.800Z</time>
      </trkpt>
      <trkpt lat="43.67008" lon="1.47883">
        <ele>210.098121</ele>
        <time>2022-08-08T07:35:27.792Z</time>
      </trkpt>
      <trkpt lat="43.66995" lon="1.47876">
        <ele>209.495893</ele>
        <time>2022-08-08T07:35:29.816Z</time>
      </trkpt>
      <trkpt lat="43.66985" lon="1.47873">
        <ele>209.050177</ele>
        <time>2022-08-08T07:35:31.809Z</time>
      </trkpt>
      <trkpt lat="43.66979" lon="1.47883">
        <ele>208.633244</ele>
        <time>2022-08-08T07:35:34.804Z</time>
      </trkpt>
      <trkpt lat="43.66975" lon="1.47898">
        <ele>208.124752</ele>
        <time>2022-08-08T07:35:38.815Z</time>
      </trkpt>
      <trkpt lat="43.66968" lon="1.47908">
        <ele>207.688624</ele>
        <time>2022-08-08T07:35:41.813Z</time>
      </trkpt>
      <trkpt lat="43.66962" lon="1.4792">
        <ele>207.194212</ele>
        <time>2022-08-08T07:35:44.791Z</time>
      </trkpt>
      <trkpt lat="43.66955" lon="1.47932">
        <ele>206.717476</ele>
        <time>2022-08-08T07:35:47.798Z</time>
      </trkpt>
      <trkpt lat="43.66948" lon="1.47942">
        <ele>206.287446</ele>
        <time>2022-08-08T07:35:50.814Z</time>
      </trkpt>
      <trkpt lat="43.6694" lon="1.47954">
        <ele>206.845714</ele>
        <time>2022-08-08T07:35:53.802Z</time>
      </trkpt>
      <trkpt lat="43.66934" lon="1.47968">
        <ele>207.410302</ele>
        <time>2022-08-08T07:35:56.810Z</time>
      </trkpt>
      <trkpt lat="43.66927" lon="1.47984">
        <ele>208.041672</ele>
        <time>2022-08-08T07:35:59.815Z</time>
      </trkpt>
      <trkpt lat="43.66919" lon="1.47998">
        <ele>208.65636</ele>
        <time>2022-08-08T07:36:02.799Z</time>
      </trkpt>
      <trkpt lat="43.66911" lon="1.48011">
        <ele>209.241793</ele>
        <time>2022-08-08T07:36:05.798Z</time>
      </trkpt>
      <trkpt lat="43.66904" lon="1.48024">
        <ele>209.826805</ele>
        <time>2022-08-08T07:36:08.806Z</time>
      </trkpt>
      <trkpt lat="43.66897" lon="1.48037">
        <ele>210.393755</ele>
        <time>2022-08-08T07:36:11.798Z</time>
      </trkpt>
      <trkpt lat="43.6689" lon="1.48051">
        <ele>210.98873</ele>
        <time>2022-08-08T07:36:14.808Z</time>
      </trkpt>
      <trkpt lat="43.66883" lon="1.48065">
        <ele>211.556215</ele>
        <time>2022-08-08T07:36:17.809Z</time>
      </trkpt>
      <trkpt lat="43.66877" lon="1.48077">
        <ele>212.064519</ele>
        <time>2022-08-08T07:36:20.812Z</time>
      </trkpt>
      <trkpt lat="43.66873" lon="1.48089">
        <ele>212.509619</ele>
        <time>2022-08-08T07:36:22.828Z</time>
      </trkpt>
      <trkpt lat="43.66869" lon="1.48106">
        <ele>213.141522</ele>
        <time>2022-08-08T07:36:25.799Z</time>
      </trkpt>
      <trkpt lat="43.66865" lon="1.48117">
        <ele>213.57326</ele>
        <time>2022-08-08T07:36:27.810Z</time>
      </trkpt>
      <trkpt lat="43.66862" lon="1.48129">
        <ele>214.009985</ele>
        <time>2022-08-08T07:36:29.809Z</time>
      </trkpt>
      <trkpt lat="43.66857" lon="1.48141">
        <ele>214.47656</ele>
        <time>2022-08-08T07:36:31.805Z</time>
      </trkpt>
      <trkpt lat="43.66853" lon="1.48152">
        <ele>214.957595</ele>
        <time>2022-08-08T07:36:33.808Z</time>
      </trkpt>
      <trkpt lat="43.66849" lon="1.48166">
        <ele>215.790466</ele>
        <time>2022-08-08T07:36:35.806Z</time>
      </trkpt>
      <trkpt lat="43.66845" lon="1.48179">
        <ele>216.548307</ele>
        <time>2022-08-08T07:36:37.786Z</time>
      </trkpt>
      <trkpt lat="43.66838" lon="1.48189">
        <ele>217.32184</ele>
        <time>2022-08-08T07:36:39.820Z</time>
      </trkpt>
      <trkpt lat="43.66832" lon="1.48201">
        <ele>218.136448</ele>
        <time>2022-08-08T07:36:41.799Z</time>
      </trkpt>
      <trkpt lat="43.6683" lon="1.48215">
        <ele>218.911434</ele>
        <time>2022-08-08T07:36:43.816Z</time>
      </trkpt>
      <trkpt lat="43.6683" lon="1.48228">
        <ele>219.6824</ele>
        <time>2022-08-08T07:36:45.827Z</time>
      </trkpt>
      <trkpt lat="43.66827" lon="1.48242">
        <ele>220.487068</ele>
        <time>2022-08-08T07:36:47.819Z</time>
      </trkpt>
      <trkpt lat="43.66822" lon="1.48255">
        <ele>221.268812</ele>
        <time>2022-08-08T07:36:49.802Z</time>
      </trkpt>
      <trkpt lat="43.66819" lon="1.48267">
        <ele>222.005435</ele>
        <time>2022-08-08T07:36:51.806Z</time>
      </trkpt>
      <trkpt lat="43.66813" lon="1.48283">
        <ele>223.004823</ele>
        <time>2022-08-08T07:36:54.813Z</time>
      </trkpt>
      <trkpt lat="43.66803" lon="1.48293">
        <ele>223.949055</ele>
        <time>2022-08-08T07:36:57.820Z</time>
      </trkpt>
      <trkpt lat="43.66792" lon="1.48301">
        <ele>224.905701</ele>
        <time>2022-08-08T07:37:00.798Z</time>
      </trkpt>
      <trkpt lat="43.66782" lon="1.48313">
        <ele>225.893262</ele>
        <time>2022-08-08T07:37:03.794Z</time>
      </trkpt>
      <trkpt lat="43.66776" lon="1.48328">
        <ele>226.861856</ele>
        <time>2022-08-08T07:37:06.822Z</time>
      </trkpt>
      <trkpt lat="43.66772" lon="1.48343">
        <ele>227.789251</ele>
        <time>2022-08-08T07:37:09.823Z</time>
      </trkpt>
      <trkpt lat="43.66768" lon="1.48359">
        <ele>228.737171</ele>
        <time>2022-08-08T07:37:12.815Z</time>
      </trkpt>
      <trkpt lat="43.66763" lon="1.48374">
        <ele>229.480485</ele>
        <time>2022-08-08T07:37:15.819Z</time>
      </trkpt>
      <trkpt lat="43.66757" lon="1.48389">
        <ele>230.222258</ele>
        <time>2022-08-08T07:37:18.834Z</time>
      </trkpt>
      <trkpt lat="43.6675" lon="1.48403">
        <ele>230.940633</ele>
        <time>2022-08-08T07:37:21.827Z</time>
      </trkpt>
      <trkpt lat="43.66745" lon="1.48418">
        <ele>231.667153</ele>
        <time>2022-08-08T07:37:24.823Z</time>
      </trkpt>
      <trkpt lat="43.66739" lon="1.48433">
        <ele>232.399325</ele>
        <time>2022-08-08T07:37:27.812Z</time>
      </trkpt>
      <trkpt lat="43.66734" lon="1.48449">
        <ele>233.145073</ele>
        <time>2022-08-08T07:37:30.810Z</time>
      </trkpt>
      <trkpt lat="43.66729" lon="1.48465">
        <ele>233.905611</ele>
        <time>2022-08-08T07:37:33.841Z</time>
      </trkpt>
      <trkpt lat="43.66724" lon="1.48481">
        <ele>234.679748</ele>
        <time>2022-08-08T07:37:36.832Z</time>
      </trkpt>
      <trkpt lat="43.66718" lon="1.48497">
        <ele>235.437277</ele>
        <time>2022-08-08T07:37:39.831Z</time>
      </trkpt>
      <trkpt lat="43.66713" lon="1.48511">
        <ele>236.145601</ele>
        <time>2022-08-08T07:37:42.845Z</time>
      </trkpt>
      <trkpt lat="43.66707" lon="1.48523">
        <ele>236.756648</ele>
        <time>2022-08-08T07:37:45.841Z</time>
      </trkpt>
      <trkpt lat="43.66703" lon="1.48535">
        <ele>237.332858</ele>
        <time>2022-08-08T07:37:48.844Z</time>
      </trkpt>
      <trkpt lat="43.66707" lon="1.48547">
        <ele>237.897112</ele>
        <time>2022-08-08T07:37:51.832Z</time>
      </trkpt>
      <trkpt lat="43.66715" lon="1.48556">
        <ele>238.482284</ele>
        <time>2022-08-08T07:37:54.831Z</time>
      </trkpt>
      <trkpt lat="43.66726" lon="1.48561">
        <ele>239.187043</ele>
        <time>2022-08-08T07:37:59.820Z</time>
      </trkpt>
      <trkpt lat="43.66737" lon="1.48563">
        <ele>239.682333</ele>
        <time>2022-08-08T07:38:02.842Z</time>
      </trkpt>
      <trkpt lat="43.66749" lon="1.4856">
        <ele>239.951514</ele>
        <time>2022-08-08T07:38:05.827Z</time>
      </trkpt>
      <trkpt lat="43.66761" lon="1.48556">
        <ele>240.228847</ele>
        <time>2022-08-08T07:38:08.806Z</time>
      </trkpt>
      <trkpt lat="43.66774" lon="1.48551">
        <ele>240.517366</ele>
        <time>2022-08-08T07:38:11.815Z</time>
      </trkpt>
      <trkpt lat="43.66783" lon="1.48547">
        <ele>240.718112</ele>
        <time>2022-08-08T07:38:13.827Z</time>
      </trkpt>
      <trkpt lat="43.66791" lon="1.48543">
        <ele>240.912693</ele>
        <time>2022-08-08T07:38:15.809Z</time>
      </trkpt>
      <trkpt lat="43.66803" lon="1.48535">
        <ele>241.196863</ele>
        <time>2022-08-08T07:38:18.840Z</time>
      </trkpt>
      <trkpt lat="43.66813" lon="1.48531">
        <ele>241.415598</ele>
        <time>2022-08-08T07:38:21.829Z</time>
      </trkpt>
      <trkpt lat="43.66818" lon="1.48544">
        <ele>241.643544</ele>
        <time>2022-08-08T07:38:25.823Z</time>
      </trkpt>
      <trkpt lat="43.66815" lon="1.4856">
        <ele>241.910431</ele>
        <time>2022-08-08T07:38:28.844Z</time>
      </trkpt>
      <trkpt lat="43.66814" lon="1.48574">
        <ele>242.118767</ele>
        <time>2022-08-08T07:38:30.838Z</time>
      </trkpt>
      <trkpt lat="43.66813" lon="1.48588">
        <ele>242.348098</ele>
        <time>2022-08-08T07:38:32.831Z</time>
      </trkpt>
      <trkpt lat="43.66812" lon="1.48603">
        <ele>242.587927</ele>
        <time>2022-08-08T07:38:34.815Z</time>
      </trkpt>
      <trkpt lat="43.66812" lon="1.48619">
        <ele>242.831727</ele>
        <time>2022-08-08T07:38:36.846Z</time>
      </trkpt>
      <trkpt lat="43.66811" lon="1.48634">
        <ele>243.077203</ele>
        <time>2022-08-08T07:38:38.824Z</time>
      </trkpt>
      <trkpt lat="43.6681" lon="1.4865">
        <ele>243.319978</ele>
        <time>2022-08-08T07:38:40.837Z</time>
      </trkpt>
      <trkpt lat="43.66809" lon="1.48665">
        <ele>243.596925</ele>
        <time>2022-08-08T07:38:42.842Z</time>
      </trkpt>
      <trkpt lat="43.66808" lon="1.4868">
        <ele>243.971781</ele>
        <time>2022-08-08T07:38:44.836Z</time>
      </trkpt>
      <trkpt lat="43.66807" lon="1.48695">
        <ele>244.34329</ele>
        <time>2022-08-08T07:38:46.844Z</time>
      </trkpt>
      <trkpt lat="43.66806" lon="1.4871">
        <ele>244.705302</ele>
        <time>2022-08-08T07:38:48.855Z</time>
      </trkpt>
      <trkpt lat="43.66806" lon="1.48724">
        <ele>245.056774</ele>
        <time>2022-08-08T07:38:50.842Z</time>
      </trkpt>
      <trkpt lat="43.66806" lon="1.48737">
        <ele>245.396002</ele>
        <time>2022-08-08T07:38:52.851Z</time>
      </trkpt>
      <trkpt lat="43.66804" lon="1.48751">
        <ele>245.7332</ele>
        <time>2022-08-08T07:38:54.837Z</time>
      </trkpt>
      <trkpt lat="43.66803" lon="1.48764">
        <ele>246.064029</ele>
        <time>2022-08-08T07:38:56.837Z</time>
      </trkpt>
      <trkpt lat="43.66803" lon="1.48777">
        <ele>246.393156</ele>
        <time>2022-08-08T07:38:58.837Z</time>
      </trkpt>
      <trkpt lat="43.66802" lon="1.48791">
        <ele>246.722852</ele>
        <time>2022-08-08T07:39:00.835Z</time>
      </trkpt>
      <trkpt lat="43.66802" lon="1.48804">
        <ele>247.051925</ele>
        <time>2022-08-08T07:39:02.831Z</time>
      </trkpt>
      <trkpt lat="43.66801" lon="1.48817">
        <ele>247.384882</ele>
        <time>2022-08-08T07:39:04.853Z</time>
      </trkpt>
      <trkpt lat="43.668" lon="1.48831">
        <ele>247.723094</ele>
        <time>2022-08-08T07:39:06.858Z</time>
      </trkpt>
      <trkpt lat="43.66799" lon="1.48845">
        <ele>248.06623</ele>
        <time>2022-08-08T07:39:08.838Z</time>
      </trkpt>
      <trkpt lat="43.66799" lon="1.48859">
        <ele>248.410555</ele>
        <time>2022-08-08T07:39:10.842Z</time>
      </trkpt>
      <trkpt lat="43.66798" lon="1.48873">
        <ele>248.759673</ele>
        <time>2022-08-08T07:39:12.826Z</time>
      </trkpt>
      <trkpt lat="43.66797" lon="1.48887">
        <ele>249.113005</ele>
        <time>2022-08-08T07:39:14.826Z</time>
      </trkpt>
      <trkpt lat="43.66797" lon="1.48902">
        <ele>249.48983</ele>
        <time>2022-08-08T07:39:16.837Z</time>
      </trkpt>
      <trkpt lat="43.66796" lon="1.48918">
        <ele>249.649241</ele>
        <time>2022-08-08T07:39:18.826Z</time>
      </trkpt>
      <trkpt lat="43.66795" lon="1.48935">
        <ele>249.651384</ele>
        <time>2022-08-08T07:39:20.829Z</time>
      </trkpt>
      <trkpt lat="43.66794" lon="1.48951">
        <ele>249.653606</ele>
        <time>2022-08-08T07:39:22.842Z</time>
      </trkpt>
      <trkpt lat="43.66793" lon="1.48968">
        <ele>249.655857</ele>
        <time>2022-08-08T07:39:24.847Z</time>
      </trkpt>
      <trkpt lat="43.66792" lon="1.48985">
        <ele>249.658038</ele>
        <time>2022-08-08T07:39:26.824Z</time>
      </trkpt>
      <trkpt lat="43.6679" lon="1.49001">
        <ele>249.660191</ele>
        <time>2022-08-08T07:39:28.820Z</time>
      </trkpt>
      <trkpt lat="43.66789" lon="1.49018">
        <ele>249.662331</ele>
        <time>2022-08-08T07:39:30.844Z</time>
      </trkpt>
      <trkpt lat="43.66787" lon="1.49034">
        <ele>249.664506</ele>
        <time>2022-08-08T07:39:32.834Z</time>
      </trkpt>
      <trkpt lat="43.66784" lon="1.4905">
        <ele>249.666725</ele>
        <time>2022-08-08T07:39:34.812Z</time>
      </trkpt>
      <trkpt lat="43.66779" lon="1.49066">
        <ele>249.668964</ele>
        <time>2022-08-08T07:39:36.835Z</time>
      </trkpt>
      <trkpt lat="43.66774" lon="1.49082">
        <ele>249.671198</ele>
        <time>2022-08-08T07:39:38.835Z</time>
      </trkpt>
      <trkpt lat="43.66768" lon="1.49096">
        <ele>249.673407</ele>
        <time>2022-08-08T07:39:40.830Z</time>
      </trkpt>
      <trkpt lat="43.66762" lon="1.4911">
        <ele>249.675612</ele>
        <time>2022-08-08T07:39:42.813Z</time>
      </trkpt>
      <trkpt lat="43.66755" lon="1.49124">
        <ele>249.677782</ele>
        <time>2022-08-08T07:39:44.822Z</time>
      </trkpt>
      <trkpt lat="43.66748" lon="1.49137">
        <ele>249.679918</ele>
        <time>2022-08-08T07:39:46.819Z</time>
      </trkpt>
      <trkpt lat="43.66742" lon="1.49151">
        <ele>249.826344</ele>
        <time>2022-08-08T07:39:48.833Z</time>
      </trkpt>
      <trkpt lat="43.66735" lon="1.49164">
        <ele>250.032761</ele>
        <time>2022-08-08T07:39:50.835Z</time>
      </trkpt>
      <trkpt lat="43.66729" lon="1.49178">
        <ele>250.243039</ele>
        <time>2022-08-08T07:39:52.833Z</time>
      </trkpt>
      <trkpt lat="43.66723" lon="1.49191">
        <ele>250.452493</ele>
        <time>2022-08-08T07:39:54.830Z</time>
      </trkpt>
      <trkpt lat="43.66716" lon="1.49204">
        <ele>250.659761</ele>
        <time>2022-08-08T07:39:56.821Z</time>
      </trkpt>
      <trkpt lat="43.6671" lon="1.49217">
        <ele>250.867867</ele>
        <time>2022-08-08T07:39:58.827Z</time>
      </trkpt>
      <trkpt lat="43.66703" lon="1.4923">
        <ele>251.072803</ele>
        <time>2022-08-08T07:40:00.806Z</time>
      </trkpt>
      <trkpt lat="43.66696" lon="1.49242">
        <ele>251.274922</ele>
        <time>2022-08-08T07:40:02.819Z</time>
      </trkpt>
      <trkpt lat="43.66689" lon="1.49253">
        <ele>251.469545</ele>
        <time>2022-08-08T07:40:04.827Z</time>
      </trkpt>
      <trkpt lat="43.66679" lon="1.49261">
        <ele>251.663216</ele>
        <time>2022-08-08T07:40:06.807Z</time>
      </trkpt>
      <trkpt lat="43.6667" lon="1.49268">
        <ele>251.847451</ele>
        <time>2022-08-08T07:40:08.832Z</time>
      </trkpt>
      <trkpt lat="43.66667" lon="1.49283">
        <ele>252.052093</ele>
        <time>2022-08-08T07:40:12.827Z</time>
      </trkpt>
      <trkpt lat="43.66658" lon="1.49294">
        <ele>252.272982</ele>
        <time>2022-08-08T07:40:15.830Z</time>
      </trkpt>
      <trkpt lat="43.66648" lon="1.49306">
        <ele>252.513012</ele>
        <time>2022-08-08T07:40:18.809Z</time>
      </trkpt>
      <trkpt lat="43.66642" lon="1.49316">
        <ele>252.685994</ele>
        <time>2022-08-08T07:40:20.808Z</time>
      </trkpt>
      <trkpt lat="43.6664" lon="1.4933">
        <ele>252.878116</ele>
        <time>2022-08-08T07:40:22.804Z</time>
      </trkpt>
      <trkpt lat="43.66639" lon="1.49346">
        <ele>253.034001</ele>
        <time>2022-08-08T07:40:24.815Z</time>
      </trkpt>
      <trkpt lat="43.66637" lon="1.49361">
        <ele>253.174155</ele>
        <time>2022-08-08T07:40:26.794Z</time>
      </trkpt>
      <trkpt lat="43.6663" lon="1.49373">
        <ele>253.313503</ele>
        <time>2022-08-08T07:40:28.828Z</time>
      </trkpt>
      <trkpt lat="43.66622" lon="1.49383">
        <ele>253.446702</ele>
        <time>2022-08-08T07:40:30.818Z</time>
      </trkpt>
      <trkpt lat="43.66612" lon="1.49387">
        <ele>253.585734</ele>
        <time>2022-08-08T07:40:33.804Z</time>
      </trkpt>
      <trkpt lat="43.66602" lon="1.49389">
        <ele>253.717414</ele>
        <time>2022-08-08T07:40:36.817Z</time>
      </trkpt>
      <trkpt lat="43.66593" lon="1.4939">
        <ele>253.832949</ele>
        <time>2022-08-08T07:40:40.813Z</time>
      </trkpt>
      <trkpt lat="43.66582" lon="1.4939">
        <ele>253.962605</ele>
        <time>2022-08-08T07:40:50.803Z</time>
      </trkpt>
      <trkpt lat="43.66576" lon="1.49399">
        <ele>254.078285</ele>
        <time>2022-08-08T07:40:54.799Z</time>
      </trkpt>
      <trkpt lat="43.66576" lon="1.49417">
        <ele>254.237171</ele>
        <time>2022-08-08T07:40:58.812Z</time>
      </trkpt>
      <trkpt lat="43.66576" lon="1.4943">
        <ele>254.356561</ele>
        <time>2022-08-08T07:41:00.821Z</time>
      </trkpt>
      <trkpt lat="43.66576" lon="1.49444">
        <ele>254.489751</ele>
        <time>2022-08-08T07:41:02.818Z</time>
      </trkpt>
      <trkpt lat="43.66574" lon="1.49459">
        <ele>254.62983</ele>
        <time>2022-08-08T07:41:04.810Z</time>
      </trkpt>
      <trkpt lat="43.66571" lon="1.49473">
        <ele>254.761458</ele>
        <time>2022-08-08T07:41:06.810Z</time>
      </trkpt>
      <trkpt lat="43.66575" lon="1.49488">
        <ele>254.909176</ele>
        <time>2022-08-08T07:41:09.804Z</time>
      </trkpt>
      <trkpt lat="43.66586" lon="1.49497">
        <ele>255.065216</ele>
        <time>2022-08-08T07:41:12.808Z</time>
      </trkpt>
      <trkpt lat="43.6659" lon="1.49511">
        <ele>255.206013</ele>
        <time>2022-08-08T07:41:15.825Z</time>
      </trkpt>
      <trkpt lat="43.66592" lon="1.49529">
        <ele>255.212099</ele>
        <time>2022-08-08T07:41:18.816Z</time>
      </trkpt>
      <trkpt lat="43.66595" lon="1.49544">
        <ele>255.217441</ele>
        <time>2022-08-08T07:41:21.802Z</time>
      </trkpt>
      <trkpt lat="43.66603" lon="1.49555">
        <ele>255.222773</ele>
        <time>2022-08-08T07:41:24.811Z</time>
      </trkpt>
      <trkpt lat="43.66605" lon="1.4957">
        <ele>255.22782</ele>
        <time>2022-08-08T07:41:29.822Z</time>
      </trkpt>
      <trkpt lat="43.66599" lon="1.4958">
        <ele>255.232457</ele>
        <time>2022-08-08T07:41:32.812Z</time>
      </trkpt>
      <trkpt lat="43.66599" lon="1.49595">
        <ele>255.237663</ele>
        <time>2022-08-08T07:41:36.799Z</time>
      </trkpt>
      <trkpt lat="43.66601" lon="1.49612">
        <ele>255.243135</ele>
        <time>2022-08-08T07:41:39.795Z</time>
      </trkpt>
      <trkpt lat="43.66602" lon="1.49624">
        <ele>255.247406</ele>
        <time>2022-08-08T07:41:42.804Z</time>
      </trkpt>
      <trkpt lat="43.66607" lon="1.49635">
        <ele>255.251706</ele>
        <time>2022-08-08T07:41:49.794Z</time>
      </trkpt>
      <trkpt lat="43.66615" lon="1.49644">
        <ele>255.256888</ele>
        <time>2022-08-08T07:41:53.806Z</time>
      </trkpt>
      <trkpt lat="43.66623" lon="1.49652">
        <ele>255.261422</ele>
        <time>2022-08-08T07:41:57.809Z</time>
      </trkpt>
      <trkpt lat="43.66632" lon="1.49645">
        <ele>255.266318</ele>
        <time>2022-08-08T07:42:03.810Z</time>
      </trkpt>
      <trkpt lat="43.66642" lon="1.49644">
        <ele>255.271094</ele>
        <time>2022-08-08T07:42:07.805Z</time>
      </trkpt>
      <trkpt lat="43.66656" lon="1.49658">
        <ele>255.279219</ele>
        <time>2022-08-08T07:42:36.817Z</time>
      </trkpt>
      <trkpt lat="43.66667" lon="1.49669">
        <ele>255.285333</ele>
        <time>2022-08-08T07:42:39.812Z</time>
      </trkpt>
      <trkpt lat="43.66674" lon="1.49679">
        <ele>255.284122</ele>
        <time>2022-08-08T07:42:41.826Z</time>
      </trkpt>
      <trkpt lat="43.66681" lon="1.49691">
        <ele>255.07732</ele>
        <time>2022-08-08T07:42:43.822Z</time>
      </trkpt>
      <trkpt lat="43.66685" lon="1.49704">
        <ele>254.873306</ele>
        <time>2022-08-08T07:42:45.819Z</time>
      </trkpt>
      <trkpt lat="43.66691" lon="1.49714">
        <ele>254.70035</ele>
        <time>2022-08-08T07:42:47.815Z</time>
      </trkpt>
      <trkpt lat="43.6671" lon="1.49721">
        <ele>201.9</ele>
        <time>2022-08-08T07:42:50.819Z</time>
      </trkpt>
      <trkpt lat="43.66719" lon="1.49753">
        <ele>203.2</ele>
      </trkpt>
      <trkpt lat="43.6672" lon="1.49785">
        <ele>204.6</ele>
      </trkpt>
      <trkpt lat="43.66737" lon="1.49811">
        <ele>206.2</ele>
      </trkpt>
      <trkpt lat="43.66769" lon="1.49825">
        <ele>206.1</ele>
      </trkpt>
      <trkpt lat="43.66787" lon="1.49848">
        <ele>206.2</ele>
      </trkpt>
      <trkpt lat="43.66805" lon="1.49897">
        <ele>207.3</ele>
      </trkpt>
      <trkpt lat="43.66821" lon="1.49901">
        <ele>206.2</ele>
      </trkpt>
      <trkpt lat="43.66845" lon="1.49932">
        <ele>256.552945</ele>
        <time>2022-08-08T07:44:36.814Z</time>
      </trkpt>
      <trkpt lat="43.66852" lon="1.49944">
        <ele>256.923363</ele>
        <time>2022-08-08T07:44:39.825Z</time>
      </trkpt>
      <trkpt lat="43.66857" lon="1.49954">
        <ele>257.229191</ele>
        <time>2022-08-08T07:44:41.817Z</time>
      </trkpt>
      <trkpt lat="43.66858" lon="1.49972">
        <ele>257.653928</ele>
        <time>2022-08-08T07:44:44.820Z</time>
      </trkpt>
      <trkpt lat="43.66849" lon="1.49984">
        <ele>258.075995</ele>
        <time>2022-08-08T07:44:47.821Z</time>
      </trkpt>
      <trkpt lat="43.66857" lon="1.49997">
        <ele>258.489299</ele>
        <time>2022-08-08T07:44:52.837Z</time>
      </trkpt>
      <trkpt lat="43.66859" lon="1.50009">
        <ele>258.804184</ele>
        <time>2022-08-08T07:44:56.824Z</time>
      </trkpt>
      <trkpt lat="43.66853" lon="1.50022">
        <ele>259.20488</ele>
        <time>2022-08-08T07:44:59.804Z</time>
      </trkpt>
      <trkpt lat="43.66846" lon="1.50039">
        <ele>259.501168</ele>
        <time>2022-08-08T07:45:02.795Z</time>
      </trkpt>
      <trkpt lat="43.66844" lon="1.50056">
        <ele>259.418655</ele>
        <time>2022-08-08T07:45:05.802Z</time>
      </trkpt>
      <trkpt lat="43.66839" lon="1.5007">
        <ele>259.350128</ele>
        <time>2022-08-08T07:45:07.796Z</time>
      </trkpt>
      <trkpt lat="43.66834" lon="1.50081">
        <ele>259.2897</ele>
        <time>2022-08-08T07:45:09.792Z</time>
      </trkpt>
      <trkpt lat="43.66829" lon="1.50094">
        <ele>259.226603</ele>
        <time>2022-08-08T07:45:11.813Z</time>
      </trkpt>
      <trkpt lat="43.66824" lon="1.50105">
        <ele>259.163355</ele>
        <time>2022-08-08T07:45:13.817Z</time>
      </trkpt>
      <trkpt lat="43.66817" lon="1.50116">
        <ele>259.097901</ele>
        <time>2022-08-08T07:45:15.820Z</time>
      </trkpt>
      <trkpt lat="43.6681" lon="1.50126">
        <ele>259.035055</ele>
        <time>2022-08-08T07:45:17.805Z</time>
      </trkpt>
      <trkpt lat="43.66805" lon="1.50137">
        <ele>258.978192</ele>
        <time>2022-08-08T07:45:19.810Z</time>
      </trkpt>
      <trkpt lat="43.66801" lon="1.50148">
        <ele>258.920368</ele>
        <time>2022-08-08T07:45:21.804Z</time>
      </trkpt>
      <trkpt lat="43.66795" lon="1.50161">
        <ele>258.849751</ele>
        <time>2022-08-08T07:45:23.806Z</time>
      </trkpt>
      <trkpt lat="43.66793" lon="1.50176">
        <ele>258.781646</ele>
        <time>2022-08-08T07:45:25.802Z</time>
      </trkpt>
      <trkpt lat="43.66794" lon="1.50191">
        <ele>258.713927</ele>
        <time>2022-08-08T07:45:27.817Z</time>
      </trkpt>
      <trkpt lat="43.668" lon="1.50204">
        <ele>258.641759</ele>
        <time>2022-08-08T07:45:29.814Z</time>
      </trkpt>
      <trkpt lat="43.66808" lon="1.50215">
        <ele>258.57424</ele>
        <time>2022-08-08T07:45:31.804Z</time>
      </trkpt>
      <trkpt lat="43.66815" lon="1.50227">
        <ele>258.502878</ele>
        <time>2022-08-08T07:45:33.811Z</time>
      </trkpt>
      <trkpt lat="43.66821" lon="1.5024">
        <ele>258.434352</ele>
        <time>2022-08-08T07:45:35.794Z</time>
      </trkpt>
      <trkpt lat="43.66827" lon="1.50254">
        <ele>258.284027</ele>
        <time>2022-08-08T07:45:37.820Z</time>
      </trkpt>
      <trkpt lat="43.66833" lon="1.50269">
        <ele>258.054667</ele>
        <time>2022-08-08T07:45:39.817Z</time>
      </trkpt>
      <trkpt lat="43.66838" lon="1.50284">
        <ele>257.836344</ele>
        <time>2022-08-08T07:45:41.827Z</time>
      </trkpt>
      <trkpt lat="43.66844" lon="1.50299">
        <ele>257.61661</ele>
        <time>2022-08-08T07:45:43.813Z</time>
      </trkpt>
      <trkpt lat="43.66851" lon="1.50311">
        <ele>257.405911</ele>
        <time>2022-08-08T07:45:45.793Z</time>
      </trkpt>
      <trkpt lat="43.66858" lon="1.50322">
        <ele>257.21603</ele>
        <time>2022-08-08T07:45:47.806Z</time>
      </trkpt>
      <trkpt lat="43.66865" lon="1.50338">
        <ele>256.971037</ele>
        <time>2022-08-08T07:45:49.790Z</time>
      </trkpt>
      <trkpt lat="43.66872" lon="1.50353">
        <ele>256.732219</ele>
        <time>2022-08-08T07:45:51.808Z</time>
      </trkpt>
      <trkpt lat="43.66878" lon="1.50368">
        <ele>256.512372</ele>
        <time>2022-08-08T07:45:53.809Z</time>
      </trkpt>
      <trkpt lat="43.6688" lon="1.50382">
        <ele>256.322975</ele>
        <time>2022-08-08T07:45:55.806Z</time>
      </trkpt>
      <trkpt lat="43.66884" lon="1.50397">
        <ele>256.104638</ele>
        <time>2022-08-08T07:45:57.807Z</time>
      </trkpt>
      <trkpt lat="43.66891" lon="1.50411">
        <ele>255.893988</ele>
        <time>2022-08-08T07:45:59.799Z</time>
      </trkpt>
      <trkpt lat="43.66898" lon="1.50424">
        <ele>255.680216</ele>
        <time>2022-08-08T07:46:01.804Z</time>
      </trkpt>
      <trkpt lat="43.66906" lon="1.50436">
        <ele>255.464432</ele>
        <time>2022-08-08T07:46:03.785Z</time>
      </trkpt>
      <trkpt lat="43.66912" lon="1.50449">
        <ele>255.251665</ele>
        <time>2022-08-08T07:46:05.806Z</time>
      </trkpt>
      <trkpt lat="43.66919" lon="1.50464">
        <ele>254.994893</ele>
        <time>2022-08-08T07:46:08.824Z</time>
      </trkpt>
      <trkpt lat="43.66926" lon="1.5048">
        <ele>254.699261</ele>
        <time>2022-08-08T07:46:11.810Z</time>
      </trkpt>
      <trkpt lat="43.66931" lon="1.50491">
        <ele>254.495729</ele>
        <time>2022-08-08T07:46:13.816Z</time>
      </trkpt>
      <trkpt lat="43.6694" lon="1.50498">
        <ele>254.264032</ele>
        <time>2022-08-08T07:46:15.795Z</time>
      </trkpt>
      <trkpt lat="43.66945" lon="1.5051">
        <ele>254.05287</ele>
        <time>2022-08-08T07:46:17.814Z</time>
      </trkpt>
      <trkpt lat="43.6695" lon="1.50523">
        <ele>253.807428</ele>
        <time>2022-08-08T07:46:19.806Z</time>
      </trkpt>
      <trkpt lat="43.66955" lon="1.50536">
        <ele>253.564476</ele>
        <time>2022-08-08T07:46:21.793Z</time>
      </trkpt>
      <trkpt lat="43.66962" lon="1.50549">
        <ele>253.31804</ele>
        <time>2022-08-08T07:46:24.800Z</time>
      </trkpt>
      <trkpt lat="43.66973" lon="1.50544">
        <ele>253.047858</ele>
        <time>2022-08-08T07:46:29.778Z</time>
      </trkpt>
      <trkpt lat="43.66985" lon="1.50534">
        <ele>252.749202</ele>
        <time>2022-08-08T07:46:32.813Z</time>
      </trkpt>
      <trkpt lat="43.66993" lon="1.50527">
        <ele>252.533733</ele>
        <time>2022-08-08T07:46:34.802Z</time>
      </trkpt>
      <trkpt lat="43.67002" lon="1.5052">
        <ele>252.295807</ele>
        <time>2022-08-08T07:46:36.790Z</time>
      </trkpt>
      <trkpt lat="43.67011" lon="1.50513">
        <ele>252.068794</ele>
        <time>2022-08-08T07:46:38.821Z</time>
      </trkpt>
      <trkpt lat="43.67018" lon="1.50504">
        <ele>251.85936</ele>
        <time>2022-08-08T07:46:40.794Z</time>
      </trkpt>
      <trkpt lat="43.67025" lon="1.50491">
        <ele>251.590759</ele>
        <time>2022-08-08T07:46:42.809Z</time>
      </trkpt>
      <trkpt lat="43.67036" lon="1.50477">
        <ele>251.272848</ele>
        <time>2022-08-08T07:46:44.807Z</time>
      </trkpt>
      <trkpt lat="43.67048" lon="1.50463">
        <ele>250.80911</ele>
        <time>2022-08-08T07:46:46.804Z</time>
      </trkpt>
      <trkpt lat="43.6706" lon="1.50451">
        <ele>250.292266</ele>
        <time>2022-08-08T07:46:48.819Z</time>
      </trkpt>
      <trkpt lat="43.6707" lon="1.50436">
        <ele>249.796151</ele>
        <time>2022-08-08T07:46:50.796Z</time>
      </trkpt>
      <trkpt lat="43.67077" lon="1.50418">
        <ele>249.286911</ele>
        <time>2022-08-08T07:46:52.799Z</time>
      </trkpt>
      <trkpt lat="43.67084" lon="1.50402">
        <ele>248.801797</ele>
        <time>2022-08-08T07:46:54.805Z</time>
      </trkpt>
      <trkpt lat="43.67092" lon="1.50386">
        <ele>248.323232</ele>
        <time>2022-08-08T07:46:56.807Z</time>
      </trkpt>
      <trkpt lat="43.67101" lon="1.50372">
        <ele>247.857826</ele>
        <time>2022-08-08T07:46:58.807Z</time>
      </trkpt>
      <trkpt lat="43.67109" lon="1.50358">
        <ele>247.416945</ele>
        <time>2022-08-08T07:47:00.807Z</time>
      </trkpt>
      <trkpt lat="43.67117" lon="1.50346">
        <ele>246.999036</ele>
        <time>2022-08-08T07:47:02.816Z</time>
      </trkpt>
      <trkpt lat="43.67124" lon="1.50335">
        <ele>246.622896</ele>
        <time>2022-08-08T07:47:04.822Z</time>
      </trkpt>
      <trkpt lat="43.67141" lon="1.50306">
        <ele>245.702815</ele>
        <time>2022-08-08T07:48:06.810Z</time>
      </trkpt>
      <trkpt lat="43.6715" lon="1.50296">
        <ele>245.293099</ele>
        <time>2022-08-08T07:48:08.819Z</time>
      </trkpt>
      <trkpt lat="43.67159" lon="1.50284">
        <ele>244.877346</ele>
        <time>2022-08-08T07:48:10.836Z</time>
      </trkpt>
      <trkpt lat="43.67168" lon="1.50273">
        <ele>244.452456</ele>
        <time>2022-08-08T07:48:12.815Z</time>
      </trkpt>
      <trkpt lat="43.67178" lon="1.5026">
        <ele>243.966261</ele>
        <time>2022-08-08T07:48:14.807Z</time>
      </trkpt>
      <trkpt lat="43.6719" lon="1.50247">
        <ele>243.435855</ele>
        <time>2022-08-08T07:48:16.820Z</time>
      </trkpt>
      <trkpt lat="43.67201" lon="1.50231">
        <ele>242.862224</ele>
        <time>2022-08-08T07:48:18.838Z</time>
      </trkpt>
      <trkpt lat="43.67211" lon="1.50214">
        <ele>242.302154</ele>
        <time>2022-08-08T07:48:20.825Z</time>
      </trkpt>
      <trkpt lat="43.67222" lon="1.50199">
        <ele>241.779969</ele>
        <time>2022-08-08T07:48:22.822Z</time>
      </trkpt>
      <trkpt lat="43.67232" lon="1.50186">
        <ele>241.289708</ele>
        <time>2022-08-08T07:48:24.806Z</time>
      </trkpt>
      <trkpt lat="43.67244" lon="1.50176">
        <ele>240.805967</ele>
        <time>2022-08-08T07:48:26.820Z</time>
      </trkpt>
      <trkpt lat="43.67256" lon="1.50167">
        <ele>240.319194</ele>
        <time>2022-08-08T07:48:28.810Z</time>
      </trkpt>
      <trkpt lat="43.67268" lon="1.50159">
        <ele>239.842961</ele>
        <time>2022-08-08T07:48:30.815Z</time>
      </trkpt>
      <trkpt lat="43.67279" lon="1.50151">
        <ele>239.408334</ele>
        <time>2022-08-08T07:48:32.813Z</time>
      </trkpt>
      <trkpt lat="43.6729" lon="1.50139">
        <ele>238.935086</ele>
        <time>2022-08-08T07:48:34.815Z</time>
      </trkpt>
      <trkpt lat="43.67299" lon="1.50126">
        <ele>238.506621</ele>
        <time>2022-08-08T07:48:36.812Z</time>
      </trkpt>
      <trkpt lat="43.67309" lon="1.50112">
        <ele>238.19552</ele>
        <time>2022-08-08T07:48:38.824Z</time>
      </trkpt>
      <trkpt lat="43.6732" lon="1.50097">
        <ele>237.873322</ele>
        <time>2022-08-08T07:48:40.831Z</time>
      </trkpt>
      <trkpt lat="43.67324" lon="1.50079">
        <ele>237.587806</ele>
        <time>2022-08-08T07:48:42.832Z</time>
      </trkpt>
      <trkpt lat="43.6733" lon="1.50064">
        <ele>237.320135</ele>
        <time>2022-08-08T07:48:44.821Z</time>
      </trkpt>
      <trkpt lat="43.67334" lon="1.50051">
        <ele>237.084852</ele>
        <time>2022-08-08T07:48:46.814Z</time>
      </trkpt>
      <trkpt lat="43.67337" lon="1.50037">
        <ele>236.859752</ele>
        <time>2022-08-08T07:48:48.827Z</time>
      </trkpt>
      <trkpt lat="43.67339" lon="1.50023">
        <ele>236.647703</ele>
        <time>2022-08-08T07:48:50.820Z</time>
      </trkpt>
      <trkpt lat="43.67343" lon="1.5001">
        <ele>236.419999</ele>
        <time>2022-08-08T07:48:52.849Z</time>
      </trkpt>
      <trkpt lat="43.6735" lon="1.49999">
        <ele>236.194787</ele>
        <time>2022-08-08T07:48:54.845Z</time>
      </trkpt>
      <trkpt lat="43.6736" lon="1.4999">
        <ele>235.942258</ele>
        <time>2022-08-08T07:48:56.829Z</time>
      </trkpt>
      <trkpt lat="43.67371" lon="1.49981">
        <ele>235.645177</ele>
        <time>2022-08-08T07:48:58.814Z</time>
      </trkpt>
      <trkpt lat="43.67383" lon="1.49968">
        <ele>235.330431</ele>
        <time>2022-08-08T07:49:00.824Z</time>
      </trkpt>
      <trkpt lat="43.67392" lon="1.49951">
        <ele>235.005317</ele>
        <time>2022-08-08T07:49:02.819Z</time>
      </trkpt>
      <trkpt lat="43.674" lon="1.49934">
        <ele>234.670835</ele>
        <time>2022-08-08T07:49:04.833Z</time>
      </trkpt>
      <trkpt lat="43.6741" lon="1.49918">
        <ele>234.209894</ele>
        <time>2022-08-08T07:49:06.879Z</time>
      </trkpt>
      <trkpt lat="43.67421" lon="1.49903">
        <ele>233.762362</ele>
        <time>2022-08-08T07:49:08.827Z</time>
      </trkpt>
      <trkpt lat="43.67433" lon="1.49888">
        <ele>233.286123</ele>
        <time>2022-08-08T07:49:10.854Z</time>
      </trkpt>
      <trkpt lat="43.67444" lon="1.49872">
        <ele>232.805672</ele>
        <time>2022-08-08T07:49:12.838Z</time>
      </trkpt>
      <trkpt lat="43.67455" lon="1.49858">
        <ele>232.363269</ele>
        <time>2022-08-08T07:49:14.861Z</time>
      </trkpt>
      <trkpt lat="43.67464" lon="1.4984">
        <ele>231.889383</ele>
        <time>2022-08-08T07:49:16.831Z</time>
      </trkpt>
      <trkpt lat="43.67471" lon="1.49821">
        <ele>231.420544</ele>
        <time>2022-08-08T07:49:18.813Z</time>
      </trkpt>
      <trkpt lat="43.67478" lon="1.49808">
        <ele>231.082502</ele>
        <time>2022-08-08T07:49:20.840Z</time>
      </trkpt>
      <trkpt lat="43.67483" lon="1.49796">
        <ele>230.804088</ele>
        <time>2022-08-08T07:49:25.835Z</time>
      </trkpt>
      <trkpt lat="43.67489" lon="1.49783">
        <ele>230.457354</ele>
        <time>2022-08-08T07:49:40.848Z</time>
      </trkpt>
      <trkpt lat="43.67496" lon="1.49773">
        <ele>230.162111</ele>
        <time>2022-08-08T07:49:48.831Z</time>
      </trkpt>
      <trkpt lat="43.67494" lon="1.49751">
        <ele>229.686984</ele>
        <time>2022-08-08T07:50:15.837Z</time>
      </trkpt>
      <trkpt lat="43.67487" lon="1.49735">
        <ele>229.334974</ele>
        <time>2022-08-08T07:50:28.814Z</time>
      </trkpt>
      <trkpt lat="43.67493" lon="1.49721">
        <ele>229.238318</ele>
        <time>2022-08-08T07:50:32.796Z</time>
      </trkpt>
      <trkpt lat="43.675" lon="1.4971">
        <ele>229.143758</ele>
        <time>2022-08-08T07:50:35.810Z</time>
      </trkpt>
      <trkpt lat="43.67506" lon="1.49695">
        <ele>229.040621</ele>
        <time>2022-08-08T07:50:39.806Z</time>
      </trkpt>
      <trkpt lat="43.67511" lon="1.49684">
        <ele>228.958055</ele>
        <time>2022-08-08T07:50:43.812Z</time>
      </trkpt>
      <trkpt lat="43.67518" lon="1.49673">
        <ele>228.870295</ele>
        <time>2022-08-08T07:50:46.812Z</time>
      </trkpt>
      <trkpt lat="43.67523" lon="1.49663">
        <ele>228.789584</ele>
        <time>2022-08-08T07:50:49.791Z</time>
      </trkpt>
      <trkpt lat="43.67522" lon="1.49649">
        <ele>228.705718</ele>
        <time>2022-08-08T07:50:53.800Z</time>
      </trkpt>
      <trkpt lat="43.67519" lon="1.49636">
        <ele>228.619329</ele>
        <time>2022-08-08T07:50:57.805Z</time>
      </trkpt>
      <trkpt lat="43.67519" lon="1.49621">
        <ele>228.526534</ele>
        <time>2022-08-08T07:51:06.810Z</time>
      </trkpt>
      <trkpt lat="43.67521" lon="1.49607">
        <ele>228.43893</ele>
        <time>2022-08-08T07:51:16.815Z</time>
      </trkpt>
      <trkpt lat="43.67527" lon="1.49594">
        <ele>228.340581</ele>
        <time>2022-08-08T07:51:19.822Z</time>
      </trkpt>
      <trkpt lat="43.67531" lon="1.49579">
        <ele>228.244672</ele>
        <time>2022-08-08T07:51:23.817Z</time>
      </trkpt>
      <trkpt lat="43.67531" lon="1.49564">
        <ele>228.151227</ele>
        <time>2022-08-08T07:51:27.815Z</time>
      </trkpt>
      <trkpt lat="43.67537" lon="1.49548">
        <ele>228.042328</ele>
        <time>2022-08-08T07:51:31.820Z</time>
      </trkpt>
      <trkpt lat="43.67543" lon="1.49535">
        <ele>227.942571</ele>
        <time>2022-08-08T07:51:34.814Z</time>
      </trkpt>
      <trkpt lat="43.67548" lon="1.49523">
        <ele>227.860193</ele>
        <time>2022-08-08T07:51:37.798Z</time>
      </trkpt>
      <trkpt lat="43.6755" lon="1.49509">
        <ele>227.681741</ele>
        <time>2022-08-08T07:51:41.815Z</time>
      </trkpt>
      <trkpt lat="43.67553" lon="1.49496">
        <ele>227.449982</ele>
        <time>2022-08-08T07:51:44.824Z</time>
      </trkpt>
      <trkpt lat="43.67561" lon="1.49478">
        <ele>227.073505</ele>
        <time>2022-08-08T07:51:46.815Z</time>
      </trkpt>
      <trkpt lat="43.67573" lon="1.49479">
        <ele>226.782196</ele>
        <time>2022-08-08T07:51:49.830Z</time>
      </trkpt>
      <trkpt lat="43.67587" lon="1.49477">
        <ele>226.459116</ele>
        <time>2022-08-08T07:51:52.811Z</time>
      </trkpt>
      <trkpt lat="43.67594" lon="1.49467">
        <ele>226.190825</ele>
        <time>2022-08-08T07:51:57.802Z</time>
      </trkpt>
      <trkpt lat="43.676" lon="1.49451">
        <ele>225.888754</ele>
        <time>2022-08-08T07:51:59.826Z</time>
      </trkpt>
      <trkpt lat="43.67604" lon="1.49437">
        <ele>225.62374</ele>
        <time>2022-08-08T07:52:05.810Z</time>
      </trkpt>
      <trkpt lat="43.6761" lon="1.49418">
        <ele>225.265797</ele>
        <time>2022-08-08T07:52:17.824Z</time>
      </trkpt>
      <trkpt lat="43.6762" lon="1.49407">
        <ele>224.967673</ele>
        <time>2022-08-08T07:52:23.843Z</time>
      </trkpt>
      <trkpt lat="43.67625" lon="1.49395">
        <ele>224.712339</ele>
        <time>2022-08-08T07:52:26.807Z</time>
      </trkpt>
      <trkpt lat="43.67631" lon="1.49385">
        <ele>224.486742</ele>
        <time>2022-08-08T07:52:30.839Z</time>
      </trkpt>
      <trkpt lat="43.67632" lon="1.49372">
        <ele>224.257478</ele>
        <time>2022-08-08T07:52:34.821Z</time>
      </trkpt>
      <trkpt lat="43.67639" lon="1.49361">
        <ele>223.993807</ele>
        <time>2022-08-08T07:52:39.811Z</time>
      </trkpt>
      <trkpt lat="43.67647" lon="1.49351">
        <ele>223.735151</ele>
        <time>2022-08-08T07:52:43.809Z</time>
      </trkpt>
      <trkpt lat="43.67656" lon="1.4934">
        <ele>223.447392</ele>
        <time>2022-08-08T07:52:46.792Z</time>
      </trkpt>
      <trkpt lat="43.67663" lon="1.49332">
        <ele>223.012213</ele>
        <time>2022-08-08T07:52:49.795Z</time>
      </trkpt>
      <trkpt lat="43.67667" lon="1.49319">
        <ele>222.578501</ele>
        <time>2022-08-08T07:52:53.803Z</time>
      </trkpt>
      <trkpt lat="43.6767" lon="1.49307">
        <ele>222.157442</ele>
        <time>2022-08-08T07:52:56.804Z</time>
      </trkpt>
      <trkpt lat="43.67676" lon="1.49294">
        <ele>221.683522</ele>
        <time>2022-08-08T07:53:00.808Z</time>
      </trkpt>
      <trkpt lat="43.67684" lon="1.49286">
        <ele>221.249771</ele>
        <time>2022-08-08T07:53:04.794Z</time>
      </trkpt>
      <trkpt lat="43.67691" lon="1.49275">
        <ele>220.784648</ele>
        <time>2022-08-08T07:53:06.804Z</time>
      </trkpt>
      <trkpt lat="43.67698" lon="1.49262">
        <ele>220.263378</ele>
        <time>2022-08-08T07:53:09.806Z</time>
      </trkpt>
      <trkpt lat="43.67702" lon="1.49249">
        <ele>219.817298</ele>
        <time>2022-08-08T07:53:13.810Z</time>
      </trkpt>
      <trkpt lat="43.67709" lon="1.49232">
        <ele>219.190436</ele>
        <time>2022-08-08T07:53:16.826Z</time>
      </trkpt>
      <trkpt lat="43.67716" lon="1.49219">
        <ele>218.685682</ele>
        <time>2022-08-08T07:53:20.820Z</time>
      </trkpt>
      <trkpt lat="43.67726" lon="1.49207">
        <ele>218.064932</ele>
        <time>2022-08-08T07:53:24.824Z</time>
      </trkpt>
      <trkpt lat="43.67733" lon="1.49196">
        <ele>217.59818</ele>
        <time>2022-08-08T07:53:26.806Z</time>
      </trkpt>
      <trkpt lat="43.6774" lon="1.49185">
        <ele>217.141631</ele>
        <time>2022-08-08T07:53:29.809Z</time>
      </trkpt>
      <trkpt lat="43.67747" lon="1.49175">
        <ele>216.719195</ele>
        <time>2022-08-08T07:53:31.812Z</time>
      </trkpt>
      <trkpt lat="43.67756" lon="1.49157">
        <ele>215.994303</ele>
        <time>2022-08-08T07:53:33.789Z</time>
      </trkpt>
      <trkpt lat="43.67761" lon="1.49144">
        <ele>215.536571</ele>
        <time>2022-08-08T07:53:34.817Z</time>
      </trkpt>
      <trkpt lat="43.67765" lon="1.49129">
        <ele>215.25755</ele>
        <time>2022-08-08T07:53:36.821Z</time>
      </trkpt>
      <trkpt lat="43.67773" lon="1.49113">
        <ele>214.93058</ele>
        <time>2022-08-08T07:53:39.815Z</time>
      </trkpt>
      <trkpt lat="43.67782" lon="1.49106">
        <ele>214.695153</ele>
        <time>2022-08-08T07:53:42.805Z</time>
      </trkpt>
      <trkpt lat="43.67792" lon="1.49092">
        <ele>214.371944</ele>
        <time>2022-08-08T07:53:44.814Z</time>
      </trkpt>
      <trkpt lat="43.67803" lon="1.49076">
        <ele>213.986521</ele>
        <time>2022-08-08T07:53:48.809Z</time>
      </trkpt>
      <trkpt lat="43.67807" lon="1.49062">
        <ele>213.736609</ele>
        <time>2022-08-08T07:53:50.820Z</time>
      </trkpt>
      <trkpt lat="43.67813" lon="1.49051">
        <ele>213.508161</ele>
        <time>2022-08-08T07:53:53.818Z</time>
      </trkpt>
      <trkpt lat="43.67819" lon="1.4904">
        <ele>213.268841</ele>
        <time>2022-08-08T07:53:55.806Z</time>
      </trkpt>
      <trkpt lat="43.67825" lon="1.4903">
        <ele>213.047001</ele>
        <time>2022-08-08T07:53:59.807Z</time>
      </trkpt>
      <trkpt lat="43.67834" lon="1.4902">
        <ele>212.778107</ele>
        <time>2022-08-08T07:54:03.820Z</time>
      </trkpt>
      <trkpt lat="43.67845" lon="1.49007">
        <ele>212.451614</ele>
        <time>2022-08-08T07:54:06.826Z</time>
      </trkpt>
      <trkpt lat="43.67853" lon="1.48998">
        <ele>212.192985</ele>
        <time>2022-08-08T07:54:08.818Z</time>
      </trkpt>
      <trkpt lat="43.67862" lon="1.48989">
        <ele>211.941589</ele>
        <time>2022-08-08T07:54:12.821Z</time>
      </trkpt>
      <trkpt lat="43.6787" lon="1.48978">
        <ele>211.683415</ele>
        <time>2022-08-08T07:54:17.815Z</time>
      </trkpt>
      <trkpt lat="43.67874" lon="1.48961">
        <ele>211.382461</ele>
        <time>2022-08-08T07:54:19.810Z</time>
      </trkpt>
      <trkpt lat="43.67881" lon="1.48947">
        <ele>211.204547</ele>
        <time>2022-08-08T07:54:27.824Z</time>
      </trkpt>
      <trkpt lat="43.67888" lon="1.48938">
        <ele>211.088308</ele>
        <time>2022-08-08T07:54:31.833Z</time>
      </trkpt>
      <trkpt lat="43.67907" lon="1.48909">
        <ele>210.731144</ele>
        <time>2022-08-08T07:55:12.804Z</time>
      </trkpt>
      <trkpt lat="43.67914" lon="1.48899">
        <ele>210.598315</ele>
        <time>2022-08-08T07:55:19.817Z</time>
      </trkpt>
      <trkpt lat="43.67918" lon="1.48885">
        <ele>210.469824</ele>
        <time>2022-08-08T07:55:20.825Z</time>
      </trkpt>
      <trkpt lat="43.67924" lon="1.48875">
        <ele>210.351469</ele>
        <time>2022-08-08T07:55:23.824Z</time>
      </trkpt>
      <trkpt lat="43.67931" lon="1.48867">
        <ele>210.233324</ele>
        <time>2022-08-08T07:55:28.817Z</time>
      </trkpt>
      <trkpt lat="43.6794" lon="1.48857">
        <ele>210.093562</ele>
        <time>2022-08-08T07:55:32.823Z</time>
      </trkpt>
      <trkpt lat="43.67952" lon="1.4885">
        <ele>209.926395</ele>
        <time>2022-08-08T07:55:35.798Z</time>
      </trkpt>
      <trkpt lat="43.67967" lon="1.48831">
        <ele>209.672089</ele>
        <time>2022-08-08T07:55:37.805Z</time>
      </trkpt>
      <trkpt lat="43.67979" lon="1.48822">
        <ele>209.497812</ele>
        <time>2022-08-08T07:55:39.801Z</time>
      </trkpt>
      <trkpt lat="43.67992" lon="1.48814">
        <ele>209.322019</ele>
        <time>2022-08-08T07:55:41.802Z</time>
      </trkpt>
      <trkpt lat="43.68004" lon="1.48804">
        <ele>209.147305</ele>
        <time>2022-08-08T07:55:43.788Z</time>
      </trkpt>
      <trkpt lat="43.68016" lon="1.48795">
        <ele>209.171754</ele>
        <time>2022-08-08T07:55:45.814Z</time>
      </trkpt>
      <trkpt lat="43.68028" lon="1.48787">
        <ele>209.340927</ele>
        <time>2022-08-08T07:55:47.820Z</time>
      </trkpt>
      <trkpt lat="43.6804" lon="1.48779">
        <ele>209.504049</ele>
        <time>2022-08-08T07:55:49.799Z</time>
      </trkpt>
      <trkpt lat="43.68044" lon="1.48765">
        <ele>209.641577</ele>
        <time>2022-08-08T07:55:52.807Z</time>
      </trkpt>
      <trkpt lat="43.68055" lon="1.48778">
        <ele>209.813383</ele>
        <time>2022-08-08T07:55:56.806Z</time>
      </trkpt>
      <trkpt lat="43.68054" lon="1.4879">
        <ele>209.92669</ele>
        <time>2022-08-08T07:55:58.816Z</time>
      </trkpt>
      <trkpt lat="43.68053" lon="1.48803">
        <ele>210.039434</ele>
        <time>2022-08-08T07:56:00.806Z</time>
      </trkpt>
      <trkpt lat="43.68057" lon="1.48818">
        <ele>210.185386</ele>
        <time>2022-08-08T07:56:04.826Z</time>
      </trkpt>
      <trkpt lat="43.68063" lon="1.48834">
        <ele>210.348849</ele>
        <time>2022-08-08T07:56:07.821Z</time>
      </trkpt>
      <trkpt lat="43.68072" lon="1.48844">
        <ele>210.490769</ele>
        <time>2022-08-08T07:56:10.803Z</time>
      </trkpt>
      <trkpt lat="43.68081" lon="1.48853">
        <ele>210.629493</ele>
        <time>2022-08-08T07:56:13.815Z</time>
      </trkpt>
      <trkpt lat="43.68088" lon="1.48862">
        <ele>210.750861</ele>
        <time>2022-08-08T07:56:15.784Z</time>
      </trkpt>
      <trkpt lat="43.68098" lon="1.4887">
        <ele>210.891105</ele>
        <time>2022-08-08T07:56:17.797Z</time>
      </trkpt>
      <trkpt lat="43.68107" lon="1.48878">
        <ele>211.024909</ele>
        <time>2022-08-08T07:56:19.815Z</time>
      </trkpt>
      <trkpt lat="43.68116" lon="1.48885">
        <ele>211.152592</ele>
        <time>2022-08-08T07:56:21.813Z</time>
      </trkpt>
      <trkpt lat="43.68125" lon="1.48892">
        <ele>211.280275</ele>
        <time>2022-08-08T07:56:23.818Z</time>
      </trkpt>
      <trkpt lat="43.68134" lon="1.48899">
        <ele>211.590755</ele>
        <time>2022-08-08T07:56:25.823Z</time>
      </trkpt>
      <trkpt lat="43.68143" lon="1.48907">
        <ele>211.966103</ele>
        <time>2022-08-08T07:56:27.806Z</time>
      </trkpt>
      <trkpt lat="43.68152" lon="1.48914">
        <ele>212.349682</ele>
        <time>2022-08-08T07:56:29.794Z</time>
      </trkpt>
      <trkpt lat="43.68162" lon="1.48922">
        <ele>212.752392</ele>
        <time>2022-08-08T07:56:31.785Z</time>
      </trkpt>
      <trkpt lat="43.68172" lon="1.4893">
        <ele>213.150178</ele>
        <time>2022-08-08T07:56:33.814Z</time>
      </trkpt>
      <trkpt lat="43.68182" lon="1.48936">
        <ele>213.53592</ele>
        <time>2022-08-08T07:56:35.825Z</time>
      </trkpt>
      <trkpt lat="43.68192" lon="1.48942">
        <ele>213.930136</ele>
        <time>2022-08-08T07:56:37.827Z</time>
      </trkpt>
      <trkpt lat="43.68201" lon="1.48953">
        <ele>214.342957</ele>
        <time>2022-08-08T07:56:39.816Z</time>
      </trkpt>
      <trkpt lat="43.68209" lon="1.48968">
        <ele>214.826139</ele>
        <time>2022-08-08T07:56:41.833Z</time>
      </trkpt>
      <trkpt lat="43.6822" lon="1.48978">
        <ele>215.293787</ele>
        <time>2022-08-08T07:56:43.824Z</time>
      </trkpt>
      <trkpt lat="43.68231" lon="1.48985">
        <ele>215.721217</ele>
        <time>2022-08-08T07:56:45.825Z</time>
      </trkpt>
      <trkpt lat="43.68241" lon="1.48991">
        <ele>216.124235</ele>
        <time>2022-08-08T07:56:47.832Z</time>
      </trkpt>
      <trkpt lat="43.68252" lon="1.48989">
        <ele>216.503533</ele>
        <time>2022-08-08T07:56:49.806Z</time>
      </trkpt>
      <trkpt lat="43.68261" lon="1.48984">
        <ele>216.843473</ele>
        <time>2022-08-08T07:56:51.817Z</time>
      </trkpt>
      <trkpt lat="43.68263" lon="1.48968">
        <ele>217.257745</ele>
        <time>2022-08-08T07:56:55.839Z</time>
      </trkpt>
      <trkpt lat="43.68263" lon="1.48955">
        <ele>217.593151</ele>
        <time>2022-08-08T07:56:58.822Z</time>
      </trkpt>
      <trkpt lat="43.68265" lon="1.4894">
        <ele>218.940707</ele>
        <time>2022-08-08T07:57:02.811Z</time>
      </trkpt>
      <trkpt lat="43.68267" lon="1.48928">
        <ele>220.302277</ele>
        <time>2022-08-08T07:57:06.837Z</time>
      </trkpt>
      <trkpt lat="43.6827" lon="1.48913">
        <ele>221.959358</ele>
        <time>2022-08-08T07:57:11.817Z</time>
      </trkpt>
      <trkpt lat="43.68272" lon="1.48899">
        <ele>223.573999</ele>
        <time>2022-08-08T07:57:16.814Z</time>
      </trkpt>
      <trkpt lat="43.68275" lon="1.48887">
        <ele>224.969544</ele>
        <time>2022-08-08T07:57:21.808Z</time>
      </trkpt>
      <trkpt lat="43.68278" lon="1.48875">
        <ele>226.323005</ele>
        <time>2022-08-08T07:57:27.811Z</time>
      </trkpt>
      <trkpt lat="43.68279" lon="1.48861">
        <ele>227.842351</ele>
        <time>2022-08-08T07:57:32.811Z</time>
      </trkpt>
      <trkpt lat="43.68282" lon="1.48846">
        <ele>229.492329</ele>
        <time>2022-08-08T07:57:37.836Z</time>
      </trkpt>
      <trkpt lat="43.68284" lon="1.48834">
        <ele>230.891882</ele>
        <time>2022-08-08T07:57:42.802Z</time>
      </trkpt>
      <trkpt lat="43.68287" lon="1.48822">
        <ele>232.270949</ele>
        <time>2022-08-08T07:57:48.808Z</time>
      </trkpt>
      <trkpt lat="43.68291" lon="1.48809">
        <ele>233.7887</ele>
        <time>2022-08-08T07:57:53.830Z</time>
      </trkpt>
      <trkpt lat="43.68294" lon="1.48797">
        <ele>235.215452</ele>
        <time>2022-08-08T07:57:58.819Z</time>
      </trkpt>
      <trkpt lat="43.68297" lon="1.48782">
        <ele>236.891911</ele>
        <time>2022-08-08T07:58:04.824Z</time>
      </trkpt>
      <trkpt lat="43.68302" lon="1.48768">
        <ele>238.581184</ele>
        <time>2022-08-08T07:58:09.824Z</time>
      </trkpt>
      <trkpt lat="43.68307" lon="1.48756">
        <ele>240.047804</ele>
        <time>2022-08-08T07:58:13.820Z</time>
      </trkpt>
      <trkpt lat="43.68311" lon="1.48745">
        <ele>241.42828</ele>
        <time>2022-08-08T07:58:16.824Z</time>
      </trkpt>
      <trkpt lat="43.68316" lon="1.48732">
        <ele>243.084427</ele>
        <time>2022-08-08T07:58:21.829Z</time>
      </trkpt>
      <trkpt lat="43.6832" lon="1.4872">
        <ele>244.469285</ele>
        <time>2022-08-08T07:58:24.820Z</time>
      </trkpt>
      <trkpt lat="43.68325" lon="1.48706">
        <ele>245.435997</ele>
        <time>2022-08-08T07:58:27.829Z</time>
      </trkpt>
      <trkpt lat="43.68328" lon="1.48692">
        <ele>246.135668</ele>
        <time>2022-08-08T07:58:30.827Z</time>
      </trkpt>
      <trkpt lat="43.68333" lon="1.48679">
        <ele>246.872913</ele>
        <time>2022-08-08T07:58:33.819Z</time>
      </trkpt>
      <trkpt lat="43.68338" lon="1.48667">
        <ele>247.572906</ele>
        <time>2022-08-08T07:58:36.815Z</time>
      </trkpt>
      <trkpt lat="43.68343" lon="1.48656">
        <ele>248.214984</ele>
        <time>2022-08-08T07:58:39.816Z</time>
      </trkpt>
      <trkpt lat="43.68347" lon="1.48643">
        <ele>248.903851</ele>
        <time>2022-08-08T07:58:42.805Z</time>
      </trkpt>
      <trkpt lat="43.6835" lon="1.4863">
        <ele>249.568643</ele>
        <time>2022-08-08T07:58:45.796Z</time>
      </trkpt>
      <trkpt lat="43.68353" lon="1.48616">
        <ele>250.329355</ele>
        <time>2022-08-08T07:58:48.786Z</time>
      </trkpt>
      <trkpt lat="43.68357" lon="1.48601">
        <ele>251.108312</ele>
        <time>2022-08-08T07:58:51.812Z</time>
      </trkpt>
      <trkpt lat="43.68359" lon="1.48587">
        <ele>251.820933</ele>
        <time>2022-08-08T07:58:54.811Z</time>
      </trkpt>
      <trkpt lat="43.6837" lon="1.48582">
        <ele>252.585878</ele>
        <time>2022-08-08T07:59:04.820Z</time>
      </trkpt>
      <trkpt lat="43.6838" lon="1.48583">
        <ele>253.244929</ele>
        <time>2022-08-08T07:59:18.805Z</time>
      </trkpt>
      <trkpt lat="43.68388" lon="1.48588">
        <ele>253.882831</ele>
        <time>2022-08-08T07:59:24.807Z</time>
      </trkpt>
      <trkpt lat="43.68398" lon="1.48592">
        <ele>254.570043</ele>
        <time>2022-08-08T07:59:28.828Z</time>
      </trkpt>
      <trkpt lat="43.68407" lon="1.48599">
        <ele>255.286432</ele>
        <time>2022-08-08T07:59:34.818Z</time>
      </trkpt>
      <trkpt lat="43.6842" lon="1.48592">
        <ele>256.664228</ele>
        <time>2022-08-08T08:01:47.828Z</time>
      </trkpt>
      <trkpt lat="43.68425" lon="1.48578">
        <ele>256.622876</ele>
        <time>2022-08-08T08:01:50.815Z</time>
      </trkpt>
      <trkpt lat="43.68433" lon="1.48563">
        <ele>256.578841</ele>
        <time>2022-08-08T08:01:53.822Z</time>
      </trkpt>
      <trkpt lat="43.68439" lon="1.48549">
        <ele>256.535162</ele>
        <time>2022-08-08T08:01:56.816Z</time>
      </trkpt>
      <trkpt lat="43.68445" lon="1.48535">
        <ele>256.483432</ele>
        <time>2022-08-08T08:01:59.817Z</time>
      </trkpt>
      <trkpt lat="43.68452" lon="1.4852">
        <ele>256.408525</ele>
        <time>2022-08-08T08:02:02.807Z</time>
      </trkpt>
      <trkpt lat="43.68457" lon="1.4851">
        <ele>256.353967</ele>
        <time>2022-08-08T08:02:04.807Z</time>
      </trkpt>
      <trkpt lat="43.68466" lon="1.48497">
        <ele>256.275309</ele>
        <time>2022-08-08T08:02:07.823Z</time>
      </trkpt>
      <trkpt lat="43.68475" lon="1.48484">
        <ele>256.197144</ele>
        <time>2022-08-08T08:02:10.825Z</time>
      </trkpt>
      <trkpt lat="43.68484" lon="1.48472">
        <ele>256.122761</ele>
        <time>2022-08-08T08:02:13.812Z</time>
      </trkpt>
      <trkpt lat="43.68491" lon="1.4846">
        <ele>203.6</ele>
        <time>2022-08-08T08:02:16.808Z</time>
      </trkpt>
      <trkpt lat="43.68497" lon="1.48453">
        <ele>255.993974</ele>
        <time>2022-08-08T08:02:19.817Z</time>
      </trkpt>
      <trkpt lat="43.68506" lon="1.48441">
        <ele>255.917371</ele>
        <time>2022-08-08T08:02:22.813Z</time>
      </trkpt>
      <trkpt lat="43.68514" lon="1.48433">
        <ele>255.856446</ele>
        <time>2022-08-08T08:02:24.810Z</time>
      </trkpt>
      <trkpt lat="43.68523" lon="1.48424">
        <ele>255.791545</ele>
        <time>2022-08-08T08:02:26.801Z</time>
      </trkpt>
      <trkpt lat="43.68534" lon="1.48417">
        <ele>255.722309</ele>
        <time>2022-08-08T08:02:28.814Z</time>
      </trkpt>
      <trkpt lat="43.68544" lon="1.4841">
        <ele>255.652999</ele>
        <time>2022-08-08T08:02:30.821Z</time>
      </trkpt>
      <trkpt lat="43.68554" lon="1.48402">
        <ele>255.582531</ele>
        <time>2022-08-08T08:02:32.818Z</time>
      </trkpt>
      <trkpt lat="43.68564" lon="1.48394">
        <ele>255.511636</ele>
        <time>2022-08-08T08:02:34.817Z</time>
      </trkpt>
      <trkpt lat="43.68574" lon="1.48385">
        <ele>255.441464</ele>
        <time>2022-08-08T08:02:36.840Z</time>
      </trkpt>
      <trkpt lat="43.68584" lon="1.48377">
        <ele>255.271831</ele>
        <time>2022-08-08T08:02:38.832Z</time>
      </trkpt>
      <trkpt lat="43.68593" lon="1.48368">
        <ele>255.068508</ele>
        <time>2022-08-08T08:02:40.833Z</time>
      </trkpt>
      <trkpt lat="43.686" lon="1.48361">
        <ele>254.906061</ele>
        <time>2022-08-08T08:02:42.823Z</time>
      </trkpt>
      <trkpt lat="43.68615" lon="1.48348">
        <ele>253.231638</ele>
        <time>2022-08-08T08:03:41.826Z</time>
      </trkpt>
      <trkpt lat="43.68622" lon="1.4834">
        <ele>253.059642</ele>
        <time>2022-08-08T08:03:44.834Z</time>
      </trkpt>
      <trkpt lat="43.68631" lon="1.48328">
        <ele>252.846189</ele>
        <time>2022-08-08T08:03:47.824Z</time>
      </trkpt>
      <trkpt lat="43.68637" lon="1.48319">
        <ele>252.684197</ele>
        <time>2022-08-08T08:03:49.813Z</time>
      </trkpt>
      <trkpt lat="43.68642" lon="1.48309">
        <ele>252.519647</ele>
        <time>2022-08-08T08:03:51.814Z</time>
      </trkpt>
      <trkpt lat="43.68647" lon="1.48297">
        <ele>252.344918</ele>
        <time>2022-08-08T08:03:53.821Z</time>
      </trkpt>
      <trkpt lat="43.68653" lon="1.48287">
        <ele>252.155004</ele>
        <time>2022-08-08T08:03:55.824Z</time>
      </trkpt>
      <trkpt lat="43.68658" lon="1.48276">
        <ele>251.894682</ele>
        <time>2022-08-08T08:03:57.792Z</time>
      </trkpt>
      <trkpt lat="43.68664" lon="1.48266">
        <ele>251.63941</ele>
        <time>2022-08-08T08:03:59.814Z</time>
      </trkpt>
      <trkpt lat="43.68669" lon="1.48255">
        <ele>251.382268</ele>
        <time>2022-08-08T08:04:01.807Z</time>
      </trkpt>
      <trkpt lat="43.68676" lon="1.48244">
        <ele>251.086934</ele>
        <time>2022-08-08T08:04:04.819Z</time>
      </trkpt>
      <trkpt lat="43.68685" lon="1.48252">
        <ele>250.812505</ele>
        <time>2022-08-08T08:04:08.821Z</time>
      </trkpt>
      <trkpt lat="43.68696" lon="1.48256">
        <ele>250.493612</ele>
        <time>2022-08-08T08:04:11.811Z</time>
      </trkpt>
      <trkpt lat="43.68706" lon="1.48261">
        <ele>250.211555</ele>
        <time>2022-08-08T08:04:13.811Z</time>
      </trkpt>
      <trkpt lat="43.68715" lon="1.48265">
        <ele>249.933402</ele>
        <time>2022-08-08T08:04:15.823Z</time>
      </trkpt>
      <trkpt lat="43.68724" lon="1.4827">
        <ele>249.676982</ele>
        <time>2022-08-08T08:04:17.811Z</time>
      </trkpt>
      <trkpt lat="43.68736" lon="1.48278">
        <ele>249.315561</ele>
        <time>2022-08-08T08:04:20.831Z</time>
      </trkpt>
      <trkpt lat="43.68747" lon="1.48287">
        <ele>248.947846</ele>
        <time>2022-08-08T08:04:23.845Z</time>
      </trkpt>
      <trkpt lat="43.68756" lon="1.48294">
        <ele>248.658818</ele>
        <time>2022-08-08T08:04:26.796Z</time>
      </trkpt>
      <trkpt lat="43.68767" lon="1.48297">
        <ele>248.358227</ele>
        <time>2022-08-08T08:04:28.832Z</time>
      </trkpt>
      <trkpt lat="43.68779" lon="1.48301">
        <ele>248.019699</ele>
        <time>2022-08-08T08:04:30.830Z</time>
      </trkpt>
      <trkpt lat="43.68791" lon="1.48307">
        <ele>247.669186</ele>
        <time>2022-08-08T08:04:32.808Z</time>
      </trkpt>
      <trkpt lat="43.68804" lon="1.48311">
        <ele>247.313663</ele>
        <time>2022-08-08T08:04:34.813Z</time>
      </trkpt>
      <trkpt lat="43.68817" lon="1.48313">
        <ele>246.386582</ele>
        <time>2022-08-08T08:04:36.826Z</time>
      </trkpt>
      <trkpt lat="43.68833" lon="1.48315">
        <ele>245.228583</ele>
        <time>2022-08-08T08:04:38.823Z</time>
      </trkpt>
      <trkpt lat="43.68848" lon="1.48317">
        <ele>244.09892</ele>
        <time>2022-08-08T08:04:40.812Z</time>
      </trkpt>
      <trkpt lat="43.68861" lon="1.48318">
        <ele>243.072027</ele>
        <time>2022-08-08T08:04:42.810Z</time>
      </trkpt>
      <trkpt lat="43.6887" lon="1.4832">
        <ele>242.368269</ele>
        <time>2022-08-08T08:04:45.832Z</time>
      </trkpt>
      <trkpt lat="43.6888" lon="1.48319">
        <ele>241.682126</ele>
        <time>2022-08-08T08:04:49.812Z</time>
      </trkpt>
      <trkpt lat="43.68891" lon="1.48315">
        <ele>240.799755</ele>
        <time>2022-08-08T08:04:52.804Z</time>
      </trkpt>
      <trkpt lat="43.68903" lon="1.48312">
        <ele>239.890571</ele>
        <time>2022-08-08T08:04:55.841Z</time>
      </trkpt>
      <trkpt lat="43.68912" lon="1.48315">
        <ele>239.19046</ele>
        <time>2022-08-08T08:04:58.836Z</time>
      </trkpt>
      <trkpt lat="43.68919" lon="1.48332">
        <ele>238.160087</ele>
        <time>2022-08-08T08:05:01.822Z</time>
      </trkpt>
      <trkpt lat="43.68922" lon="1.48349">
        <ele>237.160753</ele>
        <time>2022-08-08T08:05:03.826Z</time>
      </trkpt>
      <trkpt lat="43.68923" lon="1.48366">
        <ele>236.230267</ele>
        <time>2022-08-08T08:05:05.815Z</time>
      </trkpt>
      <trkpt lat="43.68931" lon="1.48354">
        <ele>235.332053</ele>
        <time>2022-08-08T08:05:10.824Z</time>
      </trkpt>
      <trkpt lat="43.68934" lon="1.48341">
        <ele>234.56663</ele>
        <time>2022-08-08T08:05:12.809Z</time>
      </trkpt>
      <trkpt lat="43.68937" lon="1.48325">
        <ele>233.718371</ele>
        <time>2022-08-08T08:05:14.803Z</time>
      </trkpt>
      <trkpt lat="43.68941" lon="1.48309">
        <ele>233.272774</ele>
        <time>2022-08-08T08:05:16.803Z</time>
      </trkpt>
      <trkpt lat="43.68945" lon="1.48292">
        <ele>232.811461</ele>
        <time>2022-08-08T08:05:18.813Z</time>
      </trkpt>
      <trkpt lat="43.68949" lon="1.48277">
        <ele>232.370083</ele>
        <time>2022-08-08T08:05:20.807Z</time>
      </trkpt>
      <trkpt lat="43.68953" lon="1.48261">
        <ele>231.933596</ele>
        <time>2022-08-08T08:05:22.817Z</time>
      </trkpt>
      <trkpt lat="43.68956" lon="1.4824">
        <ele>231.368812</ele>
        <time>2022-08-08T08:05:24.808Z</time>
      </trkpt>
      <trkpt lat="43.68962" lon="1.48223">
        <ele>230.883357</ele>
        <time>2022-08-08T08:05:26.807Z</time>
      </trkpt>
      <trkpt lat="43.68967" lon="1.48208">
        <ele>230.44527</ele>
        <time>2022-08-08T08:05:28.803Z</time>
      </trkpt>
      <trkpt lat="43.6897" lon="1.48193">
        <ele>230.03137</ele>
        <time>2022-08-08T08:05:30.819Z</time>
      </trkpt>
      <trkpt lat="43.6897" lon="1.48179">
        <ele>229.685333</ele>
        <time>2022-08-08T08:05:32.821Z</time>
      </trkpt>
      <trkpt lat="43.68972" lon="1.48165">
        <ele>229.294262</ele>
        <time>2022-08-08T08:05:35.813Z</time>
      </trkpt>
      <trkpt lat="43.68979" lon="1.4815">
        <ele>228.823926</ele>
        <time>2022-08-08T08:05:37.801Z</time>
      </trkpt>
      <trkpt lat="43.68987" lon="1.48135">
        <ele>228.342999</ele>
        <time>2022-08-08T08:05:39.806Z</time>
      </trkpt>
      <trkpt lat="43.68993" lon="1.48119">
        <ele>227.877398</ele>
        <time>2022-08-08T08:05:41.810Z</time>
      </trkpt>
      <trkpt lat="43.68998" lon="1.48107">
        <ele>227.511366</ele>
        <time>2022-08-08T08:05:43.810Z</time>
      </trkpt>
      <trkpt lat="43.69005" lon="1.48094">
        <ele>227.390554</ele>
        <time>2022-08-08T08:05:45.810Z</time>
      </trkpt>
      <trkpt lat="43.69011" lon="1.4808">
        <ele>227.822412</ele>
        <time>2022-08-08T08:05:48.815Z</time>
      </trkpt>
      <trkpt lat="43.69021" lon="1.48071">
        <ele>228.294261</ele>
        <time>2022-08-08T08:05:55.809Z</time>
      </trkpt>
      <trkpt lat="43.6903" lon="1.48061">
        <ele>228.709029</ele>
        <time>2022-08-08T08:06:00.827Z</time>
      </trkpt>
      <trkpt lat="43.69039" lon="1.48049">
        <ele>229.185468</ele>
        <time>2022-08-08T08:06:03.825Z</time>
      </trkpt>
      <trkpt lat="43.69047" lon="1.48041">
        <ele>229.569189</ele>
        <time>2022-08-08T08:06:05.835Z</time>
      </trkpt>
      <trkpt lat="43.69059" lon="1.48036">
        <ele>230.041414</ele>
        <time>2022-08-08T08:06:08.811Z</time>
      </trkpt>
      <trkpt lat="43.6907" lon="1.48032">
        <ele>230.460705</ele>
        <time>2022-08-08T08:06:11.822Z</time>
      </trkpt>
      <trkpt lat="43.69079" lon="1.48028">
        <ele>230.829563</ele>
        <time>2022-08-08T08:06:14.833Z</time>
      </trkpt>
      <trkpt lat="43.69088" lon="1.48024">
        <ele>231.169317</ele>
        <time>2022-08-08T08:06:17.822Z</time>
      </trkpt>
      <trkpt lat="43.69097" lon="1.48021">
        <ele>231.518716</ele>
        <time>2022-08-08T08:06:20.810Z</time>
      </trkpt>
      <trkpt lat="43.69125" lon="1.48013">
        <ele>232.593542</ele>
        <time>2022-08-08T08:06:42.830Z</time>
      </trkpt>
      <trkpt lat="43.69133" lon="1.48021">
        <ele>232.972397</ele>
        <time>2022-08-08T08:06:47.824Z</time>
      </trkpt>
      <trkpt lat="43.69142" lon="1.48031">
        <ele>233.410192</ele>
        <time>2022-08-08T08:06:52.801Z</time>
      </trkpt>
      <trkpt lat="43.69151" lon="1.48025">
        <ele>233.785291</ele>
        <time>2022-08-08T08:06:55.807Z</time>
      </trkpt>
      <trkpt lat="43.69159" lon="1.48016">
        <ele>234.072826</ele>
        <time>2022-08-08T08:06:57.830Z</time>
      </trkpt>
      <trkpt lat="43.69166" lon="1.48007">
        <ele>234.224184</ele>
        <time>2022-08-08T08:06:59.813Z</time>
      </trkpt>
      <trkpt lat="43.69177" lon="1.48008">
        <ele>234.391944</ele>
        <time>2022-08-08T08:07:02.825Z</time>
      </trkpt>
      <trkpt lat="43.69189" lon="1.48009">
        <ele>234.570403</ele>
        <time>2022-08-08T08:07:06.807Z</time>
      </trkpt>
      <trkpt lat="43.692" lon="1.48012">
        <ele>234.740819</ele>
        <time>2022-08-08T08:07:10.804Z</time>
      </trkpt>
      <trkpt lat="43.69218" lon="1.48018">
        <ele>235.027414</ele>
        <time>2022-08-08T08:07:16.804Z</time>
      </trkpt>
      <trkpt lat="43.69228" lon="1.48019">
        <ele>235.181365</ele>
        <time>2022-08-08T08:07:19.827Z</time>
      </trkpt>
      <trkpt lat="43.69243" lon="1.48013">
        <ele>235.414504</ele>
        <time>2022-08-08T08:07:22.793Z</time>
      </trkpt>
      <trkpt lat="43.69254" lon="1.48006">
        <ele>235.601653</ele>
        <time>2022-08-08T08:07:24.818Z</time>
      </trkpt>
      <trkpt lat="43.69266" lon="1.47999">
        <ele>235.797373</ele>
        <time>2022-08-08T08:07:26.810Z</time>
      </trkpt>
      <trkpt lat="43.69272" lon="1.47984">
        <ele>235.981547</ele>
        <time>2022-08-08T08:07:28.819Z</time>
      </trkpt>
      <trkpt lat="43.69274" lon="1.47967">
        <ele>236.174003</ele>
        <time>2022-08-08T08:07:30.823Z</time>
      </trkpt>
      <trkpt lat="43.69275" lon="1.4795">
        <ele>236.362961</ele>
        <time>2022-08-08T08:07:32.816Z</time>
      </trkpt>
      <trkpt lat="43.69277" lon="1.47935">
        <ele>236.53258</ele>
        <time>2022-08-08T08:07:34.811Z</time>
      </trkpt>
      <trkpt lat="43.69279" lon="1.47919">
        <ele>236.703862</ele>
        <time>2022-08-08T08:07:36.807Z</time>
      </trkpt>
      <trkpt lat="43.69282" lon="1.47906">
        <ele>237.084667</ele>
        <time>2022-08-08T08:07:38.806Z</time>
      </trkpt>
      <trkpt lat="43.69286" lon="1.47894">
        <ele>237.53378</ele>
        <time>2022-08-08T08:07:40.828Z</time>
      </trkpt>
      <trkpt lat="43.69293" lon="1.4788">
        <ele>238.116175</ele>
        <time>2022-08-08T08:07:43.803Z</time>
      </trkpt>
      <trkpt lat="43.693" lon="1.47868">
        <ele>238.654955</ele>
        <time>2022-08-08T08:07:46.807Z</time>
      </trkpt>
      <trkpt lat="43.69307" lon="1.47855">
        <ele>239.201473</ele>
        <time>2022-08-08T08:07:49.804Z</time>
      </trkpt>
      <trkpt lat="43.69314" lon="1.47842">
        <ele>239.744799</ele>
        <time>2022-08-08T08:07:52.797Z</time>
      </trkpt>
      <trkpt lat="43.6932" lon="1.4783">
        <ele>240.268663</ele>
        <time>2022-08-08T08:07:55.816Z</time>
      </trkpt>
      <trkpt lat="43.69327" lon="1.47818">
        <ele>240.778527</ele>
        <time>2022-08-08T08:07:58.802Z</time>
      </trkpt>
      <trkpt lat="43.69334" lon="1.47805">
        <ele>241.355257</ele>
        <time>2022-08-08T08:08:01.793Z</time>
      </trkpt>
      <trkpt lat="43.69341" lon="1.47793">
        <ele>241.871098</ele>
        <time>2022-08-08T08:08:04.827Z</time>
      </trkpt>
      <trkpt lat="43.69349" lon="1.47785">
        <ele>242.366668</ele>
        <time>2022-08-08T08:08:07.810Z</time>
      </trkpt>
      <trkpt lat="43.69362" lon="1.47785">
        <ele>242.970806</ele>
        <time>2022-08-08T08:08:10.810Z</time>
      </trkpt>
      <trkpt lat="43.69371" lon="1.47784">
        <ele>243.399645</ele>
        <time>2022-08-08T08:08:12.820Z</time>
      </trkpt>
      <trkpt lat="43.6938" lon="1.47784">
        <ele>243.842079</ele>
        <time>2022-08-08T08:08:14.811Z</time>
      </trkpt>
      <trkpt lat="43.6939" lon="1.47784">
        <ele>244.304357</ele>
        <time>2022-08-08T08:08:16.817Z</time>
      </trkpt>
      <trkpt lat="43.694" lon="1.47783">
        <ele>244.766226</ele>
        <time>2022-08-08T08:08:18.797Z</time>
      </trkpt>
      <trkpt lat="43.6941" lon="1.47783">
        <ele>245.2608</ele>
        <time>2022-08-08T08:08:20.830Z</time>
      </trkpt>
      <trkpt lat="43.6942" lon="1.47783">
        <ele>245.62667</ele>
        <time>2022-08-08T08:08:22.801Z</time>
      </trkpt>
      <trkpt lat="43.6943" lon="1.47784">
        <ele>245.96695</ele>
        <time>2022-08-08T08:08:24.816Z</time>
      </trkpt>
      <trkpt lat="43.69439" lon="1.47779">
        <ele>246.311997</ele>
        <time>2022-08-08T08:08:26.801Z</time>
      </trkpt>
      <trkpt lat="43.69445" lon="1.47767">
        <ele>246.680741</ele>
        <time>2022-08-08T08:08:28.817Z</time>
      </trkpt>
      <trkpt lat="43.6945" lon="1.47754">
        <ele>247.043574</ele>
        <time>2022-08-08T08:08:30.829Z</time>
      </trkpt>
      <trkpt lat="43.69455" lon="1.47742">
        <ele>247.404235</ele>
        <time>2022-08-08T08:08:32.805Z</time>
      </trkpt>
      <trkpt lat="43.6946" lon="1.47728">
        <ele>247.78481</ele>
        <time>2022-08-08T08:08:34.818Z</time>
      </trkpt>
      <trkpt lat="43.69465" lon="1.47716">
        <ele>248.154266</ele>
        <time>2022-08-08T08:08:36.809Z</time>
      </trkpt>
      <trkpt lat="43.69471" lon="1.47703">
        <ele>248.538003</ele>
        <time>2022-08-08T08:08:38.818Z</time>
      </trkpt>
      <trkpt lat="43.69477" lon="1.4769">
        <ele>248.911591</ele>
        <time>2022-08-08T08:08:40.797Z</time>
      </trkpt>
      <trkpt lat="43.69481" lon="1.47676">
        <ele>249.286149</ele>
        <time>2022-08-08T08:08:42.820Z</time>
      </trkpt>
      <trkpt lat="43.69483" lon="1.47662">
        <ele>249.663158</ele>
        <time>2022-08-08T08:08:44.807Z</time>
      </trkpt>
      <trkpt lat="43.69486" lon="1.47647">
        <ele>250.039223</ele>
        <time>2022-08-08T08:08:46.783Z</time>
      </trkpt>
      <trkpt lat="43.69488" lon="1.47634">
        <ele>250.395571</ele>
        <time>2022-08-08T08:08:48.840Z</time>
      </trkpt>
      <trkpt lat="43.69491" lon="1.47617">
        <ele>250.841229</ele>
        <time>2022-08-08T08:08:51.794Z</time>
      </trkpt>
      <trkpt lat="43.69494" lon="1.47605">
        <ele>251.160331</ele>
        <time>2022-08-08T08:08:53.796Z</time>
      </trkpt>
      <trkpt lat="43.69498" lon="1.47592">
        <ele>251.512836</ele>
        <time>2022-08-08T08:08:55.807Z</time>
      </trkpt>
      <trkpt lat="43.69504" lon="1.47578">
        <ele>251.908385</ele>
        <time>2022-08-08T08:08:57.798Z</time>
      </trkpt>
      <trkpt lat="43.6951" lon="1.47568">
        <ele>252.254514</ele>
        <time>2022-08-08T08:08:59.799Z</time>
      </trkpt>
      <trkpt lat="43.69517" lon="1.47559">
        <ele>252.56819</ele>
        <time>2022-08-08T08:09:01.821Z</time>
      </trkpt>
      <trkpt lat="43.69524" lon="1.47548">
        <ele>252.925979</ele>
        <time>2022-08-08T08:09:03.803Z</time>
      </trkpt>
      <trkpt lat="43.69531" lon="1.47537">
        <ele>253.287843</ele>
        <time>2022-08-08T08:09:05.811Z</time>
      </trkpt>
      <trkpt lat="43.69539" lon="1.47525">
        <ele>253.694005</ele>
        <time>2022-08-08T08:09:08.814Z</time>
      </trkpt>
      <trkpt lat="43.69547" lon="1.47523">
        <ele>254.005636</ele>
        <time>2022-08-08T08:09:12.835Z</time>
      </trkpt>
      <trkpt lat="43.69559" lon="1.47533">
        <ele>254.485475</ele>
        <time>2022-08-08T08:09:15.817Z</time>
      </trkpt>
      <trkpt lat="43.69568" lon="1.47542">
        <ele>254.859498</ele>
        <time>2022-08-08T08:09:17.809Z</time>
      </trkpt>
      <trkpt lat="43.69576" lon="1.47553">
        <ele>255.243531</ele>
        <time>2022-08-08T08:09:19.826Z</time>
      </trkpt>
      <trkpt lat="43.6958" lon="1.47568">
        <ele>255.635621</ele>
        <time>2022-08-08T08:09:21.823Z</time>
      </trkpt>
      <trkpt lat="43.69582" lon="1.47583">
        <ele>256.028798</ele>
        <time>2022-08-08T08:09:23.816Z</time>
      </trkpt>
      <trkpt lat="43.69585" lon="1.47599">
        <ele>256.431056</ele>
        <time>2022-08-08T08:09:25.809Z</time>
      </trkpt>
      <trkpt lat="43.69588" lon="1.47614">
        <ele>256.827227</ele>
        <time>2022-08-08T08:09:27.813Z</time>
      </trkpt>
      <trkpt lat="43.69594" lon="1.47629">
        <ele>257.226524</ele>
        <time>2022-08-08T08:09:29.794Z</time>
      </trkpt>
      <trkpt lat="43.69599" lon="1.47643">
        <ele>257.623611</ele>
        <time>2022-08-08T08:09:31.829Z</time>
      </trkpt>
      <trkpt lat="43.69604" lon="1.47657">
        <ele>257.878021</ele>
        <time>2022-08-08T08:09:33.797Z</time>
      </trkpt>
      <trkpt lat="43.6961" lon="1.4767">
        <ele>258.039699</ele>
        <time>2022-08-08T08:09:35.806Z</time>
      </trkpt>
      <trkpt lat="43.69616" lon="1.47684">
        <ele>258.200879</ele>
        <time>2022-08-08T08:09:37.828Z</time>
      </trkpt>
      <trkpt lat="43.69622" lon="1.47697">
        <ele>258.360259</ele>
        <time>2022-08-08T08:09:39.802Z</time>
      </trkpt>
      <trkpt lat="43.69627" lon="1.47711">
        <ele>258.520544</ele>
        <time>2022-08-08T08:09:41.812Z</time>
      </trkpt>
      <trkpt lat="43.69633" lon="1.47724">
        <ele>258.67781</ele>
        <time>2022-08-08T08:09:43.779Z</time>
      </trkpt>
      <trkpt lat="43.69638" lon="1.47737">
        <ele>258.825321</ele>
        <time>2022-08-08T08:09:45.810Z</time>
      </trkpt>
      <trkpt lat="43.69642" lon="1.47752">
        <ele>258.993743</ele>
        <time>2022-08-08T08:09:48.827Z</time>
      </trkpt>
      <trkpt lat="43.69648" lon="1.47767">
        <ele>259.165433</ele>
        <time>2022-08-08T08:09:55.814Z</time>
      </trkpt>
      <trkpt lat="43.69655" lon="1.47775">
        <ele>259.29695</ele>
        <time>2022-08-08T08:09:57.813Z</time>
      </trkpt>
      <trkpt lat="43.69663" lon="1.47784">
        <ele>259.442839</ele>
        <time>2022-08-08T08:09:59.800Z</time>
      </trkpt>
      <trkpt lat="43.69671" lon="1.47794">
        <ele>259.594166</ele>
        <time>2022-08-08T08:10:01.809Z</time>
      </trkpt>
      <trkpt lat="43.6968" lon="1.47803">
        <ele>259.755462</ele>
        <time>2022-08-08T08:10:03.811Z</time>
      </trkpt>
      <trkpt lat="43.69689" lon="1.47814">
        <ele>259.91898</ele>
        <time>2022-08-08T08:10:05.814Z</time>
      </trkpt>
      <trkpt lat="43.69698" lon="1.47824">
        <ele>260.084894</ele>
        <time>2022-08-08T08:10:07.830Z</time>
      </trkpt>
      <trkpt lat="43.69708" lon="1.47833">
        <ele>260.251382</ele>
        <time>2022-08-08T08:10:09.806Z</time>
      </trkpt>
      <trkpt lat="43.69719" lon="1.47839">
        <ele>260.112717</ele>
        <time>2022-08-08T08:10:11.824Z</time>
      </trkpt>
      <trkpt lat="43.69731" lon="1.47842">
        <ele>259.737055</ele>
        <time>2022-08-08T08:10:13.812Z</time>
      </trkpt>
      <trkpt lat="43.69743" lon="1.47843">
        <ele>259.359228</ele>
        <time>2022-08-08T08:10:15.827Z</time>
      </trkpt>
      <trkpt lat="43.69755" lon="1.47842">
        <ele>258.980828</ele>
        <time>2022-08-08T08:10:17.803Z</time>
      </trkpt>
      <trkpt lat="43.69768" lon="1.47839">
        <ele>258.583001</ele>
        <time>2022-08-08T08:10:19.797Z</time>
      </trkpt>
      <trkpt lat="43.69781" lon="1.47834">
        <ele>258.171652</ele>
        <time>2022-08-08T08:10:21.809Z</time>
      </trkpt>
      <trkpt lat="43.69794" lon="1.47829">
        <ele>257.760955</ele>
        <time>2022-08-08T08:10:23.835Z</time>
      </trkpt>
      <trkpt lat="43.69807" lon="1.47824">
        <ele>257.349646</ele>
        <time>2022-08-08T08:10:25.813Z</time>
      </trkpt>
      <trkpt lat="43.6982" lon="1.47819">
        <ele>256.921008</ele>
        <time>2022-08-08T08:10:27.808Z</time>
      </trkpt>
      <trkpt lat="43.69834" lon="1.47813">
        <ele>256.479945</ele>
        <time>2022-08-08T08:10:29.802Z</time>
      </trkpt>
      <trkpt lat="43.69848" lon="1.47808">
        <ele>256.018662</ele>
        <time>2022-08-08T08:10:31.803Z</time>
      </trkpt>
      <trkpt lat="43.69863" lon="1.47804">
        <ele>255.545531</ele>
        <time>2022-08-08T08:10:33.810Z</time>
      </trkpt>
      <trkpt lat="43.69878" lon="1.47796">
        <ele>255.058965</ele>
        <time>2022-08-08T08:10:35.815Z</time>
      </trkpt>
      <trkpt lat="43.69891" lon="1.47783">
        <ele>254.456884</ele>
        <time>2022-08-08T08:10:37.812Z</time>
      </trkpt>
      <trkpt lat="43.69902" lon="1.47767">
        <ele>253.702731</ele>
        <time>2022-08-08T08:10:39.809Z</time>
      </trkpt>
      <trkpt lat="43.69914" lon="1.4775">
        <ele>252.911483</ele>
        <time>2022-08-08T08:10:41.804Z</time>
      </trkpt>
      <trkpt lat="43.69926" lon="1.47732">
        <ele>252.102328</ele>
        <time>2022-08-08T08:10:43.814Z</time>
      </trkpt>
      <trkpt lat="43.69932" lon="1.47724">
        <ele>251.682834</ele>
        <time>2022-08-08T08:10:44.807Z</time>
      </trkpt>
      <trkpt lat="43.69939" lon="1.47715">
        <ele>251.251016</ele>
        <time>2022-08-08T08:10:45.811Z</time>
      </trkpt>
      <trkpt lat="43.69946" lon="1.47705">
        <ele>250.806487</ele>
        <time>2022-08-08T08:10:46.808Z</time>
      </trkpt>
      <trkpt lat="43.69953" lon="1.47696">
        <ele>250.351547</ele>
        <time>2022-08-08T08:10:47.806Z</time>
      </trkpt>
      <trkpt lat="43.6996" lon="1.47686">
        <ele>249.893319</ele>
        <time>2022-08-08T08:10:48.799Z</time>
      </trkpt>
      <trkpt lat="43.69967" lon="1.47677">
        <ele>249.425093</ele>
        <time>2022-08-08T08:10:49.810Z</time>
      </trkpt>
      <trkpt lat="43.69975" lon="1.47668">
        <ele>248.969249</ele>
        <time>2022-08-08T08:10:50.804Z</time>
      </trkpt>
      <trkpt lat="43.69982" lon="1.47659">
        <ele>248.511313</ele>
        <time>2022-08-08T08:10:51.805Z</time>
      </trkpt>
      <trkpt lat="43.69989" lon="1.4765">
        <ele>248.068149</ele>
        <time>2022-08-08T08:10:52.806Z</time>
      </trkpt>
      <trkpt lat="43.69996" lon="1.47642">
        <ele>247.639351</ele>
        <time>2022-08-08T08:10:53.809Z</time>
      </trkpt>
      <trkpt lat="43.70004" lon="1.47636">
        <ele>247.219476</ele>
        <time>2022-08-08T08:10:54.818Z</time>
      </trkpt>
      <trkpt lat="43.7002" lon="1.47626">
        <ele>246.402402</ele>
        <time>2022-08-08T08:10:56.810Z</time>
      </trkpt>
      <trkpt lat="43.70037" lon="1.47621">
        <ele>246.139179</ele>
        <time>2022-08-08T08:10:58.808Z</time>
      </trkpt>
      <trkpt lat="43.70054" lon="1.47621">
        <ele>245.888341</ele>
        <time>2022-08-08T08:11:00.826Z</time>
      </trkpt>
      <trkpt lat="43.7007" lon="1.47623">
        <ele>245.639373</ele>
        <time>2022-08-08T08:11:02.813Z</time>
      </trkpt>
      <trkpt lat="43.70087" lon="1.47627">
        <ele>245.392584</ele>
        <time>2022-08-08T08:11:04.804Z</time>
      </trkpt>
      <trkpt lat="43.70103" lon="1.4763">
        <ele>245.142621</ele>
        <time>2022-08-08T08:11:06.816Z</time>
      </trkpt>
      <trkpt lat="43.7012" lon="1.47631">
        <ele>244.891258</ele>
        <time>2022-08-08T08:11:08.812Z</time>
      </trkpt>
      <trkpt lat="43.70136" lon="1.47629">
        <ele>244.637672</ele>
        <time>2022-08-08T08:11:10.812Z</time>
      </trkpt>
      <trkpt lat="43.70152" lon="1.47623">
        <ele>244.385438</ele>
        <time>2022-08-08T08:11:12.817Z</time>
      </trkpt>
      <trkpt lat="43.70167" lon="1.47615">
        <ele>244.143682</ele>
        <time>2022-08-08T08:11:14.811Z</time>
      </trkpt>
      <trkpt lat="43.70182" lon="1.47608">
        <ele>243.911982</ele>
        <time>2022-08-08T08:11:16.809Z</time>
      </trkpt>
      <trkpt lat="43.70196" lon="1.47607">
        <ele>243.692614</ele>
        <time>2022-08-08T08:11:18.803Z</time>
      </trkpt>
      <trkpt lat="43.70209" lon="1.47612">
        <ele>243.579326</ele>
        <time>2022-08-08T08:11:20.809Z</time>
      </trkpt>
      <trkpt lat="43.7022" lon="1.47619">
        <ele>243.47997</ele>
        <time>2022-08-08T08:11:22.808Z</time>
      </trkpt>
      <trkpt lat="43.70229" lon="1.47627">
        <ele>243.385627</ele>
        <time>2022-08-08T08:11:24.801Z</time>
      </trkpt>
      <trkpt lat="43.70238" lon="1.47634">
        <ele>243.294917</ele>
        <time>2022-08-08T08:11:26.828Z</time>
      </trkpt>
      <trkpt lat="43.70248" lon="1.47642">
        <ele>243.201981</ele>
        <time>2022-08-08T08:11:28.796Z</time>
      </trkpt>
      <trkpt lat="43.70257" lon="1.47649">
        <ele>243.110526</ele>
        <time>2022-08-08T08:11:30.803Z</time>
      </trkpt>
      <trkpt lat="43.70267" lon="1.47656">
        <ele>243.019816</ele>
        <time>2022-08-08T08:11:32.799Z</time>
      </trkpt>
      <trkpt lat="43.70276" lon="1.47662">
        <ele>242.93131</ele>
        <time>2022-08-08T08:11:34.811Z</time>
      </trkpt>
      <trkpt lat="43.70285" lon="1.47668">
        <ele>242.84332</ele>
        <time>2022-08-08T08:11:36.822Z</time>
      </trkpt>
      <trkpt lat="43.70295" lon="1.47674">
        <ele>242.749864</ele>
        <time>2022-08-08T08:11:38.827Z</time>
      </trkpt>
      <trkpt lat="43.70307" lon="1.4768">
        <ele>242.645849</ele>
        <time>2022-08-08T08:11:40.823Z</time>
      </trkpt>
      <trkpt lat="43.70318" lon="1.47688">
        <ele>242.537721</ele>
        <time>2022-08-08T08:11:42.820Z</time>
      </trkpt>
      <trkpt lat="43.70332" lon="1.47694">
        <ele>242.416469</ele>
        <time>2022-08-08T08:11:44.823Z</time>
      </trkpt>
      <trkpt lat="43.70346" lon="1.47701">
        <ele>242.28797</ele>
        <time>2022-08-08T08:11:46.820Z</time>
      </trkpt>
      <trkpt lat="43.70361" lon="1.47708">
        <ele>242.142624</ele>
        <time>2022-08-08T08:11:48.824Z</time>
      </trkpt>
      <trkpt lat="43.70375" lon="1.47717">
        <ele>241.819815</ele>
        <time>2022-08-08T08:11:50.832Z</time>
      </trkpt>
      <trkpt lat="43.70389" lon="1.47725">
        <ele>241.503284</ele>
        <time>2022-08-08T08:11:52.821Z</time>
      </trkpt>
      <trkpt lat="43.70404" lon="1.47731">
        <ele>241.184345</ele>
        <time>2022-08-08T08:11:54.810Z</time>
      </trkpt>
      <trkpt lat="43.70418" lon="1.47738">
        <ele>240.869397</ele>
        <time>2022-08-08T08:11:56.822Z</time>
      </trkpt>
      <trkpt lat="43.70432" lon="1.47745">
        <ele>240.563821</ele>
        <time>2022-08-08T08:11:58.815Z</time>
      </trkpt>
      <trkpt lat="43.70446" lon="1.47752">
        <ele>240.26221</ele>
        <time>2022-08-08T08:12:00.802Z</time>
      </trkpt>
      <trkpt lat="43.70459" lon="1.47758">
        <ele>239.967961</ele>
        <time>2022-08-08T08:12:02.826Z</time>
      </trkpt>
      <trkpt lat="43.70472" lon="1.47765">
        <ele>239.682058</ele>
        <time>2022-08-08T08:12:04.813Z</time>
      </trkpt>
      <trkpt lat="43.70485" lon="1.47769">
        <ele>239.399848</ele>
        <time>2022-08-08T08:12:06.813Z</time>
      </trkpt>
      <trkpt lat="43.70498" lon="1.47772">
        <ele>239.130213</ele>
        <time>2022-08-08T08:12:08.831Z</time>
      </trkpt>
      <trkpt lat="43.70511" lon="1.47774">
        <ele>238.861791</ele>
        <time>2022-08-08T08:12:10.812Z</time>
      </trkpt>
      <trkpt lat="43.70523" lon="1.47776">
        <ele>238.598006</ele>
        <time>2022-08-08T08:12:12.818Z</time>
      </trkpt>
      <trkpt lat="43.70535" lon="1.47777">
        <ele>238.380772</ele>
        <time>2022-08-08T08:12:14.813Z</time>
      </trkpt>
      <trkpt lat="43.70547" lon="1.47779">
        <ele>238.265849</ele>
        <time>2022-08-08T08:12:16.819Z</time>
      </trkpt>
      <trkpt lat="43.70559" lon="1.4778">
        <ele>238.153508</ele>
        <time>2022-08-08T08:12:18.819Z</time>
      </trkpt>
      <trkpt lat="43.70571" lon="1.47782">
        <ele>238.041301</ele>
        <time>2022-08-08T08:12:20.806Z</time>
      </trkpt>
      <trkpt lat="43.70583" lon="1.47783">
        <ele>237.924436</ele>
        <time>2022-08-08T08:12:22.812Z</time>
      </trkpt>
      <trkpt lat="43.70595" lon="1.47784">
        <ele>237.809693</ele>
        <time>2022-08-08T08:12:24.825Z</time>
      </trkpt>
      <trkpt lat="43.70608" lon="1.47787">
        <ele>237.693041</ele>
        <time>2022-08-08T08:12:26.834Z</time>
      </trkpt>
      <trkpt lat="43.7062" lon="1.47789">
        <ele>237.57628</ele>
        <time>2022-08-08T08:12:28.828Z</time>
      </trkpt>
      <trkpt lat="43.70632" lon="1.47792">
        <ele>237.454849</ele>
        <time>2022-08-08T08:12:30.823Z</time>
      </trkpt>
      <trkpt lat="43.70645" lon="1.47794">
        <ele>237.337225</ele>
        <time>2022-08-08T08:12:32.828Z</time>
      </trkpt>
      <trkpt lat="43.70657" lon="1.47797">
        <ele>237.220338</ele>
        <time>2022-08-08T08:12:34.842Z</time>
      </trkpt>
      <trkpt lat="43.70669" lon="1.478">
        <ele>237.106257</ele>
        <time>2022-08-08T08:12:36.829Z</time>
      </trkpt>
      <trkpt lat="43.70681" lon="1.47803">
        <ele>236.989732</ele>
        <time>2022-08-08T08:12:38.817Z</time>
      </trkpt>
      <trkpt lat="43.70693" lon="1.47805">
        <ele>236.877411</ele>
        <time>2022-08-08T08:12:40.815Z</time>
      </trkpt>
      <trkpt lat="43.70705" lon="1.47808">
        <ele>236.762747</ele>
        <time>2022-08-08T08:12:42.829Z</time>
      </trkpt>
      <trkpt lat="43.70716" lon="1.47812">
        <ele>236.592094</ele>
        <time>2022-08-08T08:12:44.818Z</time>
      </trkpt>
      <trkpt lat="43.70728" lon="1.47817">
        <ele>236.374785</ele>
        <time>2022-08-08T08:12:46.823Z</time>
      </trkpt>
      <trkpt lat="43.70739" lon="1.47821">
        <ele>236.162336</ele>
        <time>2022-08-08T08:12:48.816Z</time>
      </trkpt>
      <trkpt lat="43.70751" lon="1.47826">
        <ele>235.946616</ele>
        <time>2022-08-08T08:12:50.824Z</time>
      </trkpt>
      <trkpt lat="43.70761" lon="1.47832">
        <ele>235.751621</ele>
        <time>2022-08-08T08:12:53.812Z</time>
      </trkpt>
      <trkpt lat="43.70774" lon="1.47839">
        <ele>235.504948</ele>
        <time>2022-08-08T08:12:56.820Z</time>
      </trkpt>
      <trkpt lat="43.70784" lon="1.47845">
        <ele>235.29344</ele>
        <time>2022-08-08T08:12:58.827Z</time>
      </trkpt>
      <trkpt lat="43.70795" lon="1.47852">
        <ele>235.076471</ele>
        <time>2022-08-08T08:13:00.833Z</time>
      </trkpt>
      <trkpt lat="43.70807" lon="1.47857">
        <ele>234.852911</ele>
        <time>2022-08-08T08:13:02.826Z</time>
      </trkpt>
      <trkpt lat="43.70819" lon="1.47861">
        <ele>234.627937</ele>
        <time>2022-08-08T08:13:04.815Z</time>
      </trkpt>
      <trkpt lat="43.70832" lon="1.47861">
        <ele>234.402801</ele>
        <time>2022-08-08T08:13:06.813Z</time>
      </trkpt>
      <trkpt lat="43.7085" lon="1.47854">
        <ele>234.065375</ele>
        <time>2022-08-08T08:13:09.824Z</time>
      </trkpt>
      <trkpt lat="43.70861" lon="1.47845">
        <ele>233.837118</ele>
        <time>2022-08-08T08:13:11.805Z</time>
      </trkpt>
      <trkpt lat="43.70871" lon="1.47835">
        <ele>233.616441</ele>
        <time>2022-08-08T08:13:13.825Z</time>
      </trkpt>
      <trkpt lat="43.7088" lon="1.47826">
        <ele>233.405796</ele>
        <time>2022-08-08T08:13:15.820Z</time>
      </trkpt>
      <trkpt lat="43.70891" lon="1.47818">
        <ele>233.179324</ele>
        <time>2022-08-08T08:13:17.845Z</time>
      </trkpt>
      <trkpt lat="43.70902" lon="1.47811">
        <ele>232.941915</ele>
        <time>2022-08-08T08:13:19.832Z</time>
      </trkpt>
      <trkpt lat="43.70916" lon="1.47805">
        <ele>232.680462</ele>
        <time>2022-08-08T08:13:21.821Z</time>
      </trkpt>
      <trkpt lat="43.70929" lon="1.47802">
        <ele>232.421351</ele>
        <time>2022-08-08T08:13:23.831Z</time>
      </trkpt>
      <trkpt lat="43.70943" lon="1.47802">
        <ele>232.168231</ele>
        <time>2022-08-08T08:13:25.827Z</time>
      </trkpt>
      <trkpt lat="43.70956" lon="1.47803">
        <ele>231.920449</ele>
        <time>2022-08-08T08:13:27.820Z</time>
      </trkpt>
      <trkpt lat="43.70969" lon="1.47805">
        <ele>231.671178</ele>
        <time>2022-08-08T08:13:29.828Z</time>
      </trkpt>
      <trkpt lat="43.70982" lon="1.4781">
        <ele>231.42796</ele>
        <time>2022-08-08T08:13:31.866Z</time>
      </trkpt>
      <trkpt lat="43.70994" lon="1.47817">
        <ele>231.186048</ele>
        <time>2022-08-08T08:13:33.824Z</time>
      </trkpt>
      <trkpt lat="43.71005" lon="1.47825">
        <ele>230.94592</ele>
        <time>2022-08-08T08:13:35.813Z</time>
      </trkpt>
      <trkpt lat="43.71017" lon="1.47832">
        <ele>230.710363</ele>
        <time>2022-08-08T08:13:37.839Z</time>
      </trkpt>
      <trkpt lat="43.71028" lon="1.47835">
        <ele>230.48169</ele>
        <time>2022-08-08T08:13:39.820Z</time>
      </trkpt>
      <trkpt lat="43.71048" lon="1.47852">
        <ele>230.079459</ele>
        <time>2022-08-08T08:13:43.818Z</time>
      </trkpt>
      <trkpt lat="43.71057" lon="1.47862">
        <ele>229.99226</ele>
        <time>2022-08-08T08:13:45.829Z</time>
      </trkpt>
      <trkpt lat="43.71067" lon="1.47872">
        <ele>229.904339</ele>
        <time>2022-08-08T08:13:47.817Z</time>
      </trkpt>
      <trkpt lat="43.71077" lon="1.47881">
        <ele>229.817914</ele>
        <time>2022-08-08T08:13:49.815Z</time>
      </trkpt>
      <trkpt lat="43.71087" lon="1.47889">
        <ele>229.73168</ele>
        <time>2022-08-08T08:13:51.826Z</time>
      </trkpt>
      <trkpt lat="43.71097" lon="1.47898">
        <ele>229.644191</ele>
        <time>2022-08-08T08:13:53.821Z</time>
      </trkpt>
      <trkpt lat="43.71112" lon="1.47911">
        <ele>229.514075</ele>
        <time>2022-08-08T08:13:56.805Z</time>
      </trkpt>
      <trkpt lat="43.71122" lon="1.47919">
        <ele>229.426997</ele>
        <time>2022-08-08T08:13:58.800Z</time>
      </trkpt>
      <trkpt lat="43.71133" lon="1.47927">
        <ele>229.33838</ele>
        <time>2022-08-08T08:14:00.807Z</time>
      </trkpt>
      <trkpt lat="43.71144" lon="1.47935">
        <ele>229.248935</ele>
        <time>2022-08-08T08:14:02.791Z</time>
      </trkpt>
      <trkpt lat="43.71156" lon="1.4794">
        <ele>229.156543</ele>
        <time>2022-08-08T08:14:04.807Z</time>
      </trkpt>
      <trkpt lat="43.71168" lon="1.4794">
        <ele>229.064694</ele>
        <time>2022-08-08T08:14:06.810Z</time>
      </trkpt>
      <trkpt lat="43.7118" lon="1.47933">
        <ele>228.968252</ele>
        <time>2022-08-08T08:14:08.818Z</time>
      </trkpt>
      <trkpt lat="43.71191" lon="1.47921">
        <ele>228.870333</ele>
        <time>2022-08-08T08:14:10.803Z</time>
      </trkpt>
      <trkpt lat="43.712" lon="1.47908">
        <ele>228.758356</ele>
        <time>2022-08-08T08:14:12.794Z</time>
      </trkpt>
      <trkpt lat="43.71211" lon="1.47897">
        <ele>228.448133</ele>
        <time>2022-08-08T08:14:14.808Z</time>
      </trkpt>
      <trkpt lat="43.71218" lon="1.47881">
        <ele>228.139179</ele>
        <time>2022-08-08T08:14:16.810Z</time>
      </trkpt>
      <trkpt lat="43.71224" lon="1.47864">
        <ele>227.812403</ele>
        <time>2022-08-08T08:14:18.813Z</time>
      </trkpt>
      <trkpt lat="43.71229" lon="1.47846">
        <ele>227.486625</ele>
        <time>2022-08-08T08:14:20.812Z</time>
      </trkpt>
      <trkpt lat="43.71234" lon="1.47828">
        <ele>227.153999</ele>
        <time>2022-08-08T08:14:22.804Z</time>
      </trkpt>
      <trkpt lat="43.71239" lon="1.47809">
        <ele>226.821346</ele>
        <time>2022-08-08T08:14:24.810Z</time>
      </trkpt>
      <trkpt lat="43.71244" lon="1.47791">
        <ele>226.496453</ele>
        <time>2022-08-08T08:14:26.806Z</time>
      </trkpt>
      <trkpt lat="43.71252" lon="1.47776">
        <ele>226.18069</ele>
        <time>2022-08-08T08:14:28.810Z</time>
      </trkpt>
      <trkpt lat="43.71266" lon="1.47744">
        <ele>225.539061</ele>
        <time>2022-08-08T08:14:32.825Z</time>
      </trkpt>
      <trkpt lat="43.71273" lon="1.47728">
        <ele>225.21701</ele>
        <time>2022-08-08T08:14:34.824Z</time>
      </trkpt>
      <trkpt lat="43.71279" lon="1.47711">
        <ele>224.904482</ele>
        <time>2022-08-08T08:14:36.822Z</time>
      </trkpt>
      <trkpt lat="43.71286" lon="1.47696">
        <ele>224.602338</ele>
        <time>2022-08-08T08:14:38.799Z</time>
      </trkpt>
      <trkpt lat="43.71291" lon="1.47685">
        <ele>224.638666</ele>
        <time>2022-08-08T08:14:40.807Z</time>
      </trkpt>
      <trkpt lat="43.71301" lon="1.47685">
        <ele>224.728258</ele>
        <time>2022-08-08T08:14:44.808Z</time>
      </trkpt>
      <trkpt lat="43.71312" lon="1.47694">
        <ele>224.854065</ele>
        <time>2022-08-08T08:14:47.802Z</time>
      </trkpt>
      <trkpt lat="43.71321" lon="1.47702">
        <ele>224.956666</ele>
        <time>2022-08-08T08:14:49.824Z</time>
      </trkpt>
      <trkpt lat="43.71331" lon="1.47712">
        <ele>225.069586</ele>
        <time>2022-08-08T08:14:51.806Z</time>
      </trkpt>
      <trkpt lat="43.71341" lon="1.47721">
        <ele>225.18882</ele>
        <time>2022-08-08T08:14:53.813Z</time>
      </trkpt>
      <trkpt lat="43.71351" lon="1.47731">
        <ele>225.309259</ele>
        <time>2022-08-08T08:14:55.816Z</time>
      </trkpt>
      <trkpt lat="43.71361" lon="1.47741">
        <ele>225.429288</ele>
        <time>2022-08-08T08:14:57.820Z</time>
      </trkpt>
      <trkpt lat="43.71372" lon="1.4775">
        <ele>225.548128</ele>
        <time>2022-08-08T08:14:59.811Z</time>
      </trkpt>
      <trkpt lat="43.71386" lon="1.47764">
        <ele>225.718464</ele>
        <time>2022-08-08T08:15:02.809Z</time>
      </trkpt>
      <trkpt lat="43.714" lon="1.47778">
        <ele>225.882459</ele>
        <time>2022-08-08T08:15:05.816Z</time>
      </trkpt>
      <trkpt lat="43.7141" lon="1.47786">
        <ele>225.989509</ele>
        <time>2022-08-08T08:15:07.818Z</time>
      </trkpt>
      <trkpt lat="43.7142" lon="1.4779">
        <ele>226.096861</ele>
        <time>2022-08-08T08:15:09.811Z</time>
      </trkpt>
      <trkpt lat="43.7143" lon="1.47797">
        <ele>226.204081</ele>
        <time>2022-08-08T08:15:11.788Z</time>
      </trkpt>
      <trkpt lat="43.71439" lon="1.47806">
        <ele>226.311624</ele>
        <time>2022-08-08T08:15:13.810Z</time>
      </trkpt>
      <trkpt lat="43.71449" lon="1.47815">
        <ele>226.413517</ele>
        <time>2022-08-08T08:15:15.802Z</time>
      </trkpt>
      <trkpt lat="43.71458" lon="1.47823">
        <ele>226.51173</ele>
        <time>2022-08-08T08:15:17.802Z</time>
      </trkpt>
      <trkpt lat="43.7147" lon="1.47835">
        <ele>226.647248</ele>
        <time>2022-08-08T08:15:21.814Z</time>
      </trkpt>
      <trkpt lat="43.71479" lon="1.47845">
        <ele>226.750475</ele>
        <time>2022-08-08T08:15:25.789Z</time>
      </trkpt>
      <trkpt lat="43.71489" lon="1.47852">
        <ele>226.850756</ele>
        <time>2022-08-08T08:15:28.807Z</time>
      </trkpt>
      <trkpt lat="43.71497" lon="1.4786">
        <ele>226.934558</ele>
        <time>2022-08-08T08:15:30.805Z</time>
      </trkpt>
      <trkpt lat="43.71506" lon="1.47868">
        <ele>227.033878</ele>
        <time>2022-08-08T08:15:32.806Z</time>
      </trkpt>
      <trkpt lat="43.71515" lon="1.47877">
        <ele>227.132817</ele>
        <time>2022-08-08T08:15:34.801Z</time>
      </trkpt>
      <trkpt lat="43.71524" lon="1.47885">
        <ele>227.233244</ele>
        <time>2022-08-08T08:15:36.807Z</time>
      </trkpt>
      <trkpt lat="43.71533" lon="1.47895">
        <ele>227.332044</ele>
        <time>2022-08-08T08:15:38.815Z</time>
      </trkpt>
      <trkpt lat="43.71542" lon="1.47903">
        <ele>227.427685</ele>
        <time>2022-08-08T08:15:40.809Z</time>
      </trkpt>
      <trkpt lat="43.71552" lon="1.47901">
        <ele>227.51822</ele>
        <time>2022-08-08T08:15:42.814Z</time>
      </trkpt>
      <trkpt lat="43.7156" lon="1.47891">
        <ele>227.614576</ele>
        <time>2022-08-08T08:15:44.810Z</time>
      </trkpt>
      <trkpt lat="43.71567" lon="1.47878">
        <ele>227.719759</ele>
        <time>2022-08-08T08:15:46.803Z</time>
      </trkpt>
      <trkpt lat="43.71574" lon="1.47866">
        <ele>227.823536</ele>
        <time>2022-08-08T08:15:48.790Z</time>
      </trkpt>
      <trkpt lat="43.71581" lon="1.47853">
        <ele>227.868702</ele>
        <time>2022-08-08T08:15:50.805Z</time>
      </trkpt>
      <trkpt lat="43.7159" lon="1.47841">
        <ele>227.535306</ele>
        <time>2022-08-08T08:15:52.798Z</time>
      </trkpt>
      <trkpt lat="43.716" lon="1.4783">
        <ele>227.194856</ele>
        <time>2022-08-08T08:15:54.800Z</time>
      </trkpt>
      <trkpt lat="43.71611" lon="1.47818">
        <ele>226.837929</ele>
        <time>2022-08-08T08:15:56.819Z</time>
      </trkpt>
      <trkpt lat="43.71619" lon="1.47802">
        <ele>226.464747</ele>
        <time>2022-08-08T08:15:58.789Z</time>
      </trkpt>
      <trkpt lat="43.71629" lon="1.47788">
        <ele>226.091442</ele>
        <time>2022-08-08T08:16:00.802Z</time>
      </trkpt>
      <trkpt lat="43.71639" lon="1.47773">
        <ele>225.70822</ele>
        <time>2022-08-08T08:16:02.799Z</time>
      </trkpt>
      <trkpt lat="43.71649" lon="1.47758">
        <ele>225.316817</ele>
        <time>2022-08-08T08:16:04.789Z</time>
      </trkpt>
      <trkpt lat="43.71659" lon="1.47743">
        <ele>224.924747</ele>
        <time>2022-08-08T08:16:06.825Z</time>
      </trkpt>
      <trkpt lat="43.71668" lon="1.47727">
        <ele>224.53382</ele>
        <time>2022-08-08T08:16:08.812Z</time>
      </trkpt>
      <trkpt lat="43.71678" lon="1.47712">
        <ele>224.145547</ele>
        <time>2022-08-08T08:16:10.805Z</time>
      </trkpt>
      <trkpt lat="43.71687" lon="1.47696">
        <ele>223.757276</ele>
        <time>2022-08-08T08:16:12.807Z</time>
      </trkpt>
      <trkpt lat="43.71701" lon="1.47672">
        <ele>223.174731</ele>
        <time>2022-08-08T08:16:15.814Z</time>
      </trkpt>
      <trkpt lat="43.7171" lon="1.47657">
        <ele>222.935386</ele>
        <time>2022-08-08T08:16:17.797Z</time>
      </trkpt>
      <trkpt lat="43.71719" lon="1.47643">
        <ele>222.709023</ele>
        <time>2022-08-08T08:16:19.802Z</time>
      </trkpt>
      <trkpt lat="43.71728" lon="1.4763">
        <ele>222.489859</ele>
        <time>2022-08-08T08:16:21.812Z</time>
      </trkpt>
      <trkpt lat="43.71737" lon="1.47617">
        <ele>222.272465</ele>
        <time>2022-08-08T08:16:23.800Z</time>
      </trkpt>
      <trkpt lat="43.71745" lon="1.47604">
        <ele>222.058505</ele>
        <time>2022-08-08T08:16:25.815Z</time>
      </trkpt>
      <trkpt lat="43.71754" lon="1.47591">
        <ele>221.846575</ele>
        <time>2022-08-08T08:16:27.795Z</time>
      </trkpt>
      <trkpt lat="43.71762" lon="1.47578">
        <ele>221.635073</ele>
        <time>2022-08-08T08:16:29.806Z</time>
      </trkpt>
      <trkpt lat="43.7177" lon="1.47565">
        <ele>221.417705</ele>
        <time>2022-08-08T08:16:31.804Z</time>
      </trkpt>
      <trkpt lat="43.71779" lon="1.47551">
        <ele>221.19879</ele>
        <time>2022-08-08T08:16:33.805Z</time>
      </trkpt>
      <trkpt lat="43.71788" lon="1.47537">
        <ele>220.977886</ele>
        <time>2022-08-08T08:16:35.814Z</time>
      </trkpt>
      <trkpt lat="43.71796" lon="1.47524">
        <ele>220.755565</ele>
        <time>2022-08-08T08:16:37.793Z</time>
      </trkpt>
      <trkpt lat="43.71805" lon="1.4751">
        <ele>220.535438</ele>
        <time>2022-08-08T08:16:39.798Z</time>
      </trkpt>
      <trkpt lat="43.71813" lon="1.47496">
        <ele>220.313297</ele>
        <time>2022-08-08T08:16:41.800Z</time>
      </trkpt>
      <trkpt lat="43.71823" lon="1.47484">
        <ele>220.075694</ele>
        <time>2022-08-08T08:16:43.788Z</time>
      </trkpt>
      <trkpt lat="43.71831" lon="1.47469">
        <ele>219.746554</ele>
        <time>2022-08-08T08:16:45.798Z</time>
      </trkpt>
      <trkpt lat="43.7184" lon="1.47455">
        <ele>219.409394</ele>
        <time>2022-08-08T08:16:47.801Z</time>
      </trkpt>
      <trkpt lat="43.71849" lon="1.4744">
        <ele>219.051776</ele>
        <time>2022-08-08T08:16:49.796Z</time>
      </trkpt>
      <trkpt lat="43.71858" lon="1.47424">
        <ele>218.679452</ele>
        <time>2022-08-08T08:16:51.799Z</time>
      </trkpt>
      <trkpt lat="43.71868" lon="1.47408">
        <ele>218.298161</ele>
        <time>2022-08-08T08:16:53.807Z</time>
      </trkpt>
      <trkpt lat="43.71879" lon="1.47392">
        <ele>217.917034</ele>
        <time>2022-08-08T08:16:55.808Z</time>
      </trkpt>
      <trkpt lat="43.71888" lon="1.47376">
        <ele>217.542136</ele>
        <time>2022-08-08T08:16:57.792Z</time>
      </trkpt>
      <trkpt lat="43.71898" lon="1.4736">
        <ele>217.166581</ele>
        <time>2022-08-08T08:16:59.793Z</time>
      </trkpt>
      <trkpt lat="43.71908" lon="1.47345">
        <ele>216.802476</ele>
        <time>2022-08-08T08:17:01.800Z</time>
      </trkpt>
      <trkpt lat="43.71917" lon="1.4733">
        <ele>216.437752</ele>
        <time>2022-08-08T08:17:03.796Z</time>
      </trkpt>
      <trkpt lat="43.71927" lon="1.47315">
        <ele>216.076039</ele>
        <time>2022-08-08T08:17:05.808Z</time>
      </trkpt>
      <trkpt lat="43.71941" lon="1.47292">
        <ele>215.607722</ele>
        <time>2022-08-08T08:17:08.812Z</time>
      </trkpt>
      <trkpt lat="43.7195" lon="1.47278">
        <ele>215.469189</ele>
        <time>2022-08-08T08:17:10.798Z</time>
      </trkpt>
      <trkpt lat="43.71959" lon="1.47265">
        <ele>215.342394</ele>
        <time>2022-08-08T08:17:12.818Z</time>
      </trkpt>
      <trkpt lat="43.71967" lon="1.47253">
        <ele>215.223006</ele>
        <time>2022-08-08T08:17:14.801Z</time>
      </trkpt>
      <trkpt lat="43.71974" lon="1.47239">
        <ele>215.101595</ele>
        <time>2022-08-08T08:17:16.786Z</time>
      </trkpt>
      <trkpt lat="43.71983" lon="1.47227">
        <ele>214.978072</ele>
        <time>2022-08-08T08:17:18.836Z</time>
      </trkpt>
      <trkpt lat="43.71992" lon="1.47215">
        <ele>214.856922</ele>
        <time>2022-08-08T08:17:20.791Z</time>
      </trkpt>
      <trkpt lat="43.72" lon="1.47203">
        <ele>214.737866</ele>
        <time>2022-08-08T08:17:22.796Z</time>
      </trkpt>
      <trkpt lat="43.72009" lon="1.47191">
        <ele>214.618116</ele>
        <time>2022-08-08T08:17:24.797Z</time>
      </trkpt>
      <trkpt lat="43.72017" lon="1.47179">
        <ele>214.497468</ele>
        <time>2022-08-08T08:17:26.797Z</time>
      </trkpt>
      <trkpt lat="43.72026" lon="1.47167">
        <ele>214.374901</ele>
        <time>2022-08-08T08:17:28.819Z</time>
      </trkpt>
      <trkpt lat="43.72035" lon="1.47156">
        <ele>214.256976</ele>
        <time>2022-08-08T08:17:30.798Z</time>
      </trkpt>
      <trkpt lat="43.72044" lon="1.47146">
        <ele>214.138997</ele>
        <time>2022-08-08T08:17:32.807Z</time>
      </trkpt>
      <trkpt lat="43.72053" lon="1.47134">
        <ele>214.017643</ele>
        <time>2022-08-08T08:17:34.803Z</time>
      </trkpt>
      <trkpt lat="43.72062" lon="1.47122">
        <ele>213.895286</ele>
        <time>2022-08-08T08:17:36.807Z</time>
      </trkpt>
      <trkpt lat="43.7207" lon="1.47109">
        <ele>213.711437</ele>
        <time>2022-08-08T08:17:38.797Z</time>
      </trkpt>
      <trkpt lat="43.72081" lon="1.47098">
        <ele>213.515722</ele>
        <time>2022-08-08T08:17:40.798Z</time>
      </trkpt>
      <trkpt lat="43.72091" lon="1.47089">
        <ele>213.331251</ele>
        <time>2022-08-08T08:17:42.789Z</time>
      </trkpt>
      <trkpt lat="43.72108" lon="1.47073">
        <ele>213.028844</ele>
        <time>2022-08-08T08:17:45.788Z</time>
      </trkpt>
      <trkpt lat="43.72118" lon="1.47063">
        <ele>212.842552</ele>
        <time>2022-08-08T08:17:47.798Z</time>
      </trkpt>
      <trkpt lat="43.72127" lon="1.47055">
        <ele>212.677753</ele>
        <time>2022-08-08T08:17:49.794Z</time>
      </trkpt>
      <trkpt lat="43.72137" lon="1.47046">
        <ele>212.501383</ele>
        <time>2022-08-08T08:17:51.813Z</time>
      </trkpt>
      <trkpt lat="43.72149" lon="1.47035">
        <ele>212.281564</ele>
        <time>2022-08-08T08:17:53.827Z</time>
      </trkpt>
      <trkpt lat="43.72161" lon="1.47025">
        <ele>212.07087</ele>
        <time>2022-08-08T08:17:55.799Z</time>
      </trkpt>
      <trkpt lat="43.72171" lon="1.47016">
        <ele>211.884751</ele>
        <time>2022-08-08T08:17:57.791Z</time>
      </trkpt>
      <trkpt lat="43.72182" lon="1.47009">
        <ele>211.711507</ele>
        <time>2022-08-08T08:17:59.808Z</time>
      </trkpt>
      <trkpt lat="43.72191" lon="1.47003">
        <ele>211.553993</ele>
        <time>2022-08-08T08:18:01.793Z</time>
      </trkpt>
      <trkpt lat="43.72199" lon="1.46995">
        <ele>211.408672</ele>
        <time>2022-08-08T08:18:03.816Z</time>
      </trkpt>
      <trkpt lat="43.72207" lon="1.46989">
        <ele>211.264383</ele>
        <time>2022-08-08T08:18:05.800Z</time>
      </trkpt>
      <trkpt lat="43.72218" lon="1.46981">
        <ele>211.484947</ele>
        <time>2022-08-08T08:18:07.795Z</time>
      </trkpt>
      <trkpt lat="43.72228" lon="1.46973">
        <ele>212.284118</ele>
        <time>2022-08-08T08:18:09.810Z</time>
      </trkpt>
      <trkpt lat="43.72239" lon="1.46963">
        <ele>213.163627</ele>
        <time>2022-08-08T08:18:11.799Z</time>
      </trkpt>
      <trkpt lat="43.72248" lon="1.46957">
        <ele>213.877385</ele>
        <time>2022-08-08T08:18:13.804Z</time>
      </trkpt>
      <trkpt lat="43.72259" lon="1.4695">
        <ele>214.657273</ele>
        <time>2022-08-08T08:18:15.814Z</time>
      </trkpt>
      <trkpt lat="43.7227" lon="1.46942">
        <ele>215.555775</ele>
        <time>2022-08-08T08:18:17.797Z</time>
      </trkpt>
      <trkpt lat="43.72281" lon="1.46935">
        <ele>216.362493</ele>
        <time>2022-08-08T08:18:19.806Z</time>
      </trkpt>
      <trkpt lat="43.72291" lon="1.46927">
        <ele>217.161298</ele>
        <time>2022-08-08T08:18:22.802Z</time>
      </trkpt>
      <trkpt lat="43.72297" lon="1.46937">
        <ele>217.823954</ele>
        <time>2022-08-08T08:18:28.798Z</time>
      </trkpt>
      <trkpt lat="43.72301" lon="1.46949">
        <ele>218.470993</ele>
        <time>2022-08-08T08:18:33.819Z</time>
      </trkpt>
      <trkpt lat="43.72303" lon="1.46965">
        <ele>219.234013</ele>
        <time>2022-08-08T08:18:38.837Z</time>
      </trkpt>
      <trkpt lat="43.72312" lon="1.46962">
        <ele>219.846016</ele>
        <time>2022-08-08T08:18:44.837Z</time>
      </trkpt>
      <trkpt lat="43.7232" lon="1.46957">
        <ele>220.468975</ele>
        <time>2022-08-08T08:18:48.820Z</time>
      </trkpt>
      <trkpt lat="43.7233" lon="1.46962">
        <ele>221.1794</ele>
        <time>2022-08-08T08:18:53.831Z</time>
      </trkpt>
      <trkpt lat="43.72331" lon="1.46977">
        <ele>221.901608</ele>
        <time>2022-08-08T08:18:59.815Z</time>
      </trkpt>
      <trkpt lat="43.72334" lon="1.46989">
        <ele>222.538048</ele>
        <time>2022-08-08T08:19:03.825Z</time>
      </trkpt>
      <trkpt lat="43.72334" lon="1.47003">
        <ele>223.254674</ele>
        <time>2022-08-08T08:19:08.827Z</time>
      </trkpt>
      <trkpt lat="43.72334" lon="1.47016">
        <ele>223.586835</ele>
        <time>2022-08-08T08:19:13.839Z</time>
      </trkpt>
      <trkpt lat="43.72337" lon="1.47029">
        <ele>223.802388</ele>
        <time>2022-08-08T08:19:19.815Z</time>
      </trkpt>
      <trkpt lat="43.72347" lon="1.47026">
        <ele>224.020572</ele>
        <time>2022-08-08T08:19:24.811Z</time>
      </trkpt>
      <trkpt lat="43.72361" lon="1.47024">
        <ele>224.335134</ele>
        <time>2022-08-08T08:19:28.843Z</time>
      </trkpt>
      <trkpt lat="43.7237" lon="1.4703">
        <ele>224.552105</ele>
        <time>2022-08-08T08:19:31.800Z</time>
      </trkpt>
      <trkpt lat="43.72378" lon="1.47043">
        <ele>224.835276</ele>
        <time>2022-08-08T08:19:34.826Z</time>
      </trkpt>
      <trkpt lat="43.7239" lon="1.47053">
        <ele>225.14582</ele>
        <time>2022-08-08T08:19:37.834Z</time>
      </trkpt>
      <trkpt lat="43.72402" lon="1.47057">
        <ele>225.427754</ele>
        <time>2022-08-08T08:19:39.829Z</time>
      </trkpt>
      <trkpt lat="43.7241" lon="1.47069">
        <ele>225.68261</ele>
        <time>2022-08-08T08:19:41.825Z</time>
      </trkpt>
      <trkpt lat="43.72414" lon="1.47083">
        <ele>225.937615</ele>
        <time>2022-08-08T08:19:43.808Z</time>
      </trkpt>
      <trkpt lat="43.7242" lon="1.47097">
        <ele>226.19687</ele>
        <time>2022-08-08T08:19:45.815Z</time>
      </trkpt>
      <trkpt lat="43.72427" lon="1.4711">
        <ele>226.458103</ele>
        <time>2022-08-08T08:19:47.820Z</time>
      </trkpt>
      <trkpt lat="43.72435" lon="1.47121">
        <ele>226.71841</ele>
        <time>2022-08-08T08:19:49.828Z</time>
      </trkpt>
      <trkpt lat="43.72442" lon="1.47131">
        <ele>226.941847</ele>
        <time>2022-08-08T08:19:51.821Z</time>
      </trkpt>
      <trkpt lat="43.72438" lon="1.47153">
        <ele>227.315955</ele>
        <time>2022-08-08T08:19:56.812Z</time>
      </trkpt>
      <trkpt lat="43.72433" lon="1.47167">
        <ele>227.289713</ele>
        <time>2022-08-08T08:19:58.813Z</time>
      </trkpt>
      <trkpt lat="43.72432" lon="1.4718">
        <ele>226.905988</ele>
        <time>2022-08-08T08:20:01.822Z</time>
      </trkpt>
      <trkpt lat="43.72433" lon="1.47196">
        <ele>226.399417</ele>
        <time>2022-08-08T08:20:05.803Z</time>
      </trkpt>
      <trkpt lat="43.72442" lon="1.47208">
        <ele>225.892129</ele>
        <time>2022-08-08T08:20:07.788Z</time>
      </trkpt>
      <trkpt lat="43.72453" lon="1.47222">
        <ele>225.277172</ele>
        <time>2022-08-08T08:20:09.818Z</time>
      </trkpt>
      <trkpt lat="43.72464" lon="1.47235">
        <ele>224.64743</ele>
        <time>2022-08-08T08:20:11.793Z</time>
      </trkpt>
      <trkpt lat="43.72476" lon="1.4725">
        <ele>223.960771</ele>
        <time>2022-08-08T08:20:13.795Z</time>
      </trkpt>
      <trkpt lat="43.72489" lon="1.47267">
        <ele>223.242706</ele>
        <time>2022-08-08T08:20:15.805Z</time>
      </trkpt>
      <trkpt lat="43.725" lon="1.47284">
        <ele>222.542947</ele>
        <time>2022-08-08T08:20:17.799Z</time>
      </trkpt>
      <trkpt lat="43.7251" lon="1.473">
        <ele>221.906091</ele>
        <time>2022-08-08T08:20:19.797Z</time>
      </trkpt>
      <trkpt lat="43.72521" lon="1.47306">
        <ele>221.388343</ele>
        <time>2022-08-08T08:20:21.802Z</time>
      </trkpt>
      <trkpt lat="43.72534" lon="1.4731">
        <ele>220.83768</ele>
        <time>2022-08-08T08:20:23.804Z</time>
      </trkpt>
      <trkpt lat="43.72543" lon="1.47313">
        <ele>220.439159</ele>
        <time>2022-08-08T08:20:25.809Z</time>
      </trkpt>
      <trkpt lat="43.72551" lon="1.47304">
        <ele>220.013985</ele>
        <time>2022-08-08T08:20:28.812Z</time>
      </trkpt>
      <trkpt lat="43.72552" lon="1.4729">
        <ele>219.541152</ele>
        <time>2022-08-08T08:20:30.821Z</time>
      </trkpt>
      <trkpt lat="43.72551" lon="1.47276">
        <ele>219.075935</ele>
        <time>2022-08-08T08:20:32.802Z</time>
      </trkpt>
      <trkpt lat="43.7255" lon="1.47259">
        <ele>218.524101</ele>
        <time>2022-08-08T08:20:35.804Z</time>
      </trkpt>
      <trkpt lat="43.72546" lon="1.47246">
        <ele>218.031946</ele>
        <time>2022-08-08T08:20:40.816Z</time>
      </trkpt>
      <trkpt lat="43.72544" lon="1.47231">
        <ele>217.514499</ele>
        <time>2022-08-08T08:20:44.809Z</time>
      </trkpt>
      <trkpt lat="43.72553" lon="1.47223">
        <ele>217.004124</ele>
        <time>2022-08-08T08:20:47.811Z</time>
      </trkpt>
      <trkpt lat="43.7256" lon="1.47211">
        <ele>216.495148</ele>
        <time>2022-08-08T08:20:50.809Z</time>
      </trkpt>
      <trkpt lat="43.72568" lon="1.47199">
        <ele>215.95058</ele>
        <time>2022-08-08T08:20:53.818Z</time>
      </trkpt>
      <trkpt lat="43.72579" lon="1.47193">
        <ele>215.398089</ele>
        <time>2022-08-08T08:20:58.820Z</time>
      </trkpt>
      <trkpt lat="43.72588" lon="1.47189">
        <ele>214.942584</ele>
        <time>2022-08-08T08:21:01.818Z</time>
      </trkpt>
      <trkpt lat="43.72598" lon="1.47181">
        <ele>214.413765</ele>
        <time>2022-08-08T08:21:07.810Z</time>
      </trkpt>
      <trkpt lat="43.72608" lon="1.47173">
        <ele>213.89634</ele>
        <time>2022-08-08T08:21:12.806Z</time>
      </trkpt>
      <trkpt lat="43.72618" lon="1.47162">
        <ele>213.31586</ele>
        <time>2022-08-08T08:21:16.816Z</time>
      </trkpt>
      <trkpt lat="43.72626" lon="1.47154">
        <ele>212.817809</ele>
        <time>2022-08-08T08:21:19.803Z</time>
      </trkpt>
      <trkpt lat="43.72627" lon="1.47134">
        <ele>212.165963</ele>
        <time>2022-08-08T08:21:21.838Z</time>
      </trkpt>
      <trkpt lat="43.72639" lon="1.47126">
        <ele>211.574359</ele>
        <time>2022-08-08T08:21:24.807Z</time>
      </trkpt>
      <trkpt lat="43.72647" lon="1.47117">
        <ele>211.171833</ele>
        <time>2022-08-08T08:21:26.822Z</time>
      </trkpt>
      <trkpt lat="43.72655" lon="1.47104">
        <ele>210.672941</ele>
        <time>2022-08-08T08:21:29.828Z</time>
      </trkpt>
      <trkpt lat="43.72663" lon="1.47094">
        <ele>210.255188</ele>
        <time>2022-08-08T08:21:31.817Z</time>
      </trkpt>
      <trkpt lat="43.72673" lon="1.47086">
        <ele>209.832592</ele>
        <time>2022-08-08T08:21:33.814Z</time>
      </trkpt>
      <trkpt lat="43.72682" lon="1.47067">
        <ele>209.179286</ele>
        <time>2022-08-08T08:21:36.818Z</time>
      </trkpt>
      <trkpt lat="43.72691" lon="1.47059">
        <ele>208.772325</ele>
        <time>2022-08-08T08:21:40.797Z</time>
      </trkpt>
      <trkpt lat="43.72684" lon="1.47046">
        <ele>208.307071</ele>
        <time>2022-08-08T08:21:46.827Z</time>
      </trkpt>
      <trkpt lat="43.72676" lon="1.47033">
        <ele>207.833435</ele>
        <time>2022-08-08T08:21:49.818Z</time>
      </trkpt>
      <trkpt lat="43.72669" lon="1.47024">
        <ele>207.452497</ele>
        <time>2022-08-08T08:21:51.804Z</time>
      </trkpt>
      <trkpt lat="43.72659" lon="1.47013">
        <ele>206.977848</ele>
        <time>2022-08-08T08:21:54.798Z</time>
      </trkpt>
      <trkpt lat="43.72649" lon="1.46994">
        <ele>206.304631</ele>
        <time>2022-08-08T08:21:57.796Z</time>
      </trkpt>
      <trkpt lat="43.72641" lon="1.4698">
        <ele>205.819091</ele>
        <time>2022-08-08T08:21:59.795Z</time>
      </trkpt>
      <trkpt lat="43.72636" lon="1.46966">
        <ele>205.387336</ele>
        <time>2022-08-08T08:22:01.798Z</time>
      </trkpt>
      <trkpt lat="43.72628" lon="1.46955">
        <ele>204.94143</ele>
        <time>2022-08-08T08:22:03.803Z</time>
      </trkpt>
      <trkpt lat="43.72618" lon="1.46943">
        <ele>204.700796</ele>
        <time>2022-08-08T08:22:05.795Z</time>
      </trkpt>
      <trkpt lat="43.72611" lon="1.46924">
        <ele>205.030673</ele>
        <time>2022-08-08T08:22:06.801Z</time>
      </trkpt>
      <trkpt lat="43.72601" lon="1.46915">
        <ele>205.275277</ele>
        <time>2022-08-08T08:22:08.790Z</time>
      </trkpt>
      <trkpt lat="43.72591" lon="1.46903">
        <ele>205.568203</ele>
        <time>2022-08-08T08:22:10.790Z</time>
      </trkpt>
      <trkpt lat="43.72579" lon="1.46886">
        <ele>205.935903</ele>
        <time>2022-08-08T08:22:12.806Z</time>
      </trkpt>
      <trkpt lat="43.72567" lon="1.4687">
        <ele>206.282287</ele>
        <time>2022-08-08T08:22:14.807Z</time>
      </trkpt>
      <trkpt lat="43.72541" lon="1.46851">
        <ele>206.922359</ele>
        <time>2022-08-08T08:22:19.836Z</time>
      </trkpt>
      <trkpt lat="43.72531" lon="1.46847">
        <ele>207.135206</ele>
        <time>2022-08-08T08:22:21.801Z</time>
      </trkpt>
      <trkpt lat="43.72521" lon="1.46843">
        <ele>207.352077</ele>
        <time>2022-08-08T08:22:23.809Z</time>
      </trkpt>
      <trkpt lat="43.72501" lon="1.46836">
        <ele>207.799176</ele>
        <time>2022-08-08T08:22:26.805Z</time>
      </trkpt>
      <trkpt lat="43.72491" lon="1.46835">
        <ele>208.011607</ele>
        <time>2022-08-08T08:22:28.808Z</time>
      </trkpt>
      <trkpt lat="43.72481" lon="1.46834">
        <ele>208.230123</ele>
        <time>2022-08-08T08:22:30.794Z</time>
      </trkpt>
      <trkpt lat="43.72465" lon="1.46834">
        <ele>208.345403</ele>
        <time>2022-08-08T08:22:33.815Z</time>
      </trkpt>
      <trkpt lat="43.72452" lon="1.46836">
        <ele>208.075706</ele>
        <time>2022-08-08T08:22:35.800Z</time>
      </trkpt>
      <trkpt lat="43.72441" lon="1.4684">
        <ele>207.854696</ele>
        <time>2022-08-08T08:22:37.798Z</time>
      </trkpt>
      <trkpt lat="43.72431" lon="1.46842">
        <ele>207.65203</ele>
        <time>2022-08-08T08:22:39.801Z</time>
      </trkpt>
      <trkpt lat="43.72422" lon="1.46846">
        <ele>207.461668</ele>
        <time>2022-08-08T08:22:41.794Z</time>
      </trkpt>
      <trkpt lat="43.72412" lon="1.4685">
        <ele>207.263613</ele>
        <time>2022-08-08T08:22:43.798Z</time>
      </trkpt>
      <trkpt lat="43.72402" lon="1.46855">
        <ele>207.049044</ele>
        <time>2022-08-08T08:22:45.816Z</time>
      </trkpt>
      <trkpt lat="43.72392" lon="1.46861">
        <ele>206.840265</ele>
        <time>2022-08-08T08:22:47.798Z</time>
      </trkpt>
      <trkpt lat="43.72383" lon="1.46869">
        <ele>206.621275</ele>
        <time>2022-08-08T08:22:49.806Z</time>
      </trkpt>
      <trkpt lat="43.7237" lon="1.46877">
        <ele>206.342686</ele>
        <time>2022-08-08T08:22:51.817Z</time>
      </trkpt>
      <trkpt lat="43.7236" lon="1.46884">
        <ele>206.116607</ele>
        <time>2022-08-08T08:22:53.799Z</time>
      </trkpt>
      <trkpt lat="43.72351" lon="1.46889">
        <ele>205.916265</ele>
        <time>2022-08-08T08:22:55.803Z</time>
      </trkpt>
      <trkpt lat="43.7235" lon="1.46885">
        <ele>205.513453</ele>
        <time>2022-08-08T08:23:08.803Z</time>
      </trkpt>
      <trkpt lat="43.72348" lon="1.46873">
        <ele>205.323413</ele>
        <time>2022-08-08T08:23:12.800Z</time>
      </trkpt>
      <trkpt lat="43.72347" lon="1.46857">
        <ele>205.094463</ele>
        <time>2022-08-08T08:23:17.794Z</time>
      </trkpt>
      <trkpt lat="43.72342" lon="1.46842">
        <ele>204.860763</ele>
        <time>2022-08-08T08:23:20.794Z</time>
      </trkpt>
      <trkpt lat="43.72334" lon="1.46838">
        <ele>204.672199</ele>
        <time>2022-08-08T08:23:23.817Z</time>
      </trkpt>
      <trkpt lat="43.72324" lon="1.46835">
        <ele>204.469864</ele>
        <time>2022-08-08T08:23:24.814Z</time>
      </trkpt>
      <trkpt lat="43.72312" lon="1.46838">
        <ele>204.224456</ele>
        <time>2022-08-08T08:23:26.818Z</time>
      </trkpt>
      <trkpt lat="43.72302" lon="1.46842">
        <ele>204.00326</ele>
        <time>2022-08-08T08:23:28.809Z</time>
      </trkpt>
      <trkpt lat="43.72292" lon="1.46848">
        <ele>203.787647</ele>
        <time>2022-08-08T08:23:30.800Z</time>
      </trkpt>
      <trkpt lat="43.72283" lon="1.46856">
        <ele>203.569978</ele>
        <time>2022-08-08T08:23:32.815Z</time>
      </trkpt>
      <trkpt lat="43.72275" lon="1.46863">
        <ele>203.368013</ele>
        <time>2022-08-08T08:23:34.793Z</time>
      </trkpt>
      <trkpt lat="43.72266" lon="1.46872">
        <ele>203.150867</ele>
        <time>2022-08-08T08:23:36.807Z</time>
      </trkpt>
      <trkpt lat="43.72256" lon="1.46882">
        <ele>202.89587</ele>
        <time>2022-08-08T08:23:38.817Z</time>
      </trkpt>
      <trkpt lat="43.72246" lon="1.46891">
        <ele>202.64955</ele>
        <time>2022-08-08T08:23:40.810Z</time>
      </trkpt>
      <trkpt lat="43.72235" lon="1.46898">
        <ele>202.410501</ele>
        <time>2022-08-08T08:23:42.809Z</time>
      </trkpt>
      <trkpt lat="43.72226" lon="1.46904">
        <ele>202.196232</ele>
        <time>2022-08-08T08:23:44.802Z</time>
      </trkpt>
      <trkpt lat="43.72217" lon="1.46913">
        <ele>201.978923</ele>
        <time>2022-08-08T08:23:46.797Z</time>
      </trkpt>
      <trkpt lat="43.72208" lon="1.46923">
        <ele>201.736209</ele>
        <time>2022-08-08T08:23:48.802Z</time>
      </trkpt>
      <trkpt lat="43.72199" lon="1.46932">
        <ele>201.497106</ele>
        <time>2022-08-08T08:23:50.795Z</time>
      </trkpt>
      <trkpt lat="43.72188" lon="1.46941">
        <ele>201.245011</ele>
        <time>2022-08-08T08:23:52.803Z</time>
      </trkpt>
      <trkpt lat="43.72179" lon="1.4695">
        <ele>201.635747</ele>
        <time>2022-08-08T08:23:54.798Z</time>
      </trkpt>
      <trkpt lat="43.7217" lon="1.46957">
        <ele>202.140913</ele>
        <time>2022-08-08T08:23:56.801Z</time>
      </trkpt>
      <trkpt lat="43.72161" lon="1.46965">
        <ele>202.61646</ele>
        <time>2022-08-08T08:23:58.802Z</time>
      </trkpt>
      <trkpt lat="43.72153" lon="1.46973">
        <ele>203.12114</ele>
        <time>2022-08-08T08:24:00.806Z</time>
      </trkpt>
      <trkpt lat="43.72141" lon="1.46975">
        <ele>203.676794</ele>
        <time>2022-08-08T08:24:07.815Z</time>
      </trkpt>
      <trkpt lat="43.72134" lon="1.46967">
        <ele>204.123507</ele>
        <time>2022-08-08T08:24:20.805Z</time>
      </trkpt>
      <trkpt lat="43.72124" lon="1.46969">
        <ele>204.577593</ele>
        <time>2022-08-08T08:24:24.838Z</time>
      </trkpt>
      <trkpt lat="43.72115" lon="1.46978">
        <ele>205.11389</ele>
        <time>2022-08-08T08:24:26.809Z</time>
      </trkpt>
      <trkpt lat="43.72107" lon="1.46988">
        <ele>205.630274</ele>
        <time>2022-08-08T08:24:28.801Z</time>
      </trkpt>
      <trkpt lat="43.72095" lon="1.46997">
        <ele>206.272118</ele>
        <time>2022-08-08T08:24:31.821Z</time>
      </trkpt>
      <trkpt lat="43.72086" lon="1.47002">
        <ele>206.708409</ele>
        <time>2022-08-08T08:24:33.810Z</time>
      </trkpt>
      <trkpt lat="43.72077" lon="1.47007">
        <ele>207.185145</ele>
        <time>2022-08-08T08:24:35.797Z</time>
      </trkpt>
      <trkpt lat="43.72068" lon="1.47012">
        <ele>207.667302</ele>
        <time>2022-08-08T08:24:37.808Z</time>
      </trkpt>
      <trkpt lat="43.72058" lon="1.47015">
        <ele>208.11615</ele>
        <time>2022-08-08T08:24:40.798Z</time>
      </trkpt>
      <trkpt lat="43.72049" lon="1.47016">
        <ele>208.57941</ele>
        <time>2022-08-08T08:24:45.847Z</time>
      </trkpt>
      <trkpt lat="43.72039" lon="1.4702">
        <ele>209.038142</ele>
        <time>2022-08-08T08:24:55.808Z</time>
      </trkpt>
      <trkpt lat="43.72031" lon="1.47024">
        <ele>209.473127</ele>
        <time>2022-08-08T08:25:05.827Z</time>
      </trkpt>
      <trkpt lat="43.72021" lon="1.47027">
        <ele>209.779392</ele>
        <time>2022-08-08T08:25:09.810Z</time>
      </trkpt>
      <trkpt lat="43.7201" lon="1.47026">
        <ele>209.849039</ele>
        <time>2022-08-08T08:25:12.816Z</time>
      </trkpt>
      <trkpt lat="43.72006" lon="1.47013">
        <ele>209.90978</ele>
        <time>2022-08-08T08:25:18.814Z</time>
      </trkpt>
      <trkpt lat="43.72008" lon="1.47001">
        <ele>209.963517</ele>
        <time>2022-08-08T08:25:22.819Z</time>
      </trkpt>
      <trkpt lat="43.72013" lon="1.46985">
        <ele>210.03889</ele>
        <time>2022-08-08T08:25:27.811Z</time>
      </trkpt>
      <trkpt lat="43.72019" lon="1.46974">
        <ele>210.097558</ele>
        <time>2022-08-08T08:25:30.831Z</time>
      </trkpt>
      <trkpt lat="43.72027" lon="1.46965">
        <ele>210.160054</ele>
        <time>2022-08-08T08:25:34.818Z</time>
      </trkpt>
      <trkpt lat="43.72036" lon="1.46957">
        <ele>210.222999</ele>
        <time>2022-08-08T08:25:37.821Z</time>
      </trkpt>
      <trkpt lat="43.72044" lon="1.46949">
        <ele>210.280001</ele>
        <time>2022-08-08T08:25:40.821Z</time>
      </trkpt>
      <trkpt lat="43.72052" lon="1.46942">
        <ele>210.336995</ele>
        <time>2022-08-08T08:25:43.825Z</time>
      </trkpt>
      <trkpt lat="43.7206" lon="1.46934">
        <ele>210.401852</ele>
        <time>2022-08-08T08:25:52.815Z</time>
      </trkpt>
      <trkpt lat="43.72084" lon="1.46933">
        <ele>210.544615</ele>
        <time>2022-08-08T08:26:08.812Z</time>
      </trkpt>
      <trkpt lat="43.72095" lon="1.46933">
        <ele>210.610591</ele>
        <time>2022-08-08T08:26:11.820Z</time>
      </trkpt>
      <trkpt lat="43.72106" lon="1.46932">
        <ele>210.675725</ele>
        <time>2022-08-08T08:26:14.827Z</time>
      </trkpt>
      <trkpt lat="43.72117" lon="1.46927">
        <ele>210.745784</ele>
        <time>2022-08-08T08:26:18.803Z</time>
      </trkpt>
      <trkpt lat="43.72125" lon="1.4692">
        <ele>210.802992</ele>
        <time>2022-08-08T08:26:21.802Z</time>
      </trkpt>
      <trkpt lat="43.72134" lon="1.46912">
        <ele>210.766881</ele>
        <time>2022-08-08T08:26:24.823Z</time>
      </trkpt>
      <trkpt lat="43.72141" lon="1.46904">
        <ele>210.618992</ele>
        <time>2022-08-08T08:26:27.810Z</time>
      </trkpt>
      <trkpt lat="43.72149" lon="1.46893">
        <ele>210.44821</ele>
        <time>2022-08-08T08:26:30.822Z</time>
      </trkpt>
      <trkpt lat="43.72159" lon="1.46879">
        <ele>210.221153</ele>
        <time>2022-08-08T08:26:32.820Z</time>
      </trkpt>
      <trkpt lat="43.72168" lon="1.4687">
        <ele>210.05609</ele>
        <time>2022-08-08T08:26:37.817Z</time>
      </trkpt>
      <trkpt lat="43.72178" lon="1.46853">
        <ele>209.81289</ele>
        <time>2022-08-08T08:26:40.812Z</time>
      </trkpt>
      <trkpt lat="43.72185" lon="1.46842">
        <ele>209.653715</ele>
        <time>2022-08-08T08:26:43.805Z</time>
      </trkpt>
      <trkpt lat="43.72193" lon="1.4683">
        <ele>209.467481</ele>
        <time>2022-08-08T08:26:47.806Z</time>
      </trkpt>
      <trkpt lat="43.72201" lon="1.46821">
        <ele>209.313387</ele>
        <time>2022-08-08T08:26:50.808Z</time>
      </trkpt>
      <trkpt lat="43.72209" lon="1.46811">
        <ele>209.151952</ele>
        <time>2022-08-08T08:26:53.798Z</time>
      </trkpt>
      <trkpt lat="43.72221" lon="1.46805">
        <ele>208.9479</ele>
        <time>2022-08-08T08:26:57.800Z</time>
      </trkpt>
      <trkpt lat="43.72231" lon="1.46801">
        <ele>208.796238</ele>
        <time>2022-08-08T08:26:59.792Z</time>
      </trkpt>
      <trkpt lat="43.72241" lon="1.46792">
        <ele>208.602986</ele>
        <time>2022-08-08T08:27:02.781Z</time>
      </trkpt>
      <trkpt lat="43.72253" lon="1.46788">
        <ele>208.417885</ele>
        <time>2022-08-08T08:27:06.813Z</time>
      </trkpt>
      <trkpt lat="43.72262" lon="1.46778">
        <ele>208.234743</ele>
        <time>2022-08-08T08:27:09.815Z</time>
      </trkpt>
      <trkpt lat="43.72271" lon="1.46769">
        <ele>208.077603</ele>
        <time>2022-08-08T08:27:14.817Z</time>
      </trkpt>
      <trkpt lat="43.72278" lon="1.46756">
        <ele>208.545535</ele>
        <time>2022-08-08T08:27:18.811Z</time>
      </trkpt>
      <trkpt lat="43.72285" lon="1.46746">
        <ele>208.932566</ele>
        <time>2022-08-08T08:27:21.810Z</time>
      </trkpt>
      <trkpt lat="43.72292" lon="1.46735">
        <ele>209.31553</ele>
        <time>2022-08-08T08:27:27.815Z</time>
      </trkpt>
      <trkpt lat="43.72297" lon="1.46713">
        <ele>209.943892</ele>
        <time>2022-08-08T08:27:44.824Z</time>
      </trkpt>
      <trkpt lat="43.72296" lon="1.46696">
        <ele>210.421762</ele>
        <time>2022-08-08T08:27:55.798Z</time>
      </trkpt>
      <trkpt lat="43.72306" lon="1.46689">
        <ele>210.843084</ele>
        <time>2022-08-08T08:28:01.819Z</time>
      </trkpt>
      <trkpt lat="43.72308" lon="1.46676">
        <ele>211.210166</ele>
        <time>2022-08-08T08:28:06.828Z</time>
      </trkpt>
      <trkpt lat="43.72301" lon="1.46667">
        <ele>211.581764</ele>
        <time>2022-08-08T08:28:09.810Z</time>
      </trkpt>
      <trkpt lat="43.72292" lon="1.46657">
        <ele>212.049243</ele>
        <time>2022-08-08T08:28:12.809Z</time>
      </trkpt>
      <trkpt lat="43.72283" lon="1.46649">
        <ele>212.440379</ele>
        <time>2022-08-08T08:28:15.806Z</time>
      </trkpt>
      <trkpt lat="43.72272" lon="1.4664">
        <ele>212.932414</ele>
        <time>2022-08-08T08:28:18.806Z</time>
      </trkpt>
      <trkpt lat="43.72262" lon="1.46633">
        <ele>213.350002</ele>
        <time>2022-08-08T08:28:21.807Z</time>
      </trkpt>
      <trkpt lat="43.72252" lon="1.46625">
        <ele>213.79257</ele>
        <time>2022-08-08T08:28:24.801Z</time>
      </trkpt>
      <trkpt lat="43.72239" lon="1.46619">
        <ele>214.305241</ele>
        <time>2022-08-08T08:28:27.807Z</time>
      </trkpt>
      <trkpt lat="43.7223" lon="1.46616">
        <ele>214.681221</ele>
        <time>2022-08-08T08:28:30.809Z</time>
      </trkpt>
      <trkpt lat="43.72218" lon="1.46612">
        <ele>214.974758</ele>
        <time>2022-08-08T08:28:33.806Z</time>
      </trkpt>
      <trkpt lat="43.72209" lon="1.4661">
        <ele>215.037429</ele>
        <time>2022-08-08T08:28:36.831Z</time>
      </trkpt>
      <trkpt lat="43.72199" lon="1.46608">
        <ele>215.103517</ele>
        <time>2022-08-08T08:28:39.803Z</time>
      </trkpt>
      <trkpt lat="43.7219" lon="1.46605">
        <ele>215.16424</ele>
        <time>2022-08-08T08:28:42.809Z</time>
      </trkpt>
      <trkpt lat="43.72178" lon="1.46602">
        <ele>215.244165</ele>
        <time>2022-08-08T08:28:45.837Z</time>
      </trkpt>
      <trkpt lat="43.72171" lon="1.46592">
        <ele>215.308566</ele>
        <time>2022-08-08T08:28:48.821Z</time>
      </trkpt>
      <trkpt lat="43.72173" lon="1.46575">
        <ele>215.388929</ele>
        <time>2022-08-08T08:28:51.819Z</time>
      </trkpt>
      <trkpt lat="43.72178" lon="1.46562">
        <ele>215.458557</ele>
        <time>2022-08-08T08:28:53.813Z</time>
      </trkpt>
      <trkpt lat="43.72183" lon="1.46548">
        <ele>215.534726</ele>
        <time>2022-08-08T08:28:55.808Z</time>
      </trkpt>
      <trkpt lat="43.7219" lon="1.46534">
        <ele>215.614573</ele>
        <time>2022-08-08T08:28:57.798Z</time>
      </trkpt>
      <trkpt lat="43.72196" lon="1.4652">
        <ele>215.69442</ele>
        <time>2022-08-08T08:28:59.814Z</time>
      </trkpt>
      <trkpt lat="43.72202" lon="1.46505">
        <ele>215.774547</ele>
        <time>2022-08-08T08:29:01.806Z</time>
      </trkpt>
      <trkpt lat="43.72209" lon="1.46491">
        <ele>215.854481</ele>
        <time>2022-08-08T08:29:03.806Z</time>
      </trkpt>
      <trkpt lat="43.72217" lon="1.46479">
        <ele>215.927175</ele>
        <time>2022-08-08T08:29:05.812Z</time>
      </trkpt>
      <trkpt lat="43.72226" lon="1.46478">
        <ele>215.991513</ele>
        <time>2022-08-08T08:29:07.822Z</time>
      </trkpt>
      <trkpt lat="43.72238" lon="1.46484">
        <ele>216.071177</ele>
        <time>2022-08-08T08:29:09.807Z</time>
      </trkpt>
      <trkpt lat="43.72248" lon="1.46493">
        <ele>215.841596</ele>
        <time>2022-08-08T08:29:11.811Z</time>
      </trkpt>
      <trkpt lat="43.72256" lon="1.46503">
        <ele>215.159572</ele>
        <time>2022-08-08T08:29:13.817Z</time>
      </trkpt>
      <trkpt lat="43.72266" lon="1.46509">
        <ele>214.463288</ele>
        <time>2022-08-08T08:29:15.822Z</time>
      </trkpt>
      <trkpt lat="43.72275" lon="1.46517">
        <ele>213.780644</ele>
        <time>2022-08-08T08:29:17.799Z</time>
      </trkpt>
      <trkpt lat="43.72284" lon="1.46528">
        <ele>213.014847</ele>
        <time>2022-08-08T08:29:19.804Z</time>
      </trkpt>
      <trkpt lat="43.72295" lon="1.46535">
        <ele>212.238803</ele>
        <time>2022-08-08T08:29:21.813Z</time>
      </trkpt>
      <trkpt lat="43.72305" lon="1.46545">
        <ele>211.456601</ele>
        <time>2022-08-08T08:29:23.808Z</time>
      </trkpt>
      <trkpt lat="43.72316" lon="1.46558">
        <ele>210.51921</ele>
        <time>2022-08-08T08:29:25.816Z</time>
      </trkpt>
      <trkpt lat="43.72325" lon="1.4657">
        <ele>209.73147</ele>
        <time>2022-08-08T08:29:27.805Z</time>
      </trkpt>
      <trkpt lat="43.72335" lon="1.4657">
        <ele>209.065359</ele>
        <time>2022-08-08T08:29:31.818Z</time>
      </trkpt>
      <trkpt lat="43.72346" lon="1.46565">
        <ele>208.359942</ele>
        <time>2022-08-08T08:29:36.814Z</time>
      </trkpt>
      <trkpt lat="43.72352" lon="1.46551">
        <ele>207.610518</ele>
        <time>2022-08-08T08:29:39.813Z</time>
      </trkpt>
      <trkpt lat="43.72359" lon="1.46537">
        <ele>206.777539</ele>
        <time>2022-08-08T08:29:41.819Z</time>
      </trkpt>
      <trkpt lat="43.72361" lon="1.46522">
        <ele>206.086645</ele>
        <time>2022-08-08T08:29:45.816Z</time>
      </trkpt>
      <trkpt lat="43.72366" lon="1.46503">
        <ele>205.155045</ele>
        <time>2022-08-08T08:29:49.822Z</time>
      </trkpt>
      <trkpt lat="43.72367" lon="1.46489">
        <ele>204.622735</ele>
        <time>2022-08-08T08:29:52.803Z</time>
      </trkpt>
      <trkpt lat="43.72367" lon="1.46473">
        <ele>204.74971</ele>
        <time>2022-08-08T08:29:55.807Z</time>
      </trkpt>
      <trkpt lat="43.72368" lon="1.46458">
        <ele>204.866375</ele>
        <time>2022-08-08T08:29:58.806Z</time>
      </trkpt>
      <trkpt lat="43.72368" lon="1.46441">
        <ele>204.999654</ele>
        <time>2022-08-08T08:30:01.795Z</time>
      </trkpt>
      <trkpt lat="43.72366" lon="1.46428">
        <ele>205.103489</ele>
        <time>2022-08-08T08:30:03.797Z</time>
      </trkpt>
      <trkpt lat="43.72362" lon="1.46414">
        <ele>205.2249</ele>
        <time>2022-08-08T08:30:06.821Z</time>
      </trkpt>
      <trkpt lat="43.72356" lon="1.46403">
        <ele>205.335034</ele>
        <time>2022-08-08T08:30:09.803Z</time>
      </trkpt>
      <trkpt lat="43.7235" lon="1.46388">
        <ele>205.469824</ele>
        <time>2022-08-08T08:30:12.809Z</time>
      </trkpt>
      <trkpt lat="43.72347" lon="1.46372">
        <ele>205.599152</ele>
        <time>2022-08-08T08:30:15.806Z</time>
      </trkpt>
      <trkpt lat="43.72345" lon="1.46358">
        <ele>205.713166</ele>
        <time>2022-08-08T08:30:18.809Z</time>
      </trkpt>
      <trkpt lat="43.72342" lon="1.46346">
        <ele>205.814728</ele>
        <time>2022-08-08T08:30:21.802Z</time>
      </trkpt>
      <trkpt lat="43.72339" lon="1.46325">
        <ele>205.985121</ele>
        <time>2022-08-08T08:30:23.793Z</time>
      </trkpt>
      <trkpt lat="43.72338" lon="1.46309">
        <ele>206.109971</ele>
        <time>2022-08-08T08:30:26.810Z</time>
      </trkpt>
      <trkpt lat="43.72333" lon="1.46294">
        <ele>206.24201</ele>
        <time>2022-08-08T08:30:29.805Z</time>
      </trkpt>
      <trkpt lat="43.72329" lon="1.46281">
        <ele>206.35547</ele>
        <time>2022-08-08T08:30:31.810Z</time>
      </trkpt>
      <trkpt lat="43.72325" lon="1.46265">
        <ele>206.486426</ele>
        <time>2022-08-08T08:30:33.809Z</time>
      </trkpt>
      <trkpt lat="43.72322" lon="1.46248">
        <ele>206.56426</ele>
        <time>2022-08-08T08:30:35.813Z</time>
      </trkpt>
      <trkpt lat="43.72323" lon="1.46234">
        <ele>206.535118</ele>
        <time>2022-08-08T08:30:37.820Z</time>
      </trkpt>
      <trkpt lat="43.72317" lon="1.46129">
        <ele>152.9</ele>
        <time>2022-08-08T08:30:55.805Z</time>
      </trkpt>
      <trkpt lat="43.72315" lon="1.46103">
        <ele>153.5</ele>
        <time>2022-08-08T08:30:57.799Z</time>
      </trkpt>
      <trkpt lat="43.72332" lon="1.46098">
        <ele>152.5</ele>
      </trkpt>
      <trkpt lat="43.72342" lon="1.46142">
        <ele>152.4</ele>
      </trkpt>
      <trkpt lat="43.72355" lon="1.46183">
        <ele>154.5</ele>
      </trkpt>
      <trkpt lat="43.7235" lon="1.46225">
        <ele>152.8</ele>
      </trkpt>
      <trkpt lat="43.72354" lon="1.46236">
        <ele>152.2</ele>
      </trkpt>
      <trkpt lat="43.72369" lon="1.46253">
        <ele>154.2</ele>
      </trkpt>
      <trkpt lat="43.72383" lon="1.46278">
        <ele>157.8</ele>
      </trkpt>
      <trkpt lat="43.72385" lon="1.46335">
        <ele>154.8</ele>
        <time>2022-08-08T08:32:10.804Z</time>
      </trkpt>
      <trkpt lat="43.72397" lon="1.46422">
        <ele>149.7</ele>
      </trkpt>
      <trkpt lat="43.72398" lon="1.46443">
        <ele>149.3</ele>
      </trkpt>
      <trkpt lat="43.72413" lon="1.46499">
        <ele>151.3</ele>
      </trkpt>
      <trkpt lat="43.72417" lon="1.46537">
        <ele>152.1</ele>
      </trkpt>
      <trkpt lat="43.72417" lon="1.46585">
        <ele>152</ele>
      </trkpt>
      <trkpt lat="43.72426" lon="1.46585">
        <ele>154.9</ele>
      </trkpt>
      <trkpt lat="43.72443" lon="1.46602">
        <ele>159.8</ele>
      </trkpt>
      <trkpt lat="43.72453" lon="1.4662">
        <ele>160.9</ele>
      </trkpt>
      <trkpt lat="43.72455" lon="1.46652">
        <ele>158.3</ele>
      </trkpt>
      <trkpt lat="43.72465" lon="1.46675">
        <ele>157.3</ele>
      </trkpt>
      <trkpt lat="43.72481" lon="1.46693">
        <ele>154.6</ele>
      </trkpt>
      <trkpt lat="43.72487" lon="1.46686">
        <ele>155.4</ele>
      </trkpt>
      <trkpt lat="43.72499" lon="1.46681">
        <ele>155.5</ele>
      </trkpt>
      <trkpt lat="43.72513" lon="1.46678">
        <ele>155.1</ele>
      </trkpt>
      <trkpt lat="43.72525" lon="1.46668">
        <ele>156</ele>
      </trkpt>
      <trkpt lat="43.72547" lon="1.46639">
        <ele>161.6</ele>
      </trkpt>
      <trkpt lat="43.72555" lon="1.46609">
        <ele>167.5</ele>
      </trkpt>
      <trkpt lat="43.72548" lon="1.46592">
        <ele>170.6</ele>
      </trkpt>
      <trkpt lat="43.72535" lon="1.46574">
        <ele>174.6</ele>
      </trkpt>
      <trkpt lat="43.72523" lon="1.46565">
        <ele>176</ele>
      </trkpt>
      <trkpt lat="43.72493" lon="1.46549">
        <ele>175.1</ele>
      </trkpt>
      <trkpt lat="43.72482" lon="1.46523">
        <ele>173.3</ele>
      </trkpt>
      <trkpt lat="43.72473" lon="1.46492">
        <ele>169.9</ele>
      </trkpt>
      <trkpt lat="43.72471" lon="1.46482">
        <ele>168.8</ele>
      </trkpt>
      <trkpt lat="43.7247" lon="1.46473">
        <ele>168.2</ele>
      </trkpt>
      <trkpt lat="43.72458" lon="1.46448">
        <ele>164.5</ele>
      </trkpt>
      <trkpt lat="43.72462" lon="1.46427">
        <ele>166</ele>
      </trkpt>
      <trkpt lat="43.7246" lon="1.46393">
        <ele>167.7</ele>
      </trkpt>
      <trkpt lat="43.72451" lon="1.46352">
        <ele>167.8</ele>
      </trkpt>
      <trkpt lat="43.72455" lon="1.4634">
        <ele>170.1</ele>
      </trkpt>
      <trkpt lat="43.72455" lon="1.46328">
        <ele>171.8</ele>
      </trkpt>
      <trkpt lat="43.72429" lon="1.46264">
        <ele>171</ele>
      </trkpt>
      <trkpt lat="43.72424" lon="1.4624">
        <ele>171</ele>
      </trkpt>
      <trkpt lat="43.72423" lon="1.46227">
        <ele>171.8</ele>
        <time>2022-08-08T08:35:28.816Z</time>
      </trkpt>
      <trkpt lat="43.72427" lon="1.46221">
        <ele>173.5</ele>
        <time>2022-08-08T08:35:30.808Z</time>
      </trkpt>
      <trkpt lat="43.72429" lon="1.46218">
        <ele>174.6</ele>
        <time>2022-08-08T08:35:39.820Z</time>
      </trkpt>
      <trkpt lat="43.72435" lon="1.46226">
        <ele>175.6</ele>
        <time>2022-08-08T08:35:41.817Z</time>
      </trkpt>
      <trkpt lat="43.72439" lon="1.46236">
        <ele>176.2</ele>
      </trkpt>
      <trkpt lat="43.72444" lon="1.46247">
        <ele>176.9</ele>
        <time>2022-08-08T08:35:44.824Z</time>
      </trkpt>
      <trkpt lat="43.72448" lon="1.46258">
        <ele>227.939181</ele>
        <time>2022-08-08T08:35:46.814Z</time>
      </trkpt>
      <trkpt lat="43.72451" lon="1.46273">
        <ele>228.347252</ele>
        <time>2022-08-08T08:35:49.808Z</time>
      </trkpt>
      <trkpt lat="43.72454" lon="1.46286">
        <ele>228.682827</ele>
        <time>2022-08-08T08:35:51.834Z</time>
      </trkpt>
      <trkpt lat="43.72458" lon="1.46299">
        <ele>229.038825</ele>
        <time>2022-08-08T08:35:53.825Z</time>
      </trkpt>
      <trkpt lat="43.72462" lon="1.46311">
        <ele>229.383599</ele>
        <time>2022-08-08T08:35:55.812Z</time>
      </trkpt>
      <trkpt lat="43.72471" lon="1.46324">
        <ele>229.849911</ele>
        <time>2022-08-08T08:35:57.819Z</time>
      </trkpt>
      <trkpt lat="43.72479" lon="1.46335">
        <ele>230.271746</ele>
        <time>2022-08-08T08:36:00.831Z</time>
      </trkpt>
      <trkpt lat="43.72486" lon="1.4635">
        <ele>230.729882</ele>
        <time>2022-08-08T08:36:03.809Z</time>
      </trkpt>
      <trkpt lat="43.72491" lon="1.46364">
        <ele>231.141281</ele>
        <time>2022-08-08T08:36:05.809Z</time>
      </trkpt>
      <trkpt lat="43.72492" lon="1.46379">
        <ele>231.508246</ele>
        <time>2022-08-08T08:36:08.839Z</time>
      </trkpt>
      <trkpt lat="43.72497" lon="1.46399">
        <ele>231.578978</ele>
        <time>2022-08-08T08:36:11.814Z</time>
      </trkpt>
      <trkpt lat="43.72499" lon="1.46414">
        <ele>231.584385</ele>
        <time>2022-08-08T08:36:13.816Z</time>
      </trkpt>
      <trkpt lat="43.72501" lon="1.46428">
        <ele>231.589473</ele>
        <time>2022-08-08T08:36:15.819Z</time>
      </trkpt>
      <trkpt lat="43.72504" lon="1.46448">
        <ele>231.596545</ele>
        <time>2022-08-08T08:36:17.816Z</time>
      </trkpt>
      <trkpt lat="43.72504" lon="1.46461">
        <ele>231.601246</ele>
        <time>2022-08-08T08:36:19.823Z</time>
      </trkpt>
      <trkpt lat="43.72503" lon="1.46476">
        <ele>231.606445</ele>
        <time>2022-08-08T08:36:21.825Z</time>
      </trkpt>
      <trkpt lat="43.72501" lon="1.46489">
        <ele>231.611098</ele>
        <time>2022-08-08T08:36:23.816Z</time>
      </trkpt>
      <trkpt lat="43.725" lon="1.46501">
        <ele>231.615555</ele>
        <time>2022-08-08T08:36:25.798Z</time>
      </trkpt>
      <trkpt lat="43.725" lon="1.46516">
        <ele>231.620822</ele>
        <time>2022-08-08T08:36:27.815Z</time>
      </trkpt>
      <trkpt lat="43.72504" lon="1.4653">
        <ele>231.626069</ele>
        <time>2022-08-08T08:36:29.825Z</time>
      </trkpt>
      <trkpt lat="43.72512" lon="1.4654">
        <ele>231.631522</ele>
        <time>2022-08-08T08:36:31.816Z</time>
      </trkpt>
      <trkpt lat="43.72521" lon="1.46546">
        <ele>231.636363</ele>
        <time>2022-08-08T08:36:33.811Z</time>
      </trkpt>
      <trkpt lat="43.72534" lon="1.46548">
        <ele>231.6424</ele>
        <time>2022-08-08T08:36:35.818Z</time>
      </trkpt>
      <trkpt lat="43.72546" lon="1.4655">
        <ele>231.648631</ele>
        <time>2022-08-08T08:36:37.817Z</time>
      </trkpt>
      <trkpt lat="43.72555" lon="1.46554">
        <ele>231.65314</ele>
        <time>2022-08-08T08:36:39.818Z</time>
      </trkpt>
      <trkpt lat="43.72566" lon="1.46557">
        <ele>231.65847</ele>
        <time>2022-08-08T08:36:41.804Z</time>
      </trkpt>
      <trkpt lat="43.72576" lon="1.46557">
        <ele>231.482898</ele>
        <time>2022-08-08T08:36:43.807Z</time>
      </trkpt>
      <trkpt lat="43.72589" lon="1.46562">
        <ele>231.17099</ele>
        <time>2022-08-08T08:36:46.830Z</time>
      </trkpt>
      <trkpt lat="43.72598" lon="1.46566">
        <ele>230.937556</ele>
        <time>2022-08-08T08:36:50.824Z</time>
      </trkpt>
      <trkpt lat="43.72609" lon="1.46564">
        <ele>230.67801</ele>
        <time>2022-08-08T08:36:54.811Z</time>
      </trkpt>
      <trkpt lat="43.72618" lon="1.46553">
        <ele>230.392167</ele>
        <time>2022-08-08T08:36:58.817Z</time>
      </trkpt>
      <trkpt lat="43.72627" lon="1.46547">
        <ele>230.160003</ele>
        <time>2022-08-08T08:37:02.810Z</time>
      </trkpt>
      <trkpt lat="43.72636" lon="1.46537">
        <ele>229.890755</ele>
        <time>2022-08-08T08:37:05.836Z</time>
      </trkpt>
      <trkpt lat="43.72641" lon="1.46527">
        <ele>229.670339</ele>
        <time>2022-08-08T08:37:07.835Z</time>
      </trkpt>
      <trkpt lat="43.72649" lon="1.46516">
        <ele>229.394872</ele>
        <time>2022-08-08T08:37:10.851Z</time>
      </trkpt>
      <trkpt lat="43.72657" lon="1.46506">
        <ele>229.14498</ele>
        <time>2022-08-08T08:37:12.806Z</time>
      </trkpt>
      <trkpt lat="43.72662" lon="1.46495">
        <ele>228.910524</ele>
        <time>2022-08-08T08:37:16.822Z</time>
      </trkpt>
      <trkpt lat="43.7267" lon="1.46484">
        <ele>228.645675</ele>
        <time>2022-08-08T08:37:19.841Z</time>
      </trkpt>
      <trkpt lat="43.72681" lon="1.46474">
        <ele>228.34199</ele>
        <time>2022-08-08T08:37:22.839Z</time>
      </trkpt>
      <trkpt lat="43.72693" lon="1.46466">
        <ele>228.013322</ele>
        <time>2022-08-08T08:37:25.816Z</time>
      </trkpt>
      <trkpt lat="43.72704" lon="1.4646">
        <ele>227.727443</ele>
        <time>2022-08-08T08:37:27.822Z</time>
      </trkpt>
      <trkpt lat="43.72715" lon="1.46451">
        <ele>227.42546</ele>
        <time>2022-08-08T08:37:29.829Z</time>
      </trkpt>
      <trkpt lat="43.72724" lon="1.46436">
        <ele>227.028788</ele>
        <time>2022-08-08T08:37:32.815Z</time>
      </trkpt>
      <trkpt lat="43.7273" lon="1.46423">
        <ele>226.713147</ele>
        <time>2022-08-08T08:37:34.795Z</time>
      </trkpt>
      <trkpt lat="43.72733" lon="1.4641">
        <ele>226.399223</ele>
        <time>2022-08-08T08:37:36.819Z</time>
      </trkpt>
      <trkpt lat="43.72739" lon="1.46398">
        <ele>226.102814</ele>
        <time>2022-08-08T08:37:38.829Z</time>
      </trkpt>
      <trkpt lat="43.72743" lon="1.46383">
        <ele>225.751474</ele>
        <time>2022-08-08T08:37:41.815Z</time>
      </trkpt>
      <trkpt lat="43.72752" lon="1.4637">
        <ele>225.380971</ele>
        <time>2022-08-08T08:37:44.808Z</time>
      </trkpt>
      <trkpt lat="43.7276" lon="1.4636">
        <ele>225.068043</ele>
        <time>2022-08-08T08:37:47.813Z</time>
      </trkpt>
      <trkpt lat="43.72771" lon="1.4635">
        <ele>224.652827</ele>
        <time>2022-08-08T08:37:50.827Z</time>
      </trkpt>
      <trkpt lat="43.72779" lon="1.46341">
        <ele>224.368798</ele>
        <time>2022-08-08T08:37:52.807Z</time>
      </trkpt>
      <trkpt lat="43.72785" lon="1.46332">
        <ele>224.098278</ele>
        <time>2022-08-08T08:37:55.812Z</time>
      </trkpt>
      <trkpt lat="43.72793" lon="1.46317">
        <ele>223.713972</ele>
        <time>2022-08-08T08:37:58.816Z</time>
      </trkpt>
      <trkpt lat="43.72797" lon="1.46301">
        <ele>223.336985</ele>
        <time>2022-08-08T08:38:01.813Z</time>
      </trkpt>
      <trkpt lat="43.72798" lon="1.46284">
        <ele>222.979223</ele>
        <time>2022-08-08T08:38:04.823Z</time>
      </trkpt>
      <trkpt lat="43.72789" lon="1.46272">
        <ele>222.610054</ele>
        <time>2022-08-08T08:38:08.810Z</time>
      </trkpt>
      <trkpt lat="43.72789" lon="1.46258">
        <ele>222.324426</ele>
        <time>2022-08-08T08:38:11.814Z</time>
      </trkpt>
      <trkpt lat="43.72799" lon="1.46247">
        <ele>222.00793</ele>
        <time>2022-08-08T08:38:14.809Z</time>
      </trkpt>
      <trkpt lat="43.72806" lon="1.46239">
        <ele>221.86416</ele>
        <time>2022-08-08T08:38:17.806Z</time>
      </trkpt>
      <trkpt lat="43.72816" lon="1.46229">
        <ele>221.671805</ele>
        <time>2022-08-08T08:38:20.809Z</time>
      </trkpt>
      <trkpt lat="43.72825" lon="1.46218">
        <ele>221.481691</ele>
        <time>2022-08-08T08:38:22.802Z</time>
      </trkpt>
      <trkpt lat="43.72832" lon="1.46206">
        <ele>221.310696</ele>
        <time>2022-08-08T08:38:24.816Z</time>
      </trkpt>
      <trkpt lat="43.72841" lon="1.46201">
        <ele>221.154357</ele>
        <time>2022-08-08T08:38:26.805Z</time>
      </trkpt>
      <trkpt lat="43.72848" lon="1.46191">
        <ele>221.000763</ele>
        <time>2022-08-08T08:38:28.809Z</time>
      </trkpt>
      <trkpt lat="43.72856" lon="1.46178">
        <ele>220.804456</ele>
        <time>2022-08-08T08:38:30.809Z</time>
      </trkpt>
      <trkpt lat="43.72864" lon="1.46164">
        <ele>220.604699</ele>
        <time>2022-08-08T08:38:42.824Z</time>
      </trkpt>
      <trkpt lat="43.72871" lon="1.46153">
        <ele>220.436032</ele>
        <time>2022-08-08T08:38:46.803Z</time>
      </trkpt>
      <trkpt lat="43.72881" lon="1.46147">
        <ele>220.268834</ele>
        <time>2022-08-08T08:38:49.790Z</time>
      </trkpt>
      <trkpt lat="43.72891" lon="1.46136">
        <ele>220.070526</ele>
        <time>2022-08-08T08:38:52.807Z</time>
      </trkpt>
      <trkpt lat="43.72902" lon="1.46138">
        <ele>219.382439</ele>
        <time>2022-08-08T08:39:20.806Z</time>
      </trkpt>
      <trkpt lat="43.72913" lon="1.46144">
        <ele>219.046634</ele>
        <time>2022-08-08T08:39:24.798Z</time>
      </trkpt>
      <trkpt lat="43.72923" lon="1.46143">
        <ele>218.43824</ele>
        <time>2022-08-08T08:39:28.797Z</time>
      </trkpt>
      <trkpt lat="43.72934" lon="1.46135">
        <ele>217.6532</ele>
        <time>2022-08-08T08:39:33.804Z</time>
      </trkpt>
      <trkpt lat="43.72944" lon="1.46128">
        <ele>216.985518</ele>
        <time>2022-08-08T08:39:37.796Z</time>
      </trkpt>
      <trkpt lat="43.72952" lon="1.46134">
        <ele>216.384073</ele>
        <time>2022-08-08T08:39:43.812Z</time>
      </trkpt>
      <trkpt lat="43.72963" lon="1.4613">
        <ele>215.67257</ele>
        <time>2022-08-08T08:39:48.813Z</time>
      </trkpt>
      <trkpt lat="43.72972" lon="1.46126">
        <ele>215.089304</ele>
        <time>2022-08-08T08:39:52.793Z</time>
      </trkpt>
      <trkpt lat="43.7298" lon="1.46117">
        <ele>214.461584</ele>
        <time>2022-08-08T08:39:59.798Z</time>
      </trkpt>
      <trkpt lat="43.7299" lon="1.46109">
        <ele>213.754048</ele>
        <time>2022-08-08T08:40:04.804Z</time>
      </trkpt>
      <trkpt lat="43.73002" lon="1.46114">
        <ele>212.925417</ele>
        <time>2022-08-08T08:40:08.829Z</time>
      </trkpt>
      <trkpt lat="43.73011" lon="1.46119">
        <ele>212.327624</ele>
        <time>2022-08-08T08:40:10.797Z</time>
      </trkpt>
      <trkpt lat="43.7302" lon="1.46123">
        <ele>211.760557</ele>
        <time>2022-08-08T08:40:12.813Z</time>
      </trkpt>
      <trkpt lat="43.73028" lon="1.46129">
        <ele>211.157089</ele>
        <time>2022-08-08T08:40:14.815Z</time>
      </trkpt>
      <trkpt lat="43.73038" lon="1.46136">
        <ele>210.510274</ele>
        <time>2022-08-08T08:40:16.824Z</time>
      </trkpt>
      <trkpt lat="43.73047" lon="1.46142">
        <ele>209.836588</ele>
        <time>2022-08-08T08:40:18.797Z</time>
      </trkpt>
      <trkpt lat="43.73057" lon="1.46151">
        <ele>209.122487</ele>
        <time>2022-08-08T08:40:20.810Z</time>
      </trkpt>
      <trkpt lat="43.73067" lon="1.4616">
        <ele>208.341363</ele>
        <time>2022-08-08T08:40:22.800Z</time>
      </trkpt>
      <trkpt lat="43.73078" lon="1.4617">
        <ele>207.775739</ele>
        <time>2022-08-08T08:40:24.820Z</time>
      </trkpt>
      <trkpt lat="43.73088" lon="1.46181">
        <ele>207.402446</ele>
        <time>2022-08-08T08:40:26.819Z</time>
      </trkpt>
      <trkpt lat="43.73098" lon="1.46191">
        <ele>207.023335</ele>
        <time>2022-08-08T08:40:28.837Z</time>
      </trkpt>
      <trkpt lat="43.73121" lon="1.4622">
        <ele>206.10333</ele>
        <time>2022-08-08T08:40:33.783Z</time>
      </trkpt>
      <trkpt lat="43.73129" lon="1.46233">
        <ele>205.739971</ele>
        <time>2022-08-08T08:40:35.813Z</time>
      </trkpt>
      <trkpt lat="43.73137" lon="1.46246">
        <ele>205.381447</ele>
        <time>2022-08-08T08:40:37.811Z</time>
      </trkpt>
      <trkpt lat="43.73144" lon="1.4626">
        <ele>205.022689</ele>
        <time>2022-08-08T08:40:39.822Z</time>
      </trkpt>
      <trkpt lat="43.73152" lon="1.46273">
        <ele>204.66735</ele>
        <time>2022-08-08T08:40:41.794Z</time>
      </trkpt>
      <trkpt lat="43.7316" lon="1.46286">
        <ele>204.312366</ele>
        <time>2022-08-08T08:40:43.795Z</time>
      </trkpt>
      <trkpt lat="43.73168" lon="1.46298">
        <ele>203.946397</ele>
        <time>2022-08-08T08:40:45.796Z</time>
      </trkpt>
      <trkpt lat="43.73177" lon="1.46311">
        <ele>203.567872</ele>
        <time>2022-08-08T08:40:47.797Z</time>
      </trkpt>
      <trkpt lat="43.73186" lon="1.46323">
        <ele>203.181155</ele>
        <time>2022-08-08T08:40:49.796Z</time>
      </trkpt>
      <trkpt lat="43.73197" lon="1.46337">
        <ele>202.769193</ele>
        <time>2022-08-08T08:40:51.799Z</time>
      </trkpt>
      <trkpt lat="43.73208" lon="1.4635">
        <ele>202.580249</ele>
        <time>2022-08-08T08:40:53.810Z</time>
      </trkpt>
      <trkpt lat="43.73221" lon="1.46363">
        <ele>202.458322</ele>
        <time>2022-08-08T08:40:55.806Z</time>
      </trkpt>
      <trkpt lat="43.73233" lon="1.46376">
        <ele>202.335713</ele>
        <time>2022-08-08T08:40:57.814Z</time>
      </trkpt>
      <trkpt lat="43.73246" lon="1.46388">
        <ele>202.210883</ele>
        <time>2022-08-08T08:40:59.796Z</time>
      </trkpt>
      <trkpt lat="43.73259" lon="1.464">
        <ele>202.089323</ele>
        <time>2022-08-08T08:41:01.821Z</time>
      </trkpt>
      <trkpt lat="43.73272" lon="1.46412">
        <ele>201.968741</ele>
        <time>2022-08-08T08:41:03.798Z</time>
      </trkpt>
      <trkpt lat="43.73284" lon="1.46424">
        <ele>201.846474</ele>
        <time>2022-08-08T08:41:05.794Z</time>
      </trkpt>
      <trkpt lat="43.73295" lon="1.46438">
        <ele>201.727027</ele>
        <time>2022-08-08T08:41:07.785Z</time>
      </trkpt>
      <trkpt lat="43.73306" lon="1.46451">
        <ele>201.616336</ele>
        <time>2022-08-08T08:41:09.809Z</time>
      </trkpt>
      <trkpt lat="43.73313" lon="1.4646">
        <ele>201.536724</ele>
        <time>2022-08-08T08:41:11.802Z</time>
      </trkpt>
      <trkpt lat="43.73309" lon="1.46473">
        <ele>201.457771</ele>
        <time>2022-08-08T08:41:15.801Z</time>
      </trkpt>
      <trkpt lat="43.73299" lon="1.46469">
        <ele>201.375425</ele>
        <time>2022-08-08T08:41:19.806Z</time>
      </trkpt>
      <trkpt lat="43.73291" lon="1.46464">
        <ele>201.299134</ele>
        <time>2022-08-08T08:41:23.823Z</time>
      </trkpt>
      <trkpt lat="43.73286" lon="1.4645">
        <ele>201.524341</ele>
        <time>2022-08-08T08:41:31.821Z</time>
      </trkpt>
      <trkpt lat="43.73282" lon="1.46439">
        <ele>202.047295</ele>
        <time>2022-08-08T08:41:36.804Z</time>
      </trkpt>
      <trkpt lat="43.73272" lon="1.46439">
        <ele>202.585323</ele>
        <time>2022-08-08T08:41:44.796Z</time>
      </trkpt>
      <trkpt lat="43.73264" lon="1.46435">
        <ele>203.108756</ele>
        <time>2022-08-08T08:41:48.800Z</time>
      </trkpt>
      <trkpt lat="43.73256" lon="1.46444">
        <ele>203.660162</ele>
        <time>2022-08-08T08:41:53.824Z</time>
      </trkpt>
      <trkpt lat="43.73247" lon="1.46455">
        <ele>204.368297</ele>
        <time>2022-08-08T08:42:02.805Z</time>
      </trkpt>
      <trkpt lat="43.73239" lon="1.46465">
        <ele>204.981391</ele>
        <time>2022-08-08T08:42:09.831Z</time>
      </trkpt>
      <trkpt lat="43.73232" lon="1.46478">
        <ele>205.65227</ele>
        <time>2022-08-08T08:42:14.803Z</time>
      </trkpt>
      <trkpt lat="43.73224" lon="1.46485">
        <ele>206.198477</ele>
        <time>2022-08-08T08:42:17.809Z</time>
      </trkpt>
      <trkpt lat="43.73215" lon="1.46489">
        <ele>206.731579</ele>
        <time>2022-08-08T08:42:20.832Z</time>
      </trkpt>
      <trkpt lat="43.73204" lon="1.46487">
        <ele>207.352444</ele>
        <time>2022-08-08T08:42:26.824Z</time>
      </trkpt>
      <trkpt lat="43.73197" lon="1.46478">
        <ele>207.920357</ele>
        <time>2022-08-08T08:42:29.803Z</time>
      </trkpt>
      <trkpt lat="43.7319" lon="1.46469">
        <ele>208.468661</ele>
        <time>2022-08-08T08:42:34.817Z</time>
      </trkpt>
      <trkpt lat="43.73181" lon="1.46463">
        <ele>209.018615</ele>
        <time>2022-08-08T08:42:37.829Z</time>
      </trkpt>
      <trkpt lat="43.73173" lon="1.46459">
        <ele>209.53719</ele>
        <time>2022-08-08T08:42:40.806Z</time>
      </trkpt>
      <trkpt lat="43.73163" lon="1.46457">
        <ele>210.083562</ele>
        <time>2022-08-08T08:42:45.819Z</time>
      </trkpt>
      <trkpt lat="43.73153" lon="1.46455">
        <ele>210.66943</ele>
        <time>2022-08-08T08:42:49.806Z</time>
      </trkpt>
      <trkpt lat="43.73143" lon="1.46449">
        <ele>211.27318</ele>
        <time>2022-08-08T08:42:54.804Z</time>
      </trkpt>
      <trkpt lat="43.73134" lon="1.46442">
        <ele>211.887956</ele>
        <time>2022-08-08T08:42:58.810Z</time>
      </trkpt>
      <trkpt lat="43.73125" lon="1.46434">
        <ele>212.501977</ele>
        <time>2022-08-08T08:43:01.815Z</time>
      </trkpt>
      <trkpt lat="43.73112" lon="1.46432">
        <ele>213.221181</ele>
        <time>2022-08-08T08:43:06.822Z</time>
      </trkpt>
      <trkpt lat="43.73096" lon="1.46433">
        <ele>214.152665</ele>
        <time>2022-08-08T08:43:13.805Z</time>
      </trkpt>
      <trkpt lat="43.73086" lon="1.46444">
        <ele>214.892671</ele>
        <time>2022-08-08T08:43:18.796Z</time>
      </trkpt>
      <trkpt lat="43.73076" lon="1.46449">
        <ele>215.448076</ele>
        <time>2022-08-08T08:43:20.801Z</time>
      </trkpt>
      <trkpt lat="43.73066" lon="1.46458">
        <ele>216.119245</ele>
        <time>2022-08-08T08:43:23.802Z</time>
      </trkpt>
      <trkpt lat="43.73059" lon="1.46465">
        <ele>216.637592</ele>
        <time>2022-08-08T08:43:25.799Z</time>
      </trkpt>
      <trkpt lat="43.73052" lon="1.46474">
        <ele>217.174358</ele>
        <time>2022-08-08T08:43:27.803Z</time>
      </trkpt>
      <trkpt lat="43.73046" lon="1.46486">
        <ele>217.79635</ele>
        <time>2022-08-08T08:43:30.798Z</time>
      </trkpt>
      <trkpt lat="43.7304" lon="1.46502">
        <ele>218.520886</ele>
        <time>2022-08-08T08:43:34.817Z</time>
      </trkpt>
      <trkpt lat="43.73033" lon="1.46514">
        <ele>219.158203</ele>
        <time>2022-08-08T08:43:37.822Z</time>
      </trkpt>
      <trkpt lat="43.73026" lon="1.46523">
        <ele>219.690086</ele>
        <time>2022-08-08T08:43:39.812Z</time>
      </trkpt>
      <trkpt lat="43.73016" lon="1.46526">
        <ele>220.297786</ele>
        <time>2022-08-08T08:43:41.793Z</time>
      </trkpt>
      <trkpt lat="43.73005" lon="1.46534">
        <ele>220.951678</ele>
        <time>2022-08-08T08:43:43.798Z</time>
      </trkpt>
      <trkpt lat="43.72998" lon="1.46542">
        <ele>221.463841</ele>
        <time>2022-08-08T08:43:45.816Z</time>
      </trkpt>
      <trkpt lat="43.72989" lon="1.46547">
        <ele>221.689525</ele>
        <time>2022-08-08T08:43:47.792Z</time>
      </trkpt>
      <trkpt lat="43.72979" lon="1.46551">
        <ele>221.53288</ele>
        <time>2022-08-08T08:43:49.795Z</time>
      </trkpt>
      <trkpt lat="43.72971" lon="1.46557">
        <ele>221.401149</ele>
        <time>2022-08-08T08:43:51.807Z</time>
      </trkpt>
      <trkpt lat="43.72965" lon="1.46571">
        <ele>221.224965</ele>
        <time>2022-08-08T08:43:54.801Z</time>
      </trkpt>
      <trkpt lat="43.7296" lon="1.46587">
        <ele>221.052581</ele>
        <time>2022-08-08T08:43:57.803Z</time>
      </trkpt>
      <trkpt lat="43.7295" lon="1.46596">
        <ele>220.877499</ele>
        <time>2022-08-08T08:44:02.807Z</time>
      </trkpt>
      <trkpt lat="43.7294" lon="1.46607">
        <ele>220.688937</ele>
        <time>2022-08-08T08:44:06.804Z</time>
      </trkpt>
      <trkpt lat="43.72931" lon="1.46616">
        <ele>220.531166</ele>
        <time>2022-08-08T08:44:08.787Z</time>
      </trkpt>
      <trkpt lat="43.72934" lon="1.4663">
        <ele>220.375985</ele>
        <time>2022-08-08T08:44:12.835Z</time>
      </trkpt>
      <trkpt lat="43.72941" lon="1.46642">
        <ele>220.21507</ele>
        <time>2022-08-08T08:44:15.795Z</time>
      </trkpt>
      <trkpt lat="43.72949" lon="1.46658">
        <ele>220.014707</ele>
        <time>2022-08-08T08:44:18.801Z</time>
      </trkpt>
      <trkpt lat="43.72954" lon="1.46668">
        <ele>219.8825</ele>
        <time>2022-08-08T08:44:20.813Z</time>
      </trkpt>
      <trkpt lat="43.72962" lon="1.46677">
        <ele>219.734706</ele>
        <time>2022-08-08T08:44:22.805Z</time>
      </trkpt>
      <trkpt lat="43.72968" lon="1.46692">
        <ele>219.555528</ele>
        <time>2022-08-08T08:44:25.784Z</time>
      </trkpt>
      <trkpt lat="43.72976" lon="1.467">
        <ele>219.416631</ele>
        <time>2022-08-08T08:44:27.821Z</time>
      </trkpt>
      <trkpt lat="43.72987" lon="1.4671">
        <ele>219.220923</ele>
        <time>2022-08-08T08:44:30.802Z</time>
      </trkpt>
      <trkpt lat="43.72996" lon="1.46721">
        <ele>218.938698</ele>
        <time>2022-08-08T08:44:33.796Z</time>
      </trkpt>
      <trkpt lat="43.73004" lon="1.46733">
        <ele>218.574608</ele>
        <time>2022-08-08T08:44:36.796Z</time>
      </trkpt>
      <trkpt lat="43.73011" lon="1.46744">
        <ele>218.238967</ele>
        <time>2022-08-08T08:44:38.809Z</time>
      </trkpt>
      <trkpt lat="43.73031" lon="1.46769">
        <ele>217.377162</ele>
        <time>2022-08-08T08:44:44.789Z</time>
      </trkpt>
      <trkpt lat="43.73037" lon="1.46784">
        <ele>216.99536</ele>
        <time>2022-08-08T08:44:47.797Z</time>
      </trkpt>
      <trkpt lat="43.73045" lon="1.46795">
        <ele>216.646982</ele>
        <time>2022-08-08T08:44:51.794Z</time>
      </trkpt>
      <trkpt lat="43.73051" lon="1.46806">
        <ele>216.314832</ele>
        <time>2022-08-08T08:44:54.817Z</time>
      </trkpt>
      <trkpt lat="43.73058" lon="1.46816">
        <ele>215.999727</ele>
        <time>2022-08-08T08:44:57.793Z</time>
      </trkpt>
      <trkpt lat="43.73064" lon="1.46828">
        <ele>215.677451</ele>
        <time>2022-08-08T08:45:07.790Z</time>
      </trkpt>
      <trkpt lat="43.73065" lon="1.46843">
        <ele>215.338121</ele>
        <time>2022-08-08T08:45:09.789Z</time>
      </trkpt>
      <trkpt lat="43.73063" lon="1.46861">
        <ele>214.931352</ele>
        <time>2022-08-08T08:45:13.810Z</time>
      </trkpt>
      <trkpt lat="43.73054" lon="1.46861">
        <ele>214.620142</ele>
        <time>2022-08-08T08:45:18.813Z</time>
      </trkpt>
      <trkpt lat="43.73046" lon="1.46853">
        <ele>214.332828</ele>
        <time>2022-08-08T08:45:22.789Z</time>
      </trkpt>
      <trkpt lat="43.73038" lon="1.46846">
        <ele>214.021156</ele>
        <time>2022-08-08T08:45:29.812Z</time>
      </trkpt>
      <trkpt lat="43.73029" lon="1.4685">
        <ele>213.709351</ele>
        <time>2022-08-08T08:45:37.791Z</time>
      </trkpt>
      <trkpt lat="43.73018" lon="1.46856">
        <ele>213.699871</ele>
        <time>2022-08-08T08:45:45.792Z</time>
      </trkpt>
      <trkpt lat="43.73008" lon="1.46854">
        <ele>214.202425</ele>
        <time>2022-08-08T08:45:51.798Z</time>
      </trkpt>
      <trkpt lat="43.73011" lon="1.46841">
        <ele>214.673194</ele>
        <time>2022-08-08T08:45:56.806Z</time>
      </trkpt>
      <trkpt lat="43.73016" lon="1.4683">
        <ele>215.158887</ele>
        <time>2022-08-08T08:46:02.811Z</time>
      </trkpt>
      <trkpt lat="43.73014" lon="1.46817">
        <ele>215.657661</ele>
        <time>2022-08-08T08:46:06.795Z</time>
      </trkpt>
      <trkpt lat="43.73006" lon="1.46809">
        <ele>216.143494</ele>
        <time>2022-08-08T08:46:10.795Z</time>
      </trkpt>
      <trkpt lat="43.72996" lon="1.46801">
        <ele>216.717539</ele>
        <time>2022-08-08T08:46:14.826Z</time>
      </trkpt>
      <trkpt lat="43.72987" lon="1.46796">
        <ele>217.204683</ele>
        <time>2022-08-08T08:46:18.815Z</time>
      </trkpt>
      <trkpt lat="43.72977" lon="1.46789">
        <ele>217.795443</ele>
        <time>2022-08-08T08:46:23.801Z</time>
      </trkpt>
      <trkpt lat="43.72967" lon="1.46782">
        <ele>218.326059</ele>
        <time>2022-08-08T08:46:26.812Z</time>
      </trkpt>
      <trkpt lat="43.72962" lon="1.46771">
        <ele>218.811756</ele>
        <time>2022-08-08T08:46:29.807Z</time>
      </trkpt>
      <trkpt lat="43.72955" lon="1.46757">
        <ele>219.419213</ele>
        <time>2022-08-08T08:46:32.805Z</time>
      </trkpt>
      <trkpt lat="43.72943" lon="1.46749">
        <ele>220.092807</ele>
        <time>2022-08-08T08:46:38.800Z</time>
      </trkpt>
      <trkpt lat="43.72933" lon="1.46749">
        <ele>220.600149</ele>
        <time>2022-08-08T08:46:41.823Z</time>
      </trkpt>
      <trkpt lat="43.72923" lon="1.46755">
        <ele>221.150021</ele>
        <time>2022-08-08T08:46:45.806Z</time>
      </trkpt>
      <trkpt lat="43.72915" lon="1.46762">
        <ele>221.625171</ele>
        <time>2022-08-08T08:46:48.800Z</time>
      </trkpt>
      <trkpt lat="43.72905" lon="1.46771">
        <ele>222.21792</ele>
        <time>2022-08-08T08:46:52.796Z</time>
      </trkpt>
      <trkpt lat="43.72894" lon="1.4677">
        <ele>222.178007</ele>
        <time>2022-08-08T08:46:57.797Z</time>
      </trkpt>
      <trkpt lat="43.7288" lon="1.46811">
        <ele>220.049513</ele>
        <time>2022-08-08T08:47:06.812Z</time>
      </trkpt>
      <trkpt lat="43.72874" lon="1.46821">
        <ele>219.434472</ele>
        <time>2022-08-08T08:47:08.812Z</time>
      </trkpt>
      <trkpt lat="43.72873" lon="1.4684">
        <ele>218.546728</ele>
        <time>2022-08-08T08:47:10.787Z</time>
      </trkpt>
      <trkpt lat="43.7287" lon="1.46855">
        <ele>217.791067</ele>
        <time>2022-08-08T08:47:13.813Z</time>
      </trkpt>
      <trkpt lat="43.72871" lon="1.4687">
        <ele>217.090969</ele>
        <time>2022-08-08T08:47:15.792Z</time>
      </trkpt>
      <trkpt lat="43.72872" lon="1.46886">
        <ele>216.298876</ele>
        <time>2022-08-08T08:47:17.816Z</time>
      </trkpt>
      <trkpt lat="43.72873" lon="1.46901">
        <ele>215.598472</ele>
        <time>2022-08-08T08:47:19.803Z</time>
      </trkpt>
      <trkpt lat="43.72874" lon="1.46919">
        <ele>214.754119</ele>
        <time>2022-08-08T08:47:21.812Z</time>
      </trkpt>
      <trkpt lat="43.72875" lon="1.46938">
        <ele>213.855746</ele>
        <time>2022-08-08T08:47:23.790Z</time>
      </trkpt>
      <trkpt lat="43.72875" lon="1.46953">
        <ele>213.148257</ele>
        <time>2022-08-08T08:47:25.791Z</time>
      </trkpt>
      <trkpt lat="43.72879" lon="1.46964">
        <ele>212.538779</ele>
        <time>2022-08-08T08:47:27.807Z</time>
      </trkpt>
      <trkpt lat="43.72884" lon="1.46982">
        <ele>211.633784</ele>
        <time>2022-08-08T08:47:30.804Z</time>
      </trkpt>
      <trkpt lat="43.72892" lon="1.46994">
        <ele>210.883098</ele>
        <time>2022-08-08T08:47:32.815Z</time>
      </trkpt>
      <trkpt lat="43.72913" lon="1.47053">
        <ele>208.287911</ele>
        <time>2022-08-08T08:47:37.800Z</time>
      </trkpt>
      <trkpt lat="43.72918" lon="1.47069">
        <ele>207.646993</ele>
        <time>2022-08-08T08:47:38.843Z</time>
      </trkpt>
      <trkpt lat="43.72922" lon="1.47087">
        <ele>206.884038</ele>
        <time>2022-08-08T08:47:40.810Z</time>
      </trkpt>
      <trkpt lat="43.72923" lon="1.47104">
        <ele>206.246301</ele>
        <time>2022-08-08T08:47:43.795Z</time>
      </trkpt>
      <trkpt lat="43.72927" lon="1.47117">
        <ele>205.659377</ele>
        <time>2022-08-08T08:47:45.804Z</time>
      </trkpt>
      <trkpt lat="43.72934" lon="1.47132">
        <ele>205.001443</ele>
        <time>2022-08-08T08:47:47.801Z</time>
      </trkpt>
      <trkpt lat="43.7294" lon="1.47142">
        <ele>204.483067</ele>
        <time>2022-08-08T08:47:50.798Z</time>
      </trkpt>
      <trkpt lat="43.72951" lon="1.47144">
        <ele>203.865233</ele>
        <time>2022-08-08T08:47:53.818Z</time>
      </trkpt>
      <trkpt lat="43.72963" lon="1.47148">
        <ele>203.231306</ele>
        <time>2022-08-08T08:47:56.804Z</time>
      </trkpt>
      <trkpt lat="43.72973" lon="1.47152">
        <ele>202.674576</ele>
        <time>2022-08-08T08:47:58.833Z</time>
      </trkpt>
      <trkpt lat="43.72983" lon="1.47156">
        <ele>202.098335</ele>
        <time>2022-08-08T08:48:00.800Z</time>
      </trkpt>
      <trkpt lat="43.72994" lon="1.47161">
        <ele>201.498736</ele>
        <time>2022-08-08T08:48:02.800Z</time>
      </trkpt>
      <trkpt lat="43.73003" lon="1.47166">
        <ele>201.138457</ele>
        <time>2022-08-08T08:48:04.800Z</time>
      </trkpt>
      <trkpt lat="43.73013" lon="1.4716">
        <ele>201.207739</ele>
        <time>2022-08-08T08:48:09.791Z</time>
      </trkpt>
      <trkpt lat="43.73017" lon="1.47142">
        <ele>201.292961</ele>
        <time>2022-08-08T08:48:23.807Z</time>
      </trkpt>
      <trkpt lat="43.73026" lon="1.47116">
        <ele>201.421644</ele>
        <time>2022-08-08T08:50:12.805Z</time>
      </trkpt>
      <trkpt lat="43.73032" lon="1.47106">
        <ele>201.478717</ele>
        <time>2022-08-08T08:50:14.799Z</time>
      </trkpt>
      <trkpt lat="43.7304" lon="1.47092">
        <ele>201.55797</ele>
        <time>2022-08-08T08:50:17.805Z</time>
      </trkpt>
      <trkpt lat="43.73045" lon="1.47078">
        <ele>201.629766</ele>
        <time>2022-08-08T08:50:20.799Z</time>
      </trkpt>
      <trkpt lat="43.73048" lon="1.47063">
        <ele>201.702624</ele>
        <time>2022-08-08T08:50:23.804Z</time>
      </trkpt>
      <trkpt lat="43.73044" lon="1.47049">
        <ele>201.767243</ele>
        <time>2022-08-08T08:50:28.802Z</time>
      </trkpt>
      <trkpt lat="43.73045" lon="1.47035">
        <ele>201.830819</ele>
        <time>2022-08-08T08:50:32.804Z</time>
      </trkpt>
      <trkpt lat="43.7305" lon="1.47022">
        <ele>201.89785</ele>
        <time>2022-08-08T08:50:37.815Z</time>
      </trkpt>
      <trkpt lat="43.73051" lon="1.4701">
        <ele>201.955154</ele>
        <time>2022-08-08T08:50:41.795Z</time>
      </trkpt>
      <trkpt lat="43.73051" lon="1.46996">
        <ele>202.016882</ele>
        <time>2022-08-08T08:50:44.810Z</time>
      </trkpt>
      <trkpt lat="43.73056" lon="1.46982">
        <ele>202.087691</ele>
        <time>2022-08-08T08:50:48.790Z</time>
      </trkpt>
      <trkpt lat="43.73062" lon="1.46969">
        <ele>202.158004</ele>
        <time>2022-08-08T08:50:51.808Z</time>
      </trkpt>
      <trkpt lat="43.73066" lon="1.46956">
        <ele>202.221732</ele>
        <time>2022-08-08T08:50:53.796Z</time>
      </trkpt>
      <trkpt lat="43.73069" lon="1.46944">
        <ele>202.179554</ele>
        <time>2022-08-08T08:50:55.801Z</time>
      </trkpt>
      <trkpt lat="43.73072" lon="1.46928">
        <ele>202.063586</ele>
        <time>2022-08-08T08:50:58.794Z</time>
      </trkpt>
      <trkpt lat="43.7307" lon="1.46916">
        <ele>201.975009</ele>
        <time>2022-08-08T08:51:02.813Z</time>
      </trkpt>
      <trkpt lat="43.73072" lon="1.46899">
        <ele>201.859548</ele>
        <time>2022-08-08T08:51:05.797Z</time>
      </trkpt>
      <trkpt lat="43.73079" lon="1.46886">
        <ele>201.740215</ele>
        <time>2022-08-08T08:51:08.802Z</time>
      </trkpt>
      <trkpt lat="43.73086" lon="1.46876">
        <ele>201.644289</ele>
        <time>2022-08-08T08:51:10.793Z</time>
      </trkpt>
      <trkpt lat="43.73092" lon="1.46864">
        <ele>201.53923</ele>
        <time>2022-08-08T08:51:14.815Z</time>
      </trkpt>
      <trkpt lat="43.73098" lon="1.4685">
        <ele>201.424837</ele>
        <time>2022-08-08T08:51:18.801Z</time>
      </trkpt>
      <trkpt lat="43.73107" lon="1.4684">
        <ele>201.316034</ele>
        <time>2022-08-08T08:51:22.802Z</time>
      </trkpt>
      <trkpt lat="43.73116" lon="1.46834">
        <ele>201.220167</ele>
        <time>2022-08-08T08:51:24.809Z</time>
      </trkpt>
      <trkpt lat="43.73124" lon="1.46827">
        <ele>201.130084</ele>
        <time>2022-08-08T08:51:26.809Z</time>
      </trkpt>
      <trkpt lat="43.73131" lon="1.46815">
        <ele>201.017879</ele>
        <time>2022-08-08T08:51:30.819Z</time>
      </trkpt>
      <trkpt lat="43.73138" lon="1.46805">
        <ele>200.920987</ele>
        <time>2022-08-08T08:51:33.809Z</time>
      </trkpt>
      <trkpt lat="43.73144" lon="1.46793">
        <ele>200.818191</ele>
        <time>2022-08-08T08:51:35.817Z</time>
      </trkpt>
      <trkpt lat="43.73149" lon="1.46775">
        <ele>200.676987</ele>
        <time>2022-08-08T08:51:37.812Z</time>
      </trkpt>
      <trkpt lat="43.7315" lon="1.46762">
        <ele>200.588181</ele>
        <time>2022-08-08T08:51:39.796Z</time>
      </trkpt>
      <trkpt lat="43.7315" lon="1.46749">
        <ele>200.493708</ele>
        <time>2022-08-08T08:51:41.805Z</time>
      </trkpt>
      <trkpt lat="43.7315" lon="1.46731">
        <ele>200.465857</ele>
        <time>2022-08-08T08:51:44.789Z</time>
      </trkpt>
      <trkpt lat="43.73152" lon="1.46718">
        <ele>200.448478</ele>
        <time>2022-08-08T08:51:46.792Z</time>
      </trkpt>
      <trkpt lat="43.73159" lon="1.46707">
        <ele>200.429835</ele>
        <time>2022-08-08T08:51:48.801Z</time>
      </trkpt>
      <trkpt lat="43.73166" lon="1.46695">
        <ele>200.40946</ele>
        <time>2022-08-08T08:51:50.803Z</time>
      </trkpt>
      <trkpt lat="43.73176" lon="1.46677">
        <ele>200.379614</ele>
        <time>2022-08-08T08:51:55.805Z</time>
      </trkpt>
      <trkpt lat="43.73184" lon="1.46667">
        <ele>200.36165</ele>
        <time>2022-08-08T08:51:59.798Z</time>
      </trkpt>
      <trkpt lat="43.73191" lon="1.46656">
        <ele>200.342208</ele>
        <time>2022-08-08T08:52:02.796Z</time>
      </trkpt>
      <trkpt lat="43.73194" lon="1.46639">
        <ele>200.320187</ele>
        <time>2022-08-08T08:52:06.811Z</time>
      </trkpt>
      <trkpt lat="43.73194" lon="1.46625">
        <ele>200.301714</ele>
        <time>2022-08-08T08:52:09.804Z</time>
      </trkpt>
      <trkpt lat="43.732" lon="1.46614">
        <ele>200.284048</ele>
        <time>2022-08-08T08:52:12.825Z</time>
      </trkpt>
      <trkpt lat="43.73206" lon="1.466">
        <ele>200.262638</ele>
        <time>2022-08-08T08:52:17.803Z</time>
      </trkpt>
      <trkpt lat="43.73211" lon="1.46589">
        <ele>200.245672</ele>
        <time>2022-08-08T08:52:19.805Z</time>
      </trkpt>
      <trkpt lat="43.73217" lon="1.46579">
        <ele>200.228255</ele>
        <time>2022-08-08T08:52:21.808Z</time>
      </trkpt>
      <trkpt lat="43.73225" lon="1.46566">
        <ele>200.206196</ele>
        <time>2022-08-08T08:52:24.802Z</time>
      </trkpt>
      <trkpt lat="43.73231" lon="1.46554">
        <ele>200.188187</ele>
        <time>2022-08-08T08:52:26.798Z</time>
      </trkpt>
      <trkpt lat="43.73238" lon="1.4654">
        <ele>200.165885</ele>
        <time>2022-08-08T08:52:29.801Z</time>
      </trkpt>
      <trkpt lat="43.73244" lon="1.46525">
        <ele>200.162969</ele>
        <time>2022-08-08T08:52:32.803Z</time>
      </trkpt>
      <trkpt lat="43.73249" lon="1.46509">
        <ele>200.160281</ele>
        <time>2022-08-08T08:52:35.801Z</time>
      </trkpt>
      <trkpt lat="43.7326" lon="1.46497">
        <ele>200.157152</ele>
        <time>2022-08-08T08:52:38.832Z</time>
      </trkpt>
      <trkpt lat="43.73267" lon="1.46481">
        <ele>200.154263</ele>
        <time>2022-08-08T08:52:40.804Z</time>
      </trkpt>
      <trkpt lat="43.73275" lon="1.46469">
        <ele>200.151789</ele>
        <time>2022-08-08T08:52:42.815Z</time>
      </trkpt>
      <trkpt lat="43.73285" lon="1.46469">
        <ele>200.149612</ele>
        <time>2022-08-08T08:52:44.815Z</time>
      </trkpt>
      <trkpt lat="43.73295" lon="1.46472">
        <ele>200.147349</ele>
        <time>2022-08-08T08:52:46.811Z</time>
      </trkpt>
      <trkpt lat="43.73308" lon="1.4647">
        <ele>200.144577</ele>
        <time>2022-08-08T08:52:49.833Z</time>
      </trkpt>
      <trkpt lat="43.73314" lon="1.46455">
        <ele>200.141898</ele>
        <time>2022-08-08T08:52:53.800Z</time>
      </trkpt>
      <trkpt lat="43.73308" lon="1.46442">
        <ele>200.139509</ele>
        <time>2022-08-08T08:52:56.818Z</time>
      </trkpt>
      <trkpt lat="43.73307" lon="1.46428">
        <ele>200.137312</ele>
        <time>2022-08-08T08:52:58.810Z</time>
      </trkpt>
      <trkpt lat="43.73313" lon="1.46417">
        <ele>200.135091</ele>
        <time>2022-08-08T08:53:00.795Z</time>
      </trkpt>
      <trkpt lat="43.7332" lon="1.46404">
        <ele>200.132643</ele>
        <time>2022-08-08T08:53:02.809Z</time>
      </trkpt>
      <trkpt lat="43.73326" lon="1.46391">
        <ele>200.130201</ele>
        <time>2022-08-08T08:53:04.819Z</time>
      </trkpt>
      <trkpt lat="43.73332" lon="1.46378">
        <ele>200.127739</ele>
        <time>2022-08-08T08:53:06.825Z</time>
      </trkpt>
      <trkpt lat="43.73338" lon="1.46365">
        <ele>200.190704</ele>
        <time>2022-08-08T08:53:08.820Z</time>
      </trkpt>
      <trkpt lat="43.73344" lon="1.46352">
        <ele>200.295054</ele>
        <time>2022-08-08T08:53:10.819Z</time>
      </trkpt>
      <trkpt lat="43.7335" lon="1.46339">
        <ele>200.399485</ele>
        <time>2022-08-08T08:53:12.830Z</time>
      </trkpt>
      <trkpt lat="43.73356" lon="1.46326">
        <ele>200.502578</ele>
        <time>2022-08-08T08:53:14.815Z</time>
      </trkpt>
      <trkpt lat="43.73361" lon="1.46313">
        <ele>200.60477</ele>
        <time>2022-08-08T08:53:16.790Z</time>
      </trkpt>
      <trkpt lat="43.73366" lon="1.463">
        <ele>200.707116</ele>
        <time>2022-08-08T08:53:18.818Z</time>
      </trkpt>
      <trkpt lat="43.73367" lon="1.46284">
        <ele>200.815973</ele>
        <time>2022-08-08T08:53:20.831Z</time>
      </trkpt>
      <trkpt lat="43.73358" lon="1.46274">
        <ele>200.920206</ele>
        <time>2022-08-08T08:53:22.822Z</time>
      </trkpt>
      <trkpt lat="43.73348" lon="1.4627">
        <ele>201.021968</ele>
        <time>2022-08-08T08:53:24.823Z</time>
      </trkpt>
      <trkpt lat="43.73338" lon="1.46269">
        <ele>201.110906</ele>
        <time>2022-08-08T08:53:26.836Z</time>
      </trkpt>
      <trkpt lat="43.73325" lon="1.46267">
        <ele>201.23468</ele>
        <time>2022-08-08T08:53:29.839Z</time>
      </trkpt>
      <trkpt lat="43.73314" lon="1.46265">
        <ele>201.339234</ele>
        <time>2022-08-08T08:53:31.811Z</time>
      </trkpt>
      <trkpt lat="43.73303" lon="1.4626">
        <ele>201.445736</ele>
        <time>2022-08-08T08:53:33.823Z</time>
      </trkpt>
      <trkpt lat="43.73294" lon="1.46252">
        <ele>201.548961</ele>
        <time>2022-08-08T08:53:35.796Z</time>
      </trkpt>
      <trkpt lat="43.73287" lon="1.46241">
        <ele>201.651779</ele>
        <time>2022-08-08T08:53:37.806Z</time>
      </trkpt>
      <trkpt lat="43.7328" lon="1.46229">
        <ele>201.749875</ele>
        <time>2022-08-08T08:53:39.819Z</time>
      </trkpt>
      <trkpt lat="43.73276" lon="1.46215">
        <ele>201.869404</ele>
        <time>2022-08-08T08:53:41.828Z</time>
      </trkpt>
      <trkpt lat="43.73273" lon="1.46203">
        <ele>201.998461</ele>
        <time>2022-08-08T08:53:43.798Z</time>
      </trkpt>
      <trkpt lat="43.73266" lon="1.4619">
        <ele>202.152231</ele>
        <time>2022-08-08T08:53:46.812Z</time>
      </trkpt>
      <trkpt lat="43.73256" lon="1.46181">
        <ele>202.310229</ele>
        <time>2022-08-08T08:53:49.817Z</time>
      </trkpt>
      <trkpt lat="43.73245" lon="1.46186">
        <ele>202.46983</ele>
        <time>2022-08-08T08:53:52.816Z</time>
      </trkpt>
      <trkpt lat="43.73239" lon="1.46199">
        <ele>202.624623</ele>
        <time>2022-08-08T08:53:54.807Z</time>
      </trkpt>
      <trkpt lat="43.73234" lon="1.46212">
        <ele>202.770025</ele>
        <time>2022-08-08T08:53:56.810Z</time>
      </trkpt>
      <trkpt lat="43.7323" lon="1.46224">
        <ele>202.89947</ele>
        <time>2022-08-08T08:53:58.798Z</time>
      </trkpt>
      <trkpt lat="43.73224" lon="1.46235">
        <ele>203.02801</ele>
        <time>2022-08-08T08:54:00.812Z</time>
      </trkpt>
      <trkpt lat="43.73213" lon="1.46244">
        <ele>203.198804</ele>
        <time>2022-08-08T08:54:03.809Z</time>
      </trkpt>
      <trkpt lat="43.73201" lon="1.46237">
        <ele>203.373014</ele>
        <time>2022-08-08T08:54:06.807Z</time>
      </trkpt>
      <trkpt lat="43.73193" lon="1.46221">
        <ele>203.565415</ele>
        <time>2022-08-08T08:54:09.816Z</time>
      </trkpt>
      <trkpt lat="43.73185" lon="1.46209">
        <ele>203.720486</ele>
        <time>2022-08-08T08:54:11.813Z</time>
      </trkpt>
      <trkpt lat="43.73176" lon="1.46197">
        <ele>203.879751</ele>
        <time>2022-08-08T08:54:13.814Z</time>
      </trkpt>
      <trkpt lat="43.73168" lon="1.46187">
        <ele>204.033795</ele>
        <time>2022-08-08T08:54:15.831Z</time>
      </trkpt>
      <trkpt lat="43.73159" lon="1.46177">
        <ele>204.180734</ele>
        <time>2022-08-08T08:54:17.831Z</time>
      </trkpt>
      <trkpt lat="43.73152" lon="1.46165">
        <ele>204.307378</ele>
        <time>2022-08-08T08:54:19.807Z</time>
      </trkpt>
      <trkpt lat="43.73147" lon="1.46151">
        <ele>204.42325</ele>
        <time>2022-08-08T08:54:21.821Z</time>
      </trkpt>
      <trkpt lat="43.73138" lon="1.46141">
        <ele>204.537177</ele>
        <time>2022-08-08T08:54:23.795Z</time>
      </trkpt>
      <trkpt lat="43.73129" lon="1.46131">
        <ele>204.651124</ele>
        <time>2022-08-08T08:54:25.838Z</time>
      </trkpt>
      <trkpt lat="43.73121" lon="1.4612">
        <ele>204.760929</ele>
        <time>2022-08-08T08:54:27.815Z</time>
      </trkpt>
      <trkpt lat="43.73114" lon="1.4611">
        <ele>204.869819</ele>
        <time>2022-08-08T08:54:29.821Z</time>
      </trkpt>
      <trkpt lat="43.73106" lon="1.46099">
        <ele>204.978192</ele>
        <time>2022-08-08T08:54:31.809Z</time>
      </trkpt>
      <trkpt lat="43.73099" lon="1.46088">
        <ele>205.085683</ele>
        <time>2022-08-08T08:54:33.815Z</time>
      </trkpt>
      <trkpt lat="43.73094" lon="1.46074">
        <ele>205.192657</ele>
        <time>2022-08-08T08:54:35.810Z</time>
      </trkpt>
      <trkpt lat="43.73095" lon="1.46059">
        <ele>205.305429</ele>
        <time>2022-08-08T08:54:37.809Z</time>
      </trkpt>
      <trkpt lat="43.73089" lon="1.46047">
        <ele>205.406625</ele>
        <time>2022-08-08T08:54:39.812Z</time>
      </trkpt>
      <trkpt lat="43.7308" lon="1.46039">
        <ele>205.519801</ele>
        <time>2022-08-08T08:54:41.814Z</time>
      </trkpt>
      <trkpt lat="43.7307" lon="1.46036">
        <ele>205.615977</ele>
        <time>2022-08-08T08:54:43.815Z</time>
      </trkpt>
      <trkpt lat="43.73061" lon="1.46032">
        <ele>205.709667</ele>
        <time>2022-08-08T08:54:47.815Z</time>
      </trkpt>
      <trkpt lat="43.73064" lon="1.46017">
        <ele>205.819397</ele>
        <time>2022-08-08T08:54:52.806Z</time>
      </trkpt>
      <trkpt lat="43.7307" lon="1.46003">
        <ele>205.939863</ele>
        <time>2022-08-08T08:54:54.828Z</time>
      </trkpt>
      <trkpt lat="43.73075" lon="1.45988">
        <ele>206.101754</ele>
        <time>2022-08-08T08:54:56.804Z</time>
      </trkpt>
      <trkpt lat="43.73081" lon="1.45977">
        <ele>206.488505</ele>
        <time>2022-08-08T08:54:59.805Z</time>
      </trkpt>
      <trkpt lat="43.73087" lon="1.45964">
        <ele>206.879448</ele>
        <time>2022-08-08T08:55:02.805Z</time>
      </trkpt>
      <trkpt lat="43.73094" lon="1.45954">
        <ele>207.249991</ele>
        <time>2022-08-08T08:55:04.823Z</time>
      </trkpt>
      <trkpt lat="43.731" lon="1.45944">
        <ele>207.590127</ele>
        <time>2022-08-08T08:55:06.808Z</time>
      </trkpt>
      <trkpt lat="43.73105" lon="1.4593">
        <ele>207.99793</ele>
        <time>2022-08-08T08:55:09.795Z</time>
      </trkpt>
      <trkpt lat="43.73114" lon="1.45919">
        <ele>208.411448</ele>
        <time>2022-08-08T08:55:12.794Z</time>
      </trkpt>
      <trkpt lat="43.73122" lon="1.45906">
        <ele>208.889404</ele>
        <time>2022-08-08T08:55:16.800Z</time>
      </trkpt>
      <trkpt lat="43.73127" lon="1.45891">
        <ele>209.325383</ele>
        <time>2022-08-08T08:55:18.808Z</time>
      </trkpt>
      <trkpt lat="43.7313" lon="1.45878">
        <ele>209.667274</ele>
        <time>2022-08-08T08:55:21.787Z</time>
      </trkpt>
      <trkpt lat="43.73131" lon="1.45861">
        <ele>210.116106</ele>
        <time>2022-08-08T08:55:23.800Z</time>
      </trkpt>
      <trkpt lat="43.73129" lon="1.45849">
        <ele>210.452412</ele>
        <time>2022-08-08T08:55:25.792Z</time>
      </trkpt>
      <trkpt lat="43.73127" lon="1.45833">
        <ele>210.853516</ele>
        <time>2022-08-08T08:55:27.798Z</time>
      </trkpt>
      <trkpt lat="43.73123" lon="1.45821">
        <ele>211.233754</ele>
        <time>2022-08-08T08:55:30.794Z</time>
      </trkpt>
      <trkpt lat="43.73116" lon="1.45809">
        <ele>211.636149</ele>
        <time>2022-08-08T08:55:35.807Z</time>
      </trkpt>
      <trkpt lat="43.73119" lon="1.45794">
        <ele>212.037031</ele>
        <time>2022-08-08T08:55:39.798Z</time>
      </trkpt>
      <trkpt lat="43.73118" lon="1.45775">
        <ele>212.543006</ele>
        <time>2022-08-08T08:55:42.801Z</time>
      </trkpt>
      <trkpt lat="43.73115" lon="1.45763">
        <ele>212.621398</ele>
        <time>2022-08-08T08:55:45.802Z</time>
      </trkpt>
      <trkpt lat="43.73108" lon="1.45755">
        <ele>212.685827</ele>
        <time>2022-08-08T08:55:49.808Z</time>
      </trkpt>
      <trkpt lat="43.731" lon="1.45743">
        <ele>212.764919</ele>
        <time>2022-08-08T08:55:51.790Z</time>
      </trkpt>
      <trkpt lat="43.73105" lon="1.45728">
        <ele>212.84721</ele>
        <time>2022-08-08T08:55:56.793Z</time>
      </trkpt>
      <trkpt lat="43.73111" lon="1.45718">
        <ele>212.914238</ele>
        <time>2022-08-08T08:55:58.803Z</time>
      </trkpt>
      <trkpt lat="43.73121" lon="1.45702">
        <ele>213.019221</ele>
        <time>2022-08-08T08:56:01.803Z</time>
      </trkpt>
      <trkpt lat="43.73123" lon="1.45686">
        <ele>213.104292</ele>
        <time>2022-08-08T08:56:04.805Z</time>
      </trkpt>
      <trkpt lat="43.73126" lon="1.45673">
        <ele>213.170496</ele>
        <time>2022-08-08T08:56:07.797Z</time>
      </trkpt>
      <trkpt lat="43.73131" lon="1.45659">
        <ele>213.249805</ele>
        <time>2022-08-08T08:56:10.803Z</time>
      </trkpt>
      <trkpt lat="43.73136" lon="1.45648">
        <ele>213.315175</ele>
        <time>2022-08-08T08:56:12.803Z</time>
      </trkpt>
      <trkpt lat="43.73138" lon="1.45633">
        <ele>213.396452</ele>
        <time>2022-08-08T08:56:14.798Z</time>
      </trkpt>
      <trkpt lat="43.73146" lon="1.4562">
        <ele>213.479223</ele>
        <time>2022-08-08T08:56:16.824Z</time>
      </trkpt>
      <trkpt lat="43.73159" lon="1.4562">
        <ele>213.570413</ele>
        <time>2022-08-08T08:56:20.788Z</time>
      </trkpt>
      <trkpt lat="43.73169" lon="1.45616">
        <ele>213.644101</ele>
        <time>2022-08-08T08:56:27.800Z</time>
      </trkpt>
      <trkpt lat="43.73174" lon="1.45604">
        <ele>213.715867</ele>
        <time>2022-08-08T08:56:29.793Z</time>
      </trkpt>
      <trkpt lat="43.73182" lon="1.45592">
        <ele>213.79794</ele>
        <time>2022-08-08T08:56:31.796Z</time>
      </trkpt>
      <trkpt lat="43.7319" lon="1.45584">
        <ele>214.192833</ele>
        <time>2022-08-08T08:56:33.803Z</time>
      </trkpt>
      <trkpt lat="43.73183" lon="1.45569">
        <ele>214.909112</ele>
        <time>2022-08-08T08:56:39.789Z</time>
      </trkpt>
      <trkpt lat="43.73174" lon="1.4556">
        <ele>215.560565</ele>
        <time>2022-08-08T08:56:42.799Z</time>
      </trkpt>
      <trkpt lat="43.73164" lon="1.45549">
        <ele>216.282823</ele>
        <time>2022-08-08T08:56:45.809Z</time>
      </trkpt>
      <trkpt lat="43.7316" lon="1.45532">
        <ele>217.031392</ele>
        <time>2022-08-08T08:56:48.802Z</time>
      </trkpt>
      <trkpt lat="43.7316" lon="1.45519">
        <ele>217.575369</ele>
        <time>2022-08-08T08:56:50.798Z</time>
      </trkpt>
      <trkpt lat="43.73158" lon="1.45506">
        <ele>218.138249</ele>
        <time>2022-08-08T08:56:52.805Z</time>
      </trkpt>
      <trkpt lat="43.73154" lon="1.4549">
        <ele>218.84975</ele>
        <time>2022-08-08T08:56:54.825Z</time>
      </trkpt>
      <trkpt lat="43.73152" lon="1.45477">
        <ele>219.389466</ele>
        <time>2022-08-08T08:56:56.808Z</time>
      </trkpt>
      <trkpt lat="43.7315" lon="1.45461">
        <ele>220.076179</ele>
        <time>2022-08-08T08:56:59.808Z</time>
      </trkpt>
      <trkpt lat="43.73146" lon="1.45449">
        <ele>220.629133</ele>
        <time>2022-08-08T08:57:02.805Z</time>
      </trkpt>
      <trkpt lat="43.73139" lon="1.45439">
        <ele>221.233506</ele>
        <time>2022-08-08T08:57:05.797Z</time>
      </trkpt>
      <trkpt lat="43.73131" lon="1.4543">
        <ele>221.79848</ele>
        <time>2022-08-08T08:57:08.815Z</time>
      </trkpt>
      <trkpt lat="43.73124" lon="1.45419">
        <ele>222.452907</ele>
        <time>2022-08-08T08:57:11.799Z</time>
      </trkpt>
      <trkpt lat="43.73115" lon="1.45408">
        <ele>223.112667</ele>
        <time>2022-08-08T08:57:14.804Z</time>
      </trkpt>
      <trkpt lat="43.73107" lon="1.45396">
        <ele>223.821455</ele>
        <time>2022-08-08T08:57:17.794Z</time>
      </trkpt>
      <trkpt lat="43.73099" lon="1.45387">
        <ele>224.260035</ele>
        <time>2022-08-08T08:57:19.813Z</time>
      </trkpt>
      <trkpt lat="43.7309" lon="1.4538">
        <ele>224.366825</ele>
        <time>2022-08-08T08:57:23.803Z</time>
      </trkpt>
      <trkpt lat="43.73079" lon="1.45386">
        <ele>224.487482</ele>
        <time>2022-08-08T08:57:27.806Z</time>
      </trkpt>
      <trkpt lat="43.73069" lon="1.45392">
        <ele>224.59965</ele>
        <time>2022-08-08T08:57:30.782Z</time>
      </trkpt>
      <trkpt lat="43.73058" lon="1.45391">
        <ele>224.709388</ele>
        <time>2022-08-08T08:57:33.795Z</time>
      </trkpt>
      <trkpt lat="43.73048" lon="1.45382">
        <ele>224.838407</ele>
        <time>2022-08-08T08:57:36.794Z</time>
      </trkpt>
      <trkpt lat="43.73035" lon="1.4538">
        <ele>224.969188</ele>
        <time>2022-08-08T08:57:39.796Z</time>
      </trkpt>
      <trkpt lat="43.73026" lon="1.45382">
        <ele>225.065515</ele>
        <time>2022-08-08T08:57:41.819Z</time>
      </trkpt>
      <trkpt lat="43.73017" lon="1.45389">
        <ele>225.167585</ele>
        <time>2022-08-08T08:57:44.820Z</time>
      </trkpt>
      <trkpt lat="43.73023" lon="1.454">
        <ele>225.272293</ele>
        <time>2022-08-08T08:57:52.808Z</time>
      </trkpt>
      <trkpt lat="43.73029" lon="1.45413">
        <ele>225.389194</ele>
        <time>2022-08-08T08:57:56.817Z</time>
      </trkpt>
      <trkpt lat="43.73036" lon="1.45434">
        <ele>225.552255</ele>
        <time>2022-08-08T08:58:06.819Z</time>
      </trkpt>
      <trkpt lat="43.73043" lon="1.45446">
        <ele>225.668385</ele>
        <time>2022-08-08T08:58:15.796Z</time>
      </trkpt>
      <trkpt lat="43.73048" lon="1.45457">
        <ele>225.762423</ele>
        <time>2022-08-08T08:58:19.819Z</time>
      </trkpt>
      <trkpt lat="43.73046" lon="1.45471">
        <ele>225.867134</ele>
        <time>2022-08-08T08:58:24.797Z</time>
      </trkpt>
      <trkpt lat="43.73044" lon="1.45486">
        <ele>225.97958</ele>
        <time>2022-08-08T08:58:28.796Z</time>
      </trkpt>
      <trkpt lat="43.73048" lon="1.45498">
        <ele>226.035332</ele>
        <time>2022-08-08T08:58:31.796Z</time>
      </trkpt>
      <trkpt lat="43.73053" lon="1.45511">
        <ele>225.893403</ele>
        <time>2022-08-08T08:58:35.798Z</time>
      </trkpt>
      <trkpt lat="43.73058" lon="1.45526">
        <ele>225.734327</ele>
        <time>2022-08-08T08:58:38.809Z</time>
      </trkpt>
      <trkpt lat="43.73065" lon="1.45543">
        <ele>225.540042</ele>
        <time>2022-08-08T08:58:42.809Z</time>
      </trkpt>
      <trkpt lat="43.73066" lon="1.45557">
        <ele>225.397124</ele>
        <time>2022-08-08T08:58:46.823Z</time>
      </trkpt>
      <trkpt lat="43.73073" lon="1.45573">
        <ele>225.213359</ele>
        <time>2022-08-08T08:58:50.827Z</time>
      </trkpt>
      <trkpt lat="43.73079" lon="1.45589">
        <ele>225.027165</ele>
        <time>2022-08-08T08:58:53.805Z</time>
      </trkpt>
      <trkpt lat="43.73078" lon="1.45605">
        <ele>224.87411</ele>
        <time>2022-08-08T08:58:56.810Z</time>
      </trkpt>
      <trkpt lat="43.73081" lon="1.45619">
        <ele>224.723222</ele>
        <time>2022-08-08T08:59:00.820Z</time>
      </trkpt>
      <trkpt lat="43.73083" lon="1.45634">
        <ele>224.573322</ele>
        <time>2022-08-08T08:59:03.793Z</time>
      </trkpt>
      <trkpt lat="43.73084" lon="1.45649">
        <ele>224.426065</ele>
        <time>2022-08-08T08:59:06.812Z</time>
      </trkpt>
      <trkpt lat="43.73085" lon="1.45662">
        <ele>224.295645</ele>
        <time>2022-08-08T08:59:09.817Z</time>
      </trkpt>
      <trkpt lat="43.73086" lon="1.45677">
        <ele>224.138601</ele>
        <time>2022-08-08T08:59:12.812Z</time>
      </trkpt>
      <trkpt lat="43.73084" lon="1.45693">
        <ele>223.980732</ele>
        <time>2022-08-08T08:59:15.827Z</time>
      </trkpt>
      <trkpt lat="43.7308" lon="1.45704">
        <ele>223.854731</ele>
        <time>2022-08-08T08:59:18.816Z</time>
      </trkpt>
      <trkpt lat="43.73071" lon="1.45714">
        <ele>223.700829</ele>
        <time>2022-08-08T08:59:23.817Z</time>
      </trkpt>
      <trkpt lat="43.73063" lon="1.45722">
        <ele>223.646385</ele>
        <time>2022-08-08T08:59:27.821Z</time>
      </trkpt>
      <trkpt lat="43.73054" lon="1.4572">
        <ele>223.998195</ele>
        <time>2022-08-08T08:59:29.816Z</time>
      </trkpt>
      <trkpt lat="43.73043" lon="1.45717">
        <ele>224.429231</ele>
        <time>2022-08-08T08:59:32.822Z</time>
      </trkpt>
      <trkpt lat="43.73053" lon="1.45662">
        <ele>225.999398</ele>
        <time>2022-08-08T09:00:05.833Z</time>
      </trkpt>
      <trkpt lat="43.73055" lon="1.45648">
        <ele>226.40466</ele>
        <time>2022-08-08T09:00:07.819Z</time>
      </trkpt>
      <trkpt lat="43.73054" lon="1.45634">
        <ele>226.776536</ele>
        <time>2022-08-08T09:00:09.816Z</time>
      </trkpt>
      <trkpt lat="43.73048" lon="1.45625">
        <ele>227.125306</ele>
        <time>2022-08-08T09:00:11.798Z</time>
      </trkpt>
      <trkpt lat="43.7304" lon="1.45616">
        <ele>227.528583</ele>
        <time>2022-08-08T09:00:13.794Z</time>
      </trkpt>
      <trkpt lat="43.73031" lon="1.45607">
        <ele>227.943268</ele>
        <time>2022-08-08T09:00:15.785Z</time>
      </trkpt>
      <trkpt lat="43.73023" lon="1.45599">
        <ele>228.337531</ele>
        <time>2022-08-08T09:00:17.821Z</time>
      </trkpt>
      <trkpt lat="43.73014" lon="1.4559">
        <ele>228.752216</ele>
        <time>2022-08-08T09:00:19.801Z</time>
      </trkpt>
      <trkpt lat="43.73005" lon="1.45581">
        <ele>229.164907</ele>
        <time>2022-08-08T09:00:21.812Z</time>
      </trkpt>
      <trkpt lat="43.72996" lon="1.45573">
        <ele>229.581266</ele>
        <time>2022-08-08T09:00:23.824Z</time>
      </trkpt>
      <trkpt lat="43.72987" lon="1.45565">
        <ele>229.99305</ele>
        <time>2022-08-08T09:00:25.807Z</time>
      </trkpt>
      <trkpt lat="43.72978" lon="1.45556">
        <ele>230.428175</ele>
        <time>2022-08-08T09:00:27.816Z</time>
      </trkpt>
      <trkpt lat="43.72969" lon="1.4555">
        <ele>230.452995</ele>
        <time>2022-08-08T09:00:29.803Z</time>
      </trkpt>
      <trkpt lat="43.7296" lon="1.45543">
        <ele>230.45423</ele>
        <time>2022-08-08T09:00:31.834Z</time>
      </trkpt>
      <trkpt lat="43.72959" lon="1.45526">
        <ele>230.455796</ele>
        <time>2022-08-08T09:00:34.808Z</time>
      </trkpt>
      <trkpt lat="43.72963" lon="1.45512">
        <ele>230.457151</ele>
        <time>2022-08-08T09:00:36.820Z</time>
      </trkpt>
      <trkpt lat="43.72967" lon="1.45498">
        <ele>230.458531</ele>
        <time>2022-08-08T09:00:38.816Z</time>
      </trkpt>
      <trkpt lat="43.72972" lon="1.45485">
        <ele>230.459836</ele>
        <time>2022-08-08T09:00:40.817Z</time>
      </trkpt>
      <trkpt lat="43.72977" lon="1.45472">
        <ele>230.461145</ele>
        <time>2022-08-08T09:00:42.800Z</time>
      </trkpt>
      <trkpt lat="43.72977" lon="1.45459">
        <ele>230.46231</ele>
        <time>2022-08-08T09:00:44.813Z</time>
      </trkpt>
      <trkpt lat="43.72967" lon="1.45454">
        <ele>230.463677</ele>
        <time>2022-08-08T09:00:46.804Z</time>
      </trkpt>
      <trkpt lat="43.72956" lon="1.45449">
        <ele>230.465068</ele>
        <time>2022-08-08T09:00:48.804Z</time>
      </trkpt>
      <trkpt lat="43.72946" lon="1.45444">
        <ele>230.466386</ele>
        <time>2022-08-08T09:00:50.819Z</time>
      </trkpt>
      <trkpt lat="43.72936" lon="1.45443">
        <ele>230.467602</ele>
        <time>2022-08-08T09:00:52.807Z</time>
      </trkpt>
      <trkpt lat="43.72936" lon="1.45431">
        <ele>230.468741</ele>
        <time>2022-08-08T09:00:56.808Z</time>
      </trkpt>
      <trkpt lat="43.72907" lon="1.45399">
        <ele>230.473334</ele>
        <time>2022-08-08T09:01:43.808Z</time>
      </trkpt>
      <trkpt lat="43.72898" lon="1.45396">
        <ele>230.479173</ele>
        <time>2022-08-08T09:01:45.801Z</time>
      </trkpt>
      <trkpt lat="43.72889" lon="1.45392">
        <ele>230.505796</ele>
        <time>2022-08-08T09:01:47.798Z</time>
      </trkpt>
      <trkpt lat="43.72879" lon="1.4539">
        <ele>230.531752</ele>
        <time>2022-08-08T09:01:49.787Z</time>
      </trkpt>
      <trkpt lat="43.72868" lon="1.45388">
        <ele>230.564302</ele>
        <time>2022-08-08T09:01:52.802Z</time>
      </trkpt>
      <trkpt lat="43.72855" lon="1.45385">
        <ele>230.601144</ele>
        <time>2022-08-08T09:01:55.797Z</time>
      </trkpt>
      <trkpt lat="43.72844" lon="1.45377">
        <ele>230.63489</ele>
        <time>2022-08-08T09:01:58.804Z</time>
      </trkpt>
      <trkpt lat="43.72833" lon="1.4537">
        <ele>230.667986</ele>
        <time>2022-08-08T09:02:01.804Z</time>
      </trkpt>
      <trkpt lat="43.72826" lon="1.45362">
        <ele>230.693811</ele>
        <time>2022-08-08T09:02:04.801Z</time>
      </trkpt>
      <trkpt lat="43.72821" lon="1.45348">
        <ele>230.725503</ele>
        <time>2022-08-08T09:02:07.799Z</time>
      </trkpt>
      <trkpt lat="43.7282" lon="1.4533">
        <ele>230.761672</ele>
        <time>2022-08-08T09:02:11.802Z</time>
      </trkpt>
      <trkpt lat="43.72817" lon="1.45313">
        <ele>230.795977</ele>
        <time>2022-08-08T09:02:13.804Z</time>
      </trkpt>
      <trkpt lat="43.72813" lon="1.45297">
        <ele>230.828556</ele>
        <time>2022-08-08T09:02:15.804Z</time>
      </trkpt>
      <trkpt lat="43.72807" lon="1.45282">
        <ele>230.863814</ele>
        <time>2022-08-08T09:02:17.807Z</time>
      </trkpt>
      <trkpt lat="43.72805" lon="1.4527">
        <ele>230.889998</ele>
        <time>2022-08-08T09:02:21.808Z</time>
      </trkpt>
      <trkpt lat="43.72798" lon="1.45255">
        <ele>230.923827</ele>
        <time>2022-08-08T09:02:27.792Z</time>
      </trkpt>
      <trkpt lat="43.72802" lon="1.45223">
        <ele>230.947523</ele>
        <time>2022-08-08T09:02:33.789Z</time>
      </trkpt>
      <trkpt lat="43.72805" lon="1.45206">
        <ele>230.900029</ele>
        <time>2022-08-08T09:02:36.799Z</time>
      </trkpt>
      <trkpt lat="43.72807" lon="1.45193">
        <ele>230.86055</ele>
        <time>2022-08-08T09:02:38.811Z</time>
      </trkpt>
      <trkpt lat="43.7281" lon="1.45174">
        <ele>230.808019</ele>
        <time>2022-08-08T09:02:41.792Z</time>
      </trkpt>
      <trkpt lat="43.72818" lon="1.45157">
        <ele>230.750579</ele>
        <time>2022-08-08T09:02:45.790Z</time>
      </trkpt>
      <trkpt lat="43.72819" lon="1.45144">
        <ele>230.714446</ele>
        <time>2022-08-08T09:02:48.799Z</time>
      </trkpt>
      <trkpt lat="43.72827" lon="1.4513">
        <ele>230.663599</ele>
        <time>2022-08-08T09:02:51.797Z</time>
      </trkpt>
      <trkpt lat="43.72834" lon="1.45121">
        <ele>230.628006</ele>
        <time>2022-08-08T09:02:54.802Z</time>
      </trkpt>
      <trkpt lat="43.72845" lon="1.45084">
        <ele>230.514709</ele>
        <time>2022-08-08T09:03:01.816Z</time>
      </trkpt>
      <trkpt lat="43.72844" lon="1.4507">
        <ele>230.476136</ele>
        <time>2022-08-08T09:03:04.809Z</time>
      </trkpt>
      <trkpt lat="43.72855" lon="1.45046">
        <ele>230.395152</ele>
        <time>2022-08-08T09:03:09.802Z</time>
      </trkpt>
      <trkpt lat="43.72859" lon="1.45031">
        <ele>230.349536</ele>
        <time>2022-08-08T09:03:11.815Z</time>
      </trkpt>
      <trkpt lat="43.72865" lon="1.45019">
        <ele>230.309122</ele>
        <time>2022-08-08T09:03:14.817Z</time>
      </trkpt>
      <trkpt lat="43.72869" lon="1.45003">
        <ele>230.178444</ele>
        <time>2022-08-08T09:03:19.802Z</time>
      </trkpt>
      <trkpt lat="43.72874" lon="1.44991">
        <ele>229.881088</ele>
        <time>2022-08-08T09:03:22.818Z</time>
      </trkpt>
      <trkpt lat="43.72879" lon="1.44974">
        <ele>229.502771</ele>
        <time>2022-08-08T09:03:25.820Z</time>
      </trkpt>
      <trkpt lat="43.72882" lon="1.44958">
        <ele>229.16024</ele>
        <time>2022-08-08T09:03:27.808Z</time>
      </trkpt>
      <trkpt lat="43.72884" lon="1.44942">
        <ele>228.811792</ele>
        <time>2022-08-08T09:03:29.810Z</time>
      </trkpt>
      <trkpt lat="43.72878" lon="1.4493">
        <ele>228.505562</ele>
        <time>2022-08-08T09:03:31.797Z</time>
      </trkpt>
      <trkpt lat="43.72869" lon="1.44926">
        <ele>228.214011</ele>
        <time>2022-08-08T09:03:33.817Z</time>
      </trkpt>
      <trkpt lat="43.7286" lon="1.44921">
        <ele>227.946199</ele>
        <time>2022-08-08T09:03:36.811Z</time>
      </trkpt>
      <trkpt lat="43.72858" lon="1.44904">
        <ele>227.580984</ele>
        <time>2022-08-08T09:03:40.786Z</time>
      </trkpt>
      <trkpt lat="43.72858" lon="1.44889">
        <ele>227.265478</ele>
        <time>2022-08-08T09:03:43.799Z</time>
      </trkpt>
      <trkpt lat="43.72852" lon="1.4487">
        <ele>226.825309</ele>
        <time>2022-08-08T09:03:49.809Z</time>
      </trkpt>
      <trkpt lat="43.72847" lon="1.44859">
        <ele>226.558904</ele>
        <time>2022-08-08T09:03:52.808Z</time>
      </trkpt>
      <trkpt lat="43.72839" lon="1.44854">
        <ele>226.290157</ele>
        <time>2022-08-08T09:03:57.800Z</time>
      </trkpt>
      <trkpt lat="43.72829" lon="1.44842">
        <ele>225.911882</ele>
        <time>2022-08-08T09:04:00.800Z</time>
      </trkpt>
      <trkpt lat="43.72822" lon="1.4483">
        <ele>225.574661</ele>
        <time>2022-08-08T09:04:02.807Z</time>
      </trkpt>
      <trkpt lat="43.72818" lon="1.44816">
        <ele>225.25764</ele>
        <time>2022-08-08T09:04:06.809Z</time>
      </trkpt>
      <trkpt lat="43.72815" lon="1.44795">
        <ele>225.07507</ele>
        <time>2022-08-08T09:04:09.810Z</time>
      </trkpt>
      <trkpt lat="43.72812" lon="1.4478">
        <ele>225.200675</ele>
        <time>2022-08-08T09:04:12.805Z</time>
      </trkpt>
      <trkpt lat="43.72811" lon="1.44765">
        <ele>225.314647</ele>
        <time>2022-08-08T09:04:15.819Z</time>
      </trkpt>
      <trkpt lat="43.72809" lon="1.44751">
        <ele>225.423732</ele>
        <time>2022-08-08T09:04:17.807Z</time>
      </trkpt>
      <trkpt lat="43.72816" lon="1.4474">
        <ele>225.540157</ele>
        <time>2022-08-08T09:04:21.835Z</time>
      </trkpt>
      <trkpt lat="43.72822" lon="1.44727">
        <ele>225.65735</ele>
        <time>2022-08-08T09:04:25.810Z</time>
      </trkpt>
      <trkpt lat="43.72831" lon="1.4472">
        <ele>225.765014</ele>
        <time>2022-08-08T09:04:28.796Z</time>
      </trkpt>
      <trkpt lat="43.7284" lon="1.44711">
        <ele>225.886261</ele>
        <time>2022-08-08T09:04:30.830Z</time>
      </trkpt>
      <trkpt lat="43.72858" lon="1.44705">
        <ele>226.083335</ele>
        <time>2022-08-08T09:04:34.822Z</time>
      </trkpt>
      <trkpt lat="43.72867" lon="1.44714">
        <ele>226.202816</ele>
        <time>2022-08-08T09:04:41.834Z</time>
      </trkpt>
      <trkpt lat="43.72872" lon="1.44727">
        <ele>226.317329</ele>
        <time>2022-08-08T09:04:45.795Z</time>
      </trkpt>
      <trkpt lat="43.72879" lon="1.44738">
        <ele>226.431653</ele>
        <time>2022-08-08T09:04:49.823Z</time>
      </trkpt>
      <trkpt lat="43.72887" lon="1.44748">
        <ele>226.539867</ele>
        <time>2022-08-08T09:04:54.815Z</time>
      </trkpt>
      <trkpt lat="43.72892" lon="1.44759">
        <ele>226.643759</ele>
        <time>2022-08-08T09:04:57.822Z</time>
      </trkpt>
      <trkpt lat="43.729" lon="1.4477">
        <ele>226.760514</ele>
        <time>2022-08-08T09:05:00.808Z</time>
      </trkpt>
      <trkpt lat="43.72898" lon="1.44785">
        <ele>226.872557</ele>
        <time>2022-08-08T09:05:03.841Z</time>
      </trkpt>
      <trkpt lat="43.72898" lon="1.44804">
        <ele>227.027315</ele>
        <time>2022-08-08T09:05:07.833Z</time>
      </trkpt>
      <trkpt lat="43.72897" lon="1.44822">
        <ele>227.177472</ele>
        <time>2022-08-08T09:05:10.809Z</time>
      </trkpt>
      <trkpt lat="43.72901" lon="1.44836">
        <ele>227.296429</ele>
        <time>2022-08-08T09:05:13.825Z</time>
      </trkpt>
      <trkpt lat="43.72906" lon="1.44847">
        <ele>227.40566</ele>
        <time>2022-08-08T09:05:14.817Z</time>
      </trkpt>
      <trkpt lat="43.72908" lon="1.44862">
        <ele>227.526318</ele>
        <time>2022-08-08T09:05:17.820Z</time>
      </trkpt>
      <trkpt lat="43.7291" lon="1.44893">
        <ele>227.778626</ele>
        <time>2022-08-08T09:05:23.831Z</time>
      </trkpt>
      <trkpt lat="43.72907" lon="1.44907">
        <ele>227.896619</ele>
        <time>2022-08-08T09:05:26.811Z</time>
      </trkpt>
      <trkpt lat="43.72908" lon="1.4492">
        <ele>228.009808</ele>
        <time>2022-08-08T09:05:28.808Z</time>
      </trkpt>
      <trkpt lat="43.72904" lon="1.4494">
        <ele>228.175354</ele>
        <time>2022-08-08T09:05:32.819Z</time>
      </trkpt>
      <trkpt lat="43.72902" lon="1.44954">
        <ele>228.292118</ele>
        <time>2022-08-08T09:05:34.826Z</time>
      </trkpt>
      <trkpt lat="43.72902" lon="1.44966">
        <ele>228.395366</ele>
        <time>2022-08-08T09:05:36.842Z</time>
      </trkpt>
      <trkpt lat="43.72898" lon="1.44979">
        <ele>228.506197</ele>
        <time>2022-08-08T09:05:39.814Z</time>
      </trkpt>
      <trkpt lat="43.729" lon="1.45">
        <ele>228.684911</ele>
        <time>2022-08-08T09:05:43.807Z</time>
      </trkpt>
      <trkpt lat="43.729" lon="1.45014">
        <ele>228.799464</ele>
        <time>2022-08-08T09:05:45.836Z</time>
      </trkpt>
      <trkpt lat="43.72899" lon="1.45033">
        <ele>228.956149</ele>
        <time>2022-08-08T09:05:47.822Z</time>
      </trkpt>
      <trkpt lat="43.72896" lon="1.45046">
        <ele>228.72505</ele>
        <time>2022-08-08T09:05:49.808Z</time>
      </trkpt>
      <trkpt lat="43.72892" lon="1.45057">
        <ele>228.456928</ele>
        <time>2022-08-08T09:05:51.809Z</time>
      </trkpt>
      <trkpt lat="43.7289" lon="1.45081">
        <ele>227.971257</ele>
        <time>2022-08-08T09:05:54.825Z</time>
      </trkpt>
      <trkpt lat="43.72886" lon="1.45096">
        <ele>227.658395</ele>
        <time>2022-08-08T09:05:56.824Z</time>
      </trkpt>
      <trkpt lat="43.72884" lon="1.4511">
        <ele>227.372655</ele>
        <time>2022-08-08T09:05:58.818Z</time>
      </trkpt>
      <trkpt lat="43.72887" lon="1.45123">
        <ele>227.098235</ele>
        <time>2022-08-08T09:06:00.826Z</time>
      </trkpt>
      <trkpt lat="43.72888" lon="1.45142">
        <ele>226.7149</ele>
        <time>2022-08-08T09:06:03.817Z</time>
      </trkpt>
      <trkpt lat="43.72893" lon="1.45158">
        <ele>226.375486</ele>
        <time>2022-08-08T09:06:05.832Z</time>
      </trkpt>
      <trkpt lat="43.72892" lon="1.45171">
        <ele>226.098773</ele>
        <time>2022-08-08T09:06:08.825Z</time>
      </trkpt>
      <trkpt lat="43.72892" lon="1.45188">
        <ele>225.768086</ele>
        <time>2022-08-08T09:06:11.842Z</time>
      </trkpt>
      <trkpt lat="43.72895" lon="1.45201">
        <ele>225.47795</ele>
        <time>2022-08-08T09:06:20.795Z</time>
      </trkpt>
      <trkpt lat="43.729" lon="1.45225">
        <ele>224.982664</ele>
        <time>2022-08-08T09:06:28.814Z</time>
      </trkpt>
      <trkpt lat="43.72909" lon="1.45231">
        <ele>224.699762</ele>
        <time>2022-08-08T09:06:34.815Z</time>
      </trkpt>
      <trkpt lat="43.72921" lon="1.45233">
        <ele>224.365064</ele>
        <time>2022-08-08T09:06:38.837Z</time>
      </trkpt>
      <trkpt lat="43.72931" lon="1.45234">
        <ele>224.080306</ele>
        <time>2022-08-08T09:06:41.810Z</time>
      </trkpt>
      <trkpt lat="43.72946" lon="1.45235">
        <ele>223.605184</ele>
        <time>2022-08-08T09:06:44.807Z</time>
      </trkpt>
      <trkpt lat="43.72957" lon="1.45233">
        <ele>223.210813</ele>
        <time>2022-08-08T09:06:47.862Z</time>
      </trkpt>
      <trkpt lat="43.72968" lon="1.45235">
        <ele>222.849557</ele>
        <time>2022-08-08T09:06:50.809Z</time>
      </trkpt>
      <trkpt lat="43.72978" lon="1.45234">
        <ele>222.49856</ele>
        <time>2022-08-08T09:06:53.838Z</time>
      </trkpt>
      <trkpt lat="43.7299" lon="1.45237">
        <ele>222.098784</ele>
        <time>2022-08-08T09:06:57.807Z</time>
      </trkpt>
      <trkpt lat="43.73005" lon="1.45243">
        <ele>221.581791</ele>
        <time>2022-08-08T09:07:00.806Z</time>
      </trkpt>
      <trkpt lat="43.73017" lon="1.45244">
        <ele>221.175075</ele>
        <time>2022-08-08T09:07:03.813Z</time>
      </trkpt>
      <trkpt lat="43.73035" lon="1.4525">
        <ele>220.562529</ele>
        <time>2022-08-08T09:07:06.813Z</time>
      </trkpt>
      <trkpt lat="43.73055" lon="1.4526">
        <ele>219.824444</ele>
        <time>2022-08-08T09:07:09.811Z</time>
      </trkpt>
      <trkpt lat="43.73073" lon="1.45271">
        <ele>219.168764</ele>
        <time>2022-08-08T09:07:12.796Z</time>
      </trkpt>
      <trkpt lat="43.73081" lon="1.4528">
        <ele>218.820417</ele>
        <time>2022-08-08T09:07:14.788Z</time>
      </trkpt>
      <trkpt lat="43.73089" lon="1.45287">
        <ele>218.508263</ele>
        <time>2022-08-08T09:07:16.814Z</time>
      </trkpt>
      <trkpt lat="43.73098" lon="1.45287">
        <ele>218.190988</ele>
        <time>2022-08-08T09:07:19.796Z</time>
      </trkpt>
      <trkpt lat="43.73109" lon="1.45285">
        <ele>217.796355</ele>
        <time>2022-08-08T09:07:21.819Z</time>
      </trkpt>
      <trkpt lat="43.73118" lon="1.45285">
        <ele>217.225846</ele>
        <time>2022-08-08T09:07:25.793Z</time>
      </trkpt>
      <trkpt lat="43.73129" lon="1.45284">
        <ele>216.626058</ele>
        <time>2022-08-08T09:07:29.799Z</time>
      </trkpt>
      <trkpt lat="43.73139" lon="1.45283">
        <ele>216.008118</ele>
        <time>2022-08-08T09:07:33.808Z</time>
      </trkpt>
      <trkpt lat="43.73151" lon="1.45278">
        <ele>215.255815</ele>
        <time>2022-08-08T09:07:37.815Z</time>
      </trkpt>
      <trkpt lat="43.73163" lon="1.45272">
        <ele>214.5099</ele>
        <time>2022-08-08T09:07:40.823Z</time>
      </trkpt>
      <trkpt lat="43.73173" lon="1.45266">
        <ele>213.900171</ele>
        <time>2022-08-08T09:07:43.813Z</time>
      </trkpt>
      <trkpt lat="43.73185" lon="1.45262">
        <ele>213.169126</ele>
        <time>2022-08-08T09:07:46.808Z</time>
      </trkpt>
      <trkpt lat="43.73199" lon="1.45263">
        <ele>212.329426</ele>
        <time>2022-08-08T09:07:48.809Z</time>
      </trkpt>
      <trkpt lat="43.73218" lon="1.45259">
        <ele>211.223478</ele>
        <time>2022-08-08T09:07:50.811Z</time>
      </trkpt>
      <trkpt lat="43.7323" lon="1.45258">
        <ele>210.51309</ele>
        <time>2022-08-08T09:07:51.787Z</time>
      </trkpt>
      <trkpt lat="43.73242" lon="1.45258">
        <ele>209.808836</ele>
        <time>2022-08-08T09:07:53.826Z</time>
      </trkpt>
      <trkpt lat="43.73258" lon="1.45256">
        <ele>208.863934</ele>
        <time>2022-08-08T09:07:54.795Z</time>
      </trkpt>
      <trkpt lat="43.73269" lon="1.45255">
        <ele>208.229924</ele>
        <time>2022-08-08T09:07:55.804Z</time>
      </trkpt>
      <trkpt lat="43.73287" lon="1.45255">
        <ele>207.242696</ele>
        <time>2022-08-08T09:07:57.801Z</time>
      </trkpt>
      <trkpt lat="43.73303" lon="1.45252">
        <ele>206.773454</ele>
        <time>2022-08-08T09:07:59.797Z</time>
      </trkpt>
      <trkpt lat="43.73319" lon="1.4525">
        <ele>206.280685</ele>
        <time>2022-08-08T09:08:01.799Z</time>
      </trkpt>
      <trkpt lat="43.73334" lon="1.4525">
        <ele>205.832178</ele>
        <time>2022-08-08T09:08:03.805Z</time>
      </trkpt>
      <trkpt lat="43.73349" lon="1.4525">
        <ele>205.380473</ele>
        <time>2022-08-08T09:08:05.791Z</time>
      </trkpt>
      <trkpt lat="43.73363" lon="1.45249">
        <ele>204.946357</ele>
        <time>2022-08-08T09:08:07.805Z</time>
      </trkpt>
      <trkpt lat="43.73378" lon="1.45247">
        <ele>204.505827</ele>
        <time>2022-08-08T09:08:09.803Z</time>
      </trkpt>
      <trkpt lat="43.73392" lon="1.45246">
        <ele>204.083733</ele>
        <time>2022-08-08T09:08:11.800Z</time>
      </trkpt>
      <trkpt lat="43.73405" lon="1.45245">
        <ele>203.676897</ele>
        <time>2022-08-08T09:08:13.817Z</time>
      </trkpt>
      <trkpt lat="43.73419" lon="1.45245">
        <ele>203.249322</ele>
        <time>2022-08-08T09:08:15.806Z</time>
      </trkpt>
      <trkpt lat="43.73434" lon="1.45244">
        <ele>202.818432</ele>
        <time>2022-08-08T09:08:17.818Z</time>
      </trkpt>
      <trkpt lat="43.73447" lon="1.45243">
        <ele>202.411595</ele>
        <time>2022-08-08T09:08:19.799Z</time>
      </trkpt>
      <trkpt lat="43.73461" lon="1.45242">
        <ele>202.010536</ele>
        <time>2022-08-08T09:08:21.808Z</time>
      </trkpt>
      <trkpt lat="43.73474" lon="1.45241">
        <ele>201.690978</ele>
        <time>2022-08-08T09:08:23.804Z</time>
      </trkpt>
      <trkpt lat="43.73488" lon="1.45239">
        <ele>201.401577</ele>
        <time>2022-08-08T09:08:25.811Z</time>
      </trkpt>
      <trkpt lat="43.73501" lon="1.45237">
        <ele>201.113769</ele>
        <time>2022-08-08T09:08:27.793Z</time>
      </trkpt>
      <trkpt lat="43.73515" lon="1.45236">
        <ele>200.82399</ele>
        <time>2022-08-08T09:08:29.796Z</time>
      </trkpt>
      <trkpt lat="43.73528" lon="1.45233">
        <ele>200.533239</ele>
        <time>2022-08-08T09:08:31.806Z</time>
      </trkpt>
      <trkpt lat="43.73543" lon="1.45232">
        <ele>200.230778</ele>
        <time>2022-08-08T09:08:33.831Z</time>
      </trkpt>
      <trkpt lat="43.73556" lon="1.4523">
        <ele>199.937252</ele>
        <time>2022-08-08T09:08:35.806Z</time>
      </trkpt>
      <trkpt lat="43.7357" lon="1.45229">
        <ele>199.646037</ele>
        <time>2022-08-08T09:08:37.831Z</time>
      </trkpt>
      <trkpt lat="43.73584" lon="1.45228">
        <ele>199.350493</ele>
        <time>2022-08-08T09:08:39.799Z</time>
      </trkpt>
      <trkpt lat="43.73598" lon="1.45226">
        <ele>199.062963</ele>
        <time>2022-08-08T09:08:41.795Z</time>
      </trkpt>
      <trkpt lat="43.73611" lon="1.45224">
        <ele>198.774502</ele>
        <time>2022-08-08T09:08:43.813Z</time>
      </trkpt>
      <trkpt lat="43.73624" lon="1.45221">
        <ele>198.497165</ele>
        <time>2022-08-08T09:08:45.786Z</time>
      </trkpt>
      <trkpt lat="43.73636" lon="1.45223">
        <ele>198.246084</ele>
        <time>2022-08-08T09:08:47.793Z</time>
      </trkpt>
      <trkpt lat="43.73646" lon="1.45223">
        <ele>198.017578</ele>
        <time>2022-08-08T09:08:49.804Z</time>
      </trkpt>
      <trkpt lat="43.73657" lon="1.45222">
        <ele>197.783396</ele>
        <time>2022-08-08T09:08:56.794Z</time>
      </trkpt>
      <trkpt lat="43.73666" lon="1.45224">
        <ele>197.57302</ele>
        <time>2022-08-08T09:09:00.806Z</time>
      </trkpt>
      <trkpt lat="43.73676" lon="1.45231">
        <ele>197.32406</ele>
        <time>2022-08-08T09:09:03.818Z</time>
      </trkpt>
      <trkpt lat="43.73684" lon="1.45244">
        <ele>197.049623</ele>
        <time>2022-08-08T09:09:06.810Z</time>
      </trkpt>
      <trkpt lat="43.73687" lon="1.4526">
        <ele>196.787897</ele>
        <time>2022-08-08T09:09:09.820Z</time>
      </trkpt>
      <trkpt lat="43.73688" lon="1.45272">
        <ele>196.579781</ele>
        <time>2022-08-08T09:09:11.806Z</time>
      </trkpt>
      <trkpt lat="43.73691" lon="1.45286">
        <ele>196.35307</ele>
        <time>2022-08-08T09:09:13.814Z</time>
      </trkpt>
      <trkpt lat="43.73698" lon="1.45297">
        <ele>196.117809</ele>
        <time>2022-08-08T09:09:15.808Z</time>
      </trkpt>
      <trkpt lat="43.73707" lon="1.45303">
        <ele>195.89084</ele>
        <time>2022-08-08T09:09:17.810Z</time>
      </trkpt>
      <trkpt lat="43.73718" lon="1.45306">
        <ele>195.652528</ele>
        <time>2022-08-08T09:09:19.806Z</time>
      </trkpt>
      <trkpt lat="43.73729" lon="1.45311">
        <ele>195.393304</ele>
        <time>2022-08-08T09:09:21.806Z</time>
      </trkpt>
      <trkpt lat="43.73739" lon="1.45316">
        <ele>195.146192</ele>
        <time>2022-08-08T09:09:23.817Z</time>
      </trkpt>
      <trkpt lat="43.7375" lon="1.45322">
        <ele>194.891082</ele>
        <time>2022-08-08T09:09:25.785Z</time>
      </trkpt>
      <trkpt lat="43.73761" lon="1.45323">
        <ele>194.650706</ele>
        <time>2022-08-08T09:09:27.809Z</time>
      </trkpt>
      <trkpt lat="43.73772" lon="1.45327">
        <ele>194.396088</ele>
        <time>2022-08-08T09:09:29.803Z</time>
      </trkpt>
      <trkpt lat="43.73782" lon="1.45331">
        <ele>194.147613</ele>
        <time>2022-08-08T09:09:31.791Z</time>
      </trkpt>
      <trkpt lat="43.73793" lon="1.45335">
        <ele>193.923308</ele>
        <time>2022-08-08T09:09:33.820Z</time>
      </trkpt>
      <trkpt lat="43.73804" lon="1.45339">
        <ele>193.697543</ele>
        <time>2022-08-08T09:09:35.821Z</time>
      </trkpt>
      <trkpt lat="43.73816" lon="1.4534">
        <ele>193.472407</ele>
        <time>2022-08-08T09:09:37.820Z</time>
      </trkpt>
      <trkpt lat="43.73827" lon="1.45341">
        <ele>193.246493</ele>
        <time>2022-08-08T09:09:39.818Z</time>
      </trkpt>
      <trkpt lat="43.73839" lon="1.4534">
        <ele>193.012486</ele>
        <time>2022-08-08T09:09:41.801Z</time>
      </trkpt>
      <trkpt lat="43.73851" lon="1.45338">
        <ele>192.779817</ele>
        <time>2022-08-08T09:09:43.826Z</time>
      </trkpt>
      <trkpt lat="43.73863" lon="1.45335">
        <ele>192.543718</ele>
        <time>2022-08-08T09:09:45.821Z</time>
      </trkpt>
      <trkpt lat="43.73875" lon="1.45332">
        <ele>192.306708</ele>
        <time>2022-08-08T09:09:47.811Z</time>
      </trkpt>
      <trkpt lat="43.73886" lon="1.45329">
        <ele>192.076387</ele>
        <time>2022-08-08T09:09:49.814Z</time>
      </trkpt>
      <trkpt lat="43.73898" lon="1.45326">
        <ele>191.843271</ele>
        <time>2022-08-08T09:09:51.810Z</time>
      </trkpt>
      <trkpt lat="43.73909" lon="1.45322">
        <ele>191.608236</ele>
        <time>2022-08-08T09:09:53.808Z</time>
      </trkpt>
      <trkpt lat="43.73921" lon="1.4532">
        <ele>191.372687</ele>
        <time>2022-08-08T09:09:55.789Z</time>
      </trkpt>
      <trkpt lat="43.73933" lon="1.45322">
        <ele>191.138187</ele>
        <time>2022-08-08T09:09:57.816Z</time>
      </trkpt>
      <trkpt lat="43.73945" lon="1.45326">
        <ele>190.904219</ele>
        <time>2022-08-08T09:09:59.809Z</time>
      </trkpt>
      <trkpt lat="43.73956" lon="1.45333">
        <ele>190.672285</ele>
        <time>2022-08-08T09:10:01.830Z</time>
      </trkpt>
      <trkpt lat="43.73967" lon="1.4534">
        <ele>190.453425</ele>
        <time>2022-08-08T09:10:03.811Z</time>
      </trkpt>
      <trkpt lat="43.73978" lon="1.45347">
        <ele>190.261639</ele>
        <time>2022-08-08T09:10:05.828Z</time>
      </trkpt>
      <trkpt lat="43.73989" lon="1.45354">
        <ele>190.069865</ele>
        <time>2022-08-08T09:10:07.815Z</time>
      </trkpt>
      <trkpt lat="43.73999" lon="1.45361">
        <ele>189.883792</ele>
        <time>2022-08-08T09:10:09.815Z</time>
      </trkpt>
      <trkpt lat="43.7401" lon="1.45368">
        <ele>189.697207</ele>
        <time>2022-08-08T09:10:11.816Z</time>
      </trkpt>
      <trkpt lat="43.7402" lon="1.45376">
        <ele>189.513455</ele>
        <time>2022-08-08T09:10:13.818Z</time>
      </trkpt>
      <trkpt lat="43.7403" lon="1.45383">
        <ele>189.331114</ele>
        <time>2022-08-08T09:10:15.820Z</time>
      </trkpt>
      <trkpt lat="43.74041" lon="1.4539">
        <ele>189.145041</ele>
        <time>2022-08-08T09:10:17.816Z</time>
      </trkpt>
      <trkpt lat="43.74051" lon="1.45398">
        <ele>188.954588</ele>
        <time>2022-08-08T09:10:19.814Z</time>
      </trkpt>
      <trkpt lat="43.74062" lon="1.45405">
        <ele>188.760263</ele>
        <time>2022-08-08T09:10:21.823Z</time>
      </trkpt>
      <trkpt lat="43.74073" lon="1.45413">
        <ele>188.565752</ele>
        <time>2022-08-08T09:10:23.808Z</time>
      </trkpt>
      <trkpt lat="43.74084" lon="1.45422">
        <ele>188.371796</ele>
        <time>2022-08-08T09:10:25.817Z</time>
      </trkpt>
      <trkpt lat="43.74094" lon="1.4543">
        <ele>188.178832</ele>
        <time>2022-08-08T09:10:27.820Z</time>
      </trkpt>
      <trkpt lat="43.74104" lon="1.45439">
        <ele>187.990044</ele>
        <time>2022-08-08T09:10:29.806Z</time>
      </trkpt>
      <trkpt lat="43.74114" lon="1.45448">
        <ele>187.795884</ele>
        <time>2022-08-08T09:10:31.824Z</time>
      </trkpt>
      <trkpt lat="43.74124" lon="1.45457">
        <ele>187.562494</ele>
        <time>2022-08-08T09:10:33.835Z</time>
      </trkpt>
      <trkpt lat="43.74135" lon="1.45466">
        <ele>187.272463</ele>
        <time>2022-08-08T09:10:35.811Z</time>
      </trkpt>
      <trkpt lat="43.74145" lon="1.45474">
        <ele>186.979201</ele>
        <time>2022-08-08T09:10:37.819Z</time>
      </trkpt>
      <trkpt lat="43.74156" lon="1.45483">
        <ele>186.670836</ele>
        <time>2022-08-08T09:10:39.837Z</time>
      </trkpt>
      <trkpt lat="43.74168" lon="1.45492">
        <ele>186.348926</ele>
        <time>2022-08-08T09:10:41.840Z</time>
      </trkpt>
      <trkpt lat="43.7418" lon="1.45502">
        <ele>186.008243</ele>
        <time>2022-08-08T09:10:43.798Z</time>
      </trkpt>
      <trkpt lat="43.74192" lon="1.45512">
        <ele>185.656263</ele>
        <time>2022-08-08T09:10:45.817Z</time>
      </trkpt>
      <trkpt lat="43.74205" lon="1.45522">
        <ele>185.299598</ele>
        <time>2022-08-08T09:10:47.812Z</time>
      </trkpt>
      <trkpt lat="43.74218" lon="1.45533">
        <ele>184.934645</ele>
        <time>2022-08-08T09:10:49.832Z</time>
      </trkpt>
      <trkpt lat="43.74231" lon="1.45544">
        <ele>184.56787</ele>
        <time>2022-08-08T09:10:51.827Z</time>
      </trkpt>
      <trkpt lat="43.74244" lon="1.45555">
        <ele>184.20382</ele>
        <time>2022-08-08T09:10:53.832Z</time>
      </trkpt>
      <trkpt lat="43.74257" lon="1.45565">
        <ele>183.84598</ele>
        <time>2022-08-08T09:10:55.837Z</time>
      </trkpt>
      <trkpt lat="43.74269" lon="1.45575">
        <ele>183.488068</ele>
        <time>2022-08-08T09:10:57.828Z</time>
      </trkpt>
      <trkpt lat="43.74282" lon="1.45585">
        <ele>183.248381</ele>
        <time>2022-08-08T09:10:59.819Z</time>
      </trkpt>
      <trkpt lat="43.74293" lon="1.45595">
        <ele>183.102518</ele>
        <time>2022-08-08T09:11:01.835Z</time>
      </trkpt>
      <trkpt lat="43.74304" lon="1.45604">
        <ele>182.96623</ele>
        <time>2022-08-08T09:11:03.818Z</time>
      </trkpt>
      <trkpt lat="43.74314" lon="1.45613">
        <ele>182.832651</ele>
        <time>2022-08-08T09:11:05.829Z</time>
      </trkpt>
      <trkpt lat="43.74324" lon="1.45622">
        <ele>182.70178</ele>
        <time>2022-08-08T09:11:07.822Z</time>
      </trkpt>
      <trkpt lat="43.74334" lon="1.4563">
        <ele>182.574315</ele>
        <time>2022-08-08T09:11:09.806Z</time>
      </trkpt>
      <trkpt lat="43.74344" lon="1.45637">
        <ele>182.450673</ele>
        <time>2022-08-08T09:11:11.809Z</time>
      </trkpt>
      <trkpt lat="43.74355" lon="1.45643">
        <ele>182.324985</ele>
        <time>2022-08-08T09:11:13.808Z</time>
      </trkpt>
      <trkpt lat="43.74365" lon="1.45648">
        <ele>182.199138</ele>
        <time>2022-08-08T09:11:15.822Z</time>
      </trkpt>
      <trkpt lat="43.74376" lon="1.45654">
        <ele>182.07123</ele>
        <time>2022-08-08T09:11:17.847Z</time>
      </trkpt>
      <trkpt lat="43.74387" lon="1.45659">
        <ele>181.944651</ele>
        <time>2022-08-08T09:11:19.819Z</time>
      </trkpt>
      <trkpt lat="43.74398" lon="1.45663">
        <ele>181.816905</ele>
        <time>2022-08-08T09:11:21.831Z</time>
      </trkpt>
      <trkpt lat="43.74409" lon="1.45666">
        <ele>181.693984</ele>
        <time>2022-08-08T09:11:23.826Z</time>
      </trkpt>
      <trkpt lat="43.7442" lon="1.45669">
        <ele>181.57135</ele>
        <time>2022-08-08T09:11:25.827Z</time>
      </trkpt>
      <trkpt lat="43.74431" lon="1.45672">
        <ele>181.451245</ele>
        <time>2022-08-08T09:11:27.833Z</time>
      </trkpt>
      <trkpt lat="43.74441" lon="1.45675">
        <ele>181.329184</ele>
        <time>2022-08-08T09:11:29.825Z</time>
      </trkpt>
      <trkpt lat="43.74453" lon="1.4568">
        <ele>181.177253</ele>
        <time>2022-08-08T09:11:31.824Z</time>
      </trkpt>
      <trkpt lat="43.74465" lon="1.45687">
        <ele>181.001598</ele>
        <time>2022-08-08T09:11:33.827Z</time>
      </trkpt>
      <trkpt lat="43.7448" lon="1.45693">
        <ele>180.807861</ele>
        <time>2022-08-08T09:11:35.813Z</time>
      </trkpt>
      <trkpt lat="43.74494" lon="1.45698">
        <ele>180.61774</ele>
        <time>2022-08-08T09:11:37.809Z</time>
      </trkpt>
      <trkpt lat="43.74508" lon="1.457">
        <ele>180.43826</ele>
        <time>2022-08-08T09:11:39.820Z</time>
      </trkpt>
      <trkpt lat="43.7452" lon="1.45698">
        <ele>180.286241</ele>
        <time>2022-08-08T09:11:41.838Z</time>
      </trkpt>
      <trkpt lat="43.7453" lon="1.457">
        <ele>180.153094</ele>
        <time>2022-08-08T09:11:44.825Z</time>
      </trkpt>
      <trkpt lat="43.74536" lon="1.4569">
        <ele>180.034176</ele>
        <time>2022-08-08T09:11:47.841Z</time>
      </trkpt>
      <trkpt lat="43.74539" lon="1.45673">
        <ele>179.87249</ele>
        <time>2022-08-08T09:11:50.835Z</time>
      </trkpt>
      <trkpt lat="43.74542" lon="1.45659">
        <ele>179.73721</ele>
        <time>2022-08-08T09:11:52.849Z</time>
      </trkpt>
      <trkpt lat="43.74546" lon="1.45644">
        <ele>179.59156</ele>
        <time>2022-08-08T09:11:54.827Z</time>
      </trkpt>
      <trkpt lat="43.74549" lon="1.45629">
        <ele>179.44371</ele>
        <time>2022-08-08T09:11:56.817Z</time>
      </trkpt>
      <trkpt lat="43.74552" lon="1.45614">
        <ele>179.296535</ele>
        <time>2022-08-08T09:11:58.823Z</time>
      </trkpt>
      <trkpt lat="43.74555" lon="1.45599">
        <ele>179.155423</ele>
        <time>2022-08-08T09:12:00.808Z</time>
      </trkpt>
      <trkpt lat="43.74558" lon="1.45583">
        <ele>179.066329</ele>
        <time>2022-08-08T09:12:02.833Z</time>
      </trkpt>
      <trkpt lat="43.7456" lon="1.45566">
        <ele>179.116978</ele>
        <time>2022-08-08T09:12:04.809Z</time>
      </trkpt>
      <trkpt lat="43.74562" lon="1.45548">
        <ele>179.171467</ele>
        <time>2022-08-08T09:12:06.827Z</time>
      </trkpt>
      <trkpt lat="43.74565" lon="1.45529">
        <ele>179.227546</ele>
        <time>2022-08-08T09:12:08.850Z</time>
      </trkpt>
      <trkpt lat="43.74568" lon="1.45511">
        <ele>179.282681</ele>
        <time>2022-08-08T09:12:10.805Z</time>
      </trkpt>
      <trkpt lat="43.7457" lon="1.45493">
        <ele>179.33564</ele>
        <time>2022-08-08T09:12:12.816Z</time>
      </trkpt>
      <trkpt lat="43.74572" lon="1.45476">
        <ele>179.386369</ele>
        <time>2022-08-08T09:12:14.825Z</time>
      </trkpt>
      <trkpt lat="43.74575" lon="1.4546">
        <ele>179.433687</ele>
        <time>2022-08-08T09:12:16.816Z</time>
      </trkpt>
      <trkpt lat="43.74577" lon="1.45445">
        <ele>179.479274</ele>
        <time>2022-08-08T09:12:18.830Z</time>
      </trkpt>
      <trkpt lat="43.74578" lon="1.4543">
        <ele>179.524158</ele>
        <time>2022-08-08T09:12:20.821Z</time>
      </trkpt>
      <trkpt lat="43.74578" lon="1.45414">
        <ele>179.569152</ele>
        <time>2022-08-08T09:12:22.831Z</time>
      </trkpt>
      <trkpt lat="43.74579" lon="1.45399">
        <ele>179.614505</ele>
        <time>2022-08-08T09:12:24.830Z</time>
      </trkpt>
      <trkpt lat="43.74583" lon="1.45384">
        <ele>179.661942</ele>
        <time>2022-08-08T09:12:26.827Z</time>
      </trkpt>
      <trkpt lat="43.74589" lon="1.45371">
        <ele>179.707732</ele>
        <time>2022-08-08T09:12:28.833Z</time>
      </trkpt>
      <trkpt lat="43.74596" lon="1.45359">
        <ele>179.753779</ele>
        <time>2022-08-08T09:12:30.823Z</time>
      </trkpt>
      <trkpt lat="43.74602" lon="1.45345">
        <ele>179.764222</ele>
        <time>2022-08-08T09:12:32.819Z</time>
      </trkpt>
      <trkpt lat="43.74609" lon="1.45332">
        <ele>179.714587</ele>
        <time>2022-08-08T09:12:34.813Z</time>
      </trkpt>
      <trkpt lat="43.74616" lon="1.45319">
        <ele>179.663941</ele>
        <time>2022-08-08T09:12:36.806Z</time>
      </trkpt>
      <trkpt lat="43.74622" lon="1.45305">
        <ele>179.613274</ele>
        <time>2022-08-08T09:12:38.827Z</time>
      </trkpt>
      <trkpt lat="43.74629" lon="1.45291">
        <ele>179.5623</ele>
        <time>2022-08-08T09:12:40.830Z</time>
      </trkpt>
      <trkpt lat="43.74635" lon="1.45278">
        <ele>179.512225</ele>
        <time>2022-08-08T09:12:42.821Z</time>
      </trkpt>
      <trkpt lat="43.7464" lon="1.45264">
        <ele>179.462942</ele>
        <time>2022-08-08T09:12:44.846Z</time>
      </trkpt>
      <trkpt lat="43.74645" lon="1.45248">
        <ele>179.41175</ele>
        <time>2022-08-08T09:12:46.825Z</time>
      </trkpt>
      <trkpt lat="43.74649" lon="1.45233">
        <ele>179.360252</ele>
        <time>2022-08-08T09:12:48.808Z</time>
      </trkpt>
      <trkpt lat="43.74652" lon="1.45217">
        <ele>179.30944</ele>
        <time>2022-08-08T09:12:50.824Z</time>
      </trkpt>
      <trkpt lat="43.74653" lon="1.45201">
        <ele>179.259428</ele>
        <time>2022-08-08T09:12:52.836Z</time>
      </trkpt>
      <trkpt lat="43.74655" lon="1.45185">
        <ele>179.208833</ele>
        <time>2022-08-08T09:12:54.835Z</time>
      </trkpt>
      <trkpt lat="43.74657" lon="1.45168">
        <ele>179.157098</ele>
        <time>2022-08-08T09:12:56.844Z</time>
      </trkpt>
      <trkpt lat="43.74658" lon="1.45151">
        <ele>179.105362</ele>
        <time>2022-08-08T09:12:58.822Z</time>
      </trkpt>
      <trkpt lat="43.7466" lon="1.45135">
        <ele>179.053627</ele>
        <time>2022-08-08T09:13:00.837Z</time>
      </trkpt>
      <trkpt lat="43.74661" lon="1.45118">
        <ele>178.995665</ele>
        <time>2022-08-08T09:13:02.827Z</time>
      </trkpt>
      <trkpt lat="43.74661" lon="1.45102">
        <ele>178.912761</ele>
        <time>2022-08-08T09:13:04.832Z</time>
      </trkpt>
      <trkpt lat="43.74656" lon="1.45087">
        <ele>178.829592</ele>
        <time>2022-08-08T09:13:06.836Z</time>
      </trkpt>
      <trkpt lat="43.74651" lon="1.45073">
        <ele>178.744741</ele>
        <time>2022-08-08T09:13:08.826Z</time>
      </trkpt>
      <trkpt lat="43.74645" lon="1.45059">
        <ele>178.660987</ele>
        <time>2022-08-08T09:13:10.825Z</time>
      </trkpt>
      <trkpt lat="43.7464" lon="1.45044">
        <ele>178.578358</ele>
        <time>2022-08-08T09:13:12.829Z</time>
      </trkpt>
      <trkpt lat="43.74637" lon="1.45028">
        <ele>178.496404</ele>
        <time>2022-08-08T09:13:14.801Z</time>
      </trkpt>
      <trkpt lat="43.74638" lon="1.45012">
        <ele>178.413646</ele>
        <time>2022-08-08T09:13:16.844Z</time>
      </trkpt>
      <trkpt lat="43.74639" lon="1.44996">
        <ele>178.331545</ele>
        <time>2022-08-08T09:13:18.836Z</time>
      </trkpt>
      <trkpt lat="43.7464" lon="1.4498">
        <ele>178.248011</ele>
        <time>2022-08-08T09:13:20.827Z</time>
      </trkpt>
      <trkpt lat="43.74641" lon="1.44964">
        <ele>178.164816</ele>
        <time>2022-08-08T09:13:22.818Z</time>
      </trkpt>
      <trkpt lat="43.74643" lon="1.44948">
        <ele>178.080088</ele>
        <time>2022-08-08T09:13:24.822Z</time>
      </trkpt>
      <trkpt lat="43.74644" lon="1.44932">
        <ele>177.996307</ele>
        <time>2022-08-08T09:13:26.810Z</time>
      </trkpt>
      <trkpt lat="43.74645" lon="1.44916">
        <ele>177.914895</ele>
        <time>2022-08-08T09:13:28.833Z</time>
      </trkpt>
      <trkpt lat="43.74645" lon="1.449">
        <ele>177.834184</ele>
        <time>2022-08-08T09:13:30.816Z</time>
      </trkpt>
      <trkpt lat="43.74645" lon="1.44884">
        <ele>177.753971</ele>
        <time>2022-08-08T09:13:32.824Z</time>
      </trkpt>
      <trkpt lat="43.74646" lon="1.44869">
        <ele>177.744226</ele>
        <time>2022-08-08T09:13:34.808Z</time>
      </trkpt>
      <trkpt lat="43.74647" lon="1.44853">
        <ele>177.759232</ele>
        <time>2022-08-08T09:13:36.816Z</time>
      </trkpt>
      <trkpt lat="43.74647" lon="1.44837">
        <ele>177.773876</ele>
        <time>2022-08-08T09:13:38.815Z</time>
      </trkpt>
      <trkpt lat="43.74648" lon="1.44822">
        <ele>177.788446</ele>
        <time>2022-08-08T09:13:40.809Z</time>
      </trkpt>
      <trkpt lat="43.74648" lon="1.44807">
        <ele>177.80296</ele>
        <time>2022-08-08T09:13:42.823Z</time>
      </trkpt>
      <trkpt lat="43.74647" lon="1.44791">
        <ele>177.817803</ele>
        <time>2022-08-08T09:13:44.820Z</time>
      </trkpt>
      <trkpt lat="43.74647" lon="1.44776">
        <ele>177.832627</ele>
        <time>2022-08-08T09:13:46.824Z</time>
      </trkpt>
      <trkpt lat="43.74646" lon="1.4476">
        <ele>177.847728</ele>
        <time>2022-08-08T09:13:48.820Z</time>
      </trkpt>
      <trkpt lat="43.74646" lon="1.44744">
        <ele>177.863</ele>
        <time>2022-08-08T09:13:50.808Z</time>
      </trkpt>
      <trkpt lat="43.74645" lon="1.44728">
        <ele>177.878089</ele>
        <time>2022-08-08T09:13:52.811Z</time>
      </trkpt>
      <trkpt lat="43.74645" lon="1.44712">
        <ele>177.89298</ele>
        <time>2022-08-08T09:13:54.807Z</time>
      </trkpt>
      <trkpt lat="43.74646" lon="1.44696">
        <ele>177.908066</ele>
        <time>2022-08-08T09:13:56.819Z</time>
      </trkpt>
      <trkpt lat="43.74646" lon="1.4468">
        <ele>177.923466</ele>
        <time>2022-08-08T09:13:58.816Z</time>
      </trkpt>
      <trkpt lat="43.74648" lon="1.44664">
        <ele>177.938846</ele>
        <time>2022-08-08T09:14:00.819Z</time>
      </trkpt>
      <trkpt lat="43.7465" lon="1.44648">
        <ele>177.953923</ele>
        <time>2022-08-08T09:14:02.818Z</time>
      </trkpt>
      <trkpt lat="43.74652" lon="1.44633">
        <ele>177.968974</ele>
        <time>2022-08-08T09:14:04.806Z</time>
      </trkpt>
      <trkpt lat="43.74654" lon="1.44617">
        <ele>177.962176</ele>
        <time>2022-08-08T09:14:06.821Z</time>
      </trkpt>
      <trkpt lat="43.74655" lon="1.44601">
        <ele>177.955055</ele>
        <time>2022-08-08T09:14:08.808Z</time>
      </trkpt>
      <trkpt lat="43.74657" lon="1.44585">
        <ele>177.947828</ele>
        <time>2022-08-08T09:14:10.826Z</time>
      </trkpt>
      <trkpt lat="43.74659" lon="1.4457">
        <ele>177.940658</ele>
        <time>2022-08-08T09:14:12.812Z</time>
      </trkpt>
      <trkpt lat="43.74661" lon="1.44554">
        <ele>177.933564</ele>
        <time>2022-08-08T09:14:14.823Z</time>
      </trkpt>
      <trkpt lat="43.74663" lon="1.44539">
        <ele>177.926537</ele>
        <time>2022-08-08T09:14:16.820Z</time>
      </trkpt>
      <trkpt lat="43.74664" lon="1.44523">
        <ele>177.919461</ele>
        <time>2022-08-08T09:14:18.811Z</time>
      </trkpt>
      <trkpt lat="43.74666" lon="1.44507">
        <ele>177.912349</ele>
        <time>2022-08-08T09:14:20.824Z</time>
      </trkpt>
      <trkpt lat="43.74668" lon="1.44492">
        <ele>177.905255</ele>
        <time>2022-08-08T09:14:22.816Z</time>
      </trkpt>
      <trkpt lat="43.74669" lon="1.44476">
        <ele>177.898121</ele>
        <time>2022-08-08T09:14:24.810Z</time>
      </trkpt>
      <trkpt lat="43.7467" lon="1.4446">
        <ele>177.891016</ele>
        <time>2022-08-08T09:14:26.815Z</time>
      </trkpt>
      <trkpt lat="43.74669" lon="1.44444">
        <ele>177.883874</ele>
        <time>2022-08-08T09:14:28.795Z</time>
      </trkpt>
      <trkpt lat="43.74669" lon="1.44428">
        <ele>177.876779</ele>
        <time>2022-08-08T09:14:30.817Z</time>
      </trkpt>
      <trkpt lat="43.7467" lon="1.44413">
        <ele>177.869814</ele>
        <time>2022-08-08T09:14:32.801Z</time>
      </trkpt>
      <trkpt lat="43.7467" lon="1.44397">
        <ele>177.862798</ele>
        <time>2022-08-08T09:14:34.814Z</time>
      </trkpt>
      <trkpt lat="43.74671" lon="1.44382">
        <ele>177.852245</ele>
        <time>2022-08-08T09:14:36.837Z</time>
      </trkpt>
      <trkpt lat="43.74672" lon="1.44366">
        <ele>177.830247</ele>
        <time>2022-08-08T09:14:38.815Z</time>
      </trkpt>
      <trkpt lat="43.74673" lon="1.4435">
        <ele>177.808276</ele>
        <time>2022-08-08T09:14:40.805Z</time>
      </trkpt>
      <trkpt lat="43.74677" lon="1.44335">
        <ele>177.786376</ele>
        <time>2022-08-08T09:14:42.810Z</time>
      </trkpt>
      <trkpt lat="43.74682" lon="1.44321">
        <ele>177.764749</ele>
        <time>2022-08-08T09:14:44.821Z</time>
      </trkpt>
      <trkpt lat="43.74687" lon="1.44307">
        <ele>177.743402</ele>
        <time>2022-08-08T09:14:46.812Z</time>
      </trkpt>
      <trkpt lat="43.74693" lon="1.44294">
        <ele>177.721582</ele>
        <time>2022-08-08T09:14:48.824Z</time>
      </trkpt>
      <trkpt lat="43.74699" lon="1.4428">
        <ele>177.699927</ele>
        <time>2022-08-08T09:14:50.814Z</time>
      </trkpt>
      <trkpt lat="43.74705" lon="1.44267">
        <ele>177.678197</ele>
        <time>2022-08-08T09:14:52.817Z</time>
      </trkpt>
      <trkpt lat="43.74711" lon="1.44253">
        <ele>177.656042</ele>
        <time>2022-08-08T09:14:54.813Z</time>
      </trkpt>
      <trkpt lat="43.74717" lon="1.44239">
        <ele>177.633744</ele>
        <time>2022-08-08T09:14:56.811Z</time>
      </trkpt>
      <trkpt lat="43.74723" lon="1.44225">
        <ele>177.611231</ele>
        <time>2022-08-08T09:14:58.809Z</time>
      </trkpt>
      <trkpt lat="43.74729" lon="1.44212">
        <ele>177.588709</ele>
        <time>2022-08-08T09:15:00.820Z</time>
      </trkpt>
      <trkpt lat="43.74736" lon="1.44198">
        <ele>177.566271</ele>
        <time>2022-08-08T09:15:02.797Z</time>
      </trkpt>
      <trkpt lat="43.74742" lon="1.44184">
        <ele>177.544036</ele>
        <time>2022-08-08T09:15:04.825Z</time>
      </trkpt>
      <trkpt lat="43.74748" lon="1.44171">
        <ele>177.522237</ele>
        <time>2022-08-08T09:15:06.832Z</time>
      </trkpt>
      <trkpt lat="43.74754" lon="1.44158">
        <ele>177.477567</ele>
        <time>2022-08-08T09:15:08.833Z</time>
      </trkpt>
      <trkpt lat="43.7476" lon="1.44144">
        <ele>177.41616</ele>
        <time>2022-08-08T09:15:10.814Z</time>
      </trkpt>
      <trkpt lat="43.74766" lon="1.4413">
        <ele>177.354654</ele>
        <time>2022-08-08T09:15:12.812Z</time>
      </trkpt>
      <trkpt lat="43.74772" lon="1.44116">
        <ele>177.292102</ele>
        <time>2022-08-08T09:15:14.808Z</time>
      </trkpt>
      <trkpt lat="43.74778" lon="1.44101">
        <ele>177.229549</ele>
        <time>2022-08-08T09:15:16.800Z</time>
      </trkpt>
      <trkpt lat="43.74784" lon="1.44088">
        <ele>177.168639</ele>
        <time>2022-08-08T09:15:18.818Z</time>
      </trkpt>
      <trkpt lat="43.7479" lon="1.44074">
        <ele>177.107232</ele>
        <time>2022-08-08T09:15:20.820Z</time>
      </trkpt>
      <trkpt lat="43.74796" lon="1.4406">
        <ele>177.046103</ele>
        <time>2022-08-08T09:15:22.833Z</time>
      </trkpt>
      <trkpt lat="43.74802" lon="1.44047">
        <ele>176.985979</ele>
        <time>2022-08-08T09:15:24.817Z</time>
      </trkpt>
      <trkpt lat="43.74809" lon="1.44033">
        <ele>176.924931</ele>
        <time>2022-08-08T09:15:26.787Z</time>
      </trkpt>
      <trkpt lat="43.74815" lon="1.4402">
        <ele>176.863564</ele>
        <time>2022-08-08T09:15:28.805Z</time>
      </trkpt>
      <trkpt lat="43.74821" lon="1.44006">
        <ele>176.802274</ele>
        <time>2022-08-08T09:15:30.820Z</time>
      </trkpt>
      <trkpt lat="43.74828" lon="1.43993">
        <ele>176.740907</ele>
        <time>2022-08-08T09:15:32.813Z</time>
      </trkpt>
      <trkpt lat="43.74834" lon="1.43979">
        <ele>176.680746</ele>
        <time>2022-08-08T09:15:34.819Z</time>
      </trkpt>
      <trkpt lat="43.7484" lon="1.43966">
        <ele>176.62099</ele>
        <time>2022-08-08T09:15:36.805Z</time>
      </trkpt>
      <trkpt lat="43.74847" lon="1.43953">
        <ele>176.564866</ele>
        <time>2022-08-08T09:15:38.820Z</time>
      </trkpt>
      <trkpt lat="43.74853" lon="1.4394">
        <ele>176.5397</ele>
        <time>2022-08-08T09:15:40.822Z</time>
      </trkpt>
      <trkpt lat="43.7486" lon="1.43928">
        <ele>176.51453</ele>
        <time>2022-08-08T09:15:42.818Z</time>
      </trkpt>
      <trkpt lat="43.74867" lon="1.43915">
        <ele>176.489361</ele>
        <time>2022-08-08T09:15:44.820Z</time>
      </trkpt>
      <trkpt lat="43.74874" lon="1.43902">
        <ele>176.46394</ele>
        <time>2022-08-08T09:15:46.811Z</time>
      </trkpt>
      <trkpt lat="43.74881" lon="1.43888">
        <ele>176.438007</ele>
        <time>2022-08-08T09:15:48.818Z</time>
      </trkpt>
      <trkpt lat="43.74888" lon="1.43875">
        <ele>176.412318</ele>
        <time>2022-08-08T09:15:50.825Z</time>
      </trkpt>
      <trkpt lat="43.74895" lon="1.43862">
        <ele>176.386895</ele>
        <time>2022-08-08T09:15:52.808Z</time>
      </trkpt>
      <trkpt lat="43.74901" lon="1.43849">
        <ele>176.361337</ele>
        <time>2022-08-08T09:15:54.785Z</time>
      </trkpt>
      <trkpt lat="43.74908" lon="1.43835">
        <ele>176.33553</ele>
        <time>2022-08-08T09:15:56.821Z</time>
      </trkpt>
      <trkpt lat="43.74915" lon="1.43822">
        <ele>176.30971</ele>
        <time>2022-08-08T09:15:58.819Z</time>
      </trkpt>
      <trkpt lat="43.74921" lon="1.43808">
        <ele>176.284415</ele>
        <time>2022-08-08T09:16:00.791Z</time>
      </trkpt>
      <trkpt lat="43.74928" lon="1.43795">
        <ele>176.258979</ele>
        <time>2022-08-08T09:16:02.811Z</time>
      </trkpt>
      <trkpt lat="43.74934" lon="1.43782">
        <ele>176.23342</ele>
        <time>2022-08-08T09:16:04.811Z</time>
      </trkpt>
      <trkpt lat="43.74941" lon="1.43769">
        <ele>176.208254</ele>
        <time>2022-08-08T09:16:06.823Z</time>
      </trkpt>
      <trkpt lat="43.74948" lon="1.43756">
        <ele>176.183213</ele>
        <time>2022-08-08T09:16:08.823Z</time>
      </trkpt>
      <trkpt lat="43.74955" lon="1.43743">
        <ele>176.143364</ele>
        <time>2022-08-08T09:16:10.835Z</time>
      </trkpt>
      <trkpt lat="43.74961" lon="1.4373">
        <ele>176.097422</ele>
        <time>2022-08-08T09:16:12.827Z</time>
      </trkpt>
      <trkpt lat="43.74968" lon="1.43717">
        <ele>176.050776</ele>
        <time>2022-08-08T09:16:14.838Z</time>
      </trkpt>
      <trkpt lat="43.74975" lon="1.43704">
        <ele>176.003898</ele>
        <time>2022-08-08T09:16:16.820Z</time>
      </trkpt>
      <trkpt lat="43.74983" lon="1.43691">
        <ele>175.956707</ele>
        <time>2022-08-08T09:16:18.821Z</time>
      </trkpt>
      <trkpt lat="43.7499" lon="1.43678">
        <ele>175.910521</ele>
        <time>2022-08-08T09:16:20.812Z</time>
      </trkpt>
      <trkpt lat="43.74997" lon="1.43665">
        <ele>175.864343</ele>
        <time>2022-08-08T09:16:22.833Z</time>
      </trkpt>
      <trkpt lat="43.75004" lon="1.43653">
        <ele>175.818396</ele>
        <time>2022-08-08T09:16:24.816Z</time>
      </trkpt>
      <trkpt lat="43.7501" lon="1.43639">
        <ele>175.771749</ele>
        <time>2022-08-08T09:16:26.825Z</time>
      </trkpt>
      <trkpt lat="43.75017" lon="1.43626">
        <ele>175.724835</ele>
        <time>2022-08-08T09:16:28.836Z</time>
      </trkpt>
      <trkpt lat="43.75023" lon="1.43612">
        <ele>175.678498</ele>
        <time>2022-08-08T09:16:30.821Z</time>
      </trkpt>
      <trkpt lat="43.75029" lon="1.43598">
        <ele>175.631104</ele>
        <time>2022-08-08T09:16:32.823Z</time>
      </trkpt>
      <trkpt lat="43.75035" lon="1.43584">
        <ele>175.584428</ele>
        <time>2022-08-08T09:16:34.833Z</time>
      </trkpt>
      <trkpt lat="43.7504" lon="1.43569">
        <ele>175.537082</ele>
        <time>2022-08-08T09:16:36.835Z</time>
      </trkpt>
      <trkpt lat="43.75045" lon="1.43554">
        <ele>175.489908</ele>
        <time>2022-08-08T09:16:38.836Z</time>
      </trkpt>
      <trkpt lat="43.7505" lon="1.43539">
        <ele>175.486641</ele>
        <time>2022-08-08T09:16:40.826Z</time>
      </trkpt>
      <trkpt lat="43.75056" lon="1.43524">
        <ele>175.563725</ele>
        <time>2022-08-08T09:16:42.821Z</time>
      </trkpt>
      <trkpt lat="43.75061" lon="1.43509">
        <ele>175.641226</ele>
        <time>2022-08-08T09:16:44.817Z</time>
      </trkpt>
      <trkpt lat="43.75066" lon="1.43494">
        <ele>175.717478</ele>
        <time>2022-08-08T09:16:46.831Z</time>
      </trkpt>
      <trkpt lat="43.75072" lon="1.4348">
        <ele>175.793079</ele>
        <time>2022-08-08T09:16:48.845Z</time>
      </trkpt>
      <trkpt lat="43.75077" lon="1.43466">
        <ele>175.86929</ele>
        <time>2022-08-08T09:16:50.842Z</time>
      </trkpt>
      <trkpt lat="43.75083" lon="1.43451">
        <ele>175.94377</ele>
        <time>2022-08-08T09:16:52.858Z</time>
      </trkpt>
      <trkpt lat="43.75088" lon="1.43437">
        <ele>176.019039</ele>
        <time>2022-08-08T09:16:54.812Z</time>
      </trkpt>
      <trkpt lat="43.75093" lon="1.43422">
        <ele>176.095022</ele>
        <time>2022-08-08T09:16:56.840Z</time>
      </trkpt>
      <trkpt lat="43.75098" lon="1.43408">
        <ele>176.16858</ele>
        <time>2022-08-08T09:16:58.844Z</time>
      </trkpt>
      <trkpt lat="43.75103" lon="1.43396">
        <ele>176.230404</ele>
        <time>2022-08-08T09:17:00.830Z</time>
      </trkpt>
      <trkpt lat="43.75108" lon="1.43385">
        <ele>176.291415</ele>
        <time>2022-08-08T09:17:02.824Z</time>
      </trkpt>
      <trkpt lat="43.75113" lon="1.43369">
        <ele>176.371313</ele>
        <time>2022-08-08T09:17:04.827Z</time>
      </trkpt>
      <trkpt lat="43.75119" lon="1.43355">
        <ele>176.44946</ele>
        <time>2022-08-08T09:17:06.814Z</time>
      </trkpt>
      <trkpt lat="43.75124" lon="1.43341">
        <ele>176.52312</ele>
        <time>2022-08-08T09:17:08.856Z</time>
      </trkpt>
      <trkpt lat="43.7513" lon="1.43326">
        <ele>176.597901</ele>
        <time>2022-08-08T09:17:10.831Z</time>
      </trkpt>
      <trkpt lat="43.75135" lon="1.43315">
        <ele>176.663401</ele>
        <time>2022-08-08T09:17:12.821Z</time>
      </trkpt>
      <trkpt lat="43.75144" lon="1.43308">
        <ele>176.732668</ele>
        <time>2022-08-08T09:17:17.822Z</time>
      </trkpt>
      <trkpt lat="43.75145" lon="1.43294">
        <ele>176.800705</ele>
        <time>2022-08-08T09:17:21.865Z</time>
      </trkpt>
      <trkpt lat="43.75149" lon="1.43279">
        <ele>176.87559</ele>
        <time>2022-08-08T09:17:24.825Z</time>
      </trkpt>
      <trkpt lat="43.75155" lon="1.43268">
        <ele>176.946825</ele>
        <time>2022-08-08T09:17:26.838Z</time>
      </trkpt>
      <trkpt lat="43.75162" lon="1.43254">
        <ele>177.024735</ele>
        <time>2022-08-08T09:17:28.842Z</time>
      </trkpt>
      <trkpt lat="43.75168" lon="1.43242">
        <ele>177.099916</ele>
        <time>2022-08-08T09:17:30.823Z</time>
      </trkpt>
      <trkpt lat="43.75174" lon="1.4323">
        <ele>177.169958</ele>
        <time>2022-08-08T09:17:32.840Z</time>
      </trkpt>
      <trkpt lat="43.75179" lon="1.43218">
        <ele>177.238376</ele>
        <time>2022-08-08T09:17:34.830Z</time>
      </trkpt>
      <trkpt lat="43.75184" lon="1.43204">
        <ele>177.312854</ele>
        <time>2022-08-08T09:17:36.828Z</time>
      </trkpt>
      <trkpt lat="43.7519" lon="1.4319">
        <ele>177.390262</ele>
        <time>2022-08-08T09:17:38.822Z</time>
      </trkpt>
      <trkpt lat="43.75195" lon="1.43175">
        <ele>177.468251</ele>
        <time>2022-08-08T09:17:40.823Z</time>
      </trkpt>
      <trkpt lat="43.75199" lon="1.43162">
        <ele>177.541742</ele>
        <time>2022-08-08T09:17:42.837Z</time>
      </trkpt>
      <trkpt lat="43.75196" lon="1.43147">
        <ele>177.614423</ele>
        <time>2022-08-08T09:17:48.830Z</time>
      </trkpt>
      <trkpt lat="43.75187" lon="1.43141">
        <ele>177.686626</ele>
        <time>2022-08-08T09:17:50.825Z</time>
      </trkpt>
      <trkpt lat="43.75175" lon="1.43136">
        <ele>177.765267</ele>
        <time>2022-08-08T09:17:52.830Z</time>
      </trkpt>
      <trkpt lat="43.75164" lon="1.43132">
        <ele>177.867375</ele>
        <time>2022-08-08T09:17:54.837Z</time>
      </trkpt>
      <trkpt lat="43.75153" lon="1.43128">
        <ele>178.033945</ele>
        <time>2022-08-08T09:17:56.831Z</time>
      </trkpt>
      <trkpt lat="43.75142" lon="1.43123">
        <ele>178.200816</ele>
        <time>2022-08-08T09:17:58.823Z</time>
      </trkpt>
      <trkpt lat="43.75131" lon="1.43118">
        <ele>178.361223</ele>
        <time>2022-08-08T09:18:00.815Z</time>
      </trkpt>
      <trkpt lat="43.75121" lon="1.43112">
        <ele>178.515538</ele>
        <time>2022-08-08T09:18:02.830Z</time>
      </trkpt>
      <trkpt lat="43.75111" lon="1.43107">
        <ele>178.66927</ele>
        <time>2022-08-08T09:18:04.826Z</time>
      </trkpt>
      <trkpt lat="43.75101" lon="1.431">
        <ele>178.819282</ele>
        <time>2022-08-08T09:18:06.837Z</time>
      </trkpt>
      <trkpt lat="43.75093" lon="1.43091">
        <ele>178.967108</ele>
        <time>2022-08-08T09:18:08.837Z</time>
      </trkpt>
      <trkpt lat="43.75085" lon="1.43081">
        <ele>179.123648</ele>
        <time>2022-08-08T09:18:10.834Z</time>
      </trkpt>
      <trkpt lat="43.75077" lon="1.4307">
        <ele>179.286114</ele>
        <time>2022-08-08T09:18:12.836Z</time>
      </trkpt>
      <trkpt lat="43.75069" lon="1.43059">
        <ele>179.451002</ele>
        <time>2022-08-08T09:18:14.832Z</time>
      </trkpt>
      <trkpt lat="43.75061" lon="1.43047">
        <ele>179.619857</ele>
        <time>2022-08-08T09:18:16.832Z</time>
      </trkpt>
      <trkpt lat="43.75053" lon="1.43035">
        <ele>179.788199</ele>
        <time>2022-08-08T09:18:18.827Z</time>
      </trkpt>
      <trkpt lat="43.75044" lon="1.43024">
        <ele>179.955217</ele>
        <time>2022-08-08T09:18:20.829Z</time>
      </trkpt>
      <trkpt lat="43.75034" lon="1.43016">
        <ele>180.11535</ele>
        <time>2022-08-08T09:18:22.832Z</time>
      </trkpt>
      <trkpt lat="43.75024" lon="1.4301">
        <ele>180.275711</ele>
        <time>2022-08-08T09:18:24.822Z</time>
      </trkpt>
      <trkpt lat="43.75013" lon="1.43004">
        <ele>180.422672</ele>
        <time>2022-08-08T09:18:26.831Z</time>
      </trkpt>
      <trkpt lat="43.75003" lon="1.42998">
        <ele>180.540282</ele>
        <time>2022-08-08T09:18:28.824Z</time>
      </trkpt>
      <trkpt lat="43.74992" lon="1.42993">
        <ele>180.656301</ele>
        <time>2022-08-08T09:18:30.843Z</time>
      </trkpt>
      <trkpt lat="43.74981" lon="1.42988">
        <ele>180.773289</ele>
        <time>2022-08-08T09:18:32.836Z</time>
      </trkpt>
      <trkpt lat="43.74971" lon="1.4298">
        <ele>180.893246</ele>
        <time>2022-08-08T09:18:34.825Z</time>
      </trkpt>
      <trkpt lat="43.7496" lon="1.42973">
        <ele>181.020687</ele>
        <time>2022-08-08T09:18:36.826Z</time>
      </trkpt>
      <trkpt lat="43.74955" lon="1.42957">
        <ele>181.14821</ele>
        <time>2022-08-08T09:18:38.833Z</time>
      </trkpt>
      <trkpt lat="43.74952" lon="1.42941">
        <ele>181.268066</ele>
        <time>2022-08-08T09:18:40.824Z</time>
      </trkpt>
      <trkpt lat="43.7495" lon="1.42926">
        <ele>181.385671</ele>
        <time>2022-08-08T09:18:42.834Z</time>
      </trkpt>
      <trkpt lat="43.74947" lon="1.42911">
        <ele>181.501678</ele>
        <time>2022-08-08T09:18:44.838Z</time>
      </trkpt>
      <trkpt lat="43.74947" lon="1.42895">
        <ele>181.619177</ele>
        <time>2022-08-08T09:18:46.829Z</time>
      </trkpt>
      <trkpt lat="43.74948" lon="1.42879">
        <ele>181.737776</ele>
        <time>2022-08-08T09:18:48.837Z</time>
      </trkpt>
      <trkpt lat="43.74945" lon="1.42865">
        <ele>181.845837</ele>
        <time>2022-08-08T09:18:50.837Z</time>
      </trkpt>
      <trkpt lat="43.74934" lon="1.42861">
        <ele>181.964903</ele>
        <time>2022-08-08T09:18:52.824Z</time>
      </trkpt>
      <trkpt lat="43.74922" lon="1.4286">
        <ele>182.08847</ele>
        <time>2022-08-08T09:18:54.837Z</time>
      </trkpt>
      <trkpt lat="43.7491" lon="1.42861">
        <ele>182.209952</ele>
        <time>2022-08-08T09:18:56.816Z</time>
      </trkpt>
      <trkpt lat="43.74898" lon="1.42863">
        <ele>182.349409</ele>
        <time>2022-08-08T09:18:58.823Z</time>
      </trkpt>
      <trkpt lat="43.74887" lon="1.42865">
        <ele>182.494957</ele>
        <time>2022-08-08T09:19:00.836Z</time>
      </trkpt>
      <trkpt lat="43.74875" lon="1.42868">
        <ele>182.641852</ele>
        <time>2022-08-08T09:19:02.827Z</time>
      </trkpt>
      <trkpt lat="43.74863" lon="1.4287">
        <ele>182.787799</ele>
        <time>2022-08-08T09:19:04.821Z</time>
      </trkpt>
      <trkpt lat="43.74851" lon="1.42872">
        <ele>182.934013</ele>
        <time>2022-08-08T09:19:06.818Z</time>
      </trkpt>
      <trkpt lat="43.7484" lon="1.42872">
        <ele>183.076929</ele>
        <time>2022-08-08T09:19:08.814Z</time>
      </trkpt>
      <trkpt lat="43.74828" lon="1.42872">
        <ele>183.216244</ele>
        <time>2022-08-08T09:19:10.812Z</time>
      </trkpt>
      <trkpt lat="43.74817" lon="1.4287">
        <ele>183.357128</ele>
        <time>2022-08-08T09:19:12.808Z</time>
      </trkpt>
      <trkpt lat="43.74806" lon="1.42868">
        <ele>183.498658</ele>
        <time>2022-08-08T09:19:14.824Z</time>
      </trkpt>
      <trkpt lat="43.74794" lon="1.42865">
        <ele>183.639881</ele>
        <time>2022-08-08T09:19:16.812Z</time>
      </trkpt>
      <trkpt lat="43.74783" lon="1.42861">
        <ele>183.782567</ele>
        <time>2022-08-08T09:19:18.826Z</time>
      </trkpt>
      <trkpt lat="43.74772" lon="1.42857">
        <ele>183.922782</ele>
        <time>2022-08-08T09:19:20.816Z</time>
      </trkpt>
      <trkpt lat="43.74761" lon="1.42853">
        <ele>184.058827</ele>
        <time>2022-08-08T09:19:22.815Z</time>
      </trkpt>
      <trkpt lat="43.74751" lon="1.42846">
        <ele>184.204971</ele>
        <time>2022-08-08T09:19:24.811Z</time>
      </trkpt>
      <trkpt lat="43.7474" lon="1.42839">
        <ele>184.349613</ele>
        <time>2022-08-08T09:19:26.819Z</time>
      </trkpt>
      <trkpt lat="43.7473" lon="1.42833">
        <ele>184.516551</ele>
        <time>2022-08-08T09:19:28.808Z</time>
      </trkpt>
      <trkpt lat="43.74719" lon="1.42826">
        <ele>184.741777</ele>
        <time>2022-08-08T09:19:30.815Z</time>
      </trkpt>
      <trkpt lat="43.74709" lon="1.42819">
        <ele>184.977912</ele>
        <time>2022-08-08T09:19:32.811Z</time>
      </trkpt>
      <trkpt lat="43.74698" lon="1.42813">
        <ele>185.206743</ele>
        <time>2022-08-08T09:19:34.822Z</time>
      </trkpt>
      <trkpt lat="43.74688" lon="1.42806">
        <ele>185.439818</ele>
        <time>2022-08-08T09:19:36.825Z</time>
      </trkpt>
      <trkpt lat="43.74678" lon="1.42799">
        <ele>185.67235</ele>
        <time>2022-08-08T09:19:38.823Z</time>
      </trkpt>
      <trkpt lat="43.74667" lon="1.42792">
        <ele>185.903673</ele>
        <time>2022-08-08T09:19:40.808Z</time>
      </trkpt>
      <trkpt lat="43.74656" lon="1.42785">
        <ele>186.140443</ele>
        <time>2022-08-08T09:19:42.829Z</time>
      </trkpt>
      <trkpt lat="43.74646" lon="1.42778">
        <ele>186.370471</ele>
        <time>2022-08-08T09:19:44.820Z</time>
      </trkpt>
      <trkpt lat="43.74635" lon="1.42773">
        <ele>186.602248</ele>
        <time>2022-08-08T09:19:46.830Z</time>
      </trkpt>
      <trkpt lat="43.74625" lon="1.42766">
        <ele>186.83173</ele>
        <time>2022-08-08T09:19:48.816Z</time>
      </trkpt>
      <trkpt lat="43.74614" lon="1.4276">
        <ele>187.063778</ele>
        <time>2022-08-08T09:19:50.825Z</time>
      </trkpt>
      <trkpt lat="43.74603" lon="1.42754">
        <ele>187.292688</ele>
        <time>2022-08-08T09:19:52.820Z</time>
      </trkpt>
      <trkpt lat="43.74593" lon="1.42748">
        <ele>187.519755</ele>
        <time>2022-08-08T09:19:54.811Z</time>
      </trkpt>
      <trkpt lat="43.74583" lon="1.42742">
        <ele>187.745138</ele>
        <time>2022-08-08T09:19:56.804Z</time>
      </trkpt>
      <trkpt lat="43.74572" lon="1.42736">
        <ele>187.968668</ele>
        <time>2022-08-08T09:19:58.812Z</time>
      </trkpt>
      <trkpt lat="43.74566" lon="1.42725">
        <ele>188.115463</ele>
        <time>2022-08-08T09:20:00.824Z</time>
      </trkpt>
      <trkpt lat="43.74566" lon="1.4271">
        <ele>188.21979</ele>
        <time>2022-08-08T09:20:02.817Z</time>
      </trkpt>
      <trkpt lat="43.74568" lon="1.42695">
        <ele>188.327053</ele>
        <time>2022-08-08T09:20:04.814Z</time>
      </trkpt>
      <trkpt lat="43.74569" lon="1.4268">
        <ele>188.432775</ele>
        <time>2022-08-08T09:20:06.827Z</time>
      </trkpt>
      <trkpt lat="43.7457" lon="1.42665">
        <ele>188.539509</ele>
        <time>2022-08-08T09:20:08.821Z</time>
      </trkpt>
      <trkpt lat="43.74571" lon="1.4265">
        <ele>188.645456</ele>
        <time>2022-08-08T09:20:10.811Z</time>
      </trkpt>
      <trkpt lat="43.74572" lon="1.42634">
        <ele>188.752291</ele>
        <time>2022-08-08T09:20:12.827Z</time>
      </trkpt>
      <trkpt lat="43.74574" lon="1.42618">
        <ele>188.864901</ele>
        <time>2022-08-08T09:20:14.824Z</time>
      </trkpt>
      <trkpt lat="43.74575" lon="1.42603">
        <ele>188.971142</ele>
        <time>2022-08-08T09:20:16.817Z</time>
      </trkpt>
      <trkpt lat="43.74576" lon="1.42588">
        <ele>189.081111</ele>
        <time>2022-08-08T09:20:18.804Z</time>
      </trkpt>
      <trkpt lat="43.74577" lon="1.42572">
        <ele>189.189622</ele>
        <time>2022-08-08T09:20:20.809Z</time>
      </trkpt>
      <trkpt lat="43.74578" lon="1.42557">
        <ele>189.295872</ele>
        <time>2022-08-08T09:20:22.820Z</time>
      </trkpt>
      <trkpt lat="43.74579" lon="1.42542">
        <ele>189.403402</ele>
        <time>2022-08-08T09:20:24.822Z</time>
      </trkpt>
      <trkpt lat="43.74581" lon="1.42527">
        <ele>189.511418</ele>
        <time>2022-08-08T09:20:26.819Z</time>
      </trkpt>
      <trkpt lat="43.74583" lon="1.42511">
        <ele>189.618886</ele>
        <time>2022-08-08T09:20:28.786Z</time>
      </trkpt>
      <trkpt lat="43.74585" lon="1.42496">
        <ele>189.725145</ele>
        <time>2022-08-08T09:20:30.816Z</time>
      </trkpt>
      <trkpt lat="43.74587" lon="1.42482">
        <ele>189.82537</ele>
        <time>2022-08-08T09:20:32.802Z</time>
      </trkpt>
      <trkpt lat="43.74589" lon="1.42468">
        <ele>189.915163</ele>
        <time>2022-08-08T09:20:34.820Z</time>
      </trkpt>
      <trkpt lat="43.74592" lon="1.42454">
        <ele>190.004733</ele>
        <time>2022-08-08T09:20:36.816Z</time>
      </trkpt>
      <trkpt lat="43.74594" lon="1.4244">
        <ele>190.096646</ele>
        <time>2022-08-08T09:20:38.815Z</time>
      </trkpt>
      <trkpt lat="43.74594" lon="1.42426">
        <ele>190.187719</ele>
        <time>2022-08-08T09:20:40.834Z</time>
      </trkpt>
      <trkpt lat="43.74592" lon="1.42411">
        <ele>190.279995</ele>
        <time>2022-08-08T09:20:42.807Z</time>
      </trkpt>
      <trkpt lat="43.74585" lon="1.424">
        <ele>190.374166</ele>
        <time>2022-08-08T09:20:44.827Z</time>
      </trkpt>
      <trkpt lat="43.74577" lon="1.4239">
        <ele>190.469458</ele>
        <time>2022-08-08T09:20:46.822Z</time>
      </trkpt>
      <trkpt lat="43.74571" lon="1.42377">
        <ele>190.567946</ele>
        <time>2022-08-08T09:20:48.823Z</time>
      </trkpt>
      <trkpt lat="43.74569" lon="1.42362">
        <ele>190.663387</ele>
        <time>2022-08-08T09:20:50.827Z</time>
      </trkpt>
      <trkpt lat="43.74572" lon="1.42346">
        <ele>190.764268</ele>
        <time>2022-08-08T09:20:52.849Z</time>
      </trkpt>
      <trkpt lat="43.74576" lon="1.42331">
        <ele>190.865387</ele>
        <time>2022-08-08T09:20:54.824Z</time>
      </trkpt>
      <trkpt lat="43.74573" lon="1.42316">
        <ele>190.96172</ele>
        <time>2022-08-08T09:20:56.828Z</time>
      </trkpt>
      <trkpt lat="43.74568" lon="1.42301">
        <ele>191.062735</ele>
        <time>2022-08-08T09:20:58.836Z</time>
      </trkpt>
      <trkpt lat="43.74564" lon="1.42287">
        <ele>191.160007</ele>
        <time>2022-08-08T09:21:00.831Z</time>
      </trkpt>
      <trkpt lat="43.74563" lon="1.42272">
        <ele>191.255987</ele>
        <time>2022-08-08T09:21:02.853Z</time>
      </trkpt>
      <trkpt lat="43.74567" lon="1.42258">
        <ele>191.350084</ele>
        <time>2022-08-08T09:21:04.834Z</time>
      </trkpt>
      <trkpt lat="43.74573" lon="1.42243">
        <ele>191.442489</ele>
        <time>2022-08-08T09:21:06.824Z</time>
      </trkpt>
      <trkpt lat="43.74579" lon="1.42228">
        <ele>191.52567</ele>
        <time>2022-08-08T09:21:08.842Z</time>
      </trkpt>
      <trkpt lat="43.74585" lon="1.42213">
        <ele>191.612104</ele>
        <time>2022-08-08T09:21:10.827Z</time>
      </trkpt>
      <trkpt lat="43.74591" lon="1.422">
        <ele>191.694731</ele>
        <time>2022-08-08T09:21:12.815Z</time>
      </trkpt>
      <trkpt lat="43.74594" lon="1.42185">
        <ele>191.772636</ele>
        <time>2022-08-08T09:21:14.838Z</time>
      </trkpt>
      <trkpt lat="43.74589" lon="1.42171">
        <ele>191.851329</ele>
        <time>2022-08-08T09:21:16.847Z</time>
      </trkpt>
      <trkpt lat="43.74586" lon="1.42156">
        <ele>191.931091</ele>
        <time>2022-08-08T09:21:18.858Z</time>
      </trkpt>
      <trkpt lat="43.74583" lon="1.42141">
        <ele>192.011159</ele>
        <time>2022-08-08T09:21:20.849Z</time>
      </trkpt>
      <trkpt lat="43.74579" lon="1.42126">
        <ele>192.091018</ele>
        <time>2022-08-08T09:21:22.828Z</time>
      </trkpt>
      <trkpt lat="43.74576" lon="1.42111">
        <ele>192.170296</ele>
        <time>2022-08-08T09:21:24.835Z</time>
      </trkpt>
      <trkpt lat="43.74571" lon="1.42097">
        <ele>192.249383</ele>
        <time>2022-08-08T09:21:26.830Z</time>
      </trkpt>
      <trkpt lat="43.74561" lon="1.42091">
        <ele>192.323853</ele>
        <time>2022-08-08T09:21:28.826Z</time>
      </trkpt>
      <trkpt lat="43.74552" lon="1.42087">
        <ele>192.394653</ele>
        <time>2022-08-08T09:21:30.820Z</time>
      </trkpt>
      <trkpt lat="43.74542" lon="1.42083">
        <ele>192.46349</ele>
        <time>2022-08-08T09:21:32.824Z</time>
      </trkpt>
      <trkpt lat="43.74533" lon="1.42074">
        <ele>192.543558</ele>
        <time>2022-08-08T09:21:34.839Z</time>
      </trkpt>
      <trkpt lat="43.74525" lon="1.42066">
        <ele>192.612838</ele>
        <time>2022-08-08T09:21:36.819Z</time>
      </trkpt>
      <trkpt lat="43.74517" lon="1.4206">
        <ele>192.792009</ele>
        <time>2022-08-08T09:21:38.829Z</time>
      </trkpt>
      <trkpt lat="43.74508" lon="1.42054">
        <ele>193.026714</ele>
        <time>2022-08-08T09:21:40.823Z</time>
      </trkpt>
      <trkpt lat="43.745" lon="1.42045">
        <ele>193.290105</ele>
        <time>2022-08-08T09:21:42.842Z</time>
      </trkpt>
      <trkpt lat="43.74492" lon="1.42035">
        <ele>193.553497</ele>
        <time>2022-08-08T09:21:44.820Z</time>
      </trkpt>
      <trkpt lat="43.74483" lon="1.42028">
        <ele>193.814322</ele>
        <time>2022-08-08T09:21:46.805Z</time>
      </trkpt>
      <trkpt lat="43.74473" lon="1.42023">
        <ele>194.083649</ele>
        <time>2022-08-08T09:21:48.826Z</time>
      </trkpt>
      <trkpt lat="43.74463" lon="1.42017">
        <ele>194.373785</ele>
        <time>2022-08-08T09:21:50.810Z</time>
      </trkpt>
      <trkpt lat="43.74452" lon="1.42013">
        <ele>194.664395</ele>
        <time>2022-08-08T09:21:52.823Z</time>
      </trkpt>
      <trkpt lat="43.74441" lon="1.42009">
        <ele>194.94723</ele>
        <time>2022-08-08T09:21:54.824Z</time>
      </trkpt>
      <trkpt lat="43.7443" lon="1.42006">
        <ele>195.230255</ele>
        <time>2022-08-08T09:21:56.840Z</time>
      </trkpt>
      <trkpt lat="43.74419" lon="1.42002">
        <ele>195.519904</ele>
        <time>2022-08-08T09:21:58.818Z</time>
      </trkpt>
      <trkpt lat="43.74409" lon="1.41999">
        <ele>195.757013</ele>
        <time>2022-08-08T09:22:00.810Z</time>
      </trkpt>
      <trkpt lat="43.74399" lon="1.41999">
        <ele>196.024363</ele>
        <time>2022-08-08T09:22:02.821Z</time>
      </trkpt>
      <trkpt lat="43.74387" lon="1.42">
        <ele>196.316917</ele>
        <time>2022-08-08T09:22:04.830Z</time>
      </trkpt>
      <trkpt lat="43.74377" lon="1.42003">
        <ele>196.572047</ele>
        <time>2022-08-08T09:22:06.822Z</time>
      </trkpt>
      <trkpt lat="43.74368" lon="1.42007">
        <ele>196.829976</ele>
        <time>2022-08-08T09:22:08.815Z</time>
      </trkpt>
      <trkpt lat="43.74359" lon="1.42013">
        <ele>197.074934</ele>
        <time>2022-08-08T09:22:10.820Z</time>
      </trkpt>
      <trkpt lat="43.7435" lon="1.42017">
        <ele>197.584735</ele>
        <time>2022-08-08T09:22:12.835Z</time>
      </trkpt>
      <trkpt lat="43.74337" lon="1.42016">
        <ele>198.656482</ele>
        <time>2022-08-08T09:22:15.826Z</time>
      </trkpt>
      <trkpt lat="43.74327" lon="1.42013">
        <ele>199.428739</ele>
        <time>2022-08-08T09:22:17.807Z</time>
      </trkpt>
      <trkpt lat="43.74318" lon="1.4201">
        <ele>200.186117</ele>
        <time>2022-08-08T09:22:19.832Z</time>
      </trkpt>
      <trkpt lat="43.74305" lon="1.42001">
        <ele>201.284511</ele>
        <time>2022-08-08T09:22:22.831Z</time>
      </trkpt>
      <trkpt lat="43.74297" lon="1.41996">
        <ele>202.044543</ele>
        <time>2022-08-08T09:22:24.830Z</time>
      </trkpt>
      <trkpt lat="43.74284" lon="1.41991">
        <ele>203.055055</ele>
        <time>2022-08-08T09:22:27.817Z</time>
      </trkpt>
      <trkpt lat="43.74274" lon="1.41996">
        <ele>203.862159</ele>
        <time>2022-08-08T09:22:29.838Z</time>
      </trkpt>
      <trkpt lat="43.74261" lon="1.41998">
        <ele>204.909397</ele>
        <time>2022-08-08T09:22:32.826Z</time>
      </trkpt>
      <trkpt lat="43.74249" lon="1.41996">
        <ele>205.869306</ele>
        <time>2022-08-08T09:22:35.824Z</time>
      </trkpt>
      <trkpt lat="43.74238" lon="1.41991">
        <ele>206.778699</ele>
        <time>2022-08-08T09:22:38.832Z</time>
      </trkpt>
      <trkpt lat="43.74227" lon="1.41988">
        <ele>207.640627</ele>
        <time>2022-08-08T09:22:41.818Z</time>
      </trkpt>
      <trkpt lat="43.74218" lon="1.41985">
        <ele>208.389794</ele>
        <time>2022-08-08T09:22:43.801Z</time>
      </trkpt>
      <trkpt lat="43.74209" lon="1.41982">
        <ele>209.103186</ele>
        <time>2022-08-08T09:22:45.819Z</time>
      </trkpt>
      <trkpt lat="43.742" lon="1.41982">
        <ele>209.835434</ele>
        <time>2022-08-08T09:22:47.856Z</time>
      </trkpt>
      <trkpt lat="43.74189" lon="1.41988">
        <ele>210.745738</ele>
        <time>2022-08-08T09:22:50.832Z</time>
      </trkpt>
      <trkpt lat="43.74181" lon="1.41997">
        <ele>211.510641</ele>
        <time>2022-08-08T09:22:54.847Z</time>
      </trkpt>
      <trkpt lat="43.74171" lon="1.42003">
        <ele>212.171096</ele>
        <time>2022-08-08T09:22:57.825Z</time>
      </trkpt>
      <trkpt lat="43.74162" lon="1.42007">
        <ele>212.727479</ele>
        <time>2022-08-08T09:23:00.821Z</time>
      </trkpt>
      <trkpt lat="43.74153" lon="1.42011">
        <ele>213.29077</ele>
        <time>2022-08-08T09:23:03.834Z</time>
      </trkpt>
      <trkpt lat="43.74144" lon="1.42016">
        <ele>213.862633</ele>
        <time>2022-08-08T09:23:06.820Z</time>
      </trkpt>
      <trkpt lat="43.74135" lon="1.42021">
        <ele>214.428998</ele>
        <time>2022-08-08T09:23:08.829Z</time>
      </trkpt>
      <trkpt lat="43.74126" lon="1.42025">
        <ele>214.976687</ele>
        <time>2022-08-08T09:23:11.832Z</time>
      </trkpt>
      <trkpt lat="43.74115" lon="1.42026">
        <ele>215.642466</ele>
        <time>2022-08-08T09:23:15.822Z</time>
      </trkpt>
      <trkpt lat="43.74103" lon="1.42028">
        <ele>216.351816</ele>
        <time>2022-08-08T09:23:19.808Z</time>
      </trkpt>
      <trkpt lat="43.74093" lon="1.42033">
        <ele>216.95039</ele>
        <time>2022-08-08T09:23:22.832Z</time>
      </trkpt>
      <trkpt lat="43.74086" lon="1.42045">
        <ele>217.587662</ele>
        <time>2022-08-08T09:23:24.830Z</time>
      </trkpt>
      <trkpt lat="43.74078" lon="1.42051">
        <ele>218.16524</ele>
        <time>2022-08-08T09:23:26.798Z</time>
      </trkpt>
      <trkpt lat="43.74068" lon="1.42054">
        <ele>218.734099</ele>
        <time>2022-08-08T09:23:28.840Z</time>
      </trkpt>
      <trkpt lat="43.74058" lon="1.42056">
        <ele>219.326326</ele>
        <time>2022-08-08T09:23:30.833Z</time>
      </trkpt>
      <trkpt lat="43.74049" lon="1.42059">
        <ele>219.868995</ele>
        <time>2022-08-08T09:23:32.839Z</time>
      </trkpt>
      <trkpt lat="43.74037" lon="1.42064">
        <ele>220.623412</ele>
        <time>2022-08-08T09:23:35.806Z</time>
      </trkpt>
      <trkpt lat="43.74026" lon="1.42068">
        <ele>221.300512</ele>
        <time>2022-08-08T09:23:38.824Z</time>
      </trkpt>
      <trkpt lat="43.74014" lon="1.4207">
        <ele>221.93871</ele>
        <time>2022-08-08T09:23:41.829Z</time>
      </trkpt>
      <trkpt lat="43.74002" lon="1.42073">
        <ele>221.725394</ele>
        <time>2022-08-08T09:23:44.832Z</time>
      </trkpt>
      <trkpt lat="43.73989" lon="1.42079">
        <ele>221.485039</ele>
        <time>2022-08-08T09:23:47.817Z</time>
      </trkpt>
      <trkpt lat="43.7398" lon="1.42086">
        <ele>221.298522</ele>
        <time>2022-08-08T09:23:49.813Z</time>
      </trkpt>
      <trkpt lat="43.73972" lon="1.42091">
        <ele>221.132596</ele>
        <time>2022-08-08T09:23:51.807Z</time>
      </trkpt>
      <trkpt lat="43.73963" lon="1.42096">
        <ele>220.956927</ele>
        <time>2022-08-08T09:23:53.813Z</time>
      </trkpt>
      <trkpt lat="43.73955" lon="1.42105">
        <ele>220.778083</ele>
        <time>2022-08-08T09:23:55.819Z</time>
      </trkpt>
      <trkpt lat="43.73949" lon="1.42117">
        <ele>220.584161</ele>
        <time>2022-08-08T09:23:58.817Z</time>
      </trkpt>
      <trkpt lat="43.73959" lon="1.42128">
        <ele>220.35357</ele>
        <time>2022-08-08T09:24:01.825Z</time>
      </trkpt>
      <trkpt lat="43.73968" lon="1.42137">
        <ele>220.165735</ele>
        <time>2022-08-08T09:24:03.818Z</time>
      </trkpt>
      <trkpt lat="43.73976" lon="1.42145">
        <ele>219.978849</ele>
        <time>2022-08-08T09:24:05.823Z</time>
      </trkpt>
      <trkpt lat="43.73986" lon="1.42152">
        <ele>219.774387</ele>
        <time>2022-08-08T09:24:07.818Z</time>
      </trkpt>
      <trkpt lat="43.73995" lon="1.4216">
        <ele>219.584438</ele>
        <time>2022-08-08T09:24:09.798Z</time>
      </trkpt>
      <trkpt lat="43.74001" lon="1.42172">
        <ele>219.392802</ele>
        <time>2022-08-08T09:24:11.798Z</time>
      </trkpt>
      <trkpt lat="43.74008" lon="1.42185">
        <ele>219.185532</ele>
        <time>2022-08-08T09:24:13.817Z</time>
      </trkpt>
      <trkpt lat="43.74016" lon="1.42193">
        <ele>219.006958</ele>
        <time>2022-08-08T09:24:15.810Z</time>
      </trkpt>
      <trkpt lat="43.74025" lon="1.42194">
        <ele>218.837902</ele>
        <time>2022-08-08T09:24:17.817Z</time>
      </trkpt>
      <trkpt lat="43.74034" lon="1.42197">
        <ele>218.646389</ele>
        <time>2022-08-08T09:24:19.822Z</time>
      </trkpt>
      <trkpt lat="43.74042" lon="1.42209">
        <ele>218.34899</ele>
        <time>2022-08-08T09:24:21.802Z</time>
      </trkpt>
      <trkpt lat="43.74049" lon="1.42222">
        <ele>218.04076</ele>
        <time>2022-08-08T09:24:23.811Z</time>
      </trkpt>
      <trkpt lat="43.74052" lon="1.42237">
        <ele>217.739918</ele>
        <time>2022-08-08T09:24:25.810Z</time>
      </trkpt>
      <trkpt lat="43.74049" lon="1.42255">
        <ele>217.403156</ele>
        <time>2022-08-08T09:24:27.827Z</time>
      </trkpt>
      <trkpt lat="43.74044" lon="1.42272">
        <ele>217.046148</ele>
        <time>2022-08-08T09:24:29.830Z</time>
      </trkpt>
      <trkpt lat="43.74039" lon="1.42291">
        <ele>216.679153</ele>
        <time>2022-08-08T09:24:31.811Z</time>
      </trkpt>
      <trkpt lat="43.74036" lon="1.42305">
        <ele>216.398354</ele>
        <time>2022-08-08T09:24:33.815Z</time>
      </trkpt>
      <trkpt lat="43.74027" lon="1.42316">
        <ele>216.083811</ele>
        <time>2022-08-08T09:24:36.805Z</time>
      </trkpt>
      <trkpt lat="43.74018" lon="1.42323">
        <ele>215.816216</ele>
        <time>2022-08-08T09:24:39.821Z</time>
      </trkpt>
      <trkpt lat="43.74006" lon="1.42322">
        <ele>215.501362</ele>
        <time>2022-08-08T09:24:42.803Z</time>
      </trkpt>
      <trkpt lat="43.73993" lon="1.42325">
        <ele>215.152748</ele>
        <time>2022-08-08T09:24:45.808Z</time>
      </trkpt>
      <trkpt lat="43.73983" lon="1.42326">
        <ele>214.898672</ele>
        <time>2022-08-08T09:24:47.807Z</time>
      </trkpt>
      <trkpt lat="43.73973" lon="1.42327">
        <ele>214.637602</ele>
        <time>2022-08-08T09:24:49.824Z</time>
      </trkpt>
      <trkpt lat="43.73964" lon="1.42329">
        <ele>214.388208</ele>
        <time>2022-08-08T09:24:51.830Z</time>
      </trkpt>
      <trkpt lat="43.73952" lon="1.42338">
        <ele>214.057204</ele>
        <time>2022-08-08T09:24:54.812Z</time>
      </trkpt>
      <trkpt lat="43.73945" lon="1.42345">
        <ele>214.464412</ele>
        <time>2022-08-08T09:24:56.824Z</time>
      </trkpt>
      <trkpt lat="43.73937" lon="1.42354">
        <ele>214.909803</ele>
        <time>2022-08-08T09:24:58.832Z</time>
      </trkpt>
      <trkpt lat="43.73929" lon="1.42366">
        <ele>215.42812</ele>
        <time>2022-08-08T09:25:00.803Z</time>
      </trkpt>
      <trkpt lat="43.7392" lon="1.42377">
        <ele>215.943223</ele>
        <time>2022-08-08T09:25:02.815Z</time>
      </trkpt>
      <trkpt lat="43.7391" lon="1.42381">
        <ele>216.405723</ele>
        <time>2022-08-08T09:25:04.829Z</time>
      </trkpt>
      <trkpt lat="43.739" lon="1.42386">
        <ele>216.880847</ele>
        <time>2022-08-08T09:25:06.837Z</time>
      </trkpt>
      <trkpt lat="43.7389" lon="1.42392">
        <ele>217.3615</ele>
        <time>2022-08-08T09:25:08.809Z</time>
      </trkpt>
      <trkpt lat="43.73879" lon="1.42386">
        <ele>217.887437</ele>
        <time>2022-08-08T09:25:11.811Z</time>
      </trkpt>
      <trkpt lat="43.73869" lon="1.42378">
        <ele>218.38315</ele>
        <time>2022-08-08T09:25:14.804Z</time>
      </trkpt>
      <trkpt lat="43.73859" lon="1.42371">
        <ele>218.880476</ele>
        <time>2022-08-08T09:25:17.808Z</time>
      </trkpt>
      <trkpt lat="43.73848" lon="1.42373">
        <ele>219.372875</ele>
        <time>2022-08-08T09:25:20.801Z</time>
      </trkpt>
      <trkpt lat="43.73838" lon="1.42381">
        <ele>219.899568</ele>
        <time>2022-08-08T09:25:23.807Z</time>
      </trkpt>
      <trkpt lat="43.73828" lon="1.42379">
        <ele>220.358019</ele>
        <time>2022-08-08T09:25:27.816Z</time>
      </trkpt>
      <trkpt lat="43.73821" lon="1.4237">
        <ele>220.780785</ele>
        <time>2022-08-08T09:25:33.806Z</time>
      </trkpt>
      <trkpt lat="43.73812" lon="1.42368">
        <ele>221.190447</ele>
        <time>2022-08-08T09:25:37.830Z</time>
      </trkpt>
      <trkpt lat="43.73802" lon="1.42373">
        <ele>221.658162</ele>
        <time>2022-08-08T09:25:40.831Z</time>
      </trkpt>
      <trkpt lat="43.73794" lon="1.4238">
        <ele>222.019227</ele>
        <time>2022-08-08T09:25:42.815Z</time>
      </trkpt>
      <trkpt lat="43.73796" lon="1.42397">
        <ele>222.296195</ele>
        <time>2022-08-08T09:25:45.817Z</time>
      </trkpt>
      <trkpt lat="43.73802" lon="1.42408">
        <ele>222.527356</ele>
        <time>2022-08-08T09:25:47.820Z</time>
      </trkpt>
      <trkpt lat="43.73811" lon="1.42418">
        <ele>222.796595</ele>
        <time>2022-08-08T09:25:49.805Z</time>
      </trkpt>
      <trkpt lat="43.73813" lon="1.42433">
        <ele>223.044178</ele>
        <time>2022-08-08T09:25:52.811Z</time>
      </trkpt>
      <trkpt lat="43.73807" lon="1.42445">
        <ele>223.282185</ele>
        <time>2022-08-08T09:25:55.821Z</time>
      </trkpt>
      <trkpt lat="43.73796" lon="1.42437">
        <ele>223.573521</ele>
        <time>2022-08-08T09:25:58.822Z</time>
      </trkpt>
      <trkpt lat="43.73787" lon="1.4243">
        <ele>223.80726</ele>
        <time>2022-08-08T09:26:01.799Z</time>
      </trkpt>
      <trkpt lat="43.73777" lon="1.42421">
        <ele>224.087265</ele>
        <time>2022-08-08T09:26:04.822Z</time>
      </trkpt>
      <trkpt lat="43.73769" lon="1.42413">
        <ele>224.309499</ele>
        <time>2022-08-08T09:26:06.813Z</time>
      </trkpt>
      <trkpt lat="43.73763" lon="1.424">
        <ele>224.562302</ele>
        <time>2022-08-08T09:26:08.819Z</time>
      </trkpt>
      <trkpt lat="43.73753" lon="1.42388">
        <ele>224.868785</ele>
        <time>2022-08-08T09:26:11.826Z</time>
      </trkpt>
      <trkpt lat="43.73743" lon="1.42389">
        <ele>225.091273</ele>
        <time>2022-08-08T09:26:13.835Z</time>
      </trkpt>
      <trkpt lat="43.73732" lon="1.42394">
        <ele>225.368328</ele>
        <time>2022-08-08T09:26:15.827Z</time>
      </trkpt>
      <trkpt lat="43.7372" lon="1.42395">
        <ele>225.636161</ele>
        <time>2022-08-08T09:26:17.814Z</time>
      </trkpt>
      <trkpt lat="43.73709" lon="1.42397">
        <ele>225.892243</ele>
        <time>2022-08-08T09:26:19.845Z</time>
      </trkpt>
      <trkpt lat="43.737" lon="1.424">
        <ele>226.111164</ele>
        <time>2022-08-08T09:26:21.810Z</time>
      </trkpt>
      <trkpt lat="43.73691" lon="1.42407">
        <ele>226.189748</ele>
        <time>2022-08-08T09:26:23.833Z</time>
      </trkpt>
      <trkpt lat="43.73683" lon="1.42411">
        <ele>226.254479</ele>
        <time>2022-08-08T09:26:25.838Z</time>
      </trkpt>
      <trkpt lat="43.73674" lon="1.42423">
        <ele>226.343548</ele>
        <time>2022-08-08T09:26:27.819Z</time>
      </trkpt>
      <trkpt lat="43.73667" lon="1.42438">
        <ele>226.435115</ele>
        <time>2022-08-08T09:26:29.829Z</time>
      </trkpt>
      <trkpt lat="43.73659" lon="1.42451">
        <ele>226.519561</ele>
        <time>2022-08-08T09:26:31.836Z</time>
      </trkpt>
      <trkpt lat="43.7365" lon="1.42457">
        <ele>226.597495</ele>
        <time>2022-08-08T09:26:33.825Z</time>
      </trkpt>
      <trkpt lat="43.7364" lon="1.42462">
        <ele>226.667652</ele>
        <time>2022-08-08T09:26:35.830Z</time>
      </trkpt>
      <trkpt lat="43.7364" lon="1.42448">
        <ele>226.738736</ele>
        <time>2022-08-08T09:26:43.815Z</time>
      </trkpt>
      <trkpt lat="43.73632" lon="1.42436">
        <ele>226.81815</ele>
        <time>2022-08-08T09:26:46.821Z</time>
      </trkpt>
      <trkpt lat="43.73626" lon="1.42427">
        <ele>226.884714</ele>
        <time>2022-08-08T09:26:48.838Z</time>
      </trkpt>
      <trkpt lat="43.73619" lon="1.42416">
        <ele>226.962221</ele>
        <time>2022-08-08T09:26:50.800Z</time>
      </trkpt>
      <trkpt lat="43.73613" lon="1.42404">
        <ele>227.036987</ele>
        <time>2022-08-08T09:26:52.826Z</time>
      </trkpt>
      <trkpt lat="43.73609" lon="1.42389">
        <ele>227.120595</ele>
        <time>2022-08-08T09:26:54.833Z</time>
      </trkpt>
      <trkpt lat="43.73612" lon="1.42372">
        <ele>227.209628</ele>
        <time>2022-08-08T09:26:56.825Z</time>
      </trkpt>
      <trkpt lat="43.73618" lon="1.4236">
        <ele>227.288192</ele>
        <time>2022-08-08T09:26:58.817Z</time>
      </trkpt>
      <trkpt lat="43.73625" lon="1.42349">
        <ele>227.359775</ele>
        <time>2022-08-08T09:27:00.828Z</time>
      </trkpt>
      <trkpt lat="43.7363" lon="1.42337">
        <ele>227.415024</ele>
        <time>2022-08-08T09:27:02.808Z</time>
      </trkpt>
      <trkpt lat="43.73637" lon="1.42326">
        <ele>227.44109</ele>
        <time>2022-08-08T09:27:04.825Z</time>
      </trkpt>
      <trkpt lat="43.73646" lon="1.42316">
        <ele>227.467826</ele>
        <time>2022-08-08T09:27:06.826Z</time>
      </trkpt>
      <trkpt lat="43.73652" lon="1.42303">
        <ele>227.494392</ele>
        <time>2022-08-08T09:27:08.836Z</time>
      </trkpt>
      <trkpt lat="43.73651" lon="1.42288">
        <ele>227.520037</ele>
        <time>2022-08-08T09:27:10.834Z</time>
      </trkpt>
      <trkpt lat="43.73644" lon="1.42275">
        <ele>227.545782</ele>
        <time>2022-08-08T09:27:12.837Z</time>
      </trkpt>
      <trkpt lat="43.73639" lon="1.42259">
        <ele>227.575457</ele>
        <time>2022-08-08T09:27:14.832Z</time>
      </trkpt>
      <trkpt lat="43.73641" lon="1.42243">
        <ele>227.602661</ele>
        <time>2022-08-08T09:27:16.829Z</time>
      </trkpt>
      <trkpt lat="43.7365" lon="1.42234">
        <ele>227.628396</ele>
        <time>2022-08-08T09:27:18.845Z</time>
      </trkpt>
      <trkpt lat="43.73659" lon="1.42228">
        <ele>227.65242</ele>
        <time>2022-08-08T09:27:20.821Z</time>
      </trkpt>
      <trkpt lat="43.73666" lon="1.4222">
        <ele>227.674285</ele>
        <time>2022-08-08T09:27:22.806Z</time>
      </trkpt>
      <trkpt lat="43.73675" lon="1.42208">
        <ele>227.701805</ele>
        <time>2022-08-08T09:27:24.813Z</time>
      </trkpt>
      <trkpt lat="43.73684" lon="1.42196">
        <ele>227.730702</ele>
        <time>2022-08-08T09:27:26.835Z</time>
      </trkpt>
      <trkpt lat="43.73694" lon="1.42184">
        <ele>227.76096</ele>
        <time>2022-08-08T09:27:28.838Z</time>
      </trkpt>
      <trkpt lat="43.73704" lon="1.42172">
        <ele>227.792095</ele>
        <time>2022-08-08T09:27:30.857Z</time>
      </trkpt>
      <trkpt lat="43.73716" lon="1.42162">
        <ele>227.824759</ele>
        <time>2022-08-08T09:27:32.829Z</time>
      </trkpt>
      <trkpt lat="43.73727" lon="1.42152">
        <ele>227.582515</ele>
        <time>2022-08-08T09:27:34.808Z</time>
      </trkpt>
      <trkpt lat="43.73737" lon="1.42151">
        <ele>227.376812</ele>
        <time>2022-08-08T09:27:36.817Z</time>
      </trkpt>
      <trkpt lat="43.73746" lon="1.42159">
        <ele>227.156812</ele>
        <time>2022-08-08T09:27:38.824Z</time>
      </trkpt>
      <trkpt lat="43.73757" lon="1.42168">
        <ele>226.911439</ele>
        <time>2022-08-08T09:27:40.811Z</time>
      </trkpt>
      <trkpt lat="43.73767" lon="1.42176">
        <ele>226.670256</ele>
        <time>2022-08-08T09:27:42.827Z</time>
      </trkpt>
      <trkpt lat="43.7378" lon="1.4218">
        <ele>226.407267</ele>
        <time>2022-08-08T09:27:45.816Z</time>
      </trkpt>
      <trkpt lat="43.73789" lon="1.42176">
        <ele>226.212444</ele>
        <time>2022-08-08T09:27:47.835Z</time>
      </trkpt>
      <trkpt lat="43.73799" lon="1.42174">
        <ele>226.014275</ele>
        <time>2022-08-08T09:27:49.818Z</time>
      </trkpt>
      <trkpt lat="43.73809" lon="1.42172">
        <ele>225.802324</ele>
        <time>2022-08-08T09:27:51.815Z</time>
      </trkpt>
      <trkpt lat="43.7382" lon="1.42169">
        <ele>225.587546</ele>
        <time>2022-08-08T09:27:53.823Z</time>
      </trkpt>
      <trkpt lat="43.73831" lon="1.42164">
        <ele>225.357342</ele>
        <time>2022-08-08T09:27:55.821Z</time>
      </trkpt>
      <trkpt lat="43.73844" lon="1.42158">
        <ele>225.078485</ele>
        <time>2022-08-08T09:27:57.816Z</time>
      </trkpt>
      <trkpt lat="43.73858" lon="1.42148">
        <ele>224.767536</ele>
        <time>2022-08-08T09:27:59.823Z</time>
      </trkpt>
      <trkpt lat="43.7387" lon="1.4214">
        <ele>224.488999</ele>
        <time>2022-08-08T09:28:01.845Z</time>
      </trkpt>
      <trkpt lat="43.73884" lon="1.42132">
        <ele>224.205569</ele>
        <time>2022-08-08T09:28:03.826Z</time>
      </trkpt>
      <trkpt lat="43.73895" lon="1.42125">
        <ele>223.977942</ele>
        <time>2022-08-08T09:28:05.801Z</time>
      </trkpt>
      <trkpt lat="43.73908" lon="1.42119">
        <ele>223.742974</ele>
        <time>2022-08-08T09:28:07.822Z</time>
      </trkpt>
      <trkpt lat="43.7392" lon="1.42113">
        <ele>223.51258</ele>
        <time>2022-08-08T09:28:09.820Z</time>
      </trkpt>
      <trkpt lat="43.73932" lon="1.42109">
        <ele>223.300799</ele>
        <time>2022-08-08T09:28:11.816Z</time>
      </trkpt>
      <trkpt lat="43.73944" lon="1.42108">
        <ele>223.09259</ele>
        <time>2022-08-08T09:28:13.834Z</time>
      </trkpt>
      <trkpt lat="43.73955" lon="1.42102">
        <ele>222.892502</ele>
        <time>2022-08-08T09:28:15.811Z</time>
      </trkpt>
      <trkpt lat="43.73964" lon="1.42092">
        <ele>222.683657</ele>
        <time>2022-08-08T09:28:17.823Z</time>
      </trkpt>
      <trkpt lat="43.73977" lon="1.42086">
        <ele>222.451563</ele>
        <time>2022-08-08T09:28:19.818Z</time>
      </trkpt>
      <trkpt lat="43.73989" lon="1.42079">
        <ele>222.222255</ele>
        <time>2022-08-08T09:28:21.828Z</time>
      </trkpt>
      <trkpt lat="43.73999" lon="1.42074">
        <ele>222.032957</ele>
        <time>2022-08-08T09:28:23.823Z</time>
      </trkpt>
      <trkpt lat="43.74012" lon="1.4207">
        <ele>221.792616</ele>
        <time>2022-08-08T09:28:25.821Z</time>
      </trkpt>
      <trkpt lat="43.74023" lon="1.42067">
        <ele>221.592637</ele>
        <time>2022-08-08T09:28:27.831Z</time>
      </trkpt>
      <trkpt lat="43.74034" lon="1.42066">
        <ele>221.41022</ele>
        <time>2022-08-08T09:28:29.814Z</time>
      </trkpt>
      <trkpt lat="43.74044" lon="1.42063">
        <ele>221.220841</ele>
        <time>2022-08-08T09:28:31.831Z</time>
      </trkpt>
      <trkpt lat="43.7406" lon="1.4206">
        <ele>220.397283</ele>
        <time>2022-08-08T09:28:34.828Z</time>
      </trkpt>
      <trkpt lat="43.74075" lon="1.42056">
        <ele>218.978548</ele>
        <time>2022-08-08T09:28:36.820Z</time>
      </trkpt>
      <trkpt lat="43.74082" lon="1.42044">
        <ele>217.918785</ele>
        <time>2022-08-08T09:28:38.829Z</time>
      </trkpt>
      <trkpt lat="43.74089" lon="1.42035">
        <ele>217.045314</ele>
        <time>2022-08-08T09:28:40.811Z</time>
      </trkpt>
      <trkpt lat="43.74099" lon="1.42031">
        <ele>216.092611</ele>
        <time>2022-08-08T09:28:42.816Z</time>
      </trkpt>
      <trkpt lat="43.74107" lon="1.42022">
        <ele>215.127375</ele>
        <time>2022-08-08T09:28:45.834Z</time>
      </trkpt>
      <trkpt lat="43.74102" lon="1.42007">
        <ele>214.075625</ele>
        <time>2022-08-08T09:28:50.806Z</time>
      </trkpt>
      <trkpt lat="43.74094" lon="1.41999">
        <ele>213.122834</ele>
        <time>2022-08-08T09:28:52.834Z</time>
      </trkpt>
      <trkpt lat="43.74087" lon="1.4199">
        <ele>212.219704</ele>
        <time>2022-08-08T09:28:54.813Z</time>
      </trkpt>
      <trkpt lat="43.74083" lon="1.41979">
        <ele>211.369545</ele>
        <time>2022-08-08T09:28:56.816Z</time>
      </trkpt>
      <trkpt lat="43.74075" lon="1.41971">
        <ele>210.520333</ele>
        <time>2022-08-08T09:28:58.802Z</time>
      </trkpt>
      <trkpt lat="43.74068" lon="1.4196">
        <ele>209.491935</ele>
        <time>2022-08-08T09:29:00.811Z</time>
      </trkpt>
      <trkpt lat="43.74061" lon="1.41943">
        <ele>208.202729</ele>
        <time>2022-08-08T09:29:03.824Z</time>
      </trkpt>
      <trkpt lat="43.74056" lon="1.41926">
        <ele>206.958811</ele>
        <time>2022-08-08T09:29:05.811Z</time>
      </trkpt>
      <trkpt lat="43.7405" lon="1.41907">
        <ele>205.54098</ele>
        <time>2022-08-08T09:29:07.797Z</time>
      </trkpt>
      <trkpt lat="43.74045" lon="1.41893">
        <ele>204.497131</ele>
        <time>2022-08-08T09:29:10.797Z</time>
      </trkpt>
      <trkpt lat="43.74037" lon="1.41888">
        <ele>203.848169</ele>
        <time>2022-08-08T09:29:12.809Z</time>
      </trkpt>
      <trkpt lat="43.74028" lon="1.4188">
        <ele>203.209147</ele>
        <time>2022-08-08T09:29:15.813Z</time>
      </trkpt>
      <trkpt lat="43.74021" lon="1.41872">
        <ele>202.620648</ele>
        <time>2022-08-08T09:29:18.801Z</time>
      </trkpt>
      <trkpt lat="43.74012" lon="1.4185">
        <ele>201.449189</ele>
        <time>2022-08-08T09:29:25.813Z</time>
      </trkpt>
      <trkpt lat="43.74026" lon="1.41848">
        <ele>200.540547</ele>
        <time>2022-08-08T09:29:31.806Z</time>
      </trkpt>
      <trkpt lat="43.74036" lon="1.41847">
        <ele>199.938446</ele>
        <time>2022-08-08T09:29:33.803Z</time>
      </trkpt>
      <trkpt lat="43.74046" lon="1.41844">
        <ele>199.288196</ele>
        <time>2022-08-08T09:29:37.798Z</time>
      </trkpt>
      <trkpt lat="43.74055" lon="1.41838">
        <ele>198.638995</ele>
        <time>2022-08-08T09:29:38.799Z</time>
      </trkpt>
      <trkpt lat="43.74065" lon="1.41834">
        <ele>197.946066</ele>
        <time>2022-08-08T09:29:41.786Z</time>
      </trkpt>
      <trkpt lat="43.74075" lon="1.41835">
        <ele>197.330636</ele>
        <time>2022-08-08T09:29:47.802Z</time>
      </trkpt>
      <trkpt lat="43.74084" lon="1.41836">
        <ele>196.739589</ele>
        <time>2022-08-08T09:29:51.806Z</time>
      </trkpt>
      <trkpt lat="43.74102" lon="1.41834">
        <ele>195.620691</ele>
        <time>2022-08-08T09:29:53.806Z</time>
      </trkpt>
      <trkpt lat="43.74115" lon="1.4183">
        <ele>194.717044</ele>
        <time>2022-08-08T09:29:55.815Z</time>
      </trkpt>
      <trkpt lat="43.74125" lon="1.41827">
        <ele>194.074708</ele>
        <time>2022-08-08T09:29:58.807Z</time>
      </trkpt>
      <trkpt lat="43.74163" lon="1.41806">
        <ele>192.574094</ele>
        <time>2022-08-08T09:30:27.803Z</time>
      </trkpt>
      <trkpt lat="43.74173" lon="1.41811">
        <ele>192.465241</ele>
        <time>2022-08-08T09:30:30.802Z</time>
      </trkpt>
      <trkpt lat="43.74185" lon="1.41811">
        <ele>192.345032</ele>
        <time>2022-08-08T09:30:34.817Z</time>
      </trkpt>
      <trkpt lat="43.74196" lon="1.41819">
        <ele>192.221082</ele>
        <time>2022-08-08T09:30:37.815Z</time>
      </trkpt>
      <trkpt lat="43.74204" lon="1.41827">
        <ele>192.119258</ele>
        <time>2022-08-08T09:30:40.813Z</time>
      </trkpt>
      <trkpt lat="43.74214" lon="1.4183">
        <ele>192.019339</ele>
        <time>2022-08-08T09:30:43.806Z</time>
      </trkpt>
      <trkpt lat="43.74223" lon="1.41831">
        <ele>191.922908</ele>
        <time>2022-08-08T09:30:46.803Z</time>
      </trkpt>
      <trkpt lat="43.74237" lon="1.41839">
        <ele>191.774853</ele>
        <time>2022-08-08T09:30:49.805Z</time>
      </trkpt>
      <trkpt lat="43.74247" lon="1.41842">
        <ele>191.667468</ele>
        <time>2022-08-08T09:30:51.797Z</time>
      </trkpt>
      <trkpt lat="43.74257" lon="1.41842">
        <ele>191.569387</ele>
        <time>2022-08-08T09:30:53.812Z</time>
      </trkpt>
      <trkpt lat="43.74268" lon="1.41853">
        <ele>191.433165</ele>
        <time>2022-08-08T09:30:56.818Z</time>
      </trkpt>
      <trkpt lat="43.74277" lon="1.41859">
        <ele>191.331713</ele>
        <time>2022-08-08T09:30:58.805Z</time>
      </trkpt>
      <trkpt lat="43.74287" lon="1.41866">
        <ele>191.22317</ele>
        <time>2022-08-08T09:31:00.802Z</time>
      </trkpt>
      <trkpt lat="43.74298" lon="1.41873">
        <ele>191.095981</ele>
        <time>2022-08-08T09:31:02.800Z</time>
      </trkpt>
      <trkpt lat="43.74308" lon="1.41879">
        <ele>190.986173</ele>
        <time>2022-08-08T09:31:04.808Z</time>
      </trkpt>
      <trkpt lat="43.74318" lon="1.41886">
        <ele>190.93121</ele>
        <time>2022-08-08T09:31:06.812Z</time>
      </trkpt>
      <trkpt lat="43.74328" lon="1.41889">
        <ele>190.897527</ele>
        <time>2022-08-08T09:31:08.820Z</time>
      </trkpt>
      <trkpt lat="43.7434" lon="1.41898">
        <ele>190.853274</ele>
        <time>2022-08-08T09:31:10.810Z</time>
      </trkpt>
      <trkpt lat="43.74354" lon="1.41908">
        <ele>190.79998</ele>
        <time>2022-08-08T09:31:12.797Z</time>
      </trkpt>
      <trkpt lat="43.74364" lon="1.41914">
        <ele>190.763644</ele>
        <time>2022-08-08T09:31:14.804Z</time>
      </trkpt>
      <trkpt lat="43.74375" lon="1.41921">
        <ele>190.72321</ele>
        <time>2022-08-08T09:31:16.798Z</time>
      </trkpt>
      <trkpt lat="43.74391" lon="1.41928">
        <ele>190.667103</ele>
        <time>2022-08-08T09:31:21.801Z</time>
      </trkpt>
      <trkpt lat="43.74405" lon="1.4193">
        <ele>190.621912</ele>
        <time>2022-08-08T09:31:29.834Z</time>
      </trkpt>
      <trkpt lat="43.74417" lon="1.41939">
        <ele>190.575481</ele>
        <time>2022-08-08T09:31:32.833Z</time>
      </trkpt>
      <trkpt lat="43.74426" lon="1.41944">
        <ele>190.545161</ele>
        <time>2022-08-08T09:31:34.818Z</time>
      </trkpt>
      <trkpt lat="43.74435" lon="1.41949">
        <ele>190.511334</ele>
        <time>2022-08-08T09:31:37.807Z</time>
      </trkpt>
      <trkpt lat="43.74445" lon="1.41946">
        <ele>190.479273</ele>
        <time>2022-08-08T09:31:45.812Z</time>
      </trkpt>
      <trkpt lat="43.74449" lon="1.41933">
        <ele>190.447542</ele>
        <time>2022-08-08T09:31:48.827Z</time>
      </trkpt>
      <trkpt lat="43.74453" lon="1.4192">
        <ele>190.413037</ele>
        <time>2022-08-08T09:31:51.797Z</time>
      </trkpt>
      <trkpt lat="43.74455" lon="1.41908">
        <ele>190.381599</ele>
        <time>2022-08-08T09:31:56.818Z</time>
      </trkpt>
      <trkpt lat="43.7445" lon="1.4189">
        <ele>190.416581</ele>
        <time>2022-08-08T09:32:05.822Z</time>
      </trkpt>
      <trkpt lat="43.74433" lon="1.41882">
        <ele>190.528182</ele>
        <time>2022-08-08T09:32:30.829Z</time>
      </trkpt>
      <trkpt lat="43.74423" lon="1.41879">
        <ele>190.591389</ele>
        <time>2022-08-08T09:32:33.822Z</time>
      </trkpt>
      <trkpt lat="43.74409" lon="1.41875">
        <ele>190.676151</ele>
        <time>2022-08-08T09:32:36.812Z</time>
      </trkpt>
      <trkpt lat="43.744" lon="1.41874">
        <ele>190.73246</ele>
        <time>2022-08-08T09:32:38.817Z</time>
      </trkpt>
      <trkpt lat="43.7439" lon="1.41867">
        <ele>190.804419</ele>
        <time>2022-08-08T09:32:41.832Z</time>
      </trkpt>
      <trkpt lat="43.74379" lon="1.41861">
        <ele>190.875559</ele>
        <time>2022-08-08T09:32:44.804Z</time>
      </trkpt>
      <trkpt lat="43.7437" lon="1.41856">
        <ele>190.931863</ele>
        <time>2022-08-08T09:32:46.825Z</time>
      </trkpt>
      <trkpt lat="43.74359" lon="1.41847">
        <ele>191.010502</ele>
        <time>2022-08-08T09:32:49.810Z</time>
      </trkpt>
      <trkpt lat="43.74351" lon="1.4184">
        <ele>191.071636</ele>
        <time>2022-08-08T09:32:51.809Z</time>
      </trkpt>
      <trkpt lat="43.74339" lon="1.41836">
        <ele>191.142995</ele>
        <time>2022-08-08T09:32:53.809Z</time>
      </trkpt>
      <trkpt lat="43.74329" lon="1.41829">
        <ele>191.212281</ele>
        <time>2022-08-08T09:32:55.820Z</time>
      </trkpt>
      <trkpt lat="43.74319" lon="1.41824">
        <ele>191.277324</ele>
        <time>2022-08-08T09:32:57.802Z</time>
      </trkpt>
      <trkpt lat="43.7431" lon="1.41819">
        <ele>191.340505</ele>
        <time>2022-08-08T09:32:59.813Z</time>
      </trkpt>
      <trkpt lat="43.74298" lon="1.41813">
        <ele>191.416548</ele>
        <time>2022-08-08T09:33:01.816Z</time>
      </trkpt>
      <trkpt lat="43.74289" lon="1.41807">
        <ele>191.57685</ele>
        <time>2022-08-08T09:33:03.803Z</time>
      </trkpt>
      <trkpt lat="43.74279" lon="1.41799">
        <ele>192.227131</ele>
        <time>2022-08-08T09:33:05.810Z</time>
      </trkpt>
      <trkpt lat="43.74267" lon="1.41795">
        <ele>192.953283</ele>
        <time>2022-08-08T09:33:07.810Z</time>
      </trkpt>
      <trkpt lat="43.74259" lon="1.41789">
        <ele>193.484527</ele>
        <time>2022-08-08T09:33:09.821Z</time>
      </trkpt>
      <trkpt lat="43.74249" lon="1.41782">
        <ele>194.134086</ele>
        <time>2022-08-08T09:33:11.821Z</time>
      </trkpt>
      <trkpt lat="43.74236" lon="1.41776">
        <ele>194.881011</ele>
        <time>2022-08-08T09:33:13.809Z</time>
      </trkpt>
      <trkpt lat="43.7423" lon="1.41766">
        <ele>195.433403</ele>
        <time>2022-08-08T09:33:16.832Z</time>
      </trkpt>
      <trkpt lat="43.74227" lon="1.41752">
        <ele>196.072742</ele>
        <time>2022-08-08T09:33:20.833Z</time>
      </trkpt>
      <trkpt lat="43.74227" lon="1.41737">
        <ele>196.697948</ele>
        <time>2022-08-08T09:33:23.834Z</time>
      </trkpt>
      <trkpt lat="43.74218" lon="1.41729">
        <ele>197.275631</ele>
        <time>2022-08-08T09:33:27.823Z</time>
      </trkpt>
      <trkpt lat="43.74209" lon="1.41723">
        <ele>197.844954</ele>
        <time>2022-08-08T09:33:29.825Z</time>
      </trkpt>
      <trkpt lat="43.74198" lon="1.41717">
        <ele>198.555077</ele>
        <time>2022-08-08T09:33:32.809Z</time>
      </trkpt>
      <trkpt lat="43.74188" lon="1.41714">
        <ele>199.144544</ele>
        <time>2022-08-08T09:33:34.825Z</time>
      </trkpt>
      <trkpt lat="43.74177" lon="1.41713">
        <ele>199.774042</ele>
        <time>2022-08-08T09:33:37.823Z</time>
      </trkpt>
      <trkpt lat="43.74164" lon="1.41709">
        <ele>200.537612</ele>
        <time>2022-08-08T09:33:40.823Z</time>
      </trkpt>
      <trkpt lat="43.74153" lon="1.41704">
        <ele>201.233008</ele>
        <time>2022-08-08T09:33:42.819Z</time>
      </trkpt>
      <trkpt lat="43.74143" lon="1.41702">
        <ele>201.770263</ele>
        <time>2022-08-08T09:33:44.831Z</time>
      </trkpt>
      <trkpt lat="43.74135" lon="1.41696">
        <ele>202.164832</ele>
        <time>2022-08-08T09:33:46.798Z</time>
      </trkpt>
      <trkpt lat="43.74124" lon="1.41697">
        <ele>202.566415</ele>
        <time>2022-08-08T09:33:48.819Z</time>
      </trkpt>
      <trkpt lat="43.74115" lon="1.41697">
        <ele>202.940046</ele>
        <time>2022-08-08T09:33:50.842Z</time>
      </trkpt>
      <trkpt lat="43.74103" lon="1.41697">
        <ele>203.375149</ele>
        <time>2022-08-08T09:33:52.829Z</time>
      </trkpt>
      <trkpt lat="43.74091" lon="1.41698">
        <ele>203.841691</ele>
        <time>2022-08-08T09:33:54.814Z</time>
      </trkpt>
      <trkpt lat="43.7408" lon="1.41699">
        <ele>204.262279</ele>
        <time>2022-08-08T09:33:56.794Z</time>
      </trkpt>
      <trkpt lat="43.74067" lon="1.417">
        <ele>204.790344</ele>
        <time>2022-08-08T09:33:58.838Z</time>
      </trkpt>
      <trkpt lat="43.74056" lon="1.41695">
        <ele>205.228804</ele>
        <time>2022-08-08T09:34:00.797Z</time>
      </trkpt>
      <trkpt lat="43.74044" lon="1.41692">
        <ele>205.684609</ele>
        <time>2022-08-08T09:34:02.779Z</time>
      </trkpt>
      <trkpt lat="43.74035" lon="1.41693">
        <ele>206.047591</ele>
        <time>2022-08-08T09:34:04.799Z</time>
      </trkpt>
      <trkpt lat="43.74023" lon="1.41696">
        <ele>206.491147</ele>
        <time>2022-08-08T09:34:06.805Z</time>
      </trkpt>
      <trkpt lat="43.74012" lon="1.41698">
        <ele>206.930119</ele>
        <time>2022-08-08T09:34:08.803Z</time>
      </trkpt>
      <trkpt lat="43.74001" lon="1.417">
        <ele>207.345462</ele>
        <time>2022-08-08T09:34:10.794Z</time>
      </trkpt>
      <trkpt lat="43.73992" lon="1.41701">
        <ele>207.724782</ele>
        <time>2022-08-08T09:34:12.808Z</time>
      </trkpt>
      <trkpt lat="43.73982" lon="1.41702">
        <ele>208.094774</ele>
        <time>2022-08-08T09:34:14.816Z</time>
      </trkpt>
      <trkpt lat="43.73973" lon="1.41703">
        <ele>208.458225</ele>
        <time>2022-08-08T09:34:16.822Z</time>
      </trkpt>
      <trkpt lat="43.73963" lon="1.41703">
        <ele>208.796451</ele>
        <time>2022-08-08T09:34:18.822Z</time>
      </trkpt>
      <trkpt lat="43.73952" lon="1.41703">
        <ele>208.952745</ele>
        <time>2022-08-08T09:34:20.814Z</time>
      </trkpt>
      <trkpt lat="43.73943" lon="1.41705">
        <ele>209.081403</ele>
        <time>2022-08-08T09:34:22.817Z</time>
      </trkpt>
      <trkpt lat="43.73933" lon="1.41706">
        <ele>209.219387</ele>
        <time>2022-08-08T09:34:25.801Z</time>
      </trkpt>
      <trkpt lat="43.73921" lon="1.41708">
        <ele>209.38417</ele>
        <time>2022-08-08T09:34:28.806Z</time>
      </trkpt>
      <trkpt lat="43.73908" lon="1.4171">
        <ele>209.577524</ele>
        <time>2022-08-08T09:34:31.805Z</time>
      </trkpt>
      <trkpt lat="43.73897" lon="1.41716">
        <ele>209.747686</ele>
        <time>2022-08-08T09:34:33.811Z</time>
      </trkpt>
      <trkpt lat="43.73887" lon="1.41722">
        <ele>209.902616</ele>
        <time>2022-08-08T09:34:35.824Z</time>
      </trkpt>
      <trkpt lat="43.73875" lon="1.41729">
        <ele>210.085908</ele>
        <time>2022-08-08T09:34:37.800Z</time>
      </trkpt>
      <trkpt lat="43.73866" lon="1.41734">
        <ele>210.223546</ele>
        <time>2022-08-08T09:34:39.804Z</time>
      </trkpt>
      <trkpt lat="43.73854" lon="1.4174">
        <ele>210.403817</ele>
        <time>2022-08-08T09:34:41.787Z</time>
      </trkpt>
      <trkpt lat="43.73842" lon="1.41745">
        <ele>210.578073</ele>
        <time>2022-08-08T09:34:43.790Z</time>
      </trkpt>
      <trkpt lat="43.73829" lon="1.41751">
        <ele>210.78085</ele>
        <time>2022-08-08T09:34:45.809Z</time>
      </trkpt>
      <trkpt lat="43.73818" lon="1.41756">
        <ele>210.936251</ele>
        <time>2022-08-08T09:34:47.800Z</time>
      </trkpt>
      <trkpt lat="43.73807" lon="1.41761">
        <ele>211.109035</ele>
        <time>2022-08-08T09:34:49.788Z</time>
      </trkpt>
      <trkpt lat="43.73796" lon="1.41766">
        <ele>211.269799</ele>
        <time>2022-08-08T09:34:51.802Z</time>
      </trkpt>
      <trkpt lat="43.73786" lon="1.41768">
        <ele>211.63326</ele>
        <time>2022-08-08T09:34:53.800Z</time>
      </trkpt>
      <trkpt lat="43.73776" lon="1.41765">
        <ele>212.127113</ele>
        <time>2022-08-08T09:34:55.822Z</time>
      </trkpt>
      <trkpt lat="43.73767" lon="1.41756">
        <ele>212.643828</ele>
        <time>2022-08-08T09:34:58.809Z</time>
      </trkpt>
      <trkpt lat="43.73758" lon="1.41751">
        <ele>213.106326</ele>
        <time>2022-08-08T09:35:00.805Z</time>
      </trkpt>
      <trkpt lat="43.73749" lon="1.41748">
        <ele>213.553972</ele>
        <time>2022-08-08T09:35:02.814Z</time>
      </trkpt>
      <trkpt lat="43.73735" lon="1.41743">
        <ele>214.214256</ele>
        <time>2022-08-08T09:35:05.809Z</time>
      </trkpt>
      <trkpt lat="43.73725" lon="1.4174">
        <ele>214.707453</ele>
        <time>2022-08-08T09:35:07.806Z</time>
      </trkpt>
      <trkpt lat="43.73716" lon="1.41738">
        <ele>215.145596</ele>
        <time>2022-08-08T09:35:09.799Z</time>
      </trkpt>
      <trkpt lat="43.73704" lon="1.41732">
        <ele>215.761646</ele>
        <time>2022-08-08T09:35:12.829Z</time>
      </trkpt>
      <trkpt lat="43.737" lon="1.41716">
        <ele>216.356362</ele>
        <time>2022-08-08T09:35:15.794Z</time>
      </trkpt>
      <trkpt lat="43.73701" lon="1.41701">
        <ele>216.857705</ele>
        <time>2022-08-08T09:35:18.797Z</time>
      </trkpt>
      <trkpt lat="43.73705" lon="1.41687">
        <ele>217.394193</ele>
        <time>2022-08-08T09:35:21.791Z</time>
      </trkpt>
      <trkpt lat="43.73712" lon="1.41678">
        <ele>217.832861</ele>
        <time>2022-08-08T09:35:24.796Z</time>
      </trkpt>
      <trkpt lat="43.73721" lon="1.41668">
        <ele>218.397352</ele>
        <time>2022-08-08T09:35:27.813Z</time>
      </trkpt>
      <trkpt lat="43.73725" lon="1.4165">
        <ele>219.036209</ele>
        <time>2022-08-08T09:35:30.798Z</time>
      </trkpt>
      <trkpt lat="43.7373" lon="1.41638">
        <ele>219.526475</ele>
        <time>2022-08-08T09:35:33.805Z</time>
      </trkpt>
      <trkpt lat="43.73738" lon="1.4163">
        <ele>219.939247</ele>
        <time>2022-08-08T09:35:36.824Z</time>
      </trkpt>
      <trkpt lat="43.7375" lon="1.41627">
        <ele>220.372652</ele>
        <time>2022-08-08T09:35:40.812Z</time>
      </trkpt>
      <trkpt lat="43.73762" lon="1.41622">
        <ele>220.787067</ele>
        <time>2022-08-08T09:35:43.823Z</time>
      </trkpt>
      <trkpt lat="43.73767" lon="1.41611">
        <ele>221.108996</ele>
        <time>2022-08-08T09:35:45.807Z</time>
      </trkpt>
      <trkpt lat="43.73776" lon="1.41604">
        <ele>221.461745</ele>
        <time>2022-08-08T09:35:48.792Z</time>
      </trkpt>
      <trkpt lat="43.73784" lon="1.41599">
        <ele>221.785681</ele>
        <time>2022-08-08T09:35:50.807Z</time>
      </trkpt>
      <trkpt lat="43.73793" lon="1.41594">
        <ele>222.117267</ele>
        <time>2022-08-08T09:35:52.804Z</time>
      </trkpt>
      <trkpt lat="43.73802" lon="1.41588">
        <ele>222.462861</ele>
        <time>2022-08-08T09:35:54.807Z</time>
      </trkpt>
      <trkpt lat="43.73812" lon="1.41584">
        <ele>222.794176</ele>
        <time>2022-08-08T09:35:56.806Z</time>
      </trkpt>
      <trkpt lat="43.73821" lon="1.41578">
        <ele>223.146099</ele>
        <time>2022-08-08T09:35:58.817Z</time>
      </trkpt>
      <trkpt lat="43.7383" lon="1.41571">
        <ele>223.512515</ele>
        <time>2022-08-08T09:36:00.788Z</time>
      </trkpt>
      <trkpt lat="43.7384" lon="1.41566">
        <ele>223.853231</ele>
        <time>2022-08-08T09:36:02.805Z</time>
      </trkpt>
      <trkpt lat="43.7385" lon="1.41566">
        <ele>224.203085</ele>
        <time>2022-08-08T09:36:04.817Z</time>
      </trkpt>
      <trkpt lat="43.73856" lon="1.41576">
        <ele>224.553185</ele>
        <time>2022-08-08T09:36:06.813Z</time>
      </trkpt>
      <trkpt lat="43.7386" lon="1.41593">
        <ele>224.977459</ele>
        <time>2022-08-08T09:36:08.796Z</time>
      </trkpt>
      <trkpt lat="43.73866" lon="1.41607">
        <ele>225.37386</ele>
        <time>2022-08-08T09:36:10.795Z</time>
      </trkpt>
      <trkpt lat="43.73878" lon="1.41614">
        <ele>225.830465</ele>
        <time>2022-08-08T09:36:12.788Z</time>
      </trkpt>
      <trkpt lat="43.73891" lon="1.41613">
        <ele>226.171965</ele>
        <time>2022-08-08T09:36:14.805Z</time>
      </trkpt>
      <trkpt lat="43.73903" lon="1.41607">
        <ele>226.406086</ele>
        <time>2022-08-08T09:36:16.806Z</time>
      </trkpt>
      <trkpt lat="43.73913" lon="1.41599">
        <ele>226.629664</ele>
        <time>2022-08-08T09:36:18.806Z</time>
      </trkpt>
      <trkpt lat="43.73921" lon="1.41587">
        <ele>226.838895</ele>
        <time>2022-08-08T09:36:20.801Z</time>
      </trkpt>
      <trkpt lat="43.73922" lon="1.41574">
        <ele>227.022151</ele>
        <time>2022-08-08T09:36:22.804Z</time>
      </trkpt>
      <trkpt lat="43.73919" lon="1.4156">
        <ele>227.21993</ele>
        <time>2022-08-08T09:36:24.805Z</time>
      </trkpt>
      <trkpt lat="43.73917" lon="1.41547">
        <ele>227.393962</ele>
        <time>2022-08-08T09:36:26.830Z</time>
      </trkpt>
      <trkpt lat="43.73914" lon="1.41535">
        <ele>227.568988</ele>
        <time>2022-08-08T09:36:28.831Z</time>
      </trkpt>
      <trkpt lat="43.73911" lon="1.41522">
        <ele>227.746219</ele>
        <time>2022-08-08T09:36:30.815Z</time>
      </trkpt>
      <trkpt lat="43.73907" lon="1.4151">
        <ele>227.921775</ele>
        <time>2022-08-08T09:36:32.819Z</time>
      </trkpt>
      <trkpt lat="43.73903" lon="1.41498">
        <ele>228.1045</ele>
        <time>2022-08-08T09:36:34.817Z</time>
      </trkpt>
      <trkpt lat="43.739" lon="1.41485">
        <ele>228.294346</ele>
        <time>2022-08-08T09:36:36.813Z</time>
      </trkpt>
      <trkpt lat="43.73897" lon="1.41471">
        <ele>228.481532</ele>
        <time>2022-08-08T09:36:38.804Z</time>
      </trkpt>
      <trkpt lat="43.73894" lon="1.41457">
        <ele>228.68517</ele>
        <time>2022-08-08T09:36:40.825Z</time>
      </trkpt>
      <trkpt lat="43.73892" lon="1.41442">
        <ele>228.881831</ele>
        <time>2022-08-08T09:36:42.813Z</time>
      </trkpt>
      <trkpt lat="43.7389" lon="1.41428">
        <ele>229.07633</ele>
        <time>2022-08-08T09:36:44.810Z</time>
      </trkpt>
      <trkpt lat="43.73887" lon="1.41414">
        <ele>229.274887</ele>
        <time>2022-08-08T09:36:46.823Z</time>
      </trkpt>
      <trkpt lat="43.73883" lon="1.41399">
        <ele>229.279566</ele>
        <time>2022-08-08T09:36:48.803Z</time>
      </trkpt>
      <trkpt lat="43.73879" lon="1.41385">
        <ele>229.091325</ele>
        <time>2022-08-08T09:36:50.803Z</time>
      </trkpt>
      <trkpt lat="43.73874" lon="1.41373">
        <ele>228.904485</ele>
        <time>2022-08-08T09:36:52.806Z</time>
      </trkpt>
      <trkpt lat="43.73873" lon="1.41359">
        <ele>228.724668</ele>
        <time>2022-08-08T09:36:54.802Z</time>
      </trkpt>
      <trkpt lat="43.73879" lon="1.41346">
        <ele>228.535521</ele>
        <time>2022-08-08T09:36:56.803Z</time>
      </trkpt>
      <trkpt lat="43.73889" lon="1.4134">
        <ele>228.347086</ele>
        <time>2022-08-08T09:36:58.810Z</time>
      </trkpt>
      <trkpt lat="43.73898" lon="1.41333">
        <ele>228.152635</ele>
        <time>2022-08-08T09:37:00.793Z</time>
      </trkpt>
      <trkpt lat="43.73908" lon="1.41325">
        <ele>227.951004</ele>
        <time>2022-08-08T09:37:02.814Z</time>
      </trkpt>
      <trkpt lat="43.73917" lon="1.41316">
        <ele>227.751621</ele>
        <time>2022-08-08T09:37:04.814Z</time>
      </trkpt>
      <trkpt lat="43.73927" lon="1.41307">
        <ele>227.548372</ele>
        <time>2022-08-08T09:37:06.800Z</time>
      </trkpt>
      <trkpt lat="43.73937" lon="1.41301">
        <ele>227.349502</ele>
        <time>2022-08-08T09:37:08.809Z</time>
      </trkpt>
      <trkpt lat="43.73949" lon="1.41298">
        <ele>227.143041</ele>
        <time>2022-08-08T09:37:10.797Z</time>
      </trkpt>
      <trkpt lat="43.73976" lon="1.41307">
        <ele>226.648095</ele>
        <time>2022-08-08T09:37:15.847Z</time>
      </trkpt>
      <trkpt lat="43.73982" lon="1.41322">
        <ele>226.438071</ele>
        <time>2022-08-08T09:37:17.802Z</time>
      </trkpt>
      <trkpt lat="43.73993" lon="1.41334">
        <ele>226.055307</ele>
        <time>2022-08-08T09:37:20.802Z</time>
      </trkpt>
      <trkpt lat="43.74003" lon="1.41334">
        <ele>225.099725</ele>
        <time>2022-08-08T09:37:22.800Z</time>
      </trkpt>
      <trkpt lat="43.74016" lon="1.4134">
        <ele>223.723303</ele>
        <time>2022-08-08T09:37:25.808Z</time>
      </trkpt>
      <trkpt lat="43.74025" lon="1.4135">
        <ele>222.510815</ele>
        <time>2022-08-08T09:37:27.800Z</time>
      </trkpt>
      <trkpt lat="43.74037" lon="1.41357">
        <ele>221.190715</ele>
        <time>2022-08-08T09:37:29.799Z</time>
      </trkpt>
      <trkpt lat="43.74049" lon="1.41363">
        <ele>219.845531</ele>
        <time>2022-08-08T09:37:31.796Z</time>
      </trkpt>
      <trkpt lat="43.74062" lon="1.41379">
        <ele>218.109813</ele>
        <time>2022-08-08T09:37:33.801Z</time>
      </trkpt>
      <trkpt lat="43.74072" lon="1.41392">
        <ele>216.720346</ele>
        <time>2022-08-08T09:37:35.803Z</time>
      </trkpt>
      <trkpt lat="43.74082" lon="1.41399">
        <ele>215.636586</ele>
        <time>2022-08-08T09:37:37.807Z</time>
      </trkpt>
      <trkpt lat="43.74098" lon="1.41399">
        <ele>213.969581</ele>
        <time>2022-08-08T09:37:39.799Z</time>
      </trkpt>
      <trkpt lat="43.74114" lon="1.41404">
        <ele>212.348457</ele>
        <time>2022-08-08T09:37:41.797Z</time>
      </trkpt>
      <trkpt lat="43.74129" lon="1.41409">
        <ele>210.704088</ele>
        <time>2022-08-08T09:37:43.787Z</time>
      </trkpt>
      <trkpt lat="43.74139" lon="1.41418">
        <ele>209.566081</ele>
        <time>2022-08-08T09:37:45.821Z</time>
      </trkpt>
      <trkpt lat="43.74147" lon="1.4141">
        <ele>208.537508</ele>
        <time>2022-08-08T09:37:47.809Z</time>
      </trkpt>
      <trkpt lat="43.74156" lon="1.41404">
        <ele>207.748889</ele>
        <time>2022-08-08T09:37:49.809Z</time>
      </trkpt>
      <trkpt lat="43.74167" lon="1.41397">
        <ele>207.183067</ele>
        <time>2022-08-08T09:37:51.798Z</time>
      </trkpt>
      <trkpt lat="43.74177" lon="1.41394">
        <ele>206.682574</ele>
        <time>2022-08-08T09:37:53.820Z</time>
      </trkpt>
      <trkpt lat="43.74187" lon="1.41402">
        <ele>206.131477</ele>
        <time>2022-08-08T09:37:55.809Z</time>
      </trkpt>
      <trkpt lat="43.74195" lon="1.41415">
        <ele>205.567396</ele>
        <time>2022-08-08T09:37:57.810Z</time>
      </trkpt>
      <trkpt lat="43.74204" lon="1.41423">
        <ele>205.031879</ele>
        <time>2022-08-08T09:37:59.816Z</time>
      </trkpt>
      <trkpt lat="43.74214" lon="1.4143">
        <ele>204.512126</ele>
        <time>2022-08-08T09:38:01.829Z</time>
      </trkpt>
      <trkpt lat="43.74226" lon="1.4144">
        <ele>203.875867</ele>
        <time>2022-08-08T09:38:03.824Z</time>
      </trkpt>
      <trkpt lat="43.74237" lon="1.41447">
        <ele>203.308904</ele>
        <time>2022-08-08T09:38:05.799Z</time>
      </trkpt>
      <trkpt lat="43.74248" lon="1.41457">
        <ele>202.670741</ele>
        <time>2022-08-08T09:38:07.810Z</time>
      </trkpt>
      <trkpt lat="43.74258" lon="1.41472">
        <ele>201.966189</ele>
        <time>2022-08-08T09:38:09.811Z</time>
      </trkpt>
      <trkpt lat="43.74266" lon="1.41485">
        <ele>201.409761</ele>
        <time>2022-08-08T09:38:11.799Z</time>
      </trkpt>
      <trkpt lat="43.74272" lon="1.41497">
        <ele>200.906941</ele>
        <time>2022-08-08T09:38:13.819Z</time>
      </trkpt>
      <trkpt lat="43.74281" lon="1.41505">
        <ele>200.389061</ele>
        <time>2022-08-08T09:38:15.798Z</time>
      </trkpt>
      <trkpt lat="43.7429" lon="1.41513">
        <ele>199.913517</ele>
        <time>2022-08-08T09:38:17.812Z</time>
      </trkpt>
      <trkpt lat="43.74309" lon="1.41524">
        <ele>199.214126</ele>
        <time>2022-08-08T09:38:20.822Z</time>
      </trkpt>
      <trkpt lat="43.74334" lon="1.41537">
        <ele>198.655676</ele>
        <time>2022-08-08T09:38:24.803Z</time>
      </trkpt>
      <trkpt lat="43.74348" lon="1.41547">
        <ele>198.327444</ele>
        <time>2022-08-08T09:38:26.801Z</time>
      </trkpt>
      <trkpt lat="43.74361" lon="1.41553">
        <ele>198.03565</ele>
        <time>2022-08-08T09:38:28.807Z</time>
      </trkpt>
      <trkpt lat="43.74374" lon="1.41561">
        <ele>197.736414</ele>
        <time>2022-08-08T09:38:30.809Z</time>
      </trkpt>
      <trkpt lat="43.74387" lon="1.41568">
        <ele>197.448732</ele>
        <time>2022-08-08T09:38:32.810Z</time>
      </trkpt>
      <trkpt lat="43.74402" lon="1.41579">
        <ele>197.090615</ele>
        <time>2022-08-08T09:38:35.810Z</time>
      </trkpt>
      <trkpt lat="43.74413" lon="1.41585">
        <ele>196.841741</ele>
        <time>2022-08-08T09:38:37.794Z</time>
      </trkpt>
      <trkpt lat="43.74432" lon="1.41552">
        <ele>196.210722</ele>
        <time>2022-08-08T09:38:44.815Z</time>
      </trkpt>
      <trkpt lat="43.7444" lon="1.41541">
        <ele>195.971714</ele>
        <time>2022-08-08T09:38:46.800Z</time>
      </trkpt>
      <trkpt lat="43.74456" lon="1.41547">
        <ele>195.657961</ele>
        <time>2022-08-08T09:38:48.807Z</time>
      </trkpt>
      <trkpt lat="43.74469" lon="1.41553">
        <ele>195.493447</ele>
        <time>2022-08-08T09:38:50.809Z</time>
      </trkpt>
      <trkpt lat="43.74483" lon="1.41558">
        <ele>195.329061</ele>
        <time>2022-08-08T09:38:52.816Z</time>
      </trkpt>
      <trkpt lat="43.74497" lon="1.41563">
        <ele>195.171038</ele>
        <time>2022-08-08T09:38:54.835Z</time>
      </trkpt>
      <trkpt lat="43.74509" lon="1.41568">
        <ele>195.025821</ele>
        <time>2022-08-08T09:38:56.795Z</time>
      </trkpt>
      <trkpt lat="43.7452" lon="1.41574">
        <ele>194.884562</ele>
        <time>2022-08-08T09:38:58.803Z</time>
      </trkpt>
      <trkpt lat="43.74532" lon="1.41579">
        <ele>194.748819</ele>
        <time>2022-08-08T09:39:00.807Z</time>
      </trkpt>
      <trkpt lat="43.7454" lon="1.41571">
        <ele>194.632728</ele>
        <time>2022-08-08T09:39:03.812Z</time>
      </trkpt>
      <trkpt lat="43.74551" lon="1.41567">
        <ele>194.500079</ele>
        <time>2022-08-08T09:39:06.804Z</time>
      </trkpt>
      <trkpt lat="43.74564" lon="1.41566">
        <ele>194.352425</ele>
        <time>2022-08-08T09:39:12.829Z</time>
      </trkpt>
      <trkpt lat="43.74573" lon="1.41551">
        <ele>194.192665</ele>
        <time>2022-08-08T09:39:15.841Z</time>
      </trkpt>
      <trkpt lat="43.7458" lon="1.4154">
        <ele>194.0713</ele>
        <time>2022-08-08T09:39:17.811Z</time>
      </trkpt>
      <trkpt lat="43.74587" lon="1.41528">
        <ele>193.945287</ele>
        <time>2022-08-08T09:39:19.806Z</time>
      </trkpt>
      <trkpt lat="43.74593" lon="1.41516">
        <ele>193.82277</ele>
        <time>2022-08-08T09:39:21.815Z</time>
      </trkpt>
      <trkpt lat="43.746" lon="1.41504">
        <ele>193.694205</ele>
        <time>2022-08-08T09:39:23.806Z</time>
      </trkpt>
      <trkpt lat="43.74608" lon="1.41491">
        <ele>193.569344</ele>
        <time>2022-08-08T09:39:25.807Z</time>
      </trkpt>
      <trkpt lat="43.74617" lon="1.41479">
        <ele>193.465923</ele>
        <time>2022-08-08T09:39:27.808Z</time>
      </trkpt>
      <trkpt lat="43.74626" lon="1.41467">
        <ele>193.363434</ele>
        <time>2022-08-08T09:39:29.806Z</time>
      </trkpt>
      <trkpt lat="43.74635" lon="1.41454">
        <ele>193.252377</ele>
        <time>2022-08-08T09:39:31.804Z</time>
      </trkpt>
      <trkpt lat="43.74644" lon="1.41442">
        <ele>193.151171</ele>
        <time>2022-08-08T09:39:33.824Z</time>
      </trkpt>
      <trkpt lat="43.74652" lon="1.4143">
        <ele>193.050983</ele>
        <time>2022-08-08T09:39:35.817Z</time>
      </trkpt>
      <trkpt lat="43.74661" lon="1.41418">
        <ele>192.945443</ele>
        <time>2022-08-08T09:39:37.821Z</time>
      </trkpt>
      <trkpt lat="43.7467" lon="1.41406">
        <ele>192.84225</ele>
        <time>2022-08-08T09:39:39.826Z</time>
      </trkpt>
      <trkpt lat="43.74679" lon="1.41395">
        <ele>192.743561</ele>
        <time>2022-08-08T09:39:41.821Z</time>
      </trkpt>
      <trkpt lat="43.74688" lon="1.41384">
        <ele>192.642814</ele>
        <time>2022-08-08T09:39:43.841Z</time>
      </trkpt>
      <trkpt lat="43.74697" lon="1.41373">
        <ele>192.539389</ele>
        <time>2022-08-08T09:39:45.828Z</time>
      </trkpt>
      <trkpt lat="43.74708" lon="1.41362">
        <ele>192.429996</ele>
        <time>2022-08-08T09:39:47.808Z</time>
      </trkpt>
      <trkpt lat="43.74717" lon="1.4135">
        <ele>192.325145</ele>
        <time>2022-08-08T09:39:49.805Z</time>
      </trkpt>
      <trkpt lat="43.74732" lon="1.41331">
        <ele>192.151322</ele>
        <time>2022-08-08T09:39:52.808Z</time>
      </trkpt>
      <trkpt lat="43.74742" lon="1.41318">
        <ele>192.053318</ele>
        <time>2022-08-08T09:39:54.802Z</time>
      </trkpt>
      <trkpt lat="43.74756" lon="1.413">
        <ele>191.92392</ele>
        <time>2022-08-08T09:39:57.806Z</time>
      </trkpt>
      <trkpt lat="43.74765" lon="1.41288">
        <ele>191.83888</ele>
        <time>2022-08-08T09:39:59.788Z</time>
      </trkpt>
      <trkpt lat="43.74785" lon="1.41259">
        <ele>191.640596</ele>
        <time>2022-08-08T09:40:04.796Z</time>
      </trkpt>
      <trkpt lat="43.74795" lon="1.41247">
        <ele>191.553378</ele>
        <time>2022-08-08T09:40:06.787Z</time>
      </trkpt>
      <trkpt lat="43.74803" lon="1.41236">
        <ele>191.472354</ele>
        <time>2022-08-08T09:40:08.809Z</time>
      </trkpt>
      <trkpt lat="43.74815" lon="1.41215">
        <ele>191.340699</ele>
        <time>2022-08-08T09:40:11.797Z</time>
      </trkpt>
      <trkpt lat="43.74825" lon="1.41201">
        <ele>191.243722</ele>
        <time>2022-08-08T09:40:13.808Z</time>
      </trkpt>
      <trkpt lat="43.74835" lon="1.4119">
        <ele>191.156972</ele>
        <time>2022-08-08T09:40:15.803Z</time>
      </trkpt>
      <trkpt lat="43.74842" lon="1.41177">
        <ele>191.078051</ele>
        <time>2022-08-08T09:40:17.795Z</time>
      </trkpt>
      <trkpt lat="43.74849" lon="1.41164">
        <ele>190.996378</ele>
        <time>2022-08-08T09:40:19.794Z</time>
      </trkpt>
      <trkpt lat="43.74857" lon="1.41152">
        <ele>190.915583</ele>
        <time>2022-08-08T09:40:21.793Z</time>
      </trkpt>
      <trkpt lat="43.74864" lon="1.41139">
        <ele>190.933404</ele>
        <time>2022-08-08T09:40:23.805Z</time>
      </trkpt>
      <trkpt lat="43.74871" lon="1.41125">
        <ele>191.004622</ele>
        <time>2022-08-08T09:40:25.794Z</time>
      </trkpt>
      <trkpt lat="43.74873" lon="1.41109">
        <ele>191.073518</ele>
        <time>2022-08-08T09:40:27.792Z</time>
      </trkpt>
      <trkpt lat="43.74871" lon="1.41093">
        <ele>191.141307</ele>
        <time>2022-08-08T09:40:29.796Z</time>
      </trkpt>
      <trkpt lat="43.74869" lon="1.41078">
        <ele>191.208943</ele>
        <time>2022-08-08T09:40:31.798Z</time>
      </trkpt>
      <trkpt lat="43.74867" lon="1.41062">
        <ele>191.276831</ele>
        <time>2022-08-08T09:40:33.794Z</time>
      </trkpt>
      <trkpt lat="43.74864" lon="1.41046">
        <ele>191.344307</ele>
        <time>2022-08-08T09:40:35.807Z</time>
      </trkpt>
      <trkpt lat="43.74862" lon="1.41031">
        <ele>191.410958</ele>
        <time>2022-08-08T09:40:37.816Z</time>
      </trkpt>
      <trkpt lat="43.74859" lon="1.41016">
        <ele>191.475421</ele>
        <time>2022-08-08T09:40:39.801Z</time>
      </trkpt>
      <trkpt lat="43.74857" lon="1.41001">
        <ele>191.540709</ele>
        <time>2022-08-08T09:40:41.817Z</time>
      </trkpt>
      <trkpt lat="43.74855" lon="1.40986">
        <ele>191.606472</ele>
        <time>2022-08-08T09:40:43.807Z</time>
      </trkpt>
      <trkpt lat="43.74852" lon="1.4097">
        <ele>191.673254</ele>
        <time>2022-08-08T09:40:45.820Z</time>
      </trkpt>
      <trkpt lat="43.74849" lon="1.40955">
        <ele>191.739493</ele>
        <time>2022-08-08T09:40:47.803Z</time>
      </trkpt>
      <trkpt lat="43.74846" lon="1.4094">
        <ele>191.805879</ele>
        <time>2022-08-08T09:40:49.807Z</time>
      </trkpt>
      <trkpt lat="43.74841" lon="1.40916">
        <ele>191.908518</ele>
        <time>2022-08-08T09:40:52.813Z</time>
      </trkpt>
      <trkpt lat="43.74838" lon="1.40901">
        <ele>191.863977</ele>
        <time>2022-08-08T09:40:54.805Z</time>
      </trkpt>
      <trkpt lat="43.74835" lon="1.40886">
        <ele>191.72679</ele>
        <time>2022-08-08T09:40:56.777Z</time>
      </trkpt>
      <trkpt lat="43.74832" lon="1.40871">
        <ele>191.592527</ele>
        <time>2022-08-08T09:40:58.798Z</time>
      </trkpt>
      <trkpt lat="43.74835" lon="1.40857">
        <ele>191.470192</ele>
        <time>2022-08-08T09:41:01.810Z</time>
      </trkpt>
      <trkpt lat="43.74847" lon="1.40852">
        <ele>191.326188</ele>
        <time>2022-08-08T09:41:04.801Z</time>
      </trkpt>
      <trkpt lat="43.74857" lon="1.40848">
        <ele>191.20318</ele>
        <time>2022-08-08T09:41:06.817Z</time>
      </trkpt>
      <trkpt lat="43.74868" lon="1.40846">
        <ele>191.063617</ele>
        <time>2022-08-08T09:41:08.808Z</time>
      </trkpt>
      <trkpt lat="43.7488" lon="1.40841">
        <ele>190.921155</ele>
        <time>2022-08-08T09:41:10.804Z</time>
      </trkpt>
      <trkpt lat="43.74888" lon="1.40829">
        <ele>190.77779</ele>
        <time>2022-08-08T09:41:12.785Z</time>
      </trkpt>
      <trkpt lat="43.74889" lon="1.40813">
        <ele>190.644235</ele>
        <time>2022-08-08T09:41:14.815Z</time>
      </trkpt>
      <trkpt lat="43.74887" lon="1.40798">
        <ele>190.50997</ele>
        <time>2022-08-08T09:41:16.803Z</time>
      </trkpt>
      <trkpt lat="43.74884" lon="1.40783">
        <ele>190.377983</ele>
        <time>2022-08-08T09:41:18.795Z</time>
      </trkpt>
      <trkpt lat="43.74882" lon="1.40768">
        <ele>190.246597</ele>
        <time>2022-08-08T09:41:20.796Z</time>
      </trkpt>
      <trkpt lat="43.74879" lon="1.40753">
        <ele>190.11874</ele>
        <time>2022-08-08T09:41:22.805Z</time>
      </trkpt>
      <trkpt lat="43.74876" lon="1.40736">
        <ele>189.964488</ele>
        <time>2022-08-08T09:41:25.802Z</time>
      </trkpt>
      <trkpt lat="43.74879" lon="1.40721">
        <ele>189.834755</ele>
        <time>2022-08-08T09:41:30.795Z</time>
      </trkpt>
      <trkpt lat="43.74888" lon="1.40715">
        <ele>189.427602</ele>
        <time>2022-08-08T09:41:33.798Z</time>
      </trkpt>
      <trkpt lat="43.74897" lon="1.40714">
        <ele>188.967265</ele>
        <time>2022-08-08T09:41:35.812Z</time>
      </trkpt>
      <trkpt lat="43.74909" lon="1.40713">
        <ele>188.405559</ele>
        <time>2022-08-08T09:41:37.799Z</time>
      </trkpt>
      <trkpt lat="43.74922" lon="1.40712">
        <ele>187.800594</ele>
        <time>2022-08-08T09:41:39.788Z</time>
      </trkpt>
      <trkpt lat="43.74943" lon="1.4071">
        <ele>186.763019</ele>
        <time>2022-08-08T09:41:42.804Z</time>
      </trkpt>
      <trkpt lat="43.74959" lon="1.40709">
        <ele>186.023008</ele>
        <time>2022-08-08T09:41:44.808Z</time>
      </trkpt>
      <trkpt lat="43.74975" lon="1.40707">
        <ele>185.249785</ele>
        <time>2022-08-08T09:41:46.853Z</time>
      </trkpt>
      <trkpt lat="43.74991" lon="1.40706">
        <ele>184.448293</ele>
        <time>2022-08-08T09:41:48.801Z</time>
      </trkpt>
      <trkpt lat="43.75008" lon="1.40705">
        <ele>183.628013</ele>
        <time>2022-08-08T09:41:50.826Z</time>
      </trkpt>
      <trkpt lat="43.75026" lon="1.40703">
        <ele>182.802192</ele>
        <time>2022-08-08T09:41:52.792Z</time>
      </trkpt>
      <trkpt lat="43.75042" lon="1.407">
        <ele>181.990938</ele>
        <time>2022-08-08T09:41:54.804Z</time>
      </trkpt>
      <trkpt lat="43.75056" lon="1.40699">
        <ele>181.326742</ele>
        <time>2022-08-08T09:41:56.805Z</time>
      </trkpt>
      <trkpt lat="43.75065" lon="1.40693">
        <ele>181.224363</ele>
        <time>2022-08-08T09:42:00.816Z</time>
      </trkpt>
      <trkpt lat="43.7506" lon="1.40679">
        <ele>181.28142</ele>
        <time>2022-08-08T09:42:03.805Z</time>
      </trkpt>
      <trkpt lat="43.75053" lon="1.40667">
        <ele>181.334249</ele>
        <time>2022-08-08T09:42:05.822Z</time>
      </trkpt>
      <trkpt lat="43.75044" lon="1.40655">
        <ele>181.391126</ele>
        <time>2022-08-08T09:42:07.803Z</time>
      </trkpt>
      <trkpt lat="43.75037" lon="1.40643">
        <ele>181.447064</ele>
        <time>2022-08-08T09:42:09.806Z</time>
      </trkpt>
      <trkpt lat="43.75029" lon="1.40631">
        <ele>181.502364</ele>
        <time>2022-08-08T09:42:11.801Z</time>
      </trkpt>
      <trkpt lat="43.75021" lon="1.4062">
        <ele>181.557789</ele>
        <time>2022-08-08T09:42:13.810Z</time>
      </trkpt>
      <trkpt lat="43.75013" lon="1.40608">
        <ele>181.613865</ele>
        <time>2022-08-08T09:42:15.804Z</time>
      </trkpt>
      <trkpt lat="43.75005" lon="1.40596">
        <ele>181.668606</ele>
        <time>2022-08-08T09:42:17.801Z</time>
      </trkpt>
      <trkpt lat="43.74998" lon="1.40586">
        <ele>181.720358</ele>
        <time>2022-08-08T09:42:19.807Z</time>
      </trkpt>
      <trkpt lat="43.7499" lon="1.40574">
        <ele>181.775767</ele>
        <time>2022-08-08T09:42:21.811Z</time>
      </trkpt>
      <trkpt lat="43.74978" lon="1.40557">
        <ele>181.856881</ele>
        <time>2022-08-08T09:42:24.814Z</time>
      </trkpt>
      <trkpt lat="43.74965" lon="1.40543">
        <ele>181.936148</ele>
        <time>2022-08-08T09:42:27.831Z</time>
      </trkpt>
      <trkpt lat="43.74957" lon="1.40532">
        <ele>181.989408</ele>
        <time>2022-08-08T09:42:29.800Z</time>
      </trkpt>
      <trkpt lat="43.74949" lon="1.40522">
        <ele>182.042879</ele>
        <time>2022-08-08T09:42:31.828Z</time>
      </trkpt>
      <trkpt lat="43.74941" lon="1.40512">
        <ele>182.315083</ele>
        <time>2022-08-08T09:42:33.825Z</time>
      </trkpt>
      <trkpt lat="43.74932" lon="1.40503">
        <ele>182.637399</ele>
        <time>2022-08-08T09:42:35.804Z</time>
      </trkpt>
      <trkpt lat="43.74922" lon="1.40505">
        <ele>182.942545</ele>
        <time>2022-08-08T09:42:37.813Z</time>
      </trkpt>
      <trkpt lat="43.74912" lon="1.40509">
        <ele>183.273271</ele>
        <time>2022-08-08T09:42:39.804Z</time>
      </trkpt>
      <trkpt lat="43.74901" lon="1.40513">
        <ele>183.5942</ele>
        <time>2022-08-08T09:42:41.823Z</time>
      </trkpt>
      <trkpt lat="43.74891" lon="1.40516">
        <ele>183.930347</ele>
        <time>2022-08-08T09:42:43.806Z</time>
      </trkpt>
      <trkpt lat="43.7488" lon="1.4052">
        <ele>184.26809</ele>
        <time>2022-08-08T09:42:45.820Z</time>
      </trkpt>
      <trkpt lat="43.74869" lon="1.40524">
        <ele>184.60718</ele>
        <time>2022-08-08T09:42:47.814Z</time>
      </trkpt>
      <trkpt lat="43.74858" lon="1.40528">
        <ele>184.953714</ele>
        <time>2022-08-08T09:42:49.805Z</time>
      </trkpt>
      <trkpt lat="43.74847" lon="1.40531">
        <ele>185.288865</ele>
        <time>2022-08-08T09:42:51.804Z</time>
      </trkpt>
      <trkpt lat="43.74837" lon="1.40535">
        <ele>185.617304</ele>
        <time>2022-08-08T09:42:53.798Z</time>
      </trkpt>
      <trkpt lat="43.74826" lon="1.4054">
        <ele>185.951547</ele>
        <time>2022-08-08T09:42:55.820Z</time>
      </trkpt>
      <trkpt lat="43.74815" lon="1.40543">
        <ele>186.291151</ele>
        <time>2022-08-08T09:42:57.832Z</time>
      </trkpt>
      <trkpt lat="43.74804" lon="1.40547">
        <ele>186.623352</ele>
        <time>2022-08-08T09:42:59.796Z</time>
      </trkpt>
      <trkpt lat="43.74793" lon="1.40547">
        <ele>186.959265</ele>
        <time>2022-08-08T09:43:01.822Z</time>
      </trkpt>
      <trkpt lat="43.74784" lon="1.40538">
        <ele>187.295185</ele>
        <time>2022-08-08T09:43:03.810Z</time>
      </trkpt>
      <trkpt lat="43.74775" lon="1.4053">
        <ele>187.71153</ele>
        <time>2022-08-08T09:43:05.809Z</time>
      </trkpt>
      <trkpt lat="43.74761" lon="1.40517">
        <ele>188.58682</ele>
        <time>2022-08-08T09:43:08.795Z</time>
      </trkpt>
      <trkpt lat="43.74751" lon="1.40509">
        <ele>189.163504</ele>
        <time>2022-08-08T09:43:10.825Z</time>
      </trkpt>
      <trkpt lat="43.74741" lon="1.40501">
        <ele>189.753557</ele>
        <time>2022-08-08T09:43:12.809Z</time>
      </trkpt>
      <trkpt lat="43.7473" lon="1.40496">
        <ele>190.387918</ele>
        <time>2022-08-08T09:43:14.812Z</time>
      </trkpt>
      <trkpt lat="43.74719" lon="1.40497">
        <ele>190.947097</ele>
        <time>2022-08-08T09:43:16.817Z</time>
      </trkpt>
      <trkpt lat="43.74708" lon="1.40497">
        <ele>191.515145</ele>
        <time>2022-08-08T09:43:18.816Z</time>
      </trkpt>
      <trkpt lat="43.74698" lon="1.40492">
        <ele>192.067773</ele>
        <time>2022-08-08T09:43:20.821Z</time>
      </trkpt>
      <trkpt lat="43.74687" lon="1.40489">
        <ele>192.605457</ele>
        <time>2022-08-08T09:43:22.807Z</time>
      </trkpt>
      <trkpt lat="43.74672" lon="1.40485">
        <ele>193.429763</ele>
        <time>2022-08-08T09:43:25.819Z</time>
      </trkpt>
      <trkpt lat="43.74662" lon="1.4048">
        <ele>193.967688</ele>
        <time>2022-08-08T09:43:27.814Z</time>
      </trkpt>
      <trkpt lat="43.74653" lon="1.40473">
        <ele>194.47818</ele>
        <time>2022-08-08T09:43:29.865Z</time>
      </trkpt>
      <trkpt lat="43.74645" lon="1.40466">
        <ele>194.992742</ele>
        <time>2022-08-08T09:43:31.816Z</time>
      </trkpt>
      <trkpt lat="43.74635" lon="1.4046">
        <ele>195.536673</ele>
        <time>2022-08-08T09:43:33.822Z</time>
      </trkpt>
      <trkpt lat="43.74627" lon="1.40455">
        <ele>196.034056</ele>
        <time>2022-08-08T09:43:35.827Z</time>
      </trkpt>
      <trkpt lat="43.74618" lon="1.40449">
        <ele>196.537333</ele>
        <time>2022-08-08T09:43:37.825Z</time>
      </trkpt>
      <trkpt lat="43.74609" lon="1.40443">
        <ele>197.048709</ele>
        <time>2022-08-08T09:43:39.806Z</time>
      </trkpt>
      <trkpt lat="43.746" lon="1.40436">
        <ele>197.59954</ele>
        <time>2022-08-08T09:43:41.810Z</time>
      </trkpt>
      <trkpt lat="43.74592" lon="1.40428">
        <ele>198.165253</ele>
        <time>2022-08-08T09:43:43.809Z</time>
      </trkpt>
      <trkpt lat="43.74579" lon="1.40427">
        <ele>198.853022</ele>
        <time>2022-08-08T09:43:46.842Z</time>
      </trkpt>
      <trkpt lat="43.7457" lon="1.40437">
        <ele>199.479032</ele>
        <time>2022-08-08T09:43:49.819Z</time>
      </trkpt>
      <trkpt lat="43.7456" lon="1.40436">
        <ele>199.99771</ele>
        <time>2022-08-08T09:43:56.808Z</time>
      </trkpt>
      <trkpt lat="43.74555" lon="1.40449">
        <ele>200.55115</ele>
        <time>2022-08-08T09:44:00.835Z</time>
      </trkpt>
      <trkpt lat="43.74554" lon="1.40464">
        <ele>201.1706</ele>
        <time>2022-08-08T09:44:03.830Z</time>
      </trkpt>
      <trkpt lat="43.74549" lon="1.40477">
        <ele>201.722341</ele>
        <time>2022-08-08T09:44:06.830Z</time>
      </trkpt>
      <trkpt lat="43.74538" lon="1.40496">
        <ele>202.671165</ele>
        <time>2022-08-08T09:44:11.815Z</time>
      </trkpt>
      <trkpt lat="43.74534" lon="1.40507">
        <ele>203.174392</ele>
        <time>2022-08-08T09:44:14.847Z</time>
      </trkpt>
      <trkpt lat="43.74531" lon="1.4052">
        <ele>203.709885</ele>
        <time>2022-08-08T09:44:18.817Z</time>
      </trkpt>
      <trkpt lat="43.74522" lon="1.40529">
        <ele>204.30701</ele>
        <time>2022-08-08T09:44:23.813Z</time>
      </trkpt>
      <trkpt lat="43.74505" lon="1.40535">
        <ele>205.278784</ele>
        <time>2022-08-08T09:44:27.846Z</time>
      </trkpt>
      <trkpt lat="43.74494" lon="1.40534">
        <ele>205.84668</ele>
        <time>2022-08-08T09:44:30.824Z</time>
      </trkpt>
      <trkpt lat="43.74485" lon="1.40535">
        <ele>206.360876</ele>
        <time>2022-08-08T09:44:32.829Z</time>
      </trkpt>
      <trkpt lat="43.74476" lon="1.40527">
        <ele>206.991876</ele>
        <time>2022-08-08T09:44:36.794Z</time>
      </trkpt>
      <trkpt lat="43.74463" lon="1.40523">
        <ele>207.873582</ele>
        <time>2022-08-08T09:44:39.830Z</time>
      </trkpt>
      <trkpt lat="43.74452" lon="1.40523">
        <ele>208.560107</ele>
        <time>2022-08-08T09:44:42.821Z</time>
      </trkpt>
      <trkpt lat="43.74439" lon="1.40519">
        <ele>209.396022</ele>
        <time>2022-08-08T09:44:45.824Z</time>
      </trkpt>
      <trkpt lat="43.74426" lon="1.40515">
        <ele>210.271444</ele>
        <time>2022-08-08T09:44:49.811Z</time>
      </trkpt>
      <trkpt lat="43.74414" lon="1.40511">
        <ele>211.045834</ele>
        <time>2022-08-08T09:44:52.829Z</time>
      </trkpt>
      <trkpt lat="43.74404" lon="1.40506">
        <ele>211.760369</ele>
        <time>2022-08-08T09:44:54.806Z</time>
      </trkpt>
      <trkpt lat="43.74395" lon="1.40502">
        <ele>212.349177</ele>
        <time>2022-08-08T09:44:57.826Z</time>
      </trkpt>
      <trkpt lat="43.74385" lon="1.40501">
        <ele>212.994669</ele>
        <time>2022-08-08T09:45:00.808Z</time>
      </trkpt>
      <trkpt lat="43.74375" lon="1.40501">
        <ele>213.62921</ele>
        <time>2022-08-08T09:45:02.811Z</time>
      </trkpt>
      <trkpt lat="43.74358" lon="1.4049">
        <ele>214.821879</ele>
        <time>2022-08-08T09:45:10.780Z</time>
      </trkpt>
      <trkpt lat="43.74348" lon="1.40496">
        <ele>215.518329</ele>
        <time>2022-08-08T09:45:13.797Z</time>
      </trkpt>
      <trkpt lat="43.74338" lon="1.40503">
        <ele>216.260483</ele>
        <time>2022-08-08T09:45:16.795Z</time>
      </trkpt>
      <trkpt lat="43.74329" lon="1.4051">
        <ele>216.895223</ele>
        <time>2022-08-08T09:45:19.803Z</time>
      </trkpt>
      <trkpt lat="43.74318" lon="1.40515">
        <ele>217.671786</ele>
        <time>2022-08-08T09:45:22.796Z</time>
      </trkpt>
      <trkpt lat="43.74305" lon="1.4052">
        <ele>218.33089</ele>
        <time>2022-08-08T09:45:26.799Z</time>
      </trkpt>
      <trkpt lat="43.74288" lon="1.40521">
        <ele>218.904587</ele>
        <time>2022-08-08T09:45:28.818Z</time>
      </trkpt>
      <trkpt lat="43.74278" lon="1.40513">
        <ele>219.299575</ele>
        <time>2022-08-08T09:45:30.784Z</time>
      </trkpt>
      <trkpt lat="43.74266" lon="1.40504">
        <ele>219.739615</ele>
        <time>2022-08-08T09:45:33.803Z</time>
      </trkpt>
      <trkpt lat="43.74257" lon="1.40499">
        <ele>220.085971</ele>
        <time>2022-08-08T09:45:35.801Z</time>
      </trkpt>
      <trkpt lat="43.74246" lon="1.40495">
        <ele>220.481222</ele>
        <time>2022-08-08T09:45:37.822Z</time>
      </trkpt>
      <trkpt lat="43.7423" lon="1.40489">
        <ele>221.02353</ele>
        <time>2022-08-08T09:45:40.807Z</time>
      </trkpt>
      <trkpt lat="43.7422" lon="1.40484">
        <ele>221.393294</ele>
        <time>2022-08-08T09:45:42.811Z</time>
      </trkpt>
      <trkpt lat="43.74202" lon="1.40472">
        <ele>222.06718</ele>
        <time>2022-08-08T09:45:46.802Z</time>
      </trkpt>
      <trkpt lat="43.74192" lon="1.40458">
        <ele>222.547617</ele>
        <time>2022-08-08T09:45:49.812Z</time>
      </trkpt>
      <trkpt lat="43.74186" lon="1.40449">
        <ele>222.864322</ele>
        <time>2022-08-08T09:45:51.805Z</time>
      </trkpt>
      <trkpt lat="43.74178" lon="1.40439">
        <ele>223.220469</ele>
        <time>2022-08-08T09:45:53.827Z</time>
      </trkpt>
      <trkpt lat="43.7417" lon="1.4043">
        <ele>223.589139</ele>
        <time>2022-08-08T09:45:55.787Z</time>
      </trkpt>
      <trkpt lat="43.74161" lon="1.40421">
        <ele>223.950554</ele>
        <time>2022-08-08T09:45:57.804Z</time>
      </trkpt>
      <trkpt lat="43.74153" lon="1.40414">
        <ele>224.231862</ele>
        <time>2022-08-08T09:45:59.805Z</time>
      </trkpt>
      <trkpt lat="43.74145" lon="1.40405">
        <ele>224.289957</ele>
        <time>2022-08-08T09:46:01.811Z</time>
      </trkpt>
      <trkpt lat="43.74136" lon="1.40393">
        <ele>224.363689</ele>
        <time>2022-08-08T09:46:04.815Z</time>
      </trkpt>
      <trkpt lat="43.74126" lon="1.40408">
        <ele>224.453977</ele>
        <time>2022-08-08T09:46:08.836Z</time>
      </trkpt>
      <trkpt lat="43.74121" lon="1.40423">
        <ele>224.521442</ele>
        <time>2022-08-08T09:46:10.810Z</time>
      </trkpt>
      <trkpt lat="43.74115" lon="1.40437">
        <ele>224.58923</ele>
        <time>2022-08-08T09:46:12.819Z</time>
      </trkpt>
      <trkpt lat="43.74111" lon="1.40451">
        <ele>224.652578</ele>
        <time>2022-08-08T09:46:14.804Z</time>
      </trkpt>
      <trkpt lat="43.74106" lon="1.40466">
        <ele>224.72258</ele>
        <time>2022-08-08T09:46:16.807Z</time>
      </trkpt>
      <trkpt lat="43.74097" lon="1.40486">
        <ele>224.824061</ele>
        <time>2022-08-08T09:46:19.825Z</time>
      </trkpt>
      <trkpt lat="43.74087" lon="1.40491">
        <ele>224.882091</ele>
        <time>2022-08-08T09:46:21.811Z</time>
      </trkpt>
      <trkpt lat="43.74078" lon="1.40485">
        <ele>224.945907</ele>
        <time>2022-08-08T09:46:23.813Z</time>
      </trkpt>
      <trkpt lat="43.74068" lon="1.40478">
        <ele>225.010243</ele>
        <time>2022-08-08T09:46:25.821Z</time>
      </trkpt>
      <trkpt lat="43.74058" lon="1.40472">
        <ele>225.072453</ele>
        <time>2022-08-08T09:46:27.799Z</time>
      </trkpt>
      <trkpt lat="43.74049" lon="1.40466">
        <ele>225.132357</ele>
        <time>2022-08-08T09:46:29.829Z</time>
      </trkpt>
      <trkpt lat="43.74027" lon="1.40459">
        <ele>225.26369</ele>
        <time>2022-08-08T09:46:33.828Z</time>
      </trkpt>
      <trkpt lat="43.74016" lon="1.40452">
        <ele>225.433856</ele>
        <time>2022-08-08T09:46:35.825Z</time>
      </trkpt>
      <trkpt lat="43.74006" lon="1.40446">
        <ele>225.620182</ele>
        <time>2022-08-08T09:46:37.840Z</time>
      </trkpt>
      <trkpt lat="43.73994" lon="1.40441">
        <ele>225.814383</ele>
        <time>2022-08-08T09:46:39.820Z</time>
      </trkpt>
      <trkpt lat="43.73983" lon="1.40448">
        <ele>226.008579</ele>
        <time>2022-08-08T09:46:41.813Z</time>
      </trkpt>
      <trkpt lat="43.73976" lon="1.40463">
        <ele>226.20879</ele>
        <time>2022-08-08T09:46:43.809Z</time>
      </trkpt>
      <trkpt lat="43.73966" lon="1.40469">
        <ele>226.39274</ele>
        <time>2022-08-08T09:46:45.790Z</time>
      </trkpt>
      <trkpt lat="43.73955" lon="1.40464">
        <ele>226.568371</ele>
        <time>2022-08-08T09:46:47.824Z</time>
      </trkpt>
      <trkpt lat="43.73945" lon="1.40458">
        <ele>226.744068</ele>
        <time>2022-08-08T09:46:49.813Z</time>
      </trkpt>
      <trkpt lat="43.73935" lon="1.40453">
        <ele>226.915074</ele>
        <time>2022-08-08T09:46:51.824Z</time>
      </trkpt>
      <trkpt lat="43.73927" lon="1.40448">
        <ele>227.069912</ele>
        <time>2022-08-08T09:46:53.802Z</time>
      </trkpt>
      <trkpt lat="43.73917" lon="1.40442">
        <ele>227.237271</ele>
        <time>2022-08-08T09:46:55.810Z</time>
      </trkpt>
      <trkpt lat="43.73907" lon="1.40436">
        <ele>227.413992</ele>
        <time>2022-08-08T09:46:57.832Z</time>
      </trkpt>
      <trkpt lat="43.73899" lon="1.4043">
        <ele>227.568877</ele>
        <time>2022-08-08T09:46:59.815Z</time>
      </trkpt>
      <trkpt lat="43.73889" lon="1.40422">
        <ele>227.74263</ele>
        <time>2022-08-08T09:47:01.826Z</time>
      </trkpt>
      <trkpt lat="43.73881" lon="1.40416">
        <ele>227.901149</ele>
        <time>2022-08-08T09:47:03.826Z</time>
      </trkpt>
      <trkpt lat="43.73872" lon="1.40409">
        <ele>228.062406</ele>
        <time>2022-08-08T09:47:05.818Z</time>
      </trkpt>
      <trkpt lat="43.73864" lon="1.40402">
        <ele>227.968257</ele>
        <time>2022-08-08T09:47:07.808Z</time>
      </trkpt>
      <trkpt lat="43.73856" lon="1.40395">
        <ele>227.046178</ele>
        <time>2022-08-08T09:47:09.814Z</time>
      </trkpt>
      <trkpt lat="43.73844" lon="1.40391">
        <ele>225.801142</ele>
        <time>2022-08-08T09:47:12.818Z</time>
      </trkpt>
      <trkpt lat="43.73833" lon="1.40403">
        <ele>224.472968</ele>
        <time>2022-08-08T09:47:15.814Z</time>
      </trkpt>
      <trkpt lat="43.73827" lon="1.40414">
        <ele>223.457315</ele>
        <time>2022-08-08T09:47:17.835Z</time>
      </trkpt>
      <trkpt lat="43.73821" lon="1.40427">
        <ele>222.375851</ele>
        <time>2022-08-08T09:47:19.789Z</time>
      </trkpt>
      <trkpt lat="43.73814" lon="1.40442">
        <ele>221.120505</ele>
        <time>2022-08-08T09:47:21.827Z</time>
      </trkpt>
      <trkpt lat="43.73808" lon="1.40455">
        <ele>220.033032</ele>
        <time>2022-08-08T09:47:23.815Z</time>
      </trkpt>
      <trkpt lat="43.73802" lon="1.40466">
        <ele>219.021144</ele>
        <time>2022-08-08T09:47:25.839Z</time>
      </trkpt>
      <trkpt lat="43.73791" lon="1.40461">
        <ele>217.938982</ele>
        <time>2022-08-08T09:47:28.820Z</time>
      </trkpt>
      <trkpt lat="43.73783" lon="1.40449">
        <ele>216.818396</ele>
        <time>2022-08-08T09:47:30.817Z</time>
      </trkpt>
      <trkpt lat="43.73774" lon="1.40437">
        <ele>215.555425</ele>
        <time>2022-08-08T09:47:32.830Z</time>
      </trkpt>
      <trkpt lat="43.73767" lon="1.40426">
        <ele>214.521036</ele>
        <time>2022-08-08T09:47:34.814Z</time>
      </trkpt>
      <trkpt lat="43.73759" lon="1.40413">
        <ele>213.364778</ele>
        <time>2022-08-08T09:47:36.802Z</time>
      </trkpt>
      <trkpt lat="43.73749" lon="1.40398">
        <ele>211.892768</ele>
        <time>2022-08-08T09:47:38.800Z</time>
      </trkpt>
      <trkpt lat="43.73738" lon="1.40382">
        <ele>210.048493</ele>
        <time>2022-08-08T09:47:40.828Z</time>
      </trkpt>
      <trkpt lat="43.73723" lon="1.40367">
        <ele>207.180224</ele>
        <time>2022-08-08T09:47:42.817Z</time>
      </trkpt>
      <trkpt lat="43.73715" lon="1.4036">
        <ele>205.526973</ele>
        <time>2022-08-08T09:47:43.820Z</time>
      </trkpt>
      <trkpt lat="43.73705" lon="1.40351">
        <ele>203.650264</ele>
        <time>2022-08-08T09:47:44.810Z</time>
      </trkpt>
      <trkpt lat="43.73696" lon="1.40339">
        <ele>201.597544</ele>
        <time>2022-08-08T09:47:45.829Z</time>
      </trkpt>
      <trkpt lat="43.73686" lon="1.40327">
        <ele>199.45056</ele>
        <time>2022-08-08T09:47:46.820Z</time>
      </trkpt>
      <trkpt lat="43.73676" lon="1.40314">
        <ele>197.167946</ele>
        <time>2022-08-08T09:47:47.815Z</time>
      </trkpt>
      <trkpt lat="43.73665" lon="1.403">
        <ele>194.837412</ele>
        <time>2022-08-08T09:47:48.813Z</time>
      </trkpt>
      <trkpt lat="43.73655" lon="1.40287">
        <ele>192.606448</ele>
        <time>2022-08-08T09:47:49.810Z</time>
      </trkpt>
      <trkpt lat="43.73647" lon="1.40275">
        <ele>190.589109</ele>
        <time>2022-08-08T09:47:50.826Z</time>
      </trkpt>
      <trkpt lat="43.7364" lon="1.40265">
        <ele>188.899057</ele>
        <time>2022-08-08T09:47:51.809Z</time>
      </trkpt>
      <trkpt lat="43.73634" lon="1.40253">
        <ele>187.248693</ele>
        <time>2022-08-08T09:47:52.798Z</time>
      </trkpt>
      <trkpt lat="43.73627" lon="1.40242">
        <ele>185.521071</ele>
        <time>2022-08-08T09:47:53.800Z</time>
      </trkpt>
      <trkpt lat="43.7362" lon="1.4023">
        <ele>183.767543</ele>
        <time>2022-08-08T09:47:54.808Z</time>
      </trkpt>
      <trkpt lat="43.73613" lon="1.40219">
        <ele>182.022843</ele>
        <time>2022-08-08T09:47:55.809Z</time>
      </trkpt>
      <trkpt lat="43.73606" lon="1.40208">
        <ele>181.172483</ele>
        <time>2022-08-08T09:47:56.828Z</time>
      </trkpt>
      <trkpt lat="43.73599" lon="1.40198">
        <ele>180.883604</ele>
        <time>2022-08-08T09:47:57.809Z</time>
      </trkpt>
      <trkpt lat="43.73589" lon="1.40185">
        <ele>180.498195</ele>
        <time>2022-08-08T09:47:59.795Z</time>
      </trkpt>
      <trkpt lat="43.7358" lon="1.40177">
        <ele>180.191043</ele>
        <time>2022-08-08T09:48:02.794Z</time>
      </trkpt>
      <trkpt lat="43.73567" lon="1.4018">
        <ele>179.808156</ele>
        <time>2022-08-08T09:48:05.812Z</time>
      </trkpt>
      <trkpt lat="43.73556" lon="1.40184">
        <ele>179.501169</ele>
        <time>2022-08-08T09:48:07.831Z</time>
      </trkpt>
      <trkpt lat="43.73545" lon="1.40188">
        <ele>179.172442</ele>
        <time>2022-08-08T09:48:09.836Z</time>
      </trkpt>
      <trkpt lat="43.73533" lon="1.40192">
        <ele>178.82825</ele>
        <time>2022-08-08T09:48:11.805Z</time>
      </trkpt>
      <trkpt lat="43.73521" lon="1.40195">
        <ele>178.478532</ele>
        <time>2022-08-08T09:48:13.825Z</time>
      </trkpt>
      <trkpt lat="43.73509" lon="1.40196">
        <ele>178.123525</ele>
        <time>2022-08-08T09:48:15.836Z</time>
      </trkpt>
      <trkpt lat="43.73497" lon="1.40191">
        <ele>177.762894</ele>
        <time>2022-08-08T09:48:17.849Z</time>
      </trkpt>
      <trkpt lat="43.73486" lon="1.40181">
        <ele>177.39022</ele>
        <time>2022-08-08T09:48:19.826Z</time>
      </trkpt>
      <trkpt lat="43.73473" lon="1.40173">
        <ele>176.996473</ele>
        <time>2022-08-08T09:48:21.824Z</time>
      </trkpt>
      <trkpt lat="43.7346" lon="1.40169">
        <ele>176.609349</ele>
        <time>2022-08-08T09:48:23.824Z</time>
      </trkpt>
      <trkpt lat="43.73445" lon="1.40172">
        <ele>176.227156</ele>
        <time>2022-08-08T09:48:25.823Z</time>
      </trkpt>
      <trkpt lat="43.73432" lon="1.40175">
        <ele>176.050542</ele>
        <time>2022-08-08T09:48:27.813Z</time>
      </trkpt>
      <trkpt lat="43.73418" lon="1.40179">
        <ele>175.87585</ele>
        <time>2022-08-08T09:48:29.811Z</time>
      </trkpt>
      <trkpt lat="43.73405" lon="1.40184">
        <ele>175.702384</ele>
        <time>2022-08-08T09:48:31.818Z</time>
      </trkpt>
      <trkpt lat="43.73391" lon="1.40189">
        <ele>175.52898</ele>
        <time>2022-08-08T09:48:33.823Z</time>
      </trkpt>
      <trkpt lat="43.73378" lon="1.40194">
        <ele>175.353391</ele>
        <time>2022-08-08T09:48:35.815Z</time>
      </trkpt>
      <trkpt lat="43.73365" lon="1.402">
        <ele>175.17973</ele>
        <time>2022-08-08T09:48:37.805Z</time>
      </trkpt>
      <trkpt lat="43.73353" lon="1.40208">
        <ele>175.013517</ele>
        <time>2022-08-08T09:48:39.824Z</time>
      </trkpt>
      <trkpt lat="43.73341" lon="1.40217">
        <ele>174.846922</ele>
        <time>2022-08-08T09:48:41.848Z</time>
      </trkpt>
      <trkpt lat="43.73329" lon="1.40222">
        <ele>174.684409</ele>
        <time>2022-08-08T09:48:43.833Z</time>
      </trkpt>
      <trkpt lat="43.73316" lon="1.40218">
        <ele>174.515368</ele>
        <time>2022-08-08T09:48:45.813Z</time>
      </trkpt>
      <trkpt lat="43.73304" lon="1.40207">
        <ele>174.339167</ele>
        <time>2022-08-08T09:48:47.819Z</time>
      </trkpt>
      <trkpt lat="43.73295" lon="1.40192">
        <ele>174.154857</ele>
        <time>2022-08-08T09:48:49.843Z</time>
      </trkpt>
      <trkpt lat="43.73285" lon="1.40177">
        <ele>173.982111</ele>
        <time>2022-08-08T09:48:51.805Z</time>
      </trkpt>
      <trkpt lat="43.73274" lon="1.40165">
        <ele>173.913106</ele>
        <time>2022-08-08T09:48:53.808Z</time>
      </trkpt>
      <trkpt lat="43.73263" lon="1.40154">
        <ele>173.844851</ele>
        <time>2022-08-08T09:48:55.810Z</time>
      </trkpt>
      <trkpt lat="43.73252" lon="1.40145">
        <ele>173.777337</ele>
        <time>2022-08-08T09:48:57.808Z</time>
      </trkpt>
      <trkpt lat="43.73239" lon="1.4014">
        <ele>173.713542</ele>
        <time>2022-08-08T09:48:59.804Z</time>
      </trkpt>
      <trkpt lat="43.73227" lon="1.40139">
        <ele>173.648356</ele>
        <time>2022-08-08T09:49:01.808Z</time>
      </trkpt>
      <trkpt lat="43.73213" lon="1.4014">
        <ele>173.582184</ele>
        <time>2022-08-08T09:49:03.831Z</time>
      </trkpt>
      <trkpt lat="43.73201" lon="1.40141">
        <ele>173.517038</ele>
        <time>2022-08-08T09:49:05.818Z</time>
      </trkpt>
      <trkpt lat="43.73188" lon="1.40142">
        <ele>173.453865</ele>
        <time>2022-08-08T09:49:07.807Z</time>
      </trkpt>
      <trkpt lat="43.73176" lon="1.40143">
        <ele>173.392057</ele>
        <time>2022-08-08T09:49:09.823Z</time>
      </trkpt>
      <trkpt lat="43.73164" lon="1.40146">
        <ele>173.330456</ele>
        <time>2022-08-08T09:49:11.807Z</time>
      </trkpt>
      <trkpt lat="43.73152" lon="1.40148">
        <ele>173.269138</ele>
        <time>2022-08-08T09:49:13.813Z</time>
      </trkpt>
      <trkpt lat="43.7314" lon="1.40152">
        <ele>173.207073</ele>
        <time>2022-08-08T09:49:15.820Z</time>
      </trkpt>
      <trkpt lat="43.73128" lon="1.40155">
        <ele>173.146375</ele>
        <time>2022-08-08T09:49:17.797Z</time>
      </trkpt>
      <trkpt lat="43.73116" lon="1.4016">
        <ele>173.085502</ele>
        <time>2022-08-08T09:49:19.845Z</time>
      </trkpt>
      <trkpt lat="43.73105" lon="1.40164">
        <ele>173.07262</ele>
        <time>2022-08-08T09:49:21.835Z</time>
      </trkpt>
      <trkpt lat="43.73094" lon="1.40169">
        <ele>173.063485</ele>
        <time>2022-08-08T09:49:23.810Z</time>
      </trkpt>
      <trkpt lat="43.73083" lon="1.40173">
        <ele>173.054756</ele>
        <time>2022-08-08T09:49:25.811Z</time>
      </trkpt>
      <trkpt lat="43.73074" lon="1.40177">
        <ele>173.04719</ele>
        <time>2022-08-08T09:49:27.833Z</time>
      </trkpt>
      <trkpt lat="43.73064" lon="1.40181">
        <ele>173.039591</ele>
        <time>2022-08-08T09:49:29.834Z</time>
      </trkpt>
      <trkpt lat="43.73054" lon="1.40186">
        <ele>173.031185</ele>
        <time>2022-08-08T09:49:31.835Z</time>
      </trkpt>
      <trkpt lat="43.73045" lon="1.40194">
        <ele>173.022988</ele>
        <time>2022-08-08T09:49:33.834Z</time>
      </trkpt>
      <trkpt lat="43.73034" lon="1.40198">
        <ele>173.014169</ele>
        <time>2022-08-08T09:49:35.828Z</time>
      </trkpt>
      <trkpt lat="43.73024" lon="1.40202">
        <ele>173.005592</ele>
        <time>2022-08-08T09:49:37.830Z</time>
      </trkpt>
      <trkpt lat="43.73014" lon="1.40207">
        <ele>172.997604</ele>
        <time>2022-08-08T09:49:39.805Z</time>
      </trkpt>
      <trkpt lat="43.73006" lon="1.40212">
        <ele>172.990454</ele>
        <time>2022-08-08T09:49:41.813Z</time>
      </trkpt>
      <trkpt lat="43.72988" lon="1.40218">
        <ele>172.976217</ele>
        <time>2022-08-08T09:59:44.808Z</time>
      </trkpt>
      <trkpt lat="43.72978" lon="1.40222">
        <ele>172.967626</ele>
        <time>2022-08-08T09:59:47.806Z</time>
      </trkpt>
      <trkpt lat="43.72967" lon="1.40228">
        <ele>172.958759</ele>
        <time>2022-08-08T09:59:50.798Z</time>
      </trkpt>
      <trkpt lat="43.72954" lon="1.40234">
        <ele>172.948151</ele>
        <time>2022-08-08T09:59:53.795Z</time>
      </trkpt>
      <trkpt lat="43.72945" lon="1.40239">
        <ele>172.940682</ele>
        <time>2022-08-08T09:59:55.811Z</time>
      </trkpt>
      <trkpt lat="43.72937" lon="1.40244">
        <ele>172.949943</ele>
        <time>2022-08-08T09:59:57.815Z</time>
      </trkpt>
      <trkpt lat="43.72928" lon="1.40249">
        <ele>172.958864</ele>
        <time>2022-08-08T09:59:59.793Z</time>
      </trkpt>
      <trkpt lat="43.7292" lon="1.40255">
        <ele>172.967904</ele>
        <time>2022-08-08T10:00:01.811Z</time>
      </trkpt>
      <trkpt lat="43.7291" lon="1.40259">
        <ele>172.977635</ele>
        <time>2022-08-08T10:00:03.811Z</time>
      </trkpt>
      <trkpt lat="43.729" lon="1.40266">
        <ele>172.988537</ele>
        <time>2022-08-08T10:00:05.815Z</time>
      </trkpt>
      <trkpt lat="43.72891" lon="1.40274">
        <ele>172.999664</ele>
        <time>2022-08-08T10:00:07.816Z</time>
      </trkpt>
      <trkpt lat="43.72882" lon="1.40285">
        <ele>173.010925</ele>
        <time>2022-08-08T10:00:09.853Z</time>
      </trkpt>
      <trkpt lat="43.72874" lon="1.40297">
        <ele>173.022535</ele>
        <time>2022-08-08T10:00:11.814Z</time>
      </trkpt>
      <trkpt lat="43.72866" lon="1.40309">
        <ele>173.034126</ele>
        <time>2022-08-08T10:00:13.796Z</time>
      </trkpt>
      <trkpt lat="43.72859" lon="1.40322">
        <ele>173.045738</ele>
        <time>2022-08-08T10:00:15.807Z</time>
      </trkpt>
      <trkpt lat="43.72851" lon="1.40335">
        <ele>173.057527</ele>
        <time>2022-08-08T10:00:17.801Z</time>
      </trkpt>
      <trkpt lat="43.72844" lon="1.40349">
        <ele>173.0693</ele>
        <time>2022-08-08T10:00:19.799Z</time>
      </trkpt>
      <trkpt lat="43.72836" lon="1.40362">
        <ele>173.081097</ele>
        <time>2022-08-08T10:00:21.792Z</time>
      </trkpt>
      <trkpt lat="43.72828" lon="1.40374">
        <ele>173.092674</ele>
        <time>2022-08-08T10:00:23.805Z</time>
      </trkpt>
      <trkpt lat="43.72821" lon="1.40386">
        <ele>173.103936</ele>
        <time>2022-08-08T10:00:25.825Z</time>
      </trkpt>
      <trkpt lat="43.72812" lon="1.40397">
        <ele>173.115485</ele>
        <time>2022-08-08T10:00:27.817Z</time>
      </trkpt>
      <trkpt lat="43.72804" lon="1.40407">
        <ele>173.149896</ele>
        <time>2022-08-08T10:00:29.804Z</time>
      </trkpt>
      <trkpt lat="43.72795" lon="1.40417">
        <ele>173.185989</ele>
        <time>2022-08-08T10:00:31.804Z</time>
      </trkpt>
      <trkpt lat="43.72785" lon="1.40425">
        <ele>173.222061</ele>
        <time>2022-08-08T10:00:33.819Z</time>
      </trkpt>
      <trkpt lat="43.72774" lon="1.40431">
        <ele>173.258499</ele>
        <time>2022-08-08T10:00:35.807Z</time>
      </trkpt>
      <trkpt lat="43.72763" lon="1.40436">
        <ele>173.294938</ele>
        <time>2022-08-08T10:00:37.793Z</time>
      </trkpt>
      <trkpt lat="43.72753" lon="1.40441">
        <ele>173.330348</ele>
        <time>2022-08-08T10:00:39.804Z</time>
      </trkpt>
      <trkpt lat="43.72742" lon="1.40445">
        <ele>173.3663</ele>
        <time>2022-08-08T10:00:41.806Z</time>
      </trkpt>
      <trkpt lat="43.7273" lon="1.40449">
        <ele>173.403429</ele>
        <time>2022-08-08T10:00:43.804Z</time>
      </trkpt>
      <trkpt lat="43.72719" lon="1.40452">
        <ele>173.439819</ele>
        <time>2022-08-08T10:00:45.787Z</time>
      </trkpt>
      <trkpt lat="43.72708" lon="1.40456">
        <ele>173.47664</ele>
        <time>2022-08-08T10:00:47.797Z</time>
      </trkpt>
      <trkpt lat="43.72696" lon="1.4046">
        <ele>173.513383</ele>
        <time>2022-08-08T10:00:49.806Z</time>
      </trkpt>
      <trkpt lat="43.72685" lon="1.40464">
        <ele>173.550151</ele>
        <time>2022-08-08T10:00:51.800Z</time>
      </trkpt>
      <trkpt lat="43.72674" lon="1.40468">
        <ele>173.587383</ele>
        <time>2022-08-08T10:00:53.801Z</time>
      </trkpt>
      <trkpt lat="43.72663" lon="1.40474">
        <ele>173.624937</ele>
        <time>2022-08-08T10:00:55.807Z</time>
      </trkpt>
      <trkpt lat="43.72652" lon="1.4048">
        <ele>173.6629</ele>
        <time>2022-08-08T10:00:57.807Z</time>
      </trkpt>
      <trkpt lat="43.72642" lon="1.40488">
        <ele>173.69366</ele>
        <time>2022-08-08T10:00:59.804Z</time>
      </trkpt>
      <trkpt lat="43.72632" lon="1.40497">
        <ele>173.714997</ele>
        <time>2022-08-08T10:01:01.816Z</time>
      </trkpt>
      <trkpt lat="43.72621" lon="1.40506">
        <ele>173.737193</ele>
        <time>2022-08-08T10:01:03.817Z</time>
      </trkpt>
      <trkpt lat="43.72612" lon="1.40515">
        <ele>173.758695</ele>
        <time>2022-08-08T10:01:05.802Z</time>
      </trkpt>
      <trkpt lat="43.72601" lon="1.40523">
        <ele>173.780153</ele>
        <time>2022-08-08T10:01:07.792Z</time>
      </trkpt>
      <trkpt lat="43.72592" lon="1.40532">
        <ele>173.801369</ele>
        <time>2022-08-08T10:01:09.822Z</time>
      </trkpt>
      <trkpt lat="43.72582" lon="1.4054">
        <ele>173.822305</ele>
        <time>2022-08-08T10:01:11.797Z</time>
      </trkpt>
      <trkpt lat="43.72572" lon="1.40548">
        <ele>173.84362</ele>
        <time>2022-08-08T10:01:13.820Z</time>
      </trkpt>
      <trkpt lat="43.72561" lon="1.40555">
        <ele>173.865572</ele>
        <time>2022-08-08T10:01:15.802Z</time>
      </trkpt>
      <trkpt lat="43.72549" lon="1.4056">
        <ele>173.887422</ele>
        <time>2022-08-08T10:01:17.814Z</time>
      </trkpt>
      <trkpt lat="43.72537" lon="1.40564">
        <ele>173.909527</ele>
        <time>2022-08-08T10:01:19.815Z</time>
      </trkpt>
      <trkpt lat="43.72526" lon="1.40567">
        <ele>173.93103</ele>
        <time>2022-08-08T10:01:21.819Z</time>
      </trkpt>
      <trkpt lat="43.72514" lon="1.40569">
        <ele>173.952421</ele>
        <time>2022-08-08T10:01:23.810Z</time>
      </trkpt>
      <trkpt lat="43.72503" lon="1.40571">
        <ele>173.973886</ele>
        <time>2022-08-08T10:01:25.802Z</time>
      </trkpt>
      <trkpt lat="43.72491" lon="1.40573">
        <ele>173.995384</ele>
        <time>2022-08-08T10:01:27.803Z</time>
      </trkpt>
      <trkpt lat="43.72479" lon="1.40575">
        <ele>174.019999</ele>
        <time>2022-08-08T10:01:29.829Z</time>
      </trkpt>
      <trkpt lat="43.72468" lon="1.40578">
        <ele>174.060323</ele>
        <time>2022-08-08T10:01:31.814Z</time>
      </trkpt>
      <trkpt lat="43.72456" lon="1.4058">
        <ele>174.100272</ele>
        <time>2022-08-08T10:01:33.803Z</time>
      </trkpt>
      <trkpt lat="43.72445" lon="1.40582">
        <ele>174.139951</ele>
        <time>2022-08-08T10:01:35.804Z</time>
      </trkpt>
      <trkpt lat="43.72433" lon="1.40584">
        <ele>174.179152</ele>
        <time>2022-08-08T10:01:37.817Z</time>
      </trkpt>
      <trkpt lat="43.72422" lon="1.40587">
        <ele>174.219516</ele>
        <time>2022-08-08T10:01:39.826Z</time>
      </trkpt>
      <trkpt lat="43.7241" lon="1.40589">
        <ele>174.259399</ele>
        <time>2022-08-08T10:01:41.810Z</time>
      </trkpt>
      <trkpt lat="43.72399" lon="1.40591">
        <ele>174.298941</ele>
        <time>2022-08-08T10:01:43.826Z</time>
      </trkpt>
      <trkpt lat="43.72388" lon="1.40593">
        <ele>174.338302</ele>
        <time>2022-08-08T10:01:45.814Z</time>
      </trkpt>
      <trkpt lat="43.72376" lon="1.40595">
        <ele>174.379078</ele>
        <time>2022-08-08T10:01:47.805Z</time>
      </trkpt>
      <trkpt lat="43.72364" lon="1.40598">
        <ele>174.419216</ele>
        <time>2022-08-08T10:01:49.807Z</time>
      </trkpt>
      <trkpt lat="43.72353" lon="1.40601">
        <ele>174.459194</ele>
        <time>2022-08-08T10:01:51.813Z</time>
      </trkpt>
      <trkpt lat="43.72342" lon="1.40605">
        <ele>174.49906</ele>
        <time>2022-08-08T10:01:53.811Z</time>
      </trkpt>
      <trkpt lat="43.72331" lon="1.40612">
        <ele>174.540026</ele>
        <time>2022-08-08T10:01:55.800Z</time>
      </trkpt>
      <trkpt lat="43.7232" lon="1.40617">
        <ele>174.581004</ele>
        <time>2022-08-08T10:01:57.810Z</time>
      </trkpt>
      <trkpt lat="43.72309" lon="1.40623">
        <ele>174.620959</ele>
        <time>2022-08-08T10:01:59.835Z</time>
      </trkpt>
      <trkpt lat="43.72298" lon="1.4063">
        <ele>174.663147</ele>
        <time>2022-08-08T10:02:01.835Z</time>
      </trkpt>
      <trkpt lat="43.72287" lon="1.40635">
        <ele>174.704357</ele>
        <time>2022-08-08T10:02:03.816Z</time>
      </trkpt>
      <trkpt lat="43.72276" lon="1.4064">
        <ele>174.746403</ele>
        <time>2022-08-08T10:02:05.801Z</time>
      </trkpt>
      <trkpt lat="43.72265" lon="1.40641">
        <ele>174.786669</ele>
        <time>2022-08-08T10:02:07.824Z</time>
      </trkpt>
      <trkpt lat="43.72253" lon="1.40642">
        <ele>174.830063</ele>
        <time>2022-08-08T10:02:09.821Z</time>
      </trkpt>
      <trkpt lat="43.72241" lon="1.40639">
        <ele>174.87335</ele>
        <time>2022-08-08T10:02:11.816Z</time>
      </trkpt>
      <trkpt lat="43.7223" lon="1.40635">
        <ele>174.914469</ele>
        <time>2022-08-08T10:02:13.807Z</time>
      </trkpt>
      <trkpt lat="43.72218" lon="1.40633">
        <ele>174.957318</ele>
        <time>2022-08-08T10:02:15.817Z</time>
      </trkpt>
      <trkpt lat="43.72206" lon="1.40631">
        <ele>174.999123</ele>
        <time>2022-08-08T10:02:17.824Z</time>
      </trkpt>
      <trkpt lat="43.72194" lon="1.40632">
        <ele>175.041459</ele>
        <time>2022-08-08T10:02:19.804Z</time>
      </trkpt>
      <trkpt lat="43.72183" lon="1.40634">
        <ele>175.083559</ele>
        <time>2022-08-08T10:02:21.817Z</time>
      </trkpt>
      <trkpt lat="43.72171" lon="1.40637">
        <ele>175.125478</ele>
        <time>2022-08-08T10:02:23.812Z</time>
      </trkpt>
      <trkpt lat="43.7216" lon="1.4064">
        <ele>175.167705</ele>
        <time>2022-08-08T10:02:25.807Z</time>
      </trkpt>
      <trkpt lat="43.72148" lon="1.40643">
        <ele>175.210072</ele>
        <time>2022-08-08T10:02:27.819Z</time>
      </trkpt>
      <trkpt lat="43.72137" lon="1.40647">
        <ele>175.252354</ele>
        <time>2022-08-08T10:02:29.816Z</time>
      </trkpt>
      <trkpt lat="43.72125" lon="1.40651">
        <ele>175.296833</ele>
        <time>2022-08-08T10:02:31.824Z</time>
      </trkpt>
      <trkpt lat="43.72114" lon="1.40655">
        <ele>175.344945</ele>
        <time>2022-08-08T10:02:33.817Z</time>
      </trkpt>
      <trkpt lat="43.72103" lon="1.40662">
        <ele>175.394287</ele>
        <time>2022-08-08T10:02:35.806Z</time>
      </trkpt>
      <trkpt lat="43.72094" lon="1.4067">
        <ele>175.442713</ele>
        <time>2022-08-08T10:02:37.819Z</time>
      </trkpt>
      <trkpt lat="43.72084" lon="1.40677">
        <ele>175.48926</ele>
        <time>2022-08-08T10:02:39.819Z</time>
      </trkpt>
      <trkpt lat="43.72074" lon="1.40679">
        <ele>175.528815</ele>
        <time>2022-08-08T10:02:41.822Z</time>
      </trkpt>
      <trkpt lat="43.72063" lon="1.40683">
        <ele>175.576956</ele>
        <time>2022-08-08T10:02:44.815Z</time>
      </trkpt>
      <trkpt lat="43.72055" lon="1.4069">
        <ele>175.617971</ele>
        <time>2022-08-08T10:02:57.809Z</time>
      </trkpt>
      <trkpt lat="43.72049" lon="1.40702">
        <ele>175.661703</ele>
        <time>2022-08-08T10:03:00.820Z</time>
      </trkpt>
      <trkpt lat="43.72045" lon="1.40717">
        <ele>175.708963</ele>
        <time>2022-08-08T10:03:03.807Z</time>
      </trkpt>
      <trkpt lat="43.72038" lon="1.40705">
        <ele>175.753847</ele>
        <time>2022-08-08T10:03:08.801Z</time>
      </trkpt>
      <trkpt lat="43.72025" lon="1.40698">
        <ele>175.810728</ele>
        <time>2022-08-08T10:03:11.800Z</time>
      </trkpt>
      <trkpt lat="43.72014" lon="1.40694">
        <ele>175.861019</ele>
        <time>2022-08-08T10:03:13.812Z</time>
      </trkpt>
      <trkpt lat="43.72002" lon="1.40689">
        <ele>175.911703</ele>
        <time>2022-08-08T10:03:15.824Z</time>
      </trkpt>
      <trkpt lat="43.71991" lon="1.40686">
        <ele>175.961952</ele>
        <time>2022-08-08T10:03:17.862Z</time>
      </trkpt>
      <trkpt lat="43.71979" lon="1.40682">
        <ele>176.013085</ele>
        <time>2022-08-08T10:03:19.839Z</time>
      </trkpt>
      <trkpt lat="43.71967" lon="1.40678">
        <ele>176.038183</ele>
        <time>2022-08-08T10:03:21.805Z</time>
      </trkpt>
      <trkpt lat="43.71955" lon="1.40674">
        <ele>176.049591</ele>
        <time>2022-08-08T10:03:23.833Z</time>
      </trkpt>
      <trkpt lat="43.71943" lon="1.40672">
        <ele>176.060959</ele>
        <time>2022-08-08T10:03:25.836Z</time>
      </trkpt>
      <trkpt lat="43.71932" lon="1.40668">
        <ele>176.072214</ele>
        <time>2022-08-08T10:03:27.815Z</time>
      </trkpt>
      <trkpt lat="43.7192" lon="1.40665">
        <ele>176.083164</ele>
        <time>2022-08-08T10:03:29.825Z</time>
      </trkpt>
      <trkpt lat="43.71909" lon="1.40662">
        <ele>176.094302</ele>
        <time>2022-08-08T10:03:31.810Z</time>
      </trkpt>
      <trkpt lat="43.71897" lon="1.4066">
        <ele>176.10539</ele>
        <time>2022-08-08T10:03:33.803Z</time>
      </trkpt>
      <trkpt lat="43.71886" lon="1.40657">
        <ele>176.116455</ele>
        <time>2022-08-08T10:03:35.822Z</time>
      </trkpt>
      <trkpt lat="43.71874" lon="1.40655">
        <ele>176.127415</ele>
        <time>2022-08-08T10:03:37.813Z</time>
      </trkpt>
      <trkpt lat="43.71863" lon="1.40652">
        <ele>176.138398</ele>
        <time>2022-08-08T10:03:39.811Z</time>
      </trkpt>
      <trkpt lat="43.71851" lon="1.4065">
        <ele>176.149452</ele>
        <time>2022-08-08T10:03:41.818Z</time>
      </trkpt>
      <trkpt lat="43.7184" lon="1.40648">
        <ele>176.160178</ele>
        <time>2022-08-08T10:03:43.797Z</time>
      </trkpt>
      <trkpt lat="43.71831" lon="1.40651">
        <ele>176.169224</ele>
        <time>2022-08-08T10:03:45.808Z</time>
      </trkpt>
      <trkpt lat="43.71827" lon="1.40663">
        <ele>176.178178</ele>
        <time>2022-08-08T10:03:47.801Z</time>
      </trkpt>
      <trkpt lat="43.7182" lon="1.40672">
        <ele>176.187519</ele>
        <time>2022-08-08T10:03:49.805Z</time>
      </trkpt>
      <trkpt lat="43.71809" lon="1.40675">
        <ele>176.198923</ele>
        <time>2022-08-08T10:03:51.807Z</time>
      </trkpt>
      <trkpt lat="43.71796" lon="1.40674">
        <ele>176.151261</ele>
        <time>2022-08-08T10:03:53.836Z</time>
      </trkpt>
      <trkpt lat="43.71783" lon="1.40678">
        <ele>176.086007</ele>
        <time>2022-08-08T10:03:55.821Z</time>
      </trkpt>
      <trkpt lat="43.71775" lon="1.4069">
        <ele>176.023294</ele>
        <time>2022-08-08T10:03:57.803Z</time>
      </trkpt>
      <trkpt lat="43.71771" lon="1.40707">
        <ele>175.960108</ele>
        <time>2022-08-08T10:03:59.813Z</time>
      </trkpt>
      <trkpt lat="43.71767" lon="1.40723">
        <ele>175.898058</ele>
        <time>2022-08-08T10:04:01.800Z</time>
      </trkpt>
      <trkpt lat="43.71764" lon="1.40739">
        <ele>175.836809</ele>
        <time>2022-08-08T10:04:03.825Z</time>
      </trkpt>
      <trkpt lat="43.7176" lon="1.40755">
        <ele>175.777182</ele>
        <time>2022-08-08T10:04:05.830Z</time>
      </trkpt>
      <trkpt lat="43.71757" lon="1.4077">
        <ele>175.718171</ele>
        <time>2022-08-08T10:04:07.815Z</time>
      </trkpt>
      <trkpt lat="43.71754" lon="1.40786">
        <ele>175.659801</ele>
        <time>2022-08-08T10:04:09.802Z</time>
      </trkpt>
      <trkpt lat="43.71749" lon="1.40801">
        <ele>175.600486</ele>
        <time>2022-08-08T10:04:11.793Z</time>
      </trkpt>
      <trkpt lat="43.71745" lon="1.40816">
        <ele>175.541188</ele>
        <time>2022-08-08T10:04:13.843Z</time>
      </trkpt>
      <trkpt lat="43.71741" lon="1.40831">
        <ele>175.482231</ele>
        <time>2022-08-08T10:04:15.819Z</time>
      </trkpt>
      <trkpt lat="43.71737" lon="1.40847">
        <ele>175.422577</ele>
        <time>2022-08-08T10:04:17.808Z</time>
      </trkpt>
      <trkpt lat="43.71732" lon="1.40862">
        <ele>175.362667</ele>
        <time>2022-08-08T10:04:19.827Z</time>
      </trkpt>
      <trkpt lat="43.71728" lon="1.40877">
        <ele>175.302858</ele>
        <time>2022-08-08T10:04:21.813Z</time>
      </trkpt>
      <trkpt lat="43.71724" lon="1.40892">
        <ele>175.315343</ele>
        <time>2022-08-08T10:04:23.805Z</time>
      </trkpt>
      <trkpt lat="43.71719" lon="1.40907">
        <ele>175.335662</ele>
        <time>2022-08-08T10:04:25.808Z</time>
      </trkpt>
      <trkpt lat="43.71714" lon="1.40922">
        <ele>175.355798</ele>
        <time>2022-08-08T10:04:27.831Z</time>
      </trkpt>
      <trkpt lat="43.71709" lon="1.40937">
        <ele>175.375681</ele>
        <time>2022-08-08T10:04:29.813Z</time>
      </trkpt>
      <trkpt lat="43.71705" lon="1.4095">
        <ele>175.394288</ele>
        <time>2022-08-08T10:04:31.792Z</time>
      </trkpt>
      <trkpt lat="43.71698" lon="1.40963">
        <ele>175.41407</ele>
        <time>2022-08-08T10:04:33.819Z</time>
      </trkpt>
      <trkpt lat="43.71689" lon="1.40973">
        <ele>175.434106</ele>
        <time>2022-08-08T10:04:35.820Z</time>
      </trkpt>
      <trkpt lat="43.7168" lon="1.40982">
        <ele>175.454141</ele>
        <time>2022-08-08T10:04:37.818Z</time>
      </trkpt>
      <trkpt lat="43.7167" lon="1.40992">
        <ele>175.473975</ele>
        <time>2022-08-08T10:04:39.823Z</time>
      </trkpt>
      <trkpt lat="43.71661" lon="1.40999">
        <ele>175.493111</ele>
        <time>2022-08-08T10:04:41.824Z</time>
      </trkpt>
      <trkpt lat="43.71649" lon="1.41003">
        <ele>175.513084</ele>
        <time>2022-08-08T10:04:43.834Z</time>
      </trkpt>
      <trkpt lat="43.71638" lon="1.41009">
        <ele>175.533687</ele>
        <time>2022-08-08T10:04:45.830Z</time>
      </trkpt>
      <trkpt lat="43.71627" lon="1.41014">
        <ele>175.553905</ele>
        <time>2022-08-08T10:04:47.819Z</time>
      </trkpt>
      <trkpt lat="43.71616" lon="1.41021">
        <ele>175.574555</ele>
        <time>2022-08-08T10:04:49.831Z</time>
      </trkpt>
      <trkpt lat="43.71604" lon="1.41025">
        <ele>175.595059</ele>
        <time>2022-08-08T10:04:51.824Z</time>
      </trkpt>
      <trkpt lat="43.71593" lon="1.41028">
        <ele>175.617215</ele>
        <time>2022-08-08T10:04:53.820Z</time>
      </trkpt>
      <trkpt lat="43.71581" lon="1.41028">
        <ele>175.640671</ele>
        <time>2022-08-08T10:04:55.817Z</time>
      </trkpt>
      <trkpt lat="43.71569" lon="1.41029">
        <ele>175.663628</ele>
        <time>2022-08-08T10:04:57.824Z</time>
      </trkpt>
      <trkpt lat="43.71558" lon="1.4103">
        <ele>175.68671</ele>
        <time>2022-08-08T10:04:59.821Z</time>
      </trkpt>
      <trkpt lat="43.71546" lon="1.41031">
        <ele>175.709793</ele>
        <time>2022-08-08T10:05:01.812Z</time>
      </trkpt>
      <trkpt lat="43.71534" lon="1.41032">
        <ele>175.73328</ele>
        <time>2022-08-08T10:05:03.828Z</time>
      </trkpt>
      <trkpt lat="43.71523" lon="1.41033">
        <ele>175.756371</ele>
        <time>2022-08-08T10:05:05.825Z</time>
      </trkpt>
      <trkpt lat="43.71511" lon="1.41034">
        <ele>175.779469</ele>
        <time>2022-08-08T10:05:07.832Z</time>
      </trkpt>
      <trkpt lat="43.71499" lon="1.41035">
        <ele>175.802957</ele>
        <time>2022-08-08T10:05:09.832Z</time>
      </trkpt>
      <trkpt lat="43.71487" lon="1.41035">
        <ele>175.826611</ele>
        <time>2022-08-08T10:05:11.800Z</time>
      </trkpt>
      <trkpt lat="43.71476" lon="1.41036">
        <ele>175.849928</ele>
        <time>2022-08-08T10:05:13.837Z</time>
      </trkpt>
      <trkpt lat="43.71464" lon="1.41036">
        <ele>175.872984</ele>
        <time>2022-08-08T10:05:15.823Z</time>
      </trkpt>
      <trkpt lat="43.71453" lon="1.41035">
        <ele>175.895904</ele>
        <time>2022-08-08T10:05:17.835Z</time>
      </trkpt>
      <trkpt lat="43.71441" lon="1.41035">
        <ele>175.918962</ele>
        <time>2022-08-08T10:05:19.824Z</time>
      </trkpt>
      <trkpt lat="43.71429" lon="1.41034">
        <ele>175.942023</ele>
        <time>2022-08-08T10:05:21.835Z</time>
      </trkpt>
      <trkpt lat="43.71418" lon="1.41034">
        <ele>175.964411</ele>
        <time>2022-08-08T10:05:23.833Z</time>
      </trkpt>
      <trkpt lat="43.71406" lon="1.41033">
        <ele>175.973926</ele>
        <time>2022-08-08T10:05:25.830Z</time>
      </trkpt>
      <trkpt lat="43.71394" lon="1.41032">
        <ele>175.983274</ele>
        <time>2022-08-08T10:05:27.817Z</time>
      </trkpt>
      <trkpt lat="43.71383" lon="1.41032">
        <ele>175.992608</ele>
        <time>2022-08-08T10:05:29.827Z</time>
      </trkpt>
      <trkpt lat="43.71371" lon="1.41033">
        <ele>176.002141</ele>
        <time>2022-08-08T10:05:31.827Z</time>
      </trkpt>
      <trkpt lat="43.71359" lon="1.41036">
        <ele>176.011801</ele>
        <time>2022-08-08T10:05:33.824Z</time>
      </trkpt>
      <trkpt lat="43.71347" lon="1.41038">
        <ele>176.021537</ele>
        <time>2022-08-08T10:05:35.798Z</time>
      </trkpt>
      <trkpt lat="43.71334" lon="1.41041">
        <ele>176.03151</ele>
        <time>2022-08-08T10:05:37.844Z</time>
      </trkpt>
      <trkpt lat="43.71322" lon="1.41043">
        <ele>176.041104</ele>
        <time>2022-08-08T10:05:39.818Z</time>
      </trkpt>
      <trkpt lat="43.7131" lon="1.41044">
        <ele>176.050623</ele>
        <time>2022-08-08T10:05:41.834Z</time>
      </trkpt>
      <trkpt lat="43.71299" lon="1.41041">
        <ele>176.060007</ele>
        <time>2022-08-08T10:05:43.833Z</time>
      </trkpt>
      <trkpt lat="43.71287" lon="1.41039">
        <ele>176.069206</ele>
        <time>2022-08-08T10:05:45.827Z</time>
      </trkpt>
      <trkpt lat="43.71276" lon="1.41039">
        <ele>176.078385</ele>
        <time>2022-08-08T10:05:47.828Z</time>
      </trkpt>
      <trkpt lat="43.71264" lon="1.41039">
        <ele>176.087799</ele>
        <time>2022-08-08T10:05:49.837Z</time>
      </trkpt>
      <trkpt lat="43.71252" lon="1.4104">
        <ele>176.097234</ele>
        <time>2022-08-08T10:05:51.820Z</time>
      </trkpt>
      <trkpt lat="43.71241" lon="1.41042">
        <ele>176.106711</ele>
        <time>2022-08-08T10:05:53.812Z</time>
      </trkpt>
      <trkpt lat="43.71229" lon="1.41044">
        <ele>176.203372</ele>
        <time>2022-08-08T10:05:55.824Z</time>
      </trkpt>
      <trkpt lat="43.71217" lon="1.41046">
        <ele>176.306683</ele>
        <time>2022-08-08T10:05:57.826Z</time>
      </trkpt>
      <trkpt lat="43.71205" lon="1.41047">
        <ele>176.411429</ele>
        <time>2022-08-08T10:05:59.802Z</time>
      </trkpt>
      <trkpt lat="43.71194" lon="1.41047">
        <ele>176.514041</ele>
        <time>2022-08-08T10:06:01.815Z</time>
      </trkpt>
      <trkpt lat="43.71182" lon="1.41046">
        <ele>176.616263</ele>
        <time>2022-08-08T10:06:03.822Z</time>
      </trkpt>
      <trkpt lat="43.71172" lon="1.41044">
        <ele>176.711062</ele>
        <time>2022-08-08T10:06:05.816Z</time>
      </trkpt>
      <trkpt lat="43.71152" lon="1.41041">
        <ele>176.885033</ele>
        <time>2022-08-08T10:06:51.827Z</time>
      </trkpt>
      <trkpt lat="43.71143" lon="1.4104">
        <ele>176.968415</ele>
        <time>2022-08-08T10:06:53.817Z</time>
      </trkpt>
      <trkpt lat="43.71131" lon="1.4104">
        <ele>177.071912</ele>
        <time>2022-08-08T10:06:55.812Z</time>
      </trkpt>
      <trkpt lat="43.71119" lon="1.4104">
        <ele>177.177161</ele>
        <time>2022-08-08T10:06:57.814Z</time>
      </trkpt>
      <trkpt lat="43.71107" lon="1.4104">
        <ele>177.280647</ele>
        <time>2022-08-08T10:06:59.812Z</time>
      </trkpt>
      <trkpt lat="43.71095" lon="1.4104">
        <ele>177.385903</ele>
        <time>2022-08-08T10:07:01.811Z</time>
      </trkpt>
      <trkpt lat="43.71084" lon="1.41041">
        <ele>177.489665</ele>
        <time>2022-08-08T10:07:03.807Z</time>
      </trkpt>
      <trkpt lat="43.71072" lon="1.41043">
        <ele>177.595192</ele>
        <time>2022-08-08T10:07:05.820Z</time>
      </trkpt>
      <trkpt lat="43.7106" lon="1.41044">
        <ele>177.698511</ele>
        <time>2022-08-08T10:07:07.859Z</time>
      </trkpt>
      <trkpt lat="43.71048" lon="1.41046">
        <ele>177.723201</ele>
        <time>2022-08-08T10:07:09.810Z</time>
      </trkpt>
      <trkpt lat="43.71036" lon="1.41047">
        <ele>177.747644</ele>
        <time>2022-08-08T10:07:11.831Z</time>
      </trkpt>
      <trkpt lat="43.71025" lon="1.41049">
        <ele>177.772099</ele>
        <time>2022-08-08T10:07:13.824Z</time>
      </trkpt>
      <trkpt lat="43.71013" lon="1.4105">
        <ele>177.796569</ele>
        <time>2022-08-08T10:07:15.807Z</time>
      </trkpt>
      <trkpt lat="43.71001" lon="1.41051">
        <ele>177.821205</ele>
        <time>2022-08-08T10:07:17.811Z</time>
      </trkpt>
      <trkpt lat="43.70989" lon="1.41053">
        <ele>177.845895</ele>
        <time>2022-08-08T10:07:19.826Z</time>
      </trkpt>
      <trkpt lat="43.70977" lon="1.41055">
        <ele>177.870225</ele>
        <time>2022-08-08T10:07:21.815Z</time>
      </trkpt>
      <trkpt lat="43.70965" lon="1.41058">
        <ele>177.895453</ele>
        <time>2022-08-08T10:07:23.804Z</time>
      </trkpt>
      <trkpt lat="43.70953" lon="1.41061">
        <ele>177.920444</ele>
        <time>2022-08-08T10:07:25.820Z</time>
      </trkpt>
      <trkpt lat="43.70942" lon="1.41063">
        <ele>177.945128</ele>
        <time>2022-08-08T10:07:27.807Z</time>
      </trkpt>
      <trkpt lat="43.7093" lon="1.41066">
        <ele>177.969176</ele>
        <time>2022-08-08T10:07:29.823Z</time>
      </trkpt>
      <trkpt lat="43.70919" lon="1.41068">
        <ele>177.993136</ele>
        <time>2022-08-08T10:07:31.794Z</time>
      </trkpt>
      <trkpt lat="43.70907" lon="1.41071">
        <ele>178.01673</ele>
        <time>2022-08-08T10:07:33.819Z</time>
      </trkpt>
      <trkpt lat="43.70896" lon="1.41072">
        <ele>178.040805</ele>
        <time>2022-08-08T10:07:35.806Z</time>
      </trkpt>
      <trkpt lat="43.70884" lon="1.41072">
        <ele>178.065158</ele>
        <time>2022-08-08T10:07:37.816Z</time>
      </trkpt>
      <trkpt lat="43.70872" lon="1.4107">
        <ele>178.022789</ele>
        <time>2022-08-08T10:07:39.833Z</time>
      </trkpt>
      <trkpt lat="43.70861" lon="1.41068">
        <ele>177.966059</ele>
        <time>2022-08-08T10:07:41.814Z</time>
      </trkpt>
      <trkpt lat="43.70849" lon="1.41065">
        <ele>177.906752</ele>
        <time>2022-08-08T10:07:43.826Z</time>
      </trkpt>
      <trkpt lat="43.70837" lon="1.41063">
        <ele>177.849145</ele>
        <time>2022-08-08T10:07:45.815Z</time>
      </trkpt>
      <trkpt lat="43.70826" lon="1.41062">
        <ele>177.792838</ele>
        <time>2022-08-08T10:07:47.818Z</time>
      </trkpt>
      <trkpt lat="43.70814" lon="1.41062">
        <ele>177.734684</ele>
        <time>2022-08-08T10:07:49.833Z</time>
      </trkpt>
      <trkpt lat="43.70802" lon="1.41063">
        <ele>177.675806</ele>
        <time>2022-08-08T10:07:51.819Z</time>
      </trkpt>
      <trkpt lat="43.7079" lon="1.41066">
        <ele>177.616397</ele>
        <time>2022-08-08T10:07:53.829Z</time>
      </trkpt>
      <trkpt lat="43.70778" lon="1.41069">
        <ele>177.556561</ele>
        <time>2022-08-08T10:07:55.824Z</time>
      </trkpt>
      <trkpt lat="43.70765" lon="1.41072">
        <ele>177.495529</ele>
        <time>2022-08-08T10:07:57.803Z</time>
      </trkpt>
      <trkpt lat="43.70753" lon="1.41074">
        <ele>177.436423</ele>
        <time>2022-08-08T10:07:59.837Z</time>
      </trkpt>
      <trkpt lat="43.70741" lon="1.41075">
        <ele>177.378186</ele>
        <time>2022-08-08T10:08:01.808Z</time>
      </trkpt>
      <trkpt lat="43.70729" lon="1.41075">
        <ele>177.318015</ele>
        <time>2022-08-08T10:08:03.826Z</time>
      </trkpt>
      <trkpt lat="43.70717" lon="1.41076">
        <ele>177.257405</ele>
        <time>2022-08-08T10:08:05.804Z</time>
      </trkpt>
      <trkpt lat="43.70704" lon="1.41076">
        <ele>177.197299</ele>
        <time>2022-08-08T10:08:07.811Z</time>
      </trkpt>
      <trkpt lat="43.70693" lon="1.41076">
        <ele>177.2131</ele>
        <time>2022-08-08T10:08:09.811Z</time>
      </trkpt>
      <trkpt lat="43.70681" lon="1.41076">
        <ele>177.238471</ele>
        <time>2022-08-08T10:08:11.813Z</time>
      </trkpt>
      <trkpt lat="43.70669" lon="1.41076">
        <ele>177.26342</ele>
        <time>2022-08-08T10:08:13.819Z</time>
      </trkpt>
      <trkpt lat="43.70657" lon="1.41075">
        <ele>177.288221</ele>
        <time>2022-08-08T10:08:15.807Z</time>
      </trkpt>
      <trkpt lat="43.70646" lon="1.41072">
        <ele>177.313041</ele>
        <time>2022-08-08T10:08:17.837Z</time>
      </trkpt>
      <trkpt lat="43.70635" lon="1.4107">
        <ele>177.337415</ele>
        <time>2022-08-08T10:08:19.806Z</time>
      </trkpt>
      <trkpt lat="43.70623" lon="1.4107">
        <ele>177.362362</ele>
        <time>2022-08-08T10:08:21.826Z</time>
      </trkpt>
      <trkpt lat="43.70611" lon="1.41071">
        <ele>177.386777</ele>
        <time>2022-08-08T10:08:23.812Z</time>
      </trkpt>
      <trkpt lat="43.706" lon="1.41073">
        <ele>177.411086</ele>
        <time>2022-08-08T10:08:25.822Z</time>
      </trkpt>
      <trkpt lat="43.70589" lon="1.41074">
        <ele>177.435886</ele>
        <time>2022-08-08T10:08:27.819Z</time>
      </trkpt>
      <trkpt lat="43.70577" lon="1.41075">
        <ele>177.460038</ele>
        <time>2022-08-08T10:08:29.813Z</time>
      </trkpt>
      <trkpt lat="43.70566" lon="1.41077">
        <ele>177.484484</ele>
        <time>2022-08-08T10:08:31.828Z</time>
      </trkpt>
      <trkpt lat="43.70554" lon="1.41079">
        <ele>177.509324</ele>
        <time>2022-08-08T10:08:33.808Z</time>
      </trkpt>
      <trkpt lat="43.70543" lon="1.4108">
        <ele>177.533678</ele>
        <time>2022-08-08T10:08:35.809Z</time>
      </trkpt>
      <trkpt lat="43.70531" lon="1.41082">
        <ele>177.558621</ele>
        <time>2022-08-08T10:08:37.830Z</time>
      </trkpt>
      <trkpt lat="43.7052" lon="1.41084">
        <ele>177.572161</ele>
        <time>2022-08-08T10:08:39.834Z</time>
      </trkpt>
      <trkpt lat="43.70508" lon="1.41087">
        <ele>177.567069</ele>
        <time>2022-08-08T10:08:41.823Z</time>
      </trkpt>
      <trkpt lat="43.70496" lon="1.41087">
        <ele>177.561741</ele>
        <time>2022-08-08T10:08:43.839Z</time>
      </trkpt>
      <trkpt lat="43.70483" lon="1.41091">
        <ele>177.5561</ele>
        <time>2022-08-08T10:08:45.829Z</time>
      </trkpt>
      <trkpt lat="43.70471" lon="1.41093">
        <ele>177.550682</ele>
        <time>2022-08-08T10:08:47.832Z</time>
      </trkpt>
      <trkpt lat="43.7046" lon="1.41095">
        <ele>177.545677</ele>
        <time>2022-08-08T10:08:49.812Z</time>
      </trkpt>
      <trkpt lat="43.70448" lon="1.41098">
        <ele>177.540562</ele>
        <time>2022-08-08T10:08:51.827Z</time>
      </trkpt>
      <trkpt lat="43.70436" lon="1.41101">
        <ele>177.535361</ele>
        <time>2022-08-08T10:08:53.799Z</time>
      </trkpt>
      <trkpt lat="43.70425" lon="1.41105">
        <ele>177.530185</ele>
        <time>2022-08-08T10:08:55.825Z</time>
      </trkpt>
      <trkpt lat="43.70413" lon="1.41109">
        <ele>177.524974</ele>
        <time>2022-08-08T10:08:57.834Z</time>
      </trkpt>
      <trkpt lat="43.70402" lon="1.41114">
        <ele>177.519609</ele>
        <time>2022-08-08T10:08:59.822Z</time>
      </trkpt>
      <trkpt lat="43.7039" lon="1.4112">
        <ele>177.514295</ele>
        <time>2022-08-08T10:09:01.808Z</time>
      </trkpt>
      <trkpt lat="43.70379" lon="1.41127">
        <ele>177.509021</ele>
        <time>2022-08-08T10:09:03.822Z</time>
      </trkpt>
      <trkpt lat="43.70369" lon="1.41134">
        <ele>177.503877</ele>
        <time>2022-08-08T10:09:05.811Z</time>
      </trkpt>
      <trkpt lat="43.70358" lon="1.41142">
        <ele>177.498727</ele>
        <time>2022-08-08T10:09:07.801Z</time>
      </trkpt>
      <trkpt lat="43.70348" lon="1.4115">
        <ele>177.504738</ele>
        <time>2022-08-08T10:09:09.827Z</time>
      </trkpt>
      <trkpt lat="43.70338" lon="1.41158">
        <ele>177.528868</ele>
        <time>2022-08-08T10:09:11.802Z</time>
      </trkpt>
      <trkpt lat="43.70328" lon="1.41167">
        <ele>177.552953</ele>
        <time>2022-08-08T10:09:13.802Z</time>
      </trkpt>
      <trkpt lat="43.70319" lon="1.41177">
        <ele>177.576789</ele>
        <time>2022-08-08T10:09:15.796Z</time>
      </trkpt>
      <trkpt lat="43.7031" lon="1.41186">
        <ele>177.600655</ele>
        <time>2022-08-08T10:09:17.838Z</time>
      </trkpt>
      <trkpt lat="43.70301" lon="1.41197">
        <ele>177.624136</ele>
        <time>2022-08-08T10:09:19.786Z</time>
      </trkpt>
      <trkpt lat="43.70293" lon="1.41208">
        <ele>177.647731</ele>
        <time>2022-08-08T10:09:21.811Z</time>
      </trkpt>
      <trkpt lat="43.70284" lon="1.4122">
        <ele>177.671973</ele>
        <time>2022-08-08T10:09:23.822Z</time>
      </trkpt>
      <trkpt lat="43.70276" lon="1.41231">
        <ele>177.696111</ele>
        <time>2022-08-08T10:09:25.824Z</time>
      </trkpt>
      <trkpt lat="43.70267" lon="1.41242">
        <ele>177.720046</ele>
        <time>2022-08-08T10:09:27.812Z</time>
      </trkpt>
      <trkpt lat="43.7026" lon="1.41254">
        <ele>177.743575</ele>
        <time>2022-08-08T10:09:29.823Z</time>
      </trkpt>
      <trkpt lat="43.70251" lon="1.41265">
        <ele>177.767524</ele>
        <time>2022-08-08T10:09:31.827Z</time>
      </trkpt>
      <trkpt lat="43.70243" lon="1.41276">
        <ele>177.790913</ele>
        <time>2022-08-08T10:09:33.810Z</time>
      </trkpt>
      <trkpt lat="43.70234" lon="1.41287">
        <ele>177.814996</ele>
        <time>2022-08-08T10:09:35.830Z</time>
      </trkpt>
      <trkpt lat="43.70226" lon="1.41298">
        <ele>177.839032</ele>
        <time>2022-08-08T10:09:37.804Z</time>
      </trkpt>
      <trkpt lat="43.70217" lon="1.41309">
        <ele>177.863015</ele>
        <time>2022-08-08T10:09:39.799Z</time>
      </trkpt>
      <trkpt lat="43.70209" lon="1.41321">
        <ele>177.885672</ele>
        <time>2022-08-08T10:09:41.805Z</time>
      </trkpt>
      <trkpt lat="43.702" lon="1.41331">
        <ele>177.908336</ele>
        <time>2022-08-08T10:09:43.810Z</time>
      </trkpt>
      <trkpt lat="43.70191" lon="1.41342">
        <ele>177.930658</ele>
        <time>2022-08-08T10:09:45.810Z</time>
      </trkpt>
      <trkpt lat="43.70182" lon="1.41353">
        <ele>177.952646</ele>
        <time>2022-08-08T10:09:47.821Z</time>
      </trkpt>
      <trkpt lat="43.70174" lon="1.41364">
        <ele>177.974824</ele>
        <time>2022-08-08T10:09:49.857Z</time>
      </trkpt>
      <trkpt lat="43.70165" lon="1.41374">
        <ele>177.996843</ele>
        <time>2022-08-08T10:09:51.826Z</time>
      </trkpt>
      <trkpt lat="43.70155" lon="1.41383">
        <ele>178.018857</ele>
        <time>2022-08-08T10:09:53.812Z</time>
      </trkpt>
      <trkpt lat="43.70146" lon="1.41392">
        <ele>178.041185</ele>
        <time>2022-08-08T10:09:55.822Z</time>
      </trkpt>
      <trkpt lat="43.70136" lon="1.41402">
        <ele>178.063375</ele>
        <time>2022-08-08T10:09:57.835Z</time>
      </trkpt>
      <trkpt lat="43.70127" lon="1.41412">
        <ele>178.085602</ele>
        <time>2022-08-08T10:09:59.825Z</time>
      </trkpt>
      <trkpt lat="43.70118" lon="1.41423">
        <ele>178.107924</ele>
        <time>2022-08-08T10:10:01.824Z</time>
      </trkpt>
      <trkpt lat="43.7011" lon="1.41435">
        <ele>178.130435</ele>
        <time>2022-08-08T10:10:03.810Z</time>
      </trkpt>
      <trkpt lat="43.70102" lon="1.41446">
        <ele>178.152254</ele>
        <time>2022-08-08T10:10:05.820Z</time>
      </trkpt>
      <trkpt lat="43.70094" lon="1.41457">
        <ele>178.1745</ele>
        <time>2022-08-08T10:10:07.797Z</time>
      </trkpt>
      <trkpt lat="43.70085" lon="1.41469">
        <ele>178.197481</ele>
        <time>2022-08-08T10:10:09.825Z</time>
      </trkpt>
      <trkpt lat="43.70077" lon="1.41481">
        <ele>178.197472</ele>
        <time>2022-08-08T10:10:11.813Z</time>
      </trkpt>
      <trkpt lat="43.70067" lon="1.41491">
        <ele>178.183078</ele>
        <time>2022-08-08T10:10:13.820Z</time>
      </trkpt>
      <trkpt lat="43.70058" lon="1.41501">
        <ele>178.169172</ele>
        <time>2022-08-08T10:10:15.823Z</time>
      </trkpt>
      <trkpt lat="43.70049" lon="1.41511">
        <ele>178.155617</ele>
        <time>2022-08-08T10:10:17.810Z</time>
      </trkpt>
      <trkpt lat="43.70041" lon="1.41521">
        <ele>178.141959</ele>
        <time>2022-08-08T10:10:19.806Z</time>
      </trkpt>
      <trkpt lat="43.70031" lon="1.41531">
        <ele>178.128348</ele>
        <time>2022-08-08T10:10:21.821Z</time>
      </trkpt>
      <trkpt lat="43.70022" lon="1.4154">
        <ele>178.114487</ele>
        <time>2022-08-08T10:10:23.826Z</time>
      </trkpt>
      <trkpt lat="43.70013" lon="1.4155">
        <ele>178.100589</ele>
        <time>2022-08-08T10:10:25.820Z</time>
      </trkpt>
      <trkpt lat="43.70005" lon="1.41562">
        <ele>178.086724</ele>
        <time>2022-08-08T10:10:27.820Z</time>
      </trkpt>
      <trkpt lat="43.69997" lon="1.41573">
        <ele>178.073189</ele>
        <time>2022-08-08T10:10:29.804Z</time>
      </trkpt>
      <trkpt lat="43.69989" lon="1.41584">
        <ele>178.059677</ele>
        <time>2022-08-08T10:10:31.809Z</time>
      </trkpt>
      <trkpt lat="43.6998" lon="1.41595">
        <ele>178.045802</ele>
        <time>2022-08-08T10:10:33.837Z</time>
      </trkpt>
      <trkpt lat="43.69972" lon="1.41607">
        <ele>178.031539</ele>
        <time>2022-08-08T10:10:35.800Z</time>
      </trkpt>
      <trkpt lat="43.69963" lon="1.41618">
        <ele>178.017457</ele>
        <time>2022-08-08T10:10:37.805Z</time>
      </trkpt>
      <trkpt lat="43.69955" lon="1.41629">
        <ele>178.003494</ele>
        <time>2022-08-08T10:10:39.866Z</time>
      </trkpt>
      <trkpt lat="43.69946" lon="1.41638">
        <ele>177.99614</ele>
        <time>2022-08-08T10:10:41.810Z</time>
      </trkpt>
      <trkpt lat="43.69936" lon="1.41648">
        <ele>178.028682</ele>
        <time>2022-08-08T10:10:43.815Z</time>
      </trkpt>
      <trkpt lat="43.69928" lon="1.41658">
        <ele>178.060446</ele>
        <time>2022-08-08T10:10:45.814Z</time>
      </trkpt>
      <trkpt lat="43.69918" lon="1.41668">
        <ele>178.093207</ele>
        <time>2022-08-08T10:10:47.810Z</time>
      </trkpt>
      <trkpt lat="43.6991" lon="1.41679">
        <ele>178.125378</ele>
        <time>2022-08-08T10:10:49.798Z</time>
      </trkpt>
      <trkpt lat="43.699" lon="1.41689">
        <ele>178.158338</ele>
        <time>2022-08-08T10:10:51.813Z</time>
      </trkpt>
      <trkpt lat="43.69891" lon="1.41698">
        <ele>178.19082</ele>
        <time>2022-08-08T10:10:53.833Z</time>
      </trkpt>
      <trkpt lat="43.69882" lon="1.41708">
        <ele>178.223011</ele>
        <time>2022-08-08T10:10:55.853Z</time>
      </trkpt>
      <trkpt lat="43.69873" lon="1.41719">
        <ele>178.255182</ele>
        <time>2022-08-08T10:10:57.804Z</time>
      </trkpt>
      <trkpt lat="43.69864" lon="1.4173">
        <ele>178.288111</ele>
        <time>2022-08-08T10:10:59.824Z</time>
      </trkpt>
      <trkpt lat="43.69856" lon="1.41741">
        <ele>178.32042</ele>
        <time>2022-08-08T10:11:01.819Z</time>
      </trkpt>
      <trkpt lat="43.69847" lon="1.41752">
        <ele>178.35341</ele>
        <time>2022-08-08T10:11:03.808Z</time>
      </trkpt>
      <trkpt lat="43.69839" lon="1.41764">
        <ele>178.38606</ele>
        <time>2022-08-08T10:11:05.806Z</time>
      </trkpt>
      <trkpt lat="43.6983" lon="1.41775">
        <ele>178.418592</ele>
        <time>2022-08-08T10:11:07.829Z</time>
      </trkpt>
      <trkpt lat="43.69822" lon="1.41786">
        <ele>178.451321</ele>
        <time>2022-08-08T10:11:09.834Z</time>
      </trkpt>
      <trkpt lat="43.69813" lon="1.41797">
        <ele>178.484752</ele>
        <time>2022-08-08T10:11:11.810Z</time>
      </trkpt>
      <trkpt lat="43.69804" lon="1.41808">
        <ele>178.54625</ele>
        <time>2022-08-08T10:11:13.809Z</time>
      </trkpt>
      <trkpt lat="43.69795" lon="1.41819">
        <ele>178.614403</ele>
        <time>2022-08-08T10:11:15.788Z</time>
      </trkpt>
      <trkpt lat="43.69785" lon="1.4183">
        <ele>178.682709</ele>
        <time>2022-08-08T10:11:17.797Z</time>
      </trkpt>
      <trkpt lat="43.69776" lon="1.41841">
        <ele>178.752521</ele>
        <time>2022-08-08T10:11:19.803Z</time>
      </trkpt>
      <trkpt lat="43.69767" lon="1.41853">
        <ele>178.822607</ele>
        <time>2022-08-08T10:11:21.812Z</time>
      </trkpt>
      <trkpt lat="43.69757" lon="1.41863">
        <ele>178.892421</ele>
        <time>2022-08-08T10:11:23.816Z</time>
      </trkpt>
      <trkpt lat="43.69748" lon="1.41874">
        <ele>178.96109</ele>
        <time>2022-08-08T10:11:25.809Z</time>
      </trkpt>
      <trkpt lat="43.69738" lon="1.41885">
        <ele>179.032862</ele>
        <time>2022-08-08T10:11:27.806Z</time>
      </trkpt>
      <trkpt lat="43.69728" lon="1.41895">
        <ele>179.101668</ele>
        <time>2022-08-08T10:11:29.829Z</time>
      </trkpt>
      <trkpt lat="43.69719" lon="1.41906">
        <ele>179.170565</ele>
        <time>2022-08-08T10:11:31.815Z</time>
      </trkpt>
      <trkpt lat="43.6971" lon="1.41916">
        <ele>179.236951</ele>
        <time>2022-08-08T10:11:33.807Z</time>
      </trkpt>
      <trkpt lat="43.69701" lon="1.41926">
        <ele>179.301759</ele>
        <time>2022-08-08T10:11:35.807Z</time>
      </trkpt>
      <trkpt lat="43.69692" lon="1.41937">
        <ele>179.366219</ele>
        <time>2022-08-08T10:11:37.810Z</time>
      </trkpt>
      <trkpt lat="43.69683" lon="1.41946">
        <ele>179.432299</ele>
        <time>2022-08-08T10:11:39.810Z</time>
      </trkpt>
      <trkpt lat="43.69674" lon="1.41957">
        <ele>179.499454</ele>
        <time>2022-08-08T10:11:41.809Z</time>
      </trkpt>
      <trkpt lat="43.69665" lon="1.41967">
        <ele>179.516529</ele>
        <time>2022-08-08T10:11:43.793Z</time>
      </trkpt>
      <trkpt lat="43.69656" lon="1.41978">
        <ele>179.525956</ele>
        <time>2022-08-08T10:11:45.815Z</time>
      </trkpt>
      <trkpt lat="43.69647" lon="1.41989">
        <ele>179.535167</ele>
        <time>2022-08-08T10:11:47.806Z</time>
      </trkpt>
      <trkpt lat="43.69638" lon="1.42">
        <ele>179.544551</ele>
        <time>2022-08-08T10:11:49.809Z</time>
      </trkpt>
      <trkpt lat="43.69629" lon="1.42011">
        <ele>179.55401</ele>
        <time>2022-08-08T10:11:51.818Z</time>
      </trkpt>
      <trkpt lat="43.6962" lon="1.42023">
        <ele>179.56372</ele>
        <time>2022-08-08T10:11:53.810Z</time>
      </trkpt>
      <trkpt lat="43.69611" lon="1.42035">
        <ele>179.573854</ele>
        <time>2022-08-08T10:11:55.792Z</time>
      </trkpt>
      <trkpt lat="43.69602" lon="1.42047">
        <ele>179.583897</ele>
        <time>2022-08-08T10:11:57.809Z</time>
      </trkpt>
      <trkpt lat="43.69593" lon="1.42061">
        <ele>179.593875</ele>
        <time>2022-08-08T10:11:59.801Z</time>
      </trkpt>
      <trkpt lat="43.69585" lon="1.42073">
        <ele>179.603374</ele>
        <time>2022-08-08T10:12:01.800Z</time>
      </trkpt>
      <trkpt lat="43.69577" lon="1.42085">
        <ele>179.612486</ele>
        <time>2022-08-08T10:12:03.815Z</time>
      </trkpt>
      <trkpt lat="43.69568" lon="1.42095">
        <ele>179.621742</ele>
        <time>2022-08-08T10:12:05.808Z</time>
      </trkpt>
      <trkpt lat="43.69559" lon="1.42106">
        <ele>179.630902</ele>
        <time>2022-08-08T10:12:07.823Z</time>
      </trkpt>
      <trkpt lat="43.6955" lon="1.42116">
        <ele>179.640098</ele>
        <time>2022-08-08T10:12:09.806Z</time>
      </trkpt>
      <trkpt lat="43.69542" lon="1.42127">
        <ele>179.649198</ele>
        <time>2022-08-08T10:12:11.791Z</time>
      </trkpt>
      <trkpt lat="43.69533" lon="1.42137">
        <ele>179.680394</ele>
        <time>2022-08-08T10:12:13.803Z</time>
      </trkpt>
      <trkpt lat="43.69524" lon="1.42147">
        <ele>179.713638</ele>
        <time>2022-08-08T10:12:15.805Z</time>
      </trkpt>
      <trkpt lat="43.69515" lon="1.42158">
        <ele>179.747176</ele>
        <time>2022-08-08T10:12:17.812Z</time>
      </trkpt>
      <trkpt lat="43.69507" lon="1.42169">
        <ele>179.779508</ele>
        <time>2022-08-08T10:12:19.799Z</time>
      </trkpt>
      <trkpt lat="43.695" lon="1.42182">
        <ele>179.812266</ele>
        <time>2022-08-08T10:12:21.822Z</time>
      </trkpt>
      <trkpt lat="43.69493" lon="1.42194">
        <ele>179.843693</ele>
        <time>2022-08-08T10:12:23.819Z</time>
      </trkpt>
      <trkpt lat="43.69484" lon="1.42205">
        <ele>179.876441</ele>
        <time>2022-08-08T10:12:25.792Z</time>
      </trkpt>
      <trkpt lat="43.69475" lon="1.42215">
        <ele>179.909846</ele>
        <time>2022-08-08T10:12:27.807Z</time>
      </trkpt>
      <trkpt lat="43.69467" lon="1.42226">
        <ele>179.943225</ele>
        <time>2022-08-08T10:12:29.810Z</time>
      </trkpt>
      <trkpt lat="43.69459" lon="1.42239">
        <ele>179.978177</ele>
        <time>2022-08-08T10:12:31.808Z</time>
      </trkpt>
      <trkpt lat="43.69452" lon="1.42252">
        <ele>180.01209</ele>
        <time>2022-08-08T10:12:33.806Z</time>
      </trkpt>
      <trkpt lat="43.69444" lon="1.42265">
        <ele>180.046489</ele>
        <time>2022-08-08T10:12:35.808Z</time>
      </trkpt>
      <trkpt lat="43.69435" lon="1.42277">
        <ele>180.081406</ele>
        <time>2022-08-08T10:12:37.809Z</time>
      </trkpt>
      <trkpt lat="43.69427" lon="1.42289">
        <ele>180.114832</ele>
        <time>2022-08-08T10:12:39.806Z</time>
      </trkpt>
      <trkpt lat="43.69418" lon="1.423">
        <ele>180.147875</ele>
        <time>2022-08-08T10:12:41.814Z</time>
      </trkpt>
      <trkpt lat="43.6941" lon="1.42312">
        <ele>180.170918</ele>
        <time>2022-08-08T10:12:43.826Z</time>
      </trkpt>
      <trkpt lat="43.69403" lon="1.42325">
        <ele>180.187957</ele>
        <time>2022-08-08T10:12:45.813Z</time>
      </trkpt>
      <trkpt lat="43.69395" lon="1.42337">
        <ele>180.205012</ele>
        <time>2022-08-08T10:12:47.807Z</time>
      </trkpt>
      <trkpt lat="43.69387" lon="1.42349">
        <ele>180.221653</ele>
        <time>2022-08-08T10:12:49.802Z</time>
      </trkpt>
      <trkpt lat="43.69379" lon="1.42361">
        <ele>180.238822</ele>
        <time>2022-08-08T10:12:51.814Z</time>
      </trkpt>
      <trkpt lat="43.69371" lon="1.42374">
        <ele>180.255823</ele>
        <time>2022-08-08T10:12:53.817Z</time>
      </trkpt>
      <trkpt lat="43.69364" lon="1.42387">
        <ele>180.272969</ele>
        <time>2022-08-08T10:12:55.809Z</time>
      </trkpt>
      <trkpt lat="43.69357" lon="1.42401">
        <ele>180.290614</ele>
        <time>2022-08-08T10:12:57.806Z</time>
      </trkpt>
      <trkpt lat="43.69349" lon="1.42415">
        <ele>180.308347</ele>
        <time>2022-08-08T10:12:59.798Z</time>
      </trkpt>
      <trkpt lat="43.69342" lon="1.42428">
        <ele>180.325827</ele>
        <time>2022-08-08T10:13:01.822Z</time>
      </trkpt>
      <trkpt lat="43.69336" lon="1.42443">
        <ele>180.343346</ele>
        <time>2022-08-08T10:13:03.813Z</time>
      </trkpt>
      <trkpt lat="43.69329" lon="1.42457">
        <ele>180.360613</ele>
        <time>2022-08-08T10:13:05.814Z</time>
      </trkpt>
      <trkpt lat="43.69322" lon="1.42471">
        <ele>180.378103</ele>
        <time>2022-08-08T10:13:07.791Z</time>
      </trkpt>
      <trkpt lat="43.69316" lon="1.42485">
        <ele>180.395429</ele>
        <time>2022-08-08T10:13:09.820Z</time>
      </trkpt>
      <trkpt lat="43.69309" lon="1.42499">
        <ele>180.412339</ele>
        <time>2022-08-08T10:13:11.806Z</time>
      </trkpt>
      <trkpt lat="43.69301" lon="1.42512">
        <ele>180.449743</ele>
        <time>2022-08-08T10:13:13.810Z</time>
      </trkpt>
      <trkpt lat="43.69292" lon="1.42522">
        <ele>180.489573</ele>
        <time>2022-08-08T10:13:15.803Z</time>
      </trkpt>
      <trkpt lat="43.69282" lon="1.42531">
        <ele>180.532072</ele>
        <time>2022-08-08T10:13:17.809Z</time>
      </trkpt>
      <trkpt lat="43.69272" lon="1.42541">
        <ele>180.574858</ele>
        <time>2022-08-08T10:13:19.796Z</time>
      </trkpt>
      <trkpt lat="43.69261" lon="1.42549">
        <ele>180.618173</ele>
        <time>2022-08-08T10:13:21.807Z</time>
      </trkpt>
      <trkpt lat="43.69249" lon="1.42557">
        <ele>180.663028</ele>
        <time>2022-08-08T10:13:23.828Z</time>
      </trkpt>
      <trkpt lat="43.69239" lon="1.42566">
        <ele>180.706834</ele>
        <time>2022-08-08T10:13:25.790Z</time>
      </trkpt>
      <trkpt lat="43.69227" lon="1.42574">
        <ele>180.75092</ele>
        <time>2022-08-08T10:13:27.808Z</time>
      </trkpt>
      <trkpt lat="43.69216" lon="1.42581">
        <ele>180.792993</ele>
        <time>2022-08-08T10:13:29.810Z</time>
      </trkpt>
      <trkpt lat="43.69205" lon="1.42587">
        <ele>180.834088</ele>
        <time>2022-08-08T10:13:31.821Z</time>
      </trkpt>
      <trkpt lat="43.69194" lon="1.42591">
        <ele>180.876837</ele>
        <time>2022-08-08T10:13:33.822Z</time>
      </trkpt>
      <trkpt lat="43.69182" lon="1.42593">
        <ele>180.918203</ele>
        <time>2022-08-08T10:13:35.808Z</time>
      </trkpt>
      <trkpt lat="43.69171" lon="1.42595">
        <ele>180.95791</ele>
        <time>2022-08-08T10:13:37.811Z</time>
      </trkpt>
      <trkpt lat="43.69158" lon="1.42597">
        <ele>181.000341</ele>
        <time>2022-08-08T10:13:39.805Z</time>
      </trkpt>
      <trkpt lat="43.69146" lon="1.42599">
        <ele>181.043257</ele>
        <time>2022-08-08T10:13:41.817Z</time>
      </trkpt>
      <trkpt lat="43.69134" lon="1.42601">
        <ele>181.095248</ele>
        <time>2022-08-08T10:13:43.823Z</time>
      </trkpt>
      <trkpt lat="43.69122" lon="1.42604">
        <ele>181.148453</ele>
        <time>2022-08-08T10:13:45.813Z</time>
      </trkpt>
      <trkpt lat="43.69111" lon="1.42609">
        <ele>181.199811</ele>
        <time>2022-08-08T10:13:47.800Z</time>
      </trkpt>
      <trkpt lat="43.69102" lon="1.42618">
        <ele>181.249086</ele>
        <time>2022-08-08T10:13:49.821Z</time>
      </trkpt>
      <trkpt lat="43.69094" lon="1.42626">
        <ele>181.292598</ele>
        <time>2022-08-08T10:13:51.817Z</time>
      </trkpt>
      <trkpt lat="43.69084" lon="1.42636">
        <ele>181.346222</ele>
        <time>2022-08-08T10:13:53.808Z</time>
      </trkpt>
      <trkpt lat="43.69073" lon="1.42647">
        <ele>181.404863</ele>
        <time>2022-08-08T10:13:55.814Z</time>
      </trkpt>
      <trkpt lat="43.69062" lon="1.42652">
        <ele>181.456204</ele>
        <time>2022-08-08T10:13:57.801Z</time>
      </trkpt>
      <trkpt lat="43.69051" lon="1.42655">
        <ele>181.507149</ele>
        <time>2022-08-08T10:13:59.810Z</time>
      </trkpt>
      <trkpt lat="43.69038" lon="1.42655">
        <ele>181.562245</ele>
        <time>2022-08-08T10:14:01.806Z</time>
      </trkpt>
      <trkpt lat="43.69026" lon="1.42658">
        <ele>181.615882</ele>
        <time>2022-08-08T10:14:03.815Z</time>
      </trkpt>
      <trkpt lat="43.69014" lon="1.4266">
        <ele>181.669594</ele>
        <time>2022-08-08T10:14:05.821Z</time>
      </trkpt>
      <trkpt lat="43.69001" lon="1.42663">
        <ele>181.724475</ele>
        <time>2022-08-08T10:14:07.822Z</time>
      </trkpt>
      <trkpt lat="43.6899" lon="1.42666">
        <ele>181.776451</ele>
        <time>2022-08-08T10:14:09.804Z</time>
      </trkpt>
      <trkpt lat="43.68978" lon="1.4267">
        <ele>181.827866</ele>
        <time>2022-08-08T10:14:11.815Z</time>
      </trkpt>
      <trkpt lat="43.68967" lon="1.42675">
        <ele>181.838988</ele>
        <time>2022-08-08T10:14:13.821Z</time>
      </trkpt>
      <trkpt lat="43.68956" lon="1.42682">
        <ele>181.84714</ele>
        <time>2022-08-08T10:14:15.813Z</time>
      </trkpt>
      <trkpt lat="43.68946" lon="1.4269">
        <ele>181.855191</ele>
        <time>2022-08-08T10:14:17.810Z</time>
      </trkpt>
      <trkpt lat="43.68936" lon="1.42698">
        <ele>181.863147</ele>
        <time>2022-08-08T10:14:19.810Z</time>
      </trkpt>
      <trkpt lat="43.68925" lon="1.42705">
        <ele>181.871118</ele>
        <time>2022-08-08T10:14:21.843Z</time>
      </trkpt>
      <trkpt lat="43.68915" lon="1.42712">
        <ele>181.879019</ele>
        <time>2022-08-08T10:14:23.817Z</time>
      </trkpt>
      <trkpt lat="43.68905" lon="1.42719">
        <ele>181.886975</ele>
        <time>2022-08-08T10:14:25.803Z</time>
      </trkpt>
      <trkpt lat="43.68894" lon="1.42726">
        <ele>181.894968</ele>
        <time>2022-08-08T10:14:27.789Z</time>
      </trkpt>
      <trkpt lat="43.68884" lon="1.42733">
        <ele>181.902869</ele>
        <time>2022-08-08T10:14:29.797Z</time>
      </trkpt>
      <trkpt lat="43.68873" lon="1.42737">
        <ele>181.910836</ele>
        <time>2022-08-08T10:14:31.802Z</time>
      </trkpt>
      <trkpt lat="43.68862" lon="1.42734">
        <ele>181.918742</ele>
        <time>2022-08-08T10:14:33.826Z</time>
      </trkpt>
      <trkpt lat="43.68851" lon="1.42727">
        <ele>181.926842</ele>
        <time>2022-08-08T10:14:35.807Z</time>
      </trkpt>
      <trkpt lat="43.6884" lon="1.4272">
        <ele>181.935057</ele>
        <time>2022-08-08T10:14:37.801Z</time>
      </trkpt>
      <trkpt lat="43.6883" lon="1.42713">
        <ele>181.943209</ele>
        <time>2022-08-08T10:14:39.795Z</time>
      </trkpt>
      <trkpt lat="43.68819" lon="1.42706">
        <ele>181.951467</ele>
        <time>2022-08-08T10:14:41.811Z</time>
      </trkpt>
      <trkpt lat="43.68808" lon="1.42699">
        <ele>181.899884</ele>
        <time>2022-08-08T10:14:43.820Z</time>
      </trkpt>
      <trkpt lat="43.68799" lon="1.42689">
        <ele>181.808315</ele>
        <time>2022-08-08T10:14:45.813Z</time>
      </trkpt>
      <trkpt lat="43.68801" lon="1.42673">
        <ele>181.716232</ele>
        <time>2022-08-08T10:14:47.805Z</time>
      </trkpt>
      <trkpt lat="43.68812" lon="1.42669">
        <ele>181.62127</ele>
        <time>2022-08-08T10:14:49.798Z</time>
      </trkpt>
      <trkpt lat="43.68824" lon="1.42664">
        <ele>181.522448</ele>
        <time>2022-08-08T10:14:51.795Z</time>
      </trkpt>
      <trkpt lat="43.68831" lon="1.42653">
        <ele>181.440509</ele>
        <time>2022-08-08T10:14:53.798Z</time>
      </trkpt>
      <trkpt lat="43.68831" lon="1.42638">
        <ele>181.354692</ele>
        <time>2022-08-08T10:14:55.802Z</time>
      </trkpt>
      <trkpt lat="43.68831" lon="1.42622">
        <ele>181.263695</ele>
        <time>2022-08-08T10:14:57.812Z</time>
      </trkpt>
      <trkpt lat="43.68828" lon="1.42606">
        <ele>181.172527</ele>
        <time>2022-08-08T10:14:59.808Z</time>
      </trkpt>
      <trkpt lat="43.68823" lon="1.42593">
        <ele>181.08511</ele>
        <time>2022-08-08T10:15:01.793Z</time>
      </trkpt>
      <trkpt lat="43.68816" lon="1.42581">
        <ele>180.997701</ele>
        <time>2022-08-08T10:15:03.803Z</time>
      </trkpt>
      <trkpt lat="43.68807" lon="1.4257">
        <ele>180.907182</ele>
        <time>2022-08-08T10:15:05.792Z</time>
      </trkpt>
      <trkpt lat="43.68797" lon="1.42564">
        <ele>180.820942</ele>
        <time>2022-08-08T10:15:07.802Z</time>
      </trkpt>
      <trkpt lat="43.68786" lon="1.42562">
        <ele>180.728055</ele>
        <time>2022-08-08T10:15:09.791Z</time>
      </trkpt>
      <trkpt lat="43.68774" lon="1.42561">
        <ele>180.634501</ele>
        <time>2022-08-08T10:15:11.815Z</time>
      </trkpt>
      <trkpt lat="43.68762" lon="1.42559">
        <ele>180.541052</ele>
        <time>2022-08-08T10:15:13.831Z</time>
      </trkpt>
      <trkpt lat="43.6875" lon="1.42558">
        <ele>180.60367</ele>
        <time>2022-08-08T10:15:15.807Z</time>
      </trkpt>
      <trkpt lat="43.68738" lon="1.42559">
        <ele>180.673102</ele>
        <time>2022-08-08T10:15:17.811Z</time>
      </trkpt>
      <trkpt lat="43.68727" lon="1.42564">
        <ele>180.742755</ele>
        <time>2022-08-08T10:15:19.801Z</time>
      </trkpt>
      <trkpt lat="43.68717" lon="1.42573">
        <ele>180.812341</ele>
        <time>2022-08-08T10:15:21.818Z</time>
      </trkpt>
      <trkpt lat="43.68707" lon="1.42582">
        <ele>180.880709</ele>
        <time>2022-08-08T10:15:23.806Z</time>
      </trkpt>
      <trkpt lat="43.68696" lon="1.42587">
        <ele>180.949235</ele>
        <time>2022-08-08T10:15:25.817Z</time>
      </trkpt>
      <trkpt lat="43.68684" lon="1.42592">
        <ele>181.019447</ele>
        <time>2022-08-08T10:15:27.813Z</time>
      </trkpt>
      <trkpt lat="43.68674" lon="1.42599">
        <ele>181.088939</ele>
        <time>2022-08-08T10:15:29.806Z</time>
      </trkpt>
      <trkpt lat="43.68664" lon="1.42609">
        <ele>181.159612</ele>
        <time>2022-08-08T10:15:31.805Z</time>
      </trkpt>
      <trkpt lat="43.68656" lon="1.42621">
        <ele>181.22807</ele>
        <time>2022-08-08T10:15:33.804Z</time>
      </trkpt>
      <trkpt lat="43.68648" lon="1.42632">
        <ele>181.296279</ele>
        <time>2022-08-08T10:15:35.808Z</time>
      </trkpt>
      <trkpt lat="43.68639" lon="1.42643">
        <ele>181.365199</ele>
        <time>2022-08-08T10:15:37.814Z</time>
      </trkpt>
      <trkpt lat="43.6863" lon="1.42654">
        <ele>181.435877</ele>
        <time>2022-08-08T10:15:39.806Z</time>
      </trkpt>
      <trkpt lat="43.68621" lon="1.42664">
        <ele>181.505762</ele>
        <time>2022-08-08T10:15:41.793Z</time>
      </trkpt>
      <trkpt lat="43.68612" lon="1.42675">
        <ele>181.57534</ele>
        <time>2022-08-08T10:15:43.803Z</time>
      </trkpt>
      <trkpt lat="43.68603" lon="1.42686">
        <ele>181.613762</ele>
        <time>2022-08-08T10:15:45.810Z</time>
      </trkpt>
      <trkpt lat="43.68594" lon="1.42697">
        <ele>181.641686</ele>
        <time>2022-08-08T10:15:47.804Z</time>
      </trkpt>
      <trkpt lat="43.68586" lon="1.42709">
        <ele>181.669778</ele>
        <time>2022-08-08T10:15:49.802Z</time>
      </trkpt>
      <trkpt lat="43.68577" lon="1.4272">
        <ele>181.697446</ele>
        <time>2022-08-08T10:15:51.808Z</time>
      </trkpt>
      <trkpt lat="43.68569" lon="1.4273">
        <ele>181.72424</ele>
        <time>2022-08-08T10:15:53.796Z</time>
      </trkpt>
      <trkpt lat="43.68561" lon="1.42741">
        <ele>181.75162</ele>
        <time>2022-08-08T10:15:55.800Z</time>
      </trkpt>
      <trkpt lat="43.68552" lon="1.42752">
        <ele>181.779928</ele>
        <time>2022-08-08T10:15:57.801Z</time>
      </trkpt>
      <trkpt lat="43.68543" lon="1.42762">
        <ele>181.807107</ele>
        <time>2022-08-08T10:15:59.807Z</time>
      </trkpt>
      <trkpt lat="43.68533" lon="1.42772">
        <ele>181.835466</ele>
        <time>2022-08-08T10:16:01.792Z</time>
      </trkpt>
      <trkpt lat="43.68524" lon="1.42782">
        <ele>181.863916</ele>
        <time>2022-08-08T10:16:03.811Z</time>
      </trkpt>
      <trkpt lat="43.68514" lon="1.42792">
        <ele>181.89248</ele>
        <time>2022-08-08T10:16:05.815Z</time>
      </trkpt>
      <trkpt lat="43.68505" lon="1.42801">
        <ele>181.919494</ele>
        <time>2022-08-08T10:16:07.806Z</time>
      </trkpt>
      <trkpt lat="43.68496" lon="1.42812">
        <ele>181.947117</ele>
        <time>2022-08-08T10:16:09.804Z</time>
      </trkpt>
      <trkpt lat="43.68487" lon="1.42822">
        <ele>181.974967</ele>
        <time>2022-08-08T10:16:11.817Z</time>
      </trkpt>
      <trkpt lat="43.68477" lon="1.42831">
        <ele>182.004792</ele>
        <time>2022-08-08T10:16:13.813Z</time>
      </trkpt>
      <trkpt lat="43.68466" lon="1.42838">
        <ele>182.019194</ele>
        <time>2022-08-08T10:16:15.821Z</time>
      </trkpt>
      <trkpt lat="43.68456" lon="1.42847">
        <ele>182.019159</ele>
        <time>2022-08-08T10:16:17.800Z</time>
      </trkpt>
      <trkpt lat="43.68446" lon="1.42857">
        <ele>182.019124</ele>
        <time>2022-08-08T10:16:19.811Z</time>
      </trkpt>
      <trkpt lat="43.68437" lon="1.42869">
        <ele>182.019088</ele>
        <time>2022-08-08T10:16:21.809Z</time>
      </trkpt>
      <trkpt lat="43.68428" lon="1.42879">
        <ele>182.019053</ele>
        <time>2022-08-08T10:16:23.817Z</time>
      </trkpt>
      <trkpt lat="43.68419" lon="1.4289">
        <ele>182.019019</ele>
        <time>2022-08-08T10:16:25.803Z</time>
      </trkpt>
      <trkpt lat="43.6841" lon="1.429">
        <ele>182.018985</ele>
        <time>2022-08-08T10:16:27.809Z</time>
      </trkpt>
      <trkpt lat="43.68401" lon="1.4291">
        <ele>182.01895</ele>
        <time>2022-08-08T10:16:29.804Z</time>
      </trkpt>
      <trkpt lat="43.68392" lon="1.42921">
        <ele>182.018915</ele>
        <time>2022-08-08T10:16:31.792Z</time>
      </trkpt>
      <trkpt lat="43.68383" lon="1.42932">
        <ele>182.018879</ele>
        <time>2022-08-08T10:16:33.798Z</time>
      </trkpt>
      <trkpt lat="43.68374" lon="1.42943">
        <ele>182.018844</ele>
        <time>2022-08-08T10:16:35.810Z</time>
      </trkpt>
      <trkpt lat="43.68364" lon="1.42954">
        <ele>182.018809</ele>
        <time>2022-08-08T10:16:37.798Z</time>
      </trkpt>
      <trkpt lat="43.68355" lon="1.42965">
        <ele>182.018774</ele>
        <time>2022-08-08T10:16:39.802Z</time>
      </trkpt>
      <trkpt lat="43.68346" lon="1.42975">
        <ele>182.018738</ele>
        <time>2022-08-08T10:16:41.820Z</time>
      </trkpt>
      <trkpt lat="43.68337" lon="1.42985">
        <ele>182.018704</ele>
        <time>2022-08-08T10:16:43.811Z</time>
      </trkpt>
      <trkpt lat="43.68328" lon="1.42996">
        <ele>182.036854</ele>
        <time>2022-08-08T10:16:45.808Z</time>
      </trkpt>
      <trkpt lat="43.68318" lon="1.43006">
        <ele>182.077817</ele>
        <time>2022-08-08T10:16:47.806Z</time>
      </trkpt>
      <trkpt lat="43.6831" lon="1.43017">
        <ele>182.118413</ele>
        <time>2022-08-08T10:16:49.798Z</time>
      </trkpt>
      <trkpt lat="43.68301" lon="1.43028">
        <ele>182.160041</ele>
        <time>2022-08-08T10:16:51.811Z</time>
      </trkpt>
      <trkpt lat="43.68291" lon="1.43035">
        <ele>182.199068</ele>
        <time>2022-08-08T10:16:53.813Z</time>
      </trkpt>
      <trkpt lat="43.68284" lon="1.43048">
        <ele>182.240182</ele>
        <time>2022-08-08T10:16:55.796Z</time>
      </trkpt>
      <trkpt lat="43.68275" lon="1.43059">
        <ele>182.28019</ele>
        <time>2022-08-08T10:16:57.805Z</time>
      </trkpt>
      <trkpt lat="43.68266" lon="1.43067">
        <ele>182.318144</ele>
        <time>2022-08-08T10:16:59.808Z</time>
      </trkpt>
      <trkpt lat="43.68259" lon="1.43077">
        <ele>182.35209</ele>
        <time>2022-08-08T10:17:01.807Z</time>
      </trkpt>
      <trkpt lat="43.68252" lon="1.43091">
        <ele>182.395432</ele>
        <time>2022-08-08T10:17:03.804Z</time>
      </trkpt>
      <trkpt lat="43.68243" lon="1.43104">
        <ele>182.439342</ele>
        <time>2022-08-08T10:17:05.823Z</time>
      </trkpt>
      <trkpt lat="43.68234" lon="1.43115">
        <ele>182.480938</ele>
        <time>2022-08-08T10:17:07.808Z</time>
      </trkpt>
      <trkpt lat="43.68225" lon="1.43125">
        <ele>182.521424</ele>
        <time>2022-08-08T10:17:09.804Z</time>
      </trkpt>
      <trkpt lat="43.68216" lon="1.43136">
        <ele>182.561832</ele>
        <time>2022-08-08T10:17:11.806Z</time>
      </trkpt>
      <trkpt lat="43.68207" lon="1.43148">
        <ele>182.604102</ele>
        <time>2022-08-08T10:17:13.803Z</time>
      </trkpt>
      <trkpt lat="43.68198" lon="1.43158">
        <ele>182.643269</ele>
        <time>2022-08-08T10:17:15.813Z</time>
      </trkpt>
      <trkpt lat="43.68188" lon="1.4317">
        <ele>182.664378</ele>
        <time>2022-08-08T10:17:17.801Z</time>
      </trkpt>
      <trkpt lat="43.6818" lon="1.43182">
        <ele>182.685013</ele>
        <time>2022-08-08T10:17:19.809Z</time>
      </trkpt>
      <trkpt lat="43.68171" lon="1.43195">
        <ele>182.705585</ele>
        <time>2022-08-08T10:17:21.818Z</time>
      </trkpt>
      <trkpt lat="43.68162" lon="1.43206">
        <ele>182.72539</ele>
        <time>2022-08-08T10:17:23.806Z</time>
      </trkpt>
      <trkpt lat="43.68154" lon="1.43217">
        <ele>182.744588</ele>
        <time>2022-08-08T10:17:25.806Z</time>
      </trkpt>
      <trkpt lat="43.68145" lon="1.43228">
        <ele>182.764271</ele>
        <time>2022-08-08T10:17:27.805Z</time>
      </trkpt>
      <trkpt lat="43.68136" lon="1.43239">
        <ele>182.783995</ele>
        <time>2022-08-08T10:17:29.810Z</time>
      </trkpt>
      <trkpt lat="43.68127" lon="1.43249">
        <ele>182.80342</ele>
        <time>2022-08-08T10:17:31.806Z</time>
      </trkpt>
      <trkpt lat="43.68119" lon="1.4326">
        <ele>182.822166</ele>
        <time>2022-08-08T10:17:33.809Z</time>
      </trkpt>
      <trkpt lat="43.68111" lon="1.43271">
        <ele>182.842142</ele>
        <time>2022-08-08T10:17:35.803Z</time>
      </trkpt>
      <trkpt lat="43.68104" lon="1.43283">
        <ele>182.860415</ele>
        <time>2022-08-08T10:17:37.819Z</time>
      </trkpt>
      <trkpt lat="43.68096" lon="1.43296">
        <ele>182.880131</ele>
        <time>2022-08-08T10:17:39.800Z</time>
      </trkpt>
      <trkpt lat="43.68088" lon="1.43307">
        <ele>182.898453</ele>
        <time>2022-08-08T10:17:41.805Z</time>
      </trkpt>
      <trkpt lat="43.6808" lon="1.43318">
        <ele>182.917382</ele>
        <time>2022-08-08T10:17:43.812Z</time>
      </trkpt>
      <trkpt lat="43.68074" lon="1.4333">
        <ele>182.935225</ele>
        <time>2022-08-08T10:17:45.812Z</time>
      </trkpt>
      <trkpt lat="43.68067" lon="1.43342">
        <ele>182.955553</ele>
        <time>2022-08-08T10:17:47.801Z</time>
      </trkpt>
      <trkpt lat="43.6806" lon="1.43356">
        <ele>182.977078</ele>
        <time>2022-08-08T10:17:49.822Z</time>
      </trkpt>
      <trkpt lat="43.68062" lon="1.43372">
        <ele>182.998251</ele>
        <time>2022-08-08T10:17:51.805Z</time>
      </trkpt>
      <trkpt lat="43.68061" lon="1.43386">
        <ele>183.017802</ele>
        <time>2022-08-08T10:17:53.810Z</time>
      </trkpt>
      <trkpt lat="43.68052" lon="1.43396">
        <ele>183.038641</ele>
        <time>2022-08-08T10:17:57.798Z</time>
      </trkpt>
      <trkpt lat="43.68042" lon="1.43403">
        <ele>183.058513</ele>
        <time>2022-08-08T10:17:59.808Z</time>
      </trkpt>
      <trkpt lat="43.6803" lon="1.43413">
        <ele>183.083368</ele>
        <time>2022-08-08T10:18:01.805Z</time>
      </trkpt>
      <trkpt lat="43.68019" lon="1.43421">
        <ele>183.105902</ele>
        <time>2022-08-08T10:18:03.819Z</time>
      </trkpt>
      <trkpt lat="43.68011" lon="1.43431">
        <ele>183.126218</ele>
        <time>2022-08-08T10:18:05.810Z</time>
      </trkpt>
      <trkpt lat="43.68003" lon="1.43442">
        <ele>183.146433</ele>
        <time>2022-08-08T10:18:07.815Z</time>
      </trkpt>
      <trkpt lat="43.67996" lon="1.43457">
        <ele>183.169569</ele>
        <time>2022-08-08T10:18:09.796Z</time>
      </trkpt>
      <trkpt lat="43.67987" lon="1.43468">
        <ele>183.191105</ele>
        <time>2022-08-08T10:18:11.804Z</time>
      </trkpt>
      <trkpt lat="43.67978" lon="1.4348">
        <ele>183.213174</ele>
        <time>2022-08-08T10:18:13.816Z</time>
      </trkpt>
      <trkpt lat="43.6797" lon="1.43491">
        <ele>183.234272</ele>
        <time>2022-08-08T10:18:15.804Z</time>
      </trkpt>
      <trkpt lat="43.67961" lon="1.43502">
        <ele>183.255204</ele>
        <time>2022-08-08T10:18:17.819Z</time>
      </trkpt>
      <trkpt lat="43.67953" lon="1.43514">
        <ele>183.252443</ele>
        <time>2022-08-08T10:18:19.826Z</time>
      </trkpt>
      <trkpt lat="43.67945" lon="1.43526">
        <ele>183.229306</ele>
        <time>2022-08-08T10:18:21.803Z</time>
      </trkpt>
      <trkpt lat="43.67938" lon="1.43539">
        <ele>183.206197</ele>
        <time>2022-08-08T10:18:23.802Z</time>
      </trkpt>
      <trkpt lat="43.6793" lon="1.43551">
        <ele>183.183698</ele>
        <time>2022-08-08T10:18:25.800Z</time>
      </trkpt>
      <trkpt lat="43.67922" lon="1.43563">
        <ele>183.161716</ele>
        <time>2022-08-08T10:18:27.821Z</time>
      </trkpt>
      <trkpt lat="43.67915" lon="1.43575">
        <ele>183.140151</ele>
        <time>2022-08-08T10:18:29.824Z</time>
      </trkpt>
      <trkpt lat="43.67907" lon="1.43588">
        <ele>183.117421</ele>
        <time>2022-08-08T10:18:31.805Z</time>
      </trkpt>
      <trkpt lat="43.67899" lon="1.43599">
        <ele>183.094619</ele>
        <time>2022-08-08T10:18:33.826Z</time>
      </trkpt>
      <trkpt lat="43.67891" lon="1.43611">
        <ele>183.071971</ele>
        <time>2022-08-08T10:18:35.809Z</time>
      </trkpt>
      <trkpt lat="43.67881" lon="1.43618">
        <ele>183.05055</ele>
        <time>2022-08-08T10:18:37.806Z</time>
      </trkpt>
      <trkpt lat="43.67872" lon="1.43627">
        <ele>183.029313</ele>
        <time>2022-08-08T10:18:39.803Z</time>
      </trkpt>
      <trkpt lat="43.67863" lon="1.43637">
        <ele>183.00775</ele>
        <time>2022-08-08T10:18:41.811Z</time>
      </trkpt>
      <trkpt lat="43.67855" lon="1.43647">
        <ele>182.986471</ele>
        <time>2022-08-08T10:18:43.826Z</time>
      </trkpt>
      <trkpt lat="43.67847" lon="1.43659">
        <ele>182.964698</ele>
        <time>2022-08-08T10:18:45.805Z</time>
      </trkpt>
      <trkpt lat="43.67838" lon="1.4367">
        <ele>182.941825</ele>
        <time>2022-08-08T10:18:47.820Z</time>
      </trkpt>
      <trkpt lat="43.6783" lon="1.4368">
        <ele>182.922311</ele>
        <time>2022-08-08T10:18:49.801Z</time>
      </trkpt>
      <trkpt lat="43.67821" lon="1.43692">
        <ele>182.962201</ele>
        <time>2022-08-08T10:18:51.805Z</time>
      </trkpt>
      <trkpt lat="43.67812" lon="1.43704">
        <ele>183.003054</ele>
        <time>2022-08-08T10:18:53.825Z</time>
      </trkpt>
      <trkpt lat="43.67804" lon="1.43714">
        <ele>183.042016</ele>
        <time>2022-08-08T10:18:55.794Z</time>
      </trkpt>
      <trkpt lat="43.67796" lon="1.43725">
        <ele>183.080744</ele>
        <time>2022-08-08T10:18:57.810Z</time>
      </trkpt>
      <trkpt lat="43.67787" lon="1.43736">
        <ele>183.119431</ele>
        <time>2022-08-08T10:18:59.803Z</time>
      </trkpt>
      <trkpt lat="43.67779" lon="1.43747">
        <ele>183.15844</ele>
        <time>2022-08-08T10:19:01.818Z</time>
      </trkpt>
      <trkpt lat="43.6777" lon="1.43757">
        <ele>183.196219</ele>
        <time>2022-08-08T10:19:03.809Z</time>
      </trkpt>
      <trkpt lat="43.6776" lon="1.43766">
        <ele>183.236029</ele>
        <time>2022-08-08T10:19:05.802Z</time>
      </trkpt>
      <trkpt lat="43.67749" lon="1.43772">
        <ele>183.274917</ele>
        <time>2022-08-08T10:19:07.804Z</time>
      </trkpt>
      <trkpt lat="43.67739" lon="1.43778">
        <ele>183.313572</ele>
        <time>2022-08-08T10:19:09.795Z</time>
      </trkpt>
      <trkpt lat="43.67727" lon="1.43785">
        <ele>183.35487</ele>
        <time>2022-08-08T10:19:11.808Z</time>
      </trkpt>
      <trkpt lat="43.67718" lon="1.43793">
        <ele>183.391259</ele>
        <time>2022-08-08T10:19:13.811Z</time>
      </trkpt>
      <trkpt lat="43.6771" lon="1.43802">
        <ele>183.426774</ele>
        <time>2022-08-08T10:19:15.801Z</time>
      </trkpt>
      <trkpt lat="43.677" lon="1.4381">
        <ele>183.466216</ele>
        <time>2022-08-08T10:19:18.802Z</time>
      </trkpt>
      <trkpt lat="43.67691" lon="1.43819">
        <ele>183.501192</ele>
        <time>2022-08-08T10:19:22.811Z</time>
      </trkpt>
      <trkpt lat="43.67682" lon="1.43828">
        <ele>183.542052</ele>
        <time>2022-08-08T10:19:25.801Z</time>
      </trkpt>
      <trkpt lat="43.67671" lon="1.43835">
        <ele>183.596852</ele>
        <time>2022-08-08T10:19:28.805Z</time>
      </trkpt>
      <trkpt lat="43.67662" lon="1.43841">
        <ele>183.637881</ele>
        <time>2022-08-08T10:19:30.798Z</time>
      </trkpt>
      <trkpt lat="43.67655" lon="1.43849">
        <ele>183.681355</ele>
        <time>2022-08-08T10:19:33.806Z</time>
      </trkpt>
      <trkpt lat="43.67646" lon="1.43857">
        <ele>183.727027</ele>
        <time>2022-08-08T10:19:37.813Z</time>
      </trkpt>
      <trkpt lat="43.67634" lon="1.43865">
        <ele>183.784871</ele>
        <time>2022-08-08T10:19:40.811Z</time>
      </trkpt>
      <trkpt lat="43.67626" lon="1.43872">
        <ele>183.827805</ele>
        <time>2022-08-08T10:19:42.802Z</time>
      </trkpt>
      <trkpt lat="43.67617" lon="1.43879">
        <ele>183.87118</ele>
        <time>2022-08-08T10:19:46.790Z</time>
      </trkpt>
      <trkpt lat="43.67608" lon="1.43881">
        <ele>183.912153</ele>
        <time>2022-08-08T10:19:49.816Z</time>
      </trkpt>
      <trkpt lat="43.67597" lon="1.43887">
        <ele>183.961793</ele>
        <time>2022-08-08T10:19:52.804Z</time>
      </trkpt>
      <trkpt lat="43.67589" lon="1.43897">
        <ele>184.011255</ele>
        <time>2022-08-08T10:19:55.795Z</time>
      </trkpt>
      <trkpt lat="43.67581" lon="1.43909">
        <ele>184.061744</ele>
        <time>2022-08-08T10:19:58.796Z</time>
      </trkpt>
      <trkpt lat="43.67576" lon="1.43919">
        <ele>184.101974</ele>
        <time>2022-08-08T10:20:00.795Z</time>
      </trkpt>
      <trkpt lat="43.67568" lon="1.43932">
        <ele>184.154556</ele>
        <time>2022-08-08T10:20:02.826Z</time>
      </trkpt>
      <trkpt lat="43.67562" lon="1.43946">
        <ele>184.206508</ele>
        <time>2022-08-08T10:20:04.813Z</time>
      </trkpt>
      <trkpt lat="43.67556" lon="1.4396">
        <ele>184.259453</ele>
        <time>2022-08-08T10:20:06.809Z</time>
      </trkpt>
      <trkpt lat="43.6755" lon="1.43973">
        <ele>184.306628</ele>
        <time>2022-08-08T10:20:08.815Z</time>
      </trkpt>
      <trkpt lat="43.67544" lon="1.43986">
        <ele>184.299286</ele>
        <time>2022-08-08T10:20:10.805Z</time>
      </trkpt>
      <trkpt lat="43.67539" lon="1.43998">
        <ele>184.286713</ele>
        <time>2022-08-08T10:20:12.820Z</time>
      </trkpt>
      <trkpt lat="43.67534" lon="1.44012">
        <ele>184.272961</ele>
        <time>2022-08-08T10:20:14.799Z</time>
      </trkpt>
      <trkpt lat="43.67531" lon="1.44026">
        <ele>184.26019</ele>
        <time>2022-08-08T10:20:16.814Z</time>
      </trkpt>
      <trkpt lat="43.67525" lon="1.44039">
        <ele>184.246877</ele>
        <time>2022-08-08T10:20:18.802Z</time>
      </trkpt>
      <trkpt lat="43.67519" lon="1.44052">
        <ele>184.233007</ele>
        <time>2022-08-08T10:20:20.793Z</time>
      </trkpt>
      <trkpt lat="43.67515" lon="1.44067">
        <ele>184.218874</ele>
        <time>2022-08-08T10:20:22.807Z</time>
      </trkpt>
      <trkpt lat="43.6751" lon="1.44082">
        <ele>184.204742</ele>
        <time>2022-08-08T10:20:24.791Z</time>
      </trkpt>
      <trkpt lat="43.67506" lon="1.44097">
        <ele>184.190495</ele>
        <time>2022-08-08T10:20:26.809Z</time>
      </trkpt>
      <trkpt lat="43.67501" lon="1.44111">
        <ele>184.176309</ele>
        <time>2022-08-08T10:20:28.798Z</time>
      </trkpt>
      <trkpt lat="43.67496" lon="1.44127">
        <ele>184.16182</ele>
        <time>2022-08-08T10:20:30.794Z</time>
      </trkpt>
      <trkpt lat="43.67492" lon="1.44141">
        <ele>184.147635</ele>
        <time>2022-08-08T10:20:32.808Z</time>
      </trkpt>
      <trkpt lat="43.67488" lon="1.44156">
        <ele>184.133577</ele>
        <time>2022-08-08T10:20:34.798Z</time>
      </trkpt>
      <trkpt lat="43.67484" lon="1.44171">
        <ele>184.119564</ele>
        <time>2022-08-08T10:20:36.799Z</time>
      </trkpt>
      <trkpt lat="43.6748" lon="1.44186">
        <ele>184.10584</ele>
        <time>2022-08-08T10:20:38.809Z</time>
      </trkpt>
      <trkpt lat="43.67477" lon="1.44201">
        <ele>184.092618</ele>
        <time>2022-08-08T10:20:40.805Z</time>
      </trkpt>
      <trkpt lat="43.67474" lon="1.44216">
        <ele>184.136201</ele>
        <time>2022-08-08T10:20:42.792Z</time>
      </trkpt>
      <trkpt lat="43.67471" lon="1.44231">
        <ele>184.180052</ele>
        <time>2022-08-08T10:20:44.813Z</time>
      </trkpt>
      <trkpt lat="43.67468" lon="1.44246">
        <ele>184.223534</ele>
        <time>2022-08-08T10:20:46.811Z</time>
      </trkpt>
      <trkpt lat="43.67465" lon="1.44262">
        <ele>184.267594</ele>
        <time>2022-08-08T10:20:48.801Z</time>
      </trkpt>
      <trkpt lat="43.67462" lon="1.44277">
        <ele>184.310885</ele>
        <time>2022-08-08T10:20:50.799Z</time>
      </trkpt>
      <trkpt lat="43.67461" lon="1.44292">
        <ele>184.353087</ele>
        <time>2022-08-08T10:20:52.815Z</time>
      </trkpt>
      <trkpt lat="43.6746" lon="1.44307">
        <ele>184.39588</ele>
        <time>2022-08-08T10:20:54.814Z</time>
      </trkpt>
      <trkpt lat="43.67459" lon="1.44322">
        <ele>184.438118</ele>
        <time>2022-08-08T10:20:56.810Z</time>
      </trkpt>
      <trkpt lat="43.67458" lon="1.44338">
        <ele>184.481504</ele>
        <time>2022-08-08T10:20:58.791Z</time>
      </trkpt>
      <trkpt lat="43.67456" lon="1.44353">
        <ele>184.525028</ele>
        <time>2022-08-08T10:21:00.818Z</time>
      </trkpt>
      <trkpt lat="43.67455" lon="1.44369">
        <ele>184.569482</ele>
        <time>2022-08-08T10:21:02.810Z</time>
      </trkpt>
      <trkpt lat="43.67454" lon="1.44385">
        <ele>184.614928</ele>
        <time>2022-08-08T10:21:04.827Z</time>
      </trkpt>
      <trkpt lat="43.67454" lon="1.44402">
        <ele>184.66032</ele>
        <time>2022-08-08T10:21:06.799Z</time>
      </trkpt>
      <trkpt lat="43.67453" lon="1.44417">
        <ele>184.704355</ele>
        <time>2022-08-08T10:21:08.808Z</time>
      </trkpt>
      <trkpt lat="43.67453" lon="1.44434">
        <ele>184.751694</ele>
        <time>2022-08-08T10:21:10.793Z</time>
      </trkpt>
      <trkpt lat="43.67452" lon="1.44451">
        <ele>184.795321</ele>
        <time>2022-08-08T10:21:12.814Z</time>
      </trkpt>
      <trkpt lat="43.67451" lon="1.44467">
        <ele>184.835276</ele>
        <time>2022-08-08T10:21:14.801Z</time>
      </trkpt>
      <trkpt lat="43.67451" lon="1.44484">
        <ele>184.875142</ele>
        <time>2022-08-08T10:21:16.809Z</time>
      </trkpt>
      <trkpt lat="43.6745" lon="1.44501">
        <ele>184.91477</ele>
        <time>2022-08-08T10:21:18.806Z</time>
      </trkpt>
      <trkpt lat="43.6745" lon="1.44517">
        <ele>184.953911</ele>
        <time>2022-08-08T10:21:20.798Z</time>
      </trkpt>
      <trkpt lat="43.67449" lon="1.44534">
        <ele>184.993628</ele>
        <time>2022-08-08T10:21:22.826Z</time>
      </trkpt>
      <trkpt lat="43.67449" lon="1.44551">
        <ele>185.033778</ele>
        <time>2022-08-08T10:21:24.819Z</time>
      </trkpt>
      <trkpt lat="43.67448" lon="1.44567">
        <ele>185.074186</ele>
        <time>2022-08-08T10:21:26.803Z</time>
      </trkpt>
      <trkpt lat="43.67447" lon="1.44585">
        <ele>185.115118</ele>
        <time>2022-08-08T10:21:28.811Z</time>
      </trkpt>
      <trkpt lat="43.67446" lon="1.44601">
        <ele>185.155634</ele>
        <time>2022-08-08T10:21:30.819Z</time>
      </trkpt>
      <trkpt lat="43.67444" lon="1.44618">
        <ele>185.19555</ele>
        <time>2022-08-08T10:21:32.809Z</time>
      </trkpt>
      <trkpt lat="43.67442" lon="1.44632">
        <ele>185.228753</ele>
        <time>2022-08-08T10:21:34.790Z</time>
      </trkpt>
      <trkpt lat="43.67439" lon="1.44645">
        <ele>185.260756</ele>
        <time>2022-08-08T10:21:37.814Z</time>
      </trkpt>
      <trkpt lat="43.67439" lon="1.4466">
        <ele>185.298694</ele>
        <time>2022-08-08T10:21:42.810Z</time>
      </trkpt>
      <trkpt lat="43.67444" lon="1.44675">
        <ele>185.337347</ele>
        <time>2022-08-08T10:21:46.806Z</time>
      </trkpt>
      <trkpt lat="43.67444" lon="1.44691">
        <ele>185.374113</ele>
        <time>2022-08-08T10:21:49.804Z</time>
      </trkpt>
      <trkpt lat="43.67446" lon="1.44709">
        <ele>185.418845</ele>
        <time>2022-08-08T10:21:52.798Z</time>
      </trkpt>
      <trkpt lat="43.67447" lon="1.44722">
        <ele>185.451094</ele>
        <time>2022-08-08T10:21:54.813Z</time>
      </trkpt>
      <trkpt lat="43.67448" lon="1.44734">
        <ele>185.482848</ele>
        <time>2022-08-08T10:21:57.811Z</time>
      </trkpt>
      <trkpt lat="43.6745" lon="1.44747">
        <ele>185.514462</ele>
        <time>2022-08-08T10:22:01.820Z</time>
      </trkpt>
      <trkpt lat="43.67451" lon="1.44763">
        <ele>185.554526</ele>
        <time>2022-08-08T10:22:05.805Z</time>
      </trkpt>
      <trkpt lat="43.67455" lon="1.44775">
        <ele>185.589318</ele>
        <time>2022-08-08T10:22:08.804Z</time>
      </trkpt>
      <trkpt lat="43.67455" lon="1.44792">
        <ele>185.629682</ele>
        <time>2022-08-08T10:22:11.822Z</time>
      </trkpt>
      <trkpt lat="43.67456" lon="1.44807">
        <ele>185.667028</ele>
        <time>2022-08-08T10:22:13.826Z</time>
      </trkpt>
      <trkpt lat="43.67458" lon="1.44822">
        <ele>185.706822</ele>
        <time>2022-08-08T10:22:15.813Z</time>
      </trkpt>
      <trkpt lat="43.67459" lon="1.44839">
        <ele>185.747558</ele>
        <time>2022-08-08T10:22:17.800Z</time>
      </trkpt>
      <trkpt lat="43.67462" lon="1.44855">
        <ele>185.788845</ele>
        <time>2022-08-08T10:22:19.801Z</time>
      </trkpt>
      <trkpt lat="43.67466" lon="1.44871">
        <ele>185.830644</ele>
        <time>2022-08-08T10:22:21.808Z</time>
      </trkpt>
      <trkpt lat="43.6747" lon="1.44886">
        <ele>185.87183</ele>
        <time>2022-08-08T10:22:23.798Z</time>
      </trkpt>
      <trkpt lat="43.67474" lon="1.44902">
        <ele>185.912902</ele>
        <time>2022-08-08T10:22:25.797Z</time>
      </trkpt>
      <trkpt lat="43.67478" lon="1.44918">
        <ele>185.954445</ele>
        <time>2022-08-08T10:22:27.810Z</time>
      </trkpt>
      <trkpt lat="43.67482" lon="1.44933">
        <ele>185.995631</ele>
        <time>2022-08-08T10:22:29.824Z</time>
      </trkpt>
      <trkpt lat="43.67486" lon="1.44949">
        <ele>186.020193</ele>
        <time>2022-08-08T10:22:31.800Z</time>
      </trkpt>
      <trkpt lat="43.67491" lon="1.44964">
        <ele>186.04435</ele>
        <time>2022-08-08T10:22:33.804Z</time>
      </trkpt>
      <trkpt lat="43.67496" lon="1.44978">
        <ele>186.068228</ele>
        <time>2022-08-08T10:22:35.805Z</time>
      </trkpt>
      <trkpt lat="43.67501" lon="1.44993">
        <ele>186.091949</ele>
        <time>2022-08-08T10:22:37.825Z</time>
      </trkpt>
      <trkpt lat="43.67607" lon="1.45263">
        <ele>133.4</ele>
      </trkpt>
      <trkpt lat="43.67611" lon="1.45306">
        <ele>134</ele>
        <time>2022-08-08T10:22:39.798Z</time>
      </trkpt>
    </trkseg>
  </trk>
</gpx>